<?xml version="1.0" encoding="UTF-8" standalone="no" ?>
<gpx xmlns="http://www.topografix.com/GPX/1/1" xmlns:xsi="http://www.w3.org/2001/XMLSchema-instance" xsi:schemaLocation="http://www.topografix.com/GPX/1/1 http://www.topografix.com/GPX/1/1/gpx.xsd" version="1.1" creator="VisuGPX - https://www.visugpx.com">
  <metadata>
    <name>S3C J2 Hautacam Luz</name>
    <desc><![CDATA[WE Pyrenee S3C Phase 1 Hautacam plus Luz Ardiden.
#Route
#S3C
#Pyrenees]]></desc>
  </metadata>
  <trk>
    <name><![CDATA[P1_J2_Hautacam_Luz]]></name>
    <trkseg>
      <trkpt lat="42.97248" lon="-0.19621">
        <ele>870</ele>
        <time>2018-06-20T21:52:05Z</time>
      </trkpt>
      <trkpt lat="42.97264" lon="-0.19589">
        <ele>871</ele>
        <time>2018-06-20T21:54:05Z</time>
      </trkpt>
      <trkpt lat="42.9725" lon="-0.19505">
        <ele>866</ele>
        <time>2018-06-20T21:58:05Z</time>
      </trkpt>
      <trkpt lat="42.9725" lon="-0.19505">
        <ele>866</ele>
        <time>2018-06-20T21:59:05Z</time>
      </trkpt>
      <trkpt lat="42.97276" lon="-0.19456">
        <ele>869</ele>
        <time>2018-06-20T22:03:05Z</time>
      </trkpt>
      <trkpt lat="42.97287" lon="-0.19431">
        <ele>869</ele>
        <time>2018-06-20T22:04:05Z</time>
      </trkpt>
      <trkpt lat="42.97304" lon="-0.19356">
        <ele>871</ele>
        <time>2018-06-20T22:08:05Z</time>
      </trkpt>
      <trkpt lat="42.97332" lon="-0.19312">
        <ele>873</ele>
        <time>2018-06-20T22:14:05Z</time>
      </trkpt>
      <trkpt lat="42.97392" lon="-0.19222">
        <ele>870</ele>
        <time>2018-06-20T22:21:05Z</time>
      </trkpt>
      <trkpt lat="42.97404" lon="-0.19203">
        <ele>868</ele>
        <time>2018-06-20T22:24:05Z</time>
      </trkpt>
      <trkpt lat="42.97451" lon="-0.19092">
        <ele>866</ele>
        <time>2018-06-20T22:26:05Z</time>
      </trkpt>
      <trkpt lat="42.97459" lon="-0.19044">
        <ele>863</ele>
        <time>2018-06-20T22:30:05Z</time>
      </trkpt>
      <trkpt lat="42.9746" lon="-0.19036">
        <ele>863</ele>
        <time>2018-06-20T22:31:05Z</time>
      </trkpt>
      <trkpt lat="42.97469" lon="-0.18993">
        <ele>860</ele>
        <time>2018-06-20T22:33:05Z</time>
      </trkpt>
      <trkpt lat="42.97472" lon="-0.18981">
        <ele>860</ele>
        <time>2018-06-20T22:34:05Z</time>
      </trkpt>
      <trkpt lat="42.97481" lon="-0.18927">
        <ele>856</ele>
        <time>2018-06-20T22:38:05Z</time>
      </trkpt>
      <trkpt lat="42.97481" lon="-0.18918">
        <ele>856</ele>
        <time>2018-06-20T22:39:05Z</time>
      </trkpt>
      <trkpt lat="42.97456" lon="-0.18809">
        <ele>853</ele>
        <time>2018-06-20T22:44:05Z</time>
      </trkpt>
      <trkpt lat="42.97454" lon="-0.18803">
        <ele>853</ele>
        <time>2018-06-20T22:45:05Z</time>
      </trkpt>
      <trkpt lat="42.97471" lon="-0.1873">
        <ele>850</ele>
        <time>2018-06-20T22:56:05Z</time>
      </trkpt>
      <trkpt lat="42.97501" lon="-0.18631">
        <ele>848</ele>
        <time>2018-06-20T23:08:05Z</time>
      </trkpt>
      <trkpt lat="42.97563" lon="-0.18527">
        <ele>845</ele>
        <time>2018-06-20T23:16:05Z</time>
      </trkpt>
      <trkpt lat="42.97607" lon="-0.1839">
        <ele>847</ele>
        <time>2018-06-20T23:24:05Z</time>
      </trkpt>
      <trkpt lat="42.97613" lon="-0.18371">
        <ele>847</ele>
        <time>2018-06-20T23:25:05Z</time>
      </trkpt>
      <trkpt lat="42.97645" lon="-0.18269">
        <ele>845</ele>
        <time>2018-06-20T23:30:05Z</time>
      </trkpt>
      <trkpt lat="42.97692" lon="-0.18162">
        <ele>842</ele>
        <time>2018-06-20T23:34:05Z</time>
      </trkpt>
      <trkpt lat="42.97698" lon="-0.18147">
        <ele>842</ele>
        <time>2018-06-20T23:35:05Z</time>
      </trkpt>
      <trkpt lat="42.97746" lon="-0.1804">
        <ele>841</ele>
        <time>2018-06-20T23:41:05Z</time>
      </trkpt>
      <trkpt lat="42.97756" lon="-0.17945">
        <ele>838</ele>
        <time>2018-06-20T23:45:05Z</time>
      </trkpt>
      <trkpt lat="42.97758" lon="-0.17933">
        <ele>838</ele>
        <time>2018-06-20T23:46:05Z</time>
      </trkpt>
      <trkpt lat="42.97789" lon="-0.17771">
        <ele>838</ele>
        <time>2018-06-20T23:52:05Z</time>
      </trkpt>
      <trkpt lat="42.97803" lon="-0.17704">
        <ele>837</ele>
        <time>2018-06-20T23:58:05Z</time>
      </trkpt>
      <trkpt lat="42.97822" lon="-0.17647">
        <ele>835</ele>
        <time>2018-06-21T00:01:05Z</time>
      </trkpt>
      <trkpt lat="42.97822" lon="-0.17559">
        <ele>832</ele>
        <time>2018-06-21T00:05:05Z</time>
      </trkpt>
      <trkpt lat="42.97818" lon="-0.17468">
        <ele>830</ele>
        <time>2018-06-21T00:08:05Z</time>
      </trkpt>
      <trkpt lat="42.97822" lon="-0.17353">
        <ele>833</ele>
        <time>2018-06-21T00:11:05Z</time>
      </trkpt>
      <trkpt lat="42.97822" lon="-0.17348">
        <ele>833</ele>
        <time>2018-06-21T00:12:05Z</time>
      </trkpt>
      <trkpt lat="42.97832" lon="-0.17229">
        <ele>832</ele>
        <time>2018-06-21T00:18:05Z</time>
      </trkpt>
      <trkpt lat="42.97854" lon="-0.17178">
        <ele>830</ele>
        <time>2018-06-21T00:21:05Z</time>
      </trkpt>
      <trkpt lat="42.97877" lon="-0.1713">
        <ele>834</ele>
        <time>2018-06-21T00:23:05Z</time>
      </trkpt>
      <trkpt lat="42.9789" lon="-0.17104">
        <ele>837</ele>
        <time>2018-06-21T00:24:05Z</time>
      </trkpt>
      <trkpt lat="42.97901" lon="-0.17065">
        <ele>839</ele>
        <time>2018-06-21T00:27:05Z</time>
      </trkpt>
      <trkpt lat="42.97931" lon="-0.16941">
        <ele>842</ele>
        <time>2018-06-21T00:38:05Z</time>
      </trkpt>
      <trkpt lat="42.97946" lon="-0.16907">
        <ele>844</ele>
        <time>2018-06-21T00:41:05Z</time>
      </trkpt>
      <trkpt lat="42.97973" lon="-0.16814">
        <ele>842</ele>
        <time>2018-06-21T00:45:05Z</time>
      </trkpt>
      <trkpt lat="42.97979" lon="-0.16716">
        <ele>839</ele>
        <time>2018-06-21T00:52:05Z</time>
      </trkpt>
      <trkpt lat="42.97976" lon="-0.16676">
        <ele>839</ele>
        <time>2018-06-21T00:53:05Z</time>
      </trkpt>
      <trkpt lat="42.97968" lon="-0.16557">
        <ele>834</ele>
        <time>2018-06-21T00:58:05Z</time>
      </trkpt>
      <trkpt lat="42.97965" lon="-0.16536">
        <ele>832</ele>
        <time>2018-06-21T01:00:05Z</time>
      </trkpt>
      <trkpt lat="42.97967" lon="-0.16501">
        <ele>829</ele>
        <time>2018-06-21T01:02:05Z</time>
      </trkpt>
      <trkpt lat="42.97976" lon="-0.164">
        <ele>825</ele>
        <time>2018-06-21T01:03:05Z</time>
      </trkpt>
      <trkpt lat="42.97977" lon="-0.1639">
        <ele>825</ele>
        <time>2018-06-21T01:04:05Z</time>
      </trkpt>
      <trkpt lat="42.9796" lon="-0.16261">
        <ele>822</ele>
        <time>2018-06-21T01:09:05Z</time>
      </trkpt>
      <trkpt lat="42.97958" lon="-0.16232">
        <ele>821</ele>
        <time>2018-06-21T01:11:05Z</time>
      </trkpt>
      <trkpt lat="42.97962" lon="-0.16167">
        <ele>818</ele>
        <time>2018-06-21T01:13:05Z</time>
      </trkpt>
      <trkpt lat="42.97969" lon="-0.16063">
        <ele>814</ele>
        <time>2018-06-21T01:14:05Z</time>
      </trkpt>
      <trkpt lat="42.9797" lon="-0.16058">
        <ele>814</ele>
        <time>2018-06-21T01:15:05Z</time>
      </trkpt>
      <trkpt lat="42.97975" lon="-0.15987">
        <ele>810</ele>
        <time>2018-06-21T01:16:05Z</time>
      </trkpt>
      <trkpt lat="42.9799" lon="-0.15916">
        <ele>806</ele>
        <time>2018-06-21T01:19:05Z</time>
      </trkpt>
      <trkpt lat="42.98005" lon="-0.15853">
        <ele>802</ele>
        <time>2018-06-21T01:22:05Z</time>
      </trkpt>
      <trkpt lat="42.98015" lon="-0.15801">
        <ele>797</ele>
        <time>2018-06-21T01:23:05Z</time>
      </trkpt>
      <trkpt lat="42.98021" lon="-0.1577">
        <ele>794</ele>
        <time>2018-06-21T01:24:05Z</time>
      </trkpt>
      <trkpt lat="42.98049" lon="-0.15644">
        <ele>786</ele>
        <time>2018-06-21T01:25:05Z</time>
      </trkpt>
      <trkpt lat="42.98051" lon="-0.15633">
        <ele>786</ele>
        <time>2018-06-21T01:26:05Z</time>
      </trkpt>
      <trkpt lat="42.98081" lon="-0.15493">
        <ele>782</ele>
        <time>2018-06-21T01:27:05Z</time>
      </trkpt>
      <trkpt lat="42.9809" lon="-0.15457">
        <ele>779</ele>
        <time>2018-06-21T01:28:05Z</time>
      </trkpt>
      <trkpt lat="42.98114" lon="-0.15399">
        <ele>776</ele>
        <time>2018-06-21T01:31:05Z</time>
      </trkpt>
      <trkpt lat="42.98139" lon="-0.15356">
        <ele>776</ele>
        <time>2018-06-21T01:32:05Z</time>
      </trkpt>
      <trkpt lat="42.98218" lon="-0.15214">
        <ele>772</ele>
        <time>2018-06-21T01:36:05Z</time>
      </trkpt>
      <trkpt lat="42.98254" lon="-0.15126">
        <ele>770</ele>
        <time>2018-06-21T01:39:05Z</time>
      </trkpt>
      <trkpt lat="42.98276" lon="-0.15027">
        <ele>764</ele>
        <time>2018-06-21T01:40:05Z</time>
      </trkpt>
      <trkpt lat="42.98294" lon="-0.14959">
        <ele>762</ele>
        <time>2018-06-21T01:42:05Z</time>
      </trkpt>
      <trkpt lat="42.98341" lon="-0.14839">
        <ele>763</ele>
        <time>2018-06-21T01:46:05Z</time>
      </trkpt>
      <trkpt lat="42.98359" lon="-0.14709">
        <ele>760</ele>
        <time>2018-06-21T01:49:05Z</time>
      </trkpt>
      <trkpt lat="42.98364" lon="-0.14659">
        <ele>759</ele>
        <time>2018-06-21T01:51:05Z</time>
      </trkpt>
      <trkpt lat="42.98384" lon="-0.14587">
        <ele>762</ele>
        <time>2018-06-21T01:55:05Z</time>
      </trkpt>
      <trkpt lat="42.98438" lon="-0.14506">
        <ele>765</ele>
        <time>2018-06-21T01:57:05Z</time>
      </trkpt>
      <trkpt lat="42.98461" lon="-0.14472">
        <ele>762</ele>
        <time>2018-06-21T01:59:05Z</time>
      </trkpt>
      <trkpt lat="42.98509" lon="-0.14406">
        <ele>758</ele>
        <time>2018-06-21T02:00:05Z</time>
      </trkpt>
      <trkpt lat="42.98518" lon="-0.14392">
        <ele>758</ele>
        <time>2018-06-21T02:01:05Z</time>
      </trkpt>
      <trkpt lat="42.98552" lon="-0.14284">
        <ele>754</ele>
        <time>2018-06-21T02:04:05Z</time>
      </trkpt>
      <trkpt lat="42.98573" lon="-0.14217">
        <ele>750</ele>
        <time>2018-06-21T02:05:05Z</time>
      </trkpt>
      <trkpt lat="42.9859" lon="-0.14174">
        <ele>747</ele>
        <time>2018-06-21T02:06:05Z</time>
      </trkpt>
      <trkpt lat="42.98616" lon="-0.14117">
        <ele>749</ele>
        <time>2018-06-21T02:07:05Z</time>
      </trkpt>
      <trkpt lat="42.98654" lon="-0.14022">
        <ele>743</ele>
        <time>2018-06-21T02:09:05Z</time>
      </trkpt>
      <trkpt lat="42.98664" lon="-0.13992">
        <ele>739</ele>
        <time>2018-06-21T02:10:05Z</time>
      </trkpt>
      <trkpt lat="42.98681" lon="-0.13941">
        <ele>738</ele>
        <time>2018-06-21T02:12:05Z</time>
      </trkpt>
      <trkpt lat="42.98792" lon="-0.13672">
        <ele>733</ele>
        <time>2018-06-21T02:17:05Z</time>
      </trkpt>
      <trkpt lat="42.988" lon="-0.1365">
        <ele>733</ele>
        <time>2018-06-21T02:18:05Z</time>
      </trkpt>
      <trkpt lat="42.98824" lon="-0.13557">
        <ele>730</ele>
        <time>2018-06-21T02:21:05Z</time>
      </trkpt>
      <trkpt lat="42.98832" lon="-0.13531">
        <ele>730</ele>
        <time>2018-06-21T02:22:05Z</time>
      </trkpt>
      <trkpt lat="42.98891" lon="-0.13409">
        <ele>727</ele>
        <time>2018-06-21T02:28:05Z</time>
      </trkpt>
      <trkpt lat="42.989" lon="-0.13385">
        <ele>727</ele>
        <time>2018-06-21T02:29:05Z</time>
      </trkpt>
      <trkpt lat="42.98977" lon="-0.13261">
        <ele>725</ele>
        <time>2018-06-21T02:36:05Z</time>
      </trkpt>
      <trkpt lat="42.98998" lon="-0.13214">
        <ele>722</ele>
        <time>2018-06-21T02:40:05Z</time>
      </trkpt>
      <trkpt lat="42.98999" lon="-0.13207">
        <ele>722</ele>
        <time>2018-06-21T02:41:05Z</time>
      </trkpt>
      <trkpt lat="42.99004" lon="-0.13182">
        <ele>720</ele>
        <time>2018-06-21T02:44:05Z</time>
      </trkpt>
      <trkpt lat="42.99014" lon="-0.1315">
        <ele>717</ele>
        <time>2018-06-21T02:47:05Z</time>
      </trkpt>
      <trkpt lat="42.99022" lon="-0.13137">
        <ele>717</ele>
        <time>2018-06-21T02:48:05Z</time>
      </trkpt>
      <trkpt lat="42.99081" lon="-0.13077">
        <ele>715</ele>
        <time>2018-06-21T02:53:05Z</time>
      </trkpt>
      <trkpt lat="42.99169" lon="-0.12953">
        <ele>714</ele>
        <time>2018-06-21T02:58:05Z</time>
      </trkpt>
      <trkpt lat="42.99173" lon="-0.12943">
        <ele>714</ele>
        <time>2018-06-21T02:59:05Z</time>
      </trkpt>
      <trkpt lat="42.9918" lon="-0.12916">
        <ele>712</ele>
        <time>2018-06-21T03:02:05Z</time>
      </trkpt>
      <trkpt lat="42.99191" lon="-0.12845">
        <ele>705</ele>
        <time>2018-06-21T03:04:05Z</time>
      </trkpt>
      <trkpt lat="42.99199" lon="-0.12812">
        <ele>702</ele>
        <time>2018-06-21T03:06:05Z</time>
      </trkpt>
      <trkpt lat="42.99217" lon="-0.12772">
        <ele>699</ele>
        <time>2018-06-21T03:09:05Z</time>
      </trkpt>
      <trkpt lat="42.99259" lon="-0.1268">
        <ele>696</ele>
        <time>2018-06-21T03:12:05Z</time>
      </trkpt>
      <trkpt lat="42.99261" lon="-0.12672">
        <ele>696</ele>
        <time>2018-06-21T03:13:05Z</time>
      </trkpt>
      <trkpt lat="42.99273" lon="-0.12607">
        <ele>693</ele>
        <time>2018-06-21T03:16:05Z</time>
      </trkpt>
      <trkpt lat="42.99275" lon="-0.12595">
        <ele>693</ele>
        <time>2018-06-21T03:17:05Z</time>
      </trkpt>
      <trkpt lat="42.99283" lon="-0.12557">
        <ele>690</ele>
        <time>2018-06-21T03:19:05Z</time>
      </trkpt>
      <trkpt lat="42.99321" lon="-0.125">
        <ele>685</ele>
        <time>2018-06-21T03:21:05Z</time>
      </trkpt>
      <trkpt lat="42.99374" lon="-0.12425">
        <ele>678</ele>
        <time>2018-06-21T03:23:05Z</time>
      </trkpt>
      <trkpt lat="42.99427" lon="-0.1239">
        <ele>676</ele>
        <time>2018-06-21T03:26:05Z</time>
      </trkpt>
      <trkpt lat="42.99474" lon="-0.12294">
        <ele>673</ele>
        <time>2018-06-21T03:32:05Z</time>
      </trkpt>
      <trkpt lat="42.99486" lon="-0.1225">
        <ele>669</ele>
        <time>2018-06-21T03:33:05Z</time>
      </trkpt>
      <trkpt lat="42.99494" lon="-0.12217">
        <ele>665</ele>
        <time>2018-06-21T03:34:05Z</time>
      </trkpt>
      <trkpt lat="42.99504" lon="-0.12179">
        <ele>660</ele>
        <time>2018-06-21T03:35:05Z</time>
      </trkpt>
      <trkpt lat="42.99513" lon="-0.12127">
        <ele>658</ele>
        <time>2018-06-21T03:37:05Z</time>
      </trkpt>
      <trkpt lat="42.99509" lon="-0.12094">
        <ele>655</ele>
        <time>2018-06-21T03:40:05Z</time>
      </trkpt>
      <trkpt lat="42.99502" lon="-0.1207">
        <ele>651</ele>
        <time>2018-06-21T03:42:05Z</time>
      </trkpt>
      <trkpt lat="42.99489" lon="-0.12041">
        <ele>647</ele>
        <time>2018-06-21T03:44:05Z</time>
      </trkpt>
      <trkpt lat="42.99482" lon="-0.1201">
        <ele>643</ele>
        <time>2018-06-21T03:46:05Z</time>
      </trkpt>
      <trkpt lat="42.99482" lon="-0.12002">
        <ele>642</ele>
        <time>2018-06-21T03:47:05Z</time>
      </trkpt>
      <trkpt lat="42.99494" lon="-0.11919">
        <ele>638</ele>
        <time>2018-06-21T03:48:05Z</time>
      </trkpt>
      <trkpt lat="42.99498" lon="-0.11909">
        <ele>638</ele>
        <time>2018-06-21T03:49:05Z</time>
      </trkpt>
      <trkpt lat="42.99502" lon="-0.11871">
        <ele>635</ele>
        <time>2018-06-21T03:50:05Z</time>
      </trkpt>
      <trkpt lat="42.99511" lon="-0.11839">
        <ele>633</ele>
        <time>2018-06-21T03:53:05Z</time>
      </trkpt>
      <trkpt lat="42.99528" lon="-0.11807">
        <ele>630</ele>
        <time>2018-06-21T03:57:05Z</time>
      </trkpt>
      <trkpt lat="42.99539" lon="-0.11789">
        <ele>629</ele>
        <time>2018-06-21T03:59:05Z</time>
      </trkpt>
      <trkpt lat="42.99609" lon="-0.11767">
        <ele>629</ele>
        <time>2018-06-21T04:06:05Z</time>
      </trkpt>
      <trkpt lat="42.99647" lon="-0.11757">
        <ele>626</ele>
        <time>2018-06-21T04:07:05Z</time>
      </trkpt>
      <trkpt lat="42.99698" lon="-0.1174">
        <ele>621</ele>
        <time>2018-06-21T04:08:05Z</time>
      </trkpt>
      <trkpt lat="42.99733" lon="-0.11729">
        <ele>618</ele>
        <time>2018-06-21T04:09:05Z</time>
      </trkpt>
      <trkpt lat="42.99768" lon="-0.11707">
        <ele>616</ele>
        <time>2018-06-21T04:11:05Z</time>
      </trkpt>
      <trkpt lat="42.99815" lon="-0.11643">
        <ele>613</ele>
        <time>2018-06-21T04:15:05Z</time>
      </trkpt>
      <trkpt lat="42.99823" lon="-0.11623">
        <ele>610</ele>
        <time>2018-06-21T04:16:05Z</time>
      </trkpt>
      <trkpt lat="42.9984" lon="-0.11582">
        <ele>606</ele>
        <time>2018-06-21T04:18:05Z</time>
      </trkpt>
      <trkpt lat="42.99847" lon="-0.11534">
        <ele>602</ele>
        <time>2018-06-21T04:21:05Z</time>
      </trkpt>
      <trkpt lat="42.99846" lon="-0.1152">
        <ele>599</ele>
        <time>2018-06-21T04:22:05Z</time>
      </trkpt>
      <trkpt lat="42.99847" lon="-0.11491">
        <ele>595</ele>
        <time>2018-06-21T04:24:05Z</time>
      </trkpt>
      <trkpt lat="42.99858" lon="-0.11445">
        <ele>595</ele>
        <time>2018-06-21T04:25:05Z</time>
      </trkpt>
      <trkpt lat="42.99863" lon="-0.1139">
        <ele>592</ele>
        <time>2018-06-21T04:28:05Z</time>
      </trkpt>
      <trkpt lat="42.99862" lon="-0.11361">
        <ele>589</ele>
        <time>2018-06-21T04:29:05Z</time>
      </trkpt>
      <trkpt lat="42.99864" lon="-0.11332">
        <ele>588</ele>
        <time>2018-06-21T04:31:05Z</time>
      </trkpt>
      <trkpt lat="42.99924" lon="-0.11213">
        <ele>592</ele>
        <time>2018-06-21T04:36:05Z</time>
      </trkpt>
      <trkpt lat="42.99927" lon="-0.11202">
        <ele>592</ele>
        <time>2018-06-21T04:37:05Z</time>
      </trkpt>
      <trkpt lat="42.99929" lon="-0.11174">
        <ele>588</ele>
        <time>2018-06-21T04:40:05Z</time>
      </trkpt>
      <trkpt lat="42.99925" lon="-0.11163">
        <ele>584</ele>
        <time>2018-06-21T04:42:05Z</time>
      </trkpt>
      <trkpt lat="42.99922" lon="-0.11158">
        <ele>581</ele>
        <time>2018-06-21T04:44:05Z</time>
      </trkpt>
      <trkpt lat="42.99918" lon="-0.11153">
        <ele>578</ele>
        <time>2018-06-21T04:45:05Z</time>
      </trkpt>
      <trkpt lat="42.99912" lon="-0.11148">
        <ele>574</ele>
        <time>2018-06-21T04:47:05Z</time>
      </trkpt>
      <trkpt lat="42.99908" lon="-0.11138">
        <ele>571</ele>
        <time>2018-06-21T04:50:05Z</time>
      </trkpt>
      <trkpt lat="42.99907" lon="-0.11124">
        <ele>567</ele>
        <time>2018-06-21T04:52:05Z</time>
      </trkpt>
      <trkpt lat="42.99908" lon="-0.11103">
        <ele>564</ele>
        <time>2018-06-21T04:54:05Z</time>
      </trkpt>
      <trkpt lat="42.99912" lon="-0.11075">
        <ele>561</ele>
        <time>2018-06-21T04:55:05Z</time>
      </trkpt>
      <trkpt lat="42.99915" lon="-0.11032">
        <ele>557</ele>
        <time>2018-06-21T04:57:05Z</time>
      </trkpt>
      <trkpt lat="42.99916" lon="-0.10991">
        <ele>553</ele>
        <time>2018-06-21T04:58:05Z</time>
      </trkpt>
      <trkpt lat="42.99919" lon="-0.10928">
        <ele>550</ele>
        <time>2018-06-21T05:00:05Z</time>
      </trkpt>
      <trkpt lat="42.99927" lon="-0.10898">
        <ele>547</ele>
        <time>2018-06-21T05:03:05Z</time>
      </trkpt>
      <trkpt lat="42.99935" lon="-0.10885">
        <ele>546</ele>
        <time>2018-06-21T05:05:05Z</time>
      </trkpt>
      <trkpt lat="42.99983" lon="-0.10872">
        <ele>550</ele>
        <time>2018-06-21T05:12:05Z</time>
      </trkpt>
      <trkpt lat="42.99991" lon="-0.10871">
        <ele>550</ele>
        <time>2018-06-21T05:13:05Z</time>
      </trkpt>
      <trkpt lat="43.00013" lon="-0.1087">
        <ele>552</ele>
        <time>2018-06-21T05:15:05Z</time>
      </trkpt>
      <trkpt lat="43.00093" lon="-0.10829">
        <ele>547</ele>
        <time>2018-06-21T05:19:05Z</time>
      </trkpt>
      <trkpt lat="43.00131" lon="-0.10799">
        <ele>544</ele>
        <time>2018-06-21T05:21:05Z</time>
      </trkpt>
      <trkpt lat="43.00163" lon="-0.10764">
        <ele>538</ele>
        <time>2018-06-21T05:23:05Z</time>
      </trkpt>
      <trkpt lat="43.00179" lon="-0.10749">
        <ele>536</ele>
        <time>2018-06-21T05:25:05Z</time>
      </trkpt>
      <trkpt lat="43.00217" lon="-0.10718">
        <ele>531</ele>
        <time>2018-06-21T05:26:05Z</time>
      </trkpt>
      <trkpt lat="43.00258" lon="-0.10684">
        <ele>525</ele>
        <time>2018-06-21T05:27:05Z</time>
      </trkpt>
      <trkpt lat="43.00284" lon="-0.10656">
        <ele>521</ele>
        <time>2018-06-21T05:29:05Z</time>
      </trkpt>
      <trkpt lat="43.00304" lon="-0.10627">
        <ele>517</ele>
        <time>2018-06-21T05:30:05Z</time>
      </trkpt>
      <trkpt lat="43.00322" lon="-0.10606">
        <ele>514</ele>
        <time>2018-06-21T05:31:05Z</time>
      </trkpt>
      <trkpt lat="43.00356" lon="-0.1058">
        <ele>513</ele>
        <time>2018-06-21T05:33:05Z</time>
      </trkpt>
      <trkpt lat="43.00385" lon="-0.10542">
        <ele>509</ele>
        <time>2018-06-21T05:36:05Z</time>
      </trkpt>
      <trkpt lat="43.00397" lon="-0.10517">
        <ele>505</ele>
        <time>2018-06-21T05:37:05Z</time>
      </trkpt>
      <trkpt lat="43.00408" lon="-0.10494">
        <ele>501</ele>
        <time>2018-06-21T05:38:05Z</time>
      </trkpt>
      <trkpt lat="43.00436" lon="-0.10457">
        <ele>498</ele>
        <time>2018-06-21T05:41:05Z</time>
      </trkpt>
      <trkpt lat="43.00467" lon="-0.10426">
        <ele>495</ele>
        <time>2018-06-21T05:42:05Z</time>
      </trkpt>
      <trkpt lat="43.0048" lon="-0.1041">
        <ele>494</ele>
        <time>2018-06-21T05:44:05Z</time>
      </trkpt>
      <trkpt lat="43.00487" lon="-0.10372">
        <ele>490</ele>
        <time>2018-06-21T05:46:05Z</time>
      </trkpt>
      <trkpt lat="43.00492" lon="-0.10326">
        <ele>484</ele>
        <time>2018-06-21T05:47:05Z</time>
      </trkpt>
      <trkpt lat="43.00505" lon="-0.10294">
        <ele>481</ele>
        <time>2018-06-21T05:50:05Z</time>
      </trkpt>
      <trkpt lat="43.00547" lon="-0.10229">
        <ele>477</ele>
        <time>2018-06-21T05:52:05Z</time>
      </trkpt>
      <trkpt lat="43.00561" lon="-0.10204">
        <ele>476</ele>
        <time>2018-06-21T05:54:05Z</time>
      </trkpt>
      <trkpt lat="43.00596" lon="-0.10172">
        <ele>474</ele>
        <time>2018-06-21T05:58:05Z</time>
      </trkpt>
      <trkpt lat="43.0069" lon="-0.10156">
        <ele>473</ele>
        <time>2018-06-21T06:06:05Z</time>
      </trkpt>
      <trkpt lat="43.00708" lon="-0.1014">
        <ele>471</ele>
        <time>2018-06-21T06:15:05Z</time>
      </trkpt>
      <trkpt lat="43.00708" lon="-0.10116">
        <ele>468</ele>
        <time>2018-06-21T06:19:05Z</time>
      </trkpt>
      <trkpt lat="43.00689" lon="-0.10112">
        <ele>468</ele>
        <time>2018-06-21T06:20:05Z</time>
      </trkpt>
      <trkpt lat="43.00674" lon="-0.10072">
        <ele>463</ele>
        <time>2018-06-21T06:26:05Z</time>
      </trkpt>
      <trkpt lat="43.00674" lon="-0.10058">
        <ele>463</ele>
        <time>2018-06-21T06:27:05Z</time>
      </trkpt>
      <trkpt lat="43.00684" lon="-0.10033">
        <ele>461</ele>
        <time>2018-06-21T06:36:05Z</time>
      </trkpt>
      <trkpt lat="43.00703" lon="-0.10002">
        <ele>460</ele>
        <time>2018-06-21T06:40:05Z</time>
      </trkpt>
      <trkpt lat="43.00744" lon="-0.09975">
        <ele>458</ele>
        <time>2018-06-21T06:44:05Z</time>
      </trkpt>
      <trkpt lat="43.00722" lon="-0.0996">
        <ele>455</ele>
        <time>2018-06-21T06:45:05Z</time>
      </trkpt>
      <trkpt lat="43.00685" lon="-0.09933">
        <ele>450</ele>
        <time>2018-06-21T06:46:05Z</time>
      </trkpt>
      <trkpt lat="43.00677" lon="-0.09926">
        <ele>449</ele>
        <time>2018-06-21T06:48:05Z</time>
      </trkpt>
      <trkpt lat="43.00675" lon="-0.09909">
        <ele>447</ele>
        <time>2018-06-21T06:51:05Z</time>
      </trkpt>
      <trkpt lat="43.00685" lon="-0.09861">
        <ele>444</ele>
        <time>2018-06-21T06:53:05Z</time>
      </trkpt>
      <trkpt lat="43.00685" lon="-0.09861">
        <ele>444</ele>
        <time>2018-06-21T06:54:05Z</time>
      </trkpt>
      <trkpt lat="43.00681" lon="-0.09851">
        <ele>444</ele>
        <time>2018-06-21T07:10:05Z</time>
      </trkpt>
      <trkpt lat="43.00691" lon="-0.09849">
        <ele>443</ele>
        <time>2018-06-21T07:28:05Z</time>
      </trkpt>
      <trkpt lat="43.00785" lon="-0.09843">
        <ele>442</ele>
        <time>2018-06-21T07:34:05Z</time>
      </trkpt>
      <trkpt lat="43.00883" lon="-0.09831">
        <ele>442</ele>
        <time>2018-06-21T07:37:05Z</time>
      </trkpt>
      <trkpt lat="43.00995" lon="-0.0982">
        <ele>440</ele>
        <time>2018-06-21T07:41:05Z</time>
      </trkpt>
      <trkpt lat="43.00999" lon="-0.09818">
        <ele>440</ele>
        <time>2018-06-21T07:42:05Z</time>
      </trkpt>
      <trkpt lat="43.01065" lon="-0.09816">
        <ele>436</ele>
        <time>2018-06-21T07:47:05Z</time>
      </trkpt>
      <trkpt lat="43.01092" lon="-0.09815">
        <ele>435</ele>
        <time>2018-06-21T07:49:05Z</time>
      </trkpt>
      <trkpt lat="43.01135" lon="-0.09808">
        <ele>434</ele>
        <time>2018-06-21T07:55:05Z</time>
      </trkpt>
      <trkpt lat="43.01148" lon="-0.09779">
        <ele>431</ele>
        <time>2018-06-21T08:02:05Z</time>
      </trkpt>
      <trkpt lat="43.01156" lon="-0.09763">
        <ele>429</ele>
        <time>2018-06-21T08:05:05Z</time>
      </trkpt>
      <trkpt lat="43.01168" lon="-0.09744">
        <ele>427</ele>
        <time>2018-06-21T08:08:05Z</time>
      </trkpt>
      <trkpt lat="43.01172" lon="-0.09722">
        <ele>427</ele>
        <time>2018-06-21T08:19:05Z</time>
      </trkpt>
      <trkpt lat="43.01186" lon="-0.09695">
        <ele>427</ele>
        <time>2018-06-21T08:33:05Z</time>
      </trkpt>
      <trkpt lat="43.01193" lon="-0.09648">
        <ele>426</ele>
        <time>2018-06-21T08:37:05Z</time>
      </trkpt>
      <trkpt lat="43.01209" lon="-0.09482">
        <ele>424</ele>
        <time>2018-06-21T08:38:05Z</time>
      </trkpt>
      <trkpt lat="43.01243" lon="-0.09166">
        <ele>422</ele>
        <time>2018-06-21T08:41:05Z</time>
      </trkpt>
      <trkpt lat="43.01279" lon="-0.08832">
        <ele>418</ele>
        <time>2018-06-21T08:43:05Z</time>
      </trkpt>
      <trkpt lat="43.01293" lon="-0.08704">
        <ele>419</ele>
        <time>2018-06-21T08:44:05Z</time>
      </trkpt>
      <trkpt lat="43.01292" lon="-0.08698">
        <ele>419</ele>
        <time>2018-06-21T08:46:05Z</time>
      </trkpt>
      <trkpt lat="43.01289" lon="-0.08671">
        <ele>419</ele>
        <time>2018-06-21T08:50:05Z</time>
      </trkpt>
      <trkpt lat="43.01266" lon="-0.08651">
        <ele>418</ele>
        <time>2018-06-21T09:01:05Z</time>
      </trkpt>
      <trkpt lat="43.01257" lon="-0.08646">
        <ele>418</ele>
        <time>2018-06-21T09:03:05Z</time>
      </trkpt>
      <trkpt lat="43.01182" lon="-0.08629">
        <ele>418</ele>
        <time>2018-06-21T09:04:05Z</time>
      </trkpt>
      <trkpt lat="43.00927" lon="-0.08573">
        <ele>420</ele>
        <time>2018-06-21T09:06:05Z</time>
      </trkpt>
      <trkpt lat="43.00768" lon="-0.08539">
        <ele>423</ele>
        <time>2018-06-21T09:08:05Z</time>
      </trkpt>
      <trkpt lat="43.00757" lon="-0.08536">
        <ele>423</ele>
        <time>2018-06-21T09:09:05Z</time>
      </trkpt>
      <trkpt lat="43.00646" lon="-0.08476">
        <ele>423</ele>
        <time>2018-06-21T09:18:05Z</time>
      </trkpt>
      <trkpt lat="43.00573" lon="-0.08361">
        <ele>423</ele>
        <time>2018-06-21T09:24:05Z</time>
      </trkpt>
      <trkpt lat="43.0054" lon="-0.083">
        <ele>423</ele>
        <time>2018-06-21T09:27:05Z</time>
      </trkpt>
      <trkpt lat="43.00513" lon="-0.08297">
        <ele>423</ele>
        <time>2018-06-21T09:39:05Z</time>
      </trkpt>
      <trkpt lat="43.00516" lon="-0.08248">
        <ele>422</ele>
        <time>2018-06-21T09:57:05Z</time>
      </trkpt>
      <trkpt lat="43.00544" lon="-0.08231">
        <ele>423</ele>
        <time>2018-06-21T10:10:05Z</time>
      </trkpt>
      <trkpt lat="43.00542" lon="-0.08145">
        <ele>426</ele>
        <time>2018-06-21T10:15:05Z</time>
      </trkpt>
      <trkpt lat="43.0054" lon="-0.08101">
        <ele>430</ele>
        <time>2018-06-21T10:16:05Z</time>
      </trkpt>
      <trkpt lat="43.00536" lon="-0.0809">
        <ele>431</ele>
        <time>2018-06-21T10:18:05Z</time>
      </trkpt>
      <trkpt lat="43.00513" lon="-0.08055">
        <ele>434</ele>
        <time>2018-06-21T10:21:05Z</time>
      </trkpt>
      <trkpt lat="43.00499" lon="-0.08037">
        <ele>435</ele>
        <time>2018-06-21T10:23:05Z</time>
      </trkpt>
      <trkpt lat="43.00481" lon="-0.08005">
        <ele>438</ele>
        <time>2018-06-21T10:27:05Z</time>
      </trkpt>
      <trkpt lat="43.00478" lon="-0.08001">
        <ele>438</ele>
        <time>2018-06-21T10:28:05Z</time>
      </trkpt>
      <trkpt lat="43.00451" lon="-0.07963">
        <ele>439</ele>
        <time>2018-06-21T10:32:05Z</time>
      </trkpt>
      <trkpt lat="43.00446" lon="-0.07951">
        <ele>440</ele>
        <time>2018-06-21T10:34:05Z</time>
      </trkpt>
      <trkpt lat="43.00408" lon="-0.07916">
        <ele>437</ele>
        <time>2018-06-21T10:36:05Z</time>
      </trkpt>
      <trkpt lat="43.00389" lon="-0.07883">
        <ele>440</ele>
        <time>2018-06-21T10:37:05Z</time>
      </trkpt>
      <trkpt lat="43.00369" lon="-0.07844">
        <ele>441</ele>
        <time>2018-06-21T10:39:05Z</time>
      </trkpt>
      <trkpt lat="43.00353" lon="-0.07782">
        <ele>445</ele>
        <time>2018-06-21T10:41:05Z</time>
      </trkpt>
      <trkpt lat="43.00347" lon="-0.07748">
        <ele>448</ele>
        <time>2018-06-21T10:42:05Z</time>
      </trkpt>
      <trkpt lat="43.0034" lon="-0.07724">
        <ele>448</ele>
        <time>2018-06-21T10:43:05Z</time>
      </trkpt>
      <trkpt lat="43.00314" lon="-0.07649">
        <ele>450</ele>
        <time>2018-06-21T10:46:05Z</time>
      </trkpt>
      <trkpt lat="43.00295" lon="-0.07536">
        <ele>446</ele>
        <time>2018-06-21T10:51:05Z</time>
      </trkpt>
      <trkpt lat="43.00294" lon="-0.07524">
        <ele>446</ele>
        <time>2018-06-21T10:52:05Z</time>
      </trkpt>
      <trkpt lat="43.00297" lon="-0.07434">
        <ele>445</ele>
        <time>2018-06-21T10:58:05Z</time>
      </trkpt>
      <trkpt lat="43.00289" lon="-0.07395">
        <ele>442</ele>
        <time>2018-06-21T11:01:05Z</time>
      </trkpt>
      <trkpt lat="43.00286" lon="-0.07387">
        <ele>442</ele>
        <time>2018-06-21T11:02:05Z</time>
      </trkpt>
      <trkpt lat="43.00267" lon="-0.07323">
        <ele>437</ele>
        <time>2018-06-21T11:04:05Z</time>
      </trkpt>
      <trkpt lat="43.00244" lon="-0.07252">
        <ele>438</ele>
        <time>2018-06-21T11:05:05Z</time>
      </trkpt>
      <trkpt lat="43.00211" lon="-0.07159">
        <ele>443</ele>
        <time>2018-06-21T11:07:05Z</time>
      </trkpt>
      <trkpt lat="43.00211" lon="-0.07156">
        <ele>443</ele>
        <time>2018-06-21T11:08:05Z</time>
      </trkpt>
      <trkpt lat="43.00189" lon="-0.07112">
        <ele>446</ele>
        <time>2018-06-21T11:10:05Z</time>
      </trkpt>
      <trkpt lat="43.00158" lon="-0.07055">
        <ele>449</ele>
        <time>2018-06-21T11:12:05Z</time>
      </trkpt>
      <trkpt lat="43.0014" lon="-0.07024">
        <ele>452</ele>
        <time>2018-06-21T11:14:05Z</time>
      </trkpt>
      <trkpt lat="43.0013" lon="-0.06999">
        <ele>454</ele>
        <time>2018-06-21T11:17:05Z</time>
      </trkpt>
      <trkpt lat="43.00123" lon="-0.06951">
        <ele>457</ele>
        <time>2018-06-21T11:23:05Z</time>
      </trkpt>
      <trkpt lat="43.0016" lon="-0.06938">
        <ele>456</ele>
        <time>2018-06-21T11:25:05Z</time>
      </trkpt>
      <trkpt lat="43.00227" lon="-0.06914">
        <ele>460</ele>
        <time>2018-06-21T11:26:05Z</time>
      </trkpt>
      <trkpt lat="43.00255" lon="-0.06905">
        <ele>461</ele>
        <time>2018-06-21T11:28:05Z</time>
      </trkpt>
      <trkpt lat="43.00269" lon="-0.06849">
        <ele>463</ele>
        <time>2018-06-21T11:35:05Z</time>
      </trkpt>
      <trkpt lat="43.0031" lon="-0.06787">
        <ele>467</ele>
        <time>2018-06-21T11:37:05Z</time>
      </trkpt>
      <trkpt lat="43.00334" lon="-0.06752">
        <ele>470</ele>
        <time>2018-06-21T11:39:05Z</time>
      </trkpt>
      <trkpt lat="43.00349" lon="-0.06731">
        <ele>472</ele>
        <time>2018-06-21T11:41:05Z</time>
      </trkpt>
      <trkpt lat="43.00374" lon="-0.067">
        <ele>475</ele>
        <time>2018-06-21T11:43:05Z</time>
      </trkpt>
      <trkpt lat="43.00402" lon="-0.0667">
        <ele>478</ele>
        <time>2018-06-21T11:46:05Z</time>
      </trkpt>
      <trkpt lat="43.00408" lon="-0.06662">
        <ele>478</ele>
        <time>2018-06-21T11:47:05Z</time>
      </trkpt>
      <trkpt lat="43.00446" lon="-0.0661">
        <ele>483</ele>
        <time>2018-06-21T11:50:05Z</time>
      </trkpt>
      <trkpt lat="43.00474" lon="-0.06567">
        <ele>486</ele>
        <time>2018-06-21T11:52:05Z</time>
      </trkpt>
      <trkpt lat="43.00481" lon="-0.06557">
        <ele>487</ele>
        <time>2018-06-21T11:54:05Z</time>
      </trkpt>
      <trkpt lat="43.00467" lon="-0.06539">
        <ele>490</ele>
        <time>2018-06-21T11:56:05Z</time>
      </trkpt>
      <trkpt lat="43.00464" lon="-0.06536">
        <ele>490</ele>
        <time>2018-06-21T11:57:05Z</time>
      </trkpt>
      <trkpt lat="43.00443" lon="-0.06522">
        <ele>493</ele>
        <time>2018-06-21T12:03:05Z</time>
      </trkpt>
      <trkpt lat="43.00429" lon="-0.06499">
        <ele>496</ele>
        <time>2018-06-21T12:06:05Z</time>
      </trkpt>
      <trkpt lat="43.00412" lon="-0.06489">
        <ele>499</ele>
        <time>2018-06-21T12:07:05Z</time>
      </trkpt>
      <trkpt lat="43.00406" lon="-0.06486">
        <ele>499</ele>
        <time>2018-06-21T12:08:05Z</time>
      </trkpt>
      <trkpt lat="43.00392" lon="-0.06468">
        <ele>503</ele>
        <time>2018-06-21T12:10:05Z</time>
      </trkpt>
      <trkpt lat="43.0037" lon="-0.06453">
        <ele>506</ele>
        <time>2018-06-21T12:12:05Z</time>
      </trkpt>
      <trkpt lat="43.00324" lon="-0.0643">
        <ele>510</ele>
        <time>2018-06-21T12:13:05Z</time>
      </trkpt>
      <trkpt lat="43.00311" lon="-0.06423">
        <ele>510</ele>
        <time>2018-06-21T12:14:05Z</time>
      </trkpt>
      <trkpt lat="43.0025" lon="-0.06375">
        <ele>512</ele>
        <time>2018-06-21T12:18:05Z</time>
      </trkpt>
      <trkpt lat="43.00241" lon="-0.06358">
        <ele>514</ele>
        <time>2018-06-21T12:20:05Z</time>
      </trkpt>
      <trkpt lat="43.00229" lon="-0.06326">
        <ele>518</ele>
        <time>2018-06-21T12:21:05Z</time>
      </trkpt>
      <trkpt lat="43.00229" lon="-0.06325">
        <ele>518</ele>
        <time>2018-06-21T12:22:05Z</time>
      </trkpt>
      <trkpt lat="43.00222" lon="-0.06302">
        <ele>521</ele>
        <time>2018-06-21T12:23:05Z</time>
      </trkpt>
      <trkpt lat="43.00218" lon="-0.06279">
        <ele>524</ele>
        <time>2018-06-21T12:24:05Z</time>
      </trkpt>
      <trkpt lat="43.00215" lon="-0.06261">
        <ele>527</ele>
        <time>2018-06-21T12:25:05Z</time>
      </trkpt>
      <trkpt lat="43.00211" lon="-0.06244">
        <ele>530</ele>
        <time>2018-06-21T12:27:05Z</time>
      </trkpt>
      <trkpt lat="43.00208" lon="-0.0624">
        <ele>530</ele>
        <time>2018-06-21T12:28:05Z</time>
      </trkpt>
      <trkpt lat="43.00172" lon="-0.06229">
        <ele>529</ele>
        <time>2018-06-21T12:33:05Z</time>
      </trkpt>
      <trkpt lat="43.00145" lon="-0.0623">
        <ele>533</ele>
        <time>2018-06-21T12:36:05Z</time>
      </trkpt>
      <trkpt lat="43.0012" lon="-0.06247">
        <ele>534</ele>
        <time>2018-06-21T12:38:05Z</time>
      </trkpt>
      <trkpt lat="43.00053" lon="-0.06285">
        <ele>534</ele>
        <time>2018-06-21T12:43:05Z</time>
      </trkpt>
      <trkpt lat="43.00031" lon="-0.06286">
        <ele>537</ele>
        <time>2018-06-21T12:44:05Z</time>
      </trkpt>
      <trkpt lat="43.00001" lon="-0.06285">
        <ele>540</ele>
        <time>2018-06-21T12:46:05Z</time>
      </trkpt>
      <trkpt lat="42.99981" lon="-0.06286">
        <ele>541</ele>
        <time>2018-06-21T12:48:05Z</time>
      </trkpt>
      <trkpt lat="42.9996" lon="-0.06274">
        <ele>545</ele>
        <time>2018-06-21T12:53:05Z</time>
      </trkpt>
      <trkpt lat="42.9995" lon="-0.06259">
        <ele>548</ele>
        <time>2018-06-21T12:54:05Z</time>
      </trkpt>
      <trkpt lat="42.99942" lon="-0.06244">
        <ele>552</ele>
        <time>2018-06-21T12:55:05Z</time>
      </trkpt>
      <trkpt lat="42.9993" lon="-0.0623">
        <ele>556</ele>
        <time>2018-06-21T12:57:05Z</time>
      </trkpt>
      <trkpt lat="42.99927" lon="-0.06229">
        <ele>556</ele>
        <time>2018-06-21T12:58:05Z</time>
      </trkpt>
      <trkpt lat="42.99897" lon="-0.06216">
        <ele>560</ele>
        <time>2018-06-21T13:02:05Z</time>
      </trkpt>
      <trkpt lat="42.99878" lon="-0.0621">
        <ele>562</ele>
        <time>2018-06-21T13:05:05Z</time>
      </trkpt>
      <trkpt lat="42.99862" lon="-0.06202">
        <ele>565</ele>
        <time>2018-06-21T13:07:05Z</time>
      </trkpt>
      <trkpt lat="42.99856" lon="-0.062">
        <ele>565</ele>
        <time>2018-06-21T13:08:05Z</time>
      </trkpt>
      <trkpt lat="42.99791" lon="-0.06195">
        <ele>568</ele>
        <time>2018-06-21T13:18:05Z</time>
      </trkpt>
      <trkpt lat="42.99787" lon="-0.06191">
        <ele>568</ele>
        <time>2018-06-21T13:19:05Z</time>
      </trkpt>
      <trkpt lat="42.99702" lon="-0.06194">
        <ele>568</ele>
        <time>2018-06-21T13:29:05Z</time>
      </trkpt>
      <trkpt lat="42.99658" lon="-0.06178">
        <ele>569</ele>
        <time>2018-06-21T13:35:05Z</time>
      </trkpt>
      <trkpt lat="42.99597" lon="-0.06167">
        <ele>573</ele>
        <time>2018-06-21T13:43:05Z</time>
      </trkpt>
      <trkpt lat="42.99582" lon="-0.06161">
        <ele>576</ele>
        <time>2018-06-21T13:44:05Z</time>
      </trkpt>
      <trkpt lat="42.9956" lon="-0.0615">
        <ele>579</ele>
        <time>2018-06-21T13:47:05Z</time>
      </trkpt>
      <trkpt lat="42.99545" lon="-0.06134">
        <ele>583</ele>
        <time>2018-06-21T13:49:05Z</time>
      </trkpt>
      <trkpt lat="42.99535" lon="-0.06119">
        <ele>586</ele>
        <time>2018-06-21T13:51:05Z</time>
      </trkpt>
      <trkpt lat="42.99532" lon="-0.06117">
        <ele>586</ele>
        <time>2018-06-21T13:52:05Z</time>
      </trkpt>
      <trkpt lat="42.99502" lon="-0.06081">
        <ele>591</ele>
        <time>2018-06-21T13:54:05Z</time>
      </trkpt>
      <trkpt lat="42.99474" lon="-0.06051">
        <ele>592</ele>
        <time>2018-06-21T13:56:05Z</time>
      </trkpt>
      <trkpt lat="42.99438" lon="-0.05996">
        <ele>593</ele>
        <time>2018-06-21T14:03:05Z</time>
      </trkpt>
      <trkpt lat="42.99429" lon="-0.05971">
        <ele>596</ele>
        <time>2018-06-21T14:06:05Z</time>
      </trkpt>
      <trkpt lat="42.99425" lon="-0.05952">
        <ele>599</ele>
        <time>2018-06-21T14:08:05Z</time>
      </trkpt>
      <trkpt lat="42.99415" lon="-0.05922">
        <ele>602</ele>
        <time>2018-06-21T14:10:05Z</time>
      </trkpt>
      <trkpt lat="42.99397" lon="-0.05886">
        <ele>610</ele>
        <time>2018-06-21T14:11:05Z</time>
      </trkpt>
      <trkpt lat="42.99384" lon="-0.05851">
        <ele>616</ele>
        <time>2018-06-21T14:12:05Z</time>
      </trkpt>
      <trkpt lat="42.99374" lon="-0.05816">
        <ele>621</ele>
        <time>2018-06-21T14:13:05Z</time>
      </trkpt>
      <trkpt lat="42.99365" lon="-0.05772">
        <ele>627</ele>
        <time>2018-06-21T14:14:05Z</time>
      </trkpt>
      <trkpt lat="42.99354" lon="-0.05758">
        <ele>628</ele>
        <time>2018-06-21T14:16:05Z</time>
      </trkpt>
      <trkpt lat="42.99339" lon="-0.05758">
        <ele>625</ele>
        <time>2018-06-21T14:21:05Z</time>
      </trkpt>
      <trkpt lat="42.99336" lon="-0.0576">
        <ele>625</ele>
        <time>2018-06-21T14:22:05Z</time>
      </trkpt>
      <trkpt lat="42.99324" lon="-0.0578">
        <ele>623</ele>
        <time>2018-06-21T14:25:05Z</time>
      </trkpt>
      <trkpt lat="42.99317" lon="-0.05811">
        <ele>618</ele>
        <time>2018-06-21T14:27:05Z</time>
      </trkpt>
      <trkpt lat="42.99305" lon="-0.05847">
        <ele>615</ele>
        <time>2018-06-21T14:29:05Z</time>
      </trkpt>
      <trkpt lat="42.9929" lon="-0.05868">
        <ele>614</ele>
        <time>2018-06-21T14:31:05Z</time>
      </trkpt>
      <trkpt lat="42.99225" lon="-0.05902">
        <ele>616</ele>
        <time>2018-06-21T14:38:05Z</time>
      </trkpt>
      <trkpt lat="42.99177" lon="-0.05902">
        <ele>620</ele>
        <time>2018-06-21T14:40:05Z</time>
      </trkpt>
      <trkpt lat="42.99155" lon="-0.05897">
        <ele>626</ele>
        <time>2018-06-21T14:42:05Z</time>
      </trkpt>
      <trkpt lat="42.99146" lon="-0.05897">
        <ele>629</ele>
        <time>2018-06-21T14:43:05Z</time>
      </trkpt>
      <trkpt lat="42.99118" lon="-0.05915">
        <ele>632</ele>
        <time>2018-06-21T14:46:05Z</time>
      </trkpt>
      <trkpt lat="42.99112" lon="-0.0592">
        <ele>632</ele>
        <time>2018-06-21T14:47:05Z</time>
      </trkpt>
      <trkpt lat="42.99044" lon="-0.05977">
        <ele>631</ele>
        <time>2018-06-21T14:50:05Z</time>
      </trkpt>
      <trkpt lat="42.99" lon="-0.05992">
        <ele>636</ele>
        <time>2018-06-21T14:54:05Z</time>
      </trkpt>
      <trkpt lat="42.98992" lon="-0.05988">
        <ele>635</ele>
        <time>2018-06-21T14:55:05Z</time>
      </trkpt>
      <trkpt lat="42.98977" lon="-0.05969">
        <ele>638</ele>
        <time>2018-06-21T14:57:05Z</time>
      </trkpt>
      <trkpt lat="42.98976" lon="-0.05967">
        <ele>638</ele>
        <time>2018-06-21T14:58:05Z</time>
      </trkpt>
      <trkpt lat="42.9897" lon="-0.05948">
        <ele>642</ele>
        <time>2018-06-21T14:59:05Z</time>
      </trkpt>
      <trkpt lat="42.98963" lon="-0.05926">
        <ele>646</ele>
        <time>2018-06-21T15:00:05Z</time>
      </trkpt>
      <trkpt lat="42.98952" lon="-0.05903">
        <ele>650</ele>
        <time>2018-06-21T15:01:05Z</time>
      </trkpt>
      <trkpt lat="42.98932" lon="-0.05868">
        <ele>656</ele>
        <time>2018-06-21T15:03:05Z</time>
      </trkpt>
      <trkpt lat="42.98925" lon="-0.05854">
        <ele>659</ele>
        <time>2018-06-21T15:04:05Z</time>
      </trkpt>
      <trkpt lat="42.98924" lon="-0.05853">
        <ele>659</ele>
        <time>2018-06-21T15:05:05Z</time>
      </trkpt>
      <trkpt lat="42.98908" lon="-0.05828">
        <ele>666</ele>
        <time>2018-06-21T15:07:05Z</time>
      </trkpt>
      <trkpt lat="42.98898" lon="-0.05815">
        <ele>669</ele>
        <time>2018-06-21T15:08:05Z</time>
      </trkpt>
      <trkpt lat="42.98871" lon="-0.05793">
        <ele>673</ele>
        <time>2018-06-21T15:10:05Z</time>
      </trkpt>
      <trkpt lat="42.98847" lon="-0.0578">
        <ele>673</ele>
        <time>2018-06-21T15:11:05Z</time>
      </trkpt>
      <trkpt lat="42.98805" lon="-0.05759">
        <ele>669</ele>
        <time>2018-06-21T15:13:05Z</time>
      </trkpt>
      <trkpt lat="42.98801" lon="-0.05755">
        <ele>669</ele>
        <time>2018-06-21T15:14:05Z</time>
      </trkpt>
      <trkpt lat="42.98792" lon="-0.05735">
        <ele>673</ele>
        <time>2018-06-21T15:18:05Z</time>
      </trkpt>
      <trkpt lat="42.98787" lon="-0.0572">
        <ele>677</ele>
        <time>2018-06-21T15:19:05Z</time>
      </trkpt>
      <trkpt lat="42.9878" lon="-0.05701">
        <ele>680</ele>
        <time>2018-06-21T15:20:05Z</time>
      </trkpt>
      <trkpt lat="42.98776" lon="-0.05688">
        <ele>683</ele>
        <time>2018-06-21T15:21:05Z</time>
      </trkpt>
      <trkpt lat="42.98767" lon="-0.05661">
        <ele>688</ele>
        <time>2018-06-21T15:22:05Z</time>
      </trkpt>
      <trkpt lat="42.9876" lon="-0.05643">
        <ele>692</ele>
        <time>2018-06-21T15:23:05Z</time>
      </trkpt>
      <trkpt lat="42.98759" lon="-0.0564">
        <ele>692</ele>
        <time>2018-06-21T15:24:05Z</time>
      </trkpt>
      <trkpt lat="42.98721" lon="-0.05612">
        <ele>688</ele>
        <time>2018-06-21T15:29:05Z</time>
      </trkpt>
      <trkpt lat="42.98703" lon="-0.05599">
        <ele>687</ele>
        <time>2018-06-21T15:31:05Z</time>
      </trkpt>
      <trkpt lat="42.98682" lon="-0.05543">
        <ele>694</ele>
        <time>2018-06-21T15:36:05Z</time>
      </trkpt>
      <trkpt lat="42.98678" lon="-0.05516">
        <ele>698</ele>
        <time>2018-06-21T15:37:05Z</time>
      </trkpt>
      <trkpt lat="42.98665" lon="-0.05473">
        <ele>701</ele>
        <time>2018-06-21T15:40:05Z</time>
      </trkpt>
      <trkpt lat="42.98659" lon="-0.05449">
        <ele>704</ele>
        <time>2018-06-21T15:41:05Z</time>
      </trkpt>
      <trkpt lat="42.98648" lon="-0.05416">
        <ele>707</ele>
        <time>2018-06-21T15:43:05Z</time>
      </trkpt>
      <trkpt lat="42.98641" lon="-0.05403">
        <ele>707</ele>
        <time>2018-06-21T15:44:05Z</time>
      </trkpt>
      <trkpt lat="42.98594" lon="-0.05318">
        <ele>712</ele>
        <time>2018-06-21T15:49:05Z</time>
      </trkpt>
      <trkpt lat="42.9857" lon="-0.05281">
        <ele>715</ele>
        <time>2018-06-21T15:51:05Z</time>
      </trkpt>
      <trkpt lat="42.98536" lon="-0.05217">
        <ele>723</ele>
        <time>2018-06-21T15:53:05Z</time>
      </trkpt>
      <trkpt lat="42.98524" lon="-0.05195">
        <ele>727</ele>
        <time>2018-06-21T15:55:05Z</time>
      </trkpt>
      <trkpt lat="42.985" lon="-0.05168">
        <ele>731</ele>
        <time>2018-06-21T15:57:05Z</time>
      </trkpt>
      <trkpt lat="42.9848" lon="-0.05161">
        <ele>728</ele>
        <time>2018-06-21T15:59:05Z</time>
      </trkpt>
      <trkpt lat="42.98471" lon="-0.05155">
        <ele>728</ele>
        <time>2018-06-21T16:00:05Z</time>
      </trkpt>
      <trkpt lat="42.98434" lon="-0.05118">
        <ele>730</ele>
        <time>2018-06-21T16:04:05Z</time>
      </trkpt>
      <trkpt lat="42.98418" lon="-0.05094">
        <ele>733</ele>
        <time>2018-06-21T16:07:05Z</time>
      </trkpt>
      <trkpt lat="42.98409" lon="-0.05051">
        <ele>746</ele>
        <time>2018-06-21T16:09:05Z</time>
      </trkpt>
      <trkpt lat="42.98404" lon="-0.05039">
        <ele>750</ele>
        <time>2018-06-21T16:10:05Z</time>
      </trkpt>
      <trkpt lat="42.98391" lon="-0.0503">
        <ele>753</ele>
        <time>2018-06-21T16:13:05Z</time>
      </trkpt>
      <trkpt lat="42.98385" lon="-0.05029">
        <ele>753</ele>
        <time>2018-06-21T16:14:05Z</time>
      </trkpt>
      <trkpt lat="42.98357" lon="-0.05032">
        <ele>750</ele>
        <time>2018-06-21T16:18:05Z</time>
      </trkpt>
      <trkpt lat="42.9834" lon="-0.05042">
        <ele>745</ele>
        <time>2018-06-21T16:20:05Z</time>
      </trkpt>
      <trkpt lat="42.98324" lon="-0.0505">
        <ele>742</ele>
        <time>2018-06-21T16:22:05Z</time>
      </trkpt>
      <trkpt lat="42.98304" lon="-0.05058">
        <ele>739</ele>
        <time>2018-06-21T16:25:05Z</time>
      </trkpt>
      <trkpt lat="42.98283" lon="-0.0505">
        <ele>743</ele>
        <time>2018-06-21T16:28:05Z</time>
      </trkpt>
      <trkpt lat="42.9827" lon="-0.05044">
        <ele>746</ele>
        <time>2018-06-21T16:30:05Z</time>
      </trkpt>
      <trkpt lat="42.98255" lon="-0.05037">
        <ele>749</ele>
        <time>2018-06-21T16:32:05Z</time>
      </trkpt>
      <trkpt lat="42.98232" lon="-0.05031">
        <ele>751</ele>
        <time>2018-06-21T16:35:05Z</time>
      </trkpt>
      <trkpt lat="42.98181" lon="-0.05014">
        <ele>754</ele>
        <time>2018-06-21T16:41:05Z</time>
      </trkpt>
      <trkpt lat="42.98167" lon="-0.05007">
        <ele>755</ele>
        <time>2018-06-21T16:43:05Z</time>
      </trkpt>
      <trkpt lat="42.98153" lon="-0.04998">
        <ele>758</ele>
        <time>2018-06-21T16:45:05Z</time>
      </trkpt>
      <trkpt lat="42.9813" lon="-0.04988">
        <ele>759</ele>
        <time>2018-06-21T16:47:05Z</time>
      </trkpt>
      <trkpt lat="42.98035" lon="-0.04966">
        <ele>761</ele>
        <time>2018-06-21T16:51:05Z</time>
      </trkpt>
      <trkpt lat="42.98009" lon="-0.04967">
        <ele>761</ele>
        <time>2018-06-21T16:52:05Z</time>
      </trkpt>
      <trkpt lat="42.97982" lon="-0.04974">
        <ele>758</ele>
        <time>2018-06-21T16:53:05Z</time>
      </trkpt>
      <trkpt lat="42.97957" lon="-0.04971">
        <ele>757</ele>
        <time>2018-06-21T16:55:05Z</time>
      </trkpt>
      <trkpt lat="42.97922" lon="-0.04932">
        <ele>764</ele>
        <time>2018-06-21T16:57:05Z</time>
      </trkpt>
      <trkpt lat="42.97917" lon="-0.04917">
        <ele>767</ele>
        <time>2018-06-21T16:58:05Z</time>
      </trkpt>
      <trkpt lat="42.97913" lon="-0.04887">
        <ele>770</ele>
        <time>2018-06-21T16:59:05Z</time>
      </trkpt>
      <trkpt lat="42.97899" lon="-0.04856">
        <ele>772</ele>
        <time>2018-06-21T17:02:05Z</time>
      </trkpt>
      <trkpt lat="42.97854" lon="-0.04814">
        <ele>775</ele>
        <time>2018-06-21T17:05:05Z</time>
      </trkpt>
      <trkpt lat="42.97844" lon="-0.0481">
        <ele>775</ele>
        <time>2018-06-21T17:06:05Z</time>
      </trkpt>
      <trkpt lat="42.97751" lon="-0.04739">
        <ele>773</ele>
        <time>2018-06-21T17:12:05Z</time>
      </trkpt>
      <trkpt lat="42.97744" lon="-0.04706">
        <ele>778</ele>
        <time>2018-06-21T17:14:05Z</time>
      </trkpt>
      <trkpt lat="42.97742" lon="-0.04686">
        <ele>781</ele>
        <time>2018-06-21T17:15:05Z</time>
      </trkpt>
      <trkpt lat="42.97738" lon="-0.04668">
        <ele>784</ele>
        <time>2018-06-21T17:16:05Z</time>
      </trkpt>
      <trkpt lat="42.97734" lon="-0.04646">
        <ele>788</ele>
        <time>2018-06-21T17:17:05Z</time>
      </trkpt>
      <trkpt lat="42.97731" lon="-0.04632">
        <ele>791</ele>
        <time>2018-06-21T17:18:05Z</time>
      </trkpt>
      <trkpt lat="42.97727" lon="-0.04613">
        <ele>795</ele>
        <time>2018-06-21T17:19:05Z</time>
      </trkpt>
      <trkpt lat="42.97717" lon="-0.04596">
        <ele>798</ele>
        <time>2018-06-21T17:21:05Z</time>
      </trkpt>
      <trkpt lat="42.97711" lon="-0.04582">
        <ele>801</ele>
        <time>2018-06-21T17:22:05Z</time>
      </trkpt>
      <trkpt lat="42.97705" lon="-0.04552">
        <ele>808</ele>
        <time>2018-06-21T17:23:05Z</time>
      </trkpt>
      <trkpt lat="42.97697" lon="-0.04539">
        <ele>811</ele>
        <time>2018-06-21T17:24:05Z</time>
      </trkpt>
      <trkpt lat="42.97667" lon="-0.04552">
        <ele>806</ele>
        <time>2018-06-21T17:27:05Z</time>
      </trkpt>
      <trkpt lat="42.97657" lon="-0.0457">
        <ele>802</ele>
        <time>2018-06-21T17:28:05Z</time>
      </trkpt>
      <trkpt lat="42.97646" lon="-0.04589">
        <ele>798</ele>
        <time>2018-06-21T17:29:05Z</time>
      </trkpt>
      <trkpt lat="42.97634" lon="-0.04603">
        <ele>797</ele>
        <time>2018-06-21T17:31:05Z</time>
      </trkpt>
      <trkpt lat="42.97571" lon="-0.04628">
        <ele>800</ele>
        <time>2018-06-21T17:35:05Z</time>
      </trkpt>
      <trkpt lat="42.97558" lon="-0.04629">
        <ele>800</ele>
        <time>2018-06-21T17:36:05Z</time>
      </trkpt>
      <trkpt lat="42.97518" lon="-0.04614">
        <ele>804</ele>
        <time>2018-06-21T17:37:05Z</time>
      </trkpt>
      <trkpt lat="42.97518" lon="-0.04614">
        <ele>804</ele>
        <time>2018-06-21T17:38:05Z</time>
      </trkpt>
      <trkpt lat="42.97481" lon="-0.04609">
        <ele>806</ele>
        <time>2018-06-21T17:43:05Z</time>
      </trkpt>
      <trkpt lat="42.9745" lon="-0.04617">
        <ele>808</ele>
        <time>2018-06-21T17:45:05Z</time>
      </trkpt>
      <trkpt lat="42.97389" lon="-0.04631">
        <ele>807</ele>
        <time>2018-06-21T17:51:05Z</time>
      </trkpt>
      <trkpt lat="42.97355" lon="-0.04603">
        <ele>810</ele>
        <time>2018-06-21T17:53:05Z</time>
      </trkpt>
      <trkpt lat="42.97354" lon="-0.04587">
        <ele>813</ele>
        <time>2018-06-21T17:55:05Z</time>
      </trkpt>
      <trkpt lat="42.97384" lon="-0.04565">
        <ele>818</ele>
        <time>2018-06-21T17:58:05Z</time>
      </trkpt>
      <trkpt lat="42.97411" lon="-0.04543">
        <ele>822</ele>
        <time>2018-06-21T17:59:05Z</time>
      </trkpt>
      <trkpt lat="42.97482" lon="-0.04468">
        <ele>826</ele>
        <time>2018-06-21T18:01:05Z</time>
      </trkpt>
      <trkpt lat="42.97521" lon="-0.04399">
        <ele>838</ele>
        <time>2018-06-21T18:03:05Z</time>
      </trkpt>
      <trkpt lat="42.97531" lon="-0.04383">
        <ele>841</ele>
        <time>2018-06-21T18:04:05Z</time>
      </trkpt>
      <trkpt lat="42.97565" lon="-0.0435">
        <ele>845</ele>
        <time>2018-06-21T18:06:05Z</time>
      </trkpt>
      <trkpt lat="42.97574" lon="-0.04344">
        <ele>845</ele>
        <time>2018-06-21T18:07:05Z</time>
      </trkpt>
      <trkpt lat="42.97602" lon="-0.04325">
        <ele>848</ele>
        <time>2018-06-21T18:10:05Z</time>
      </trkpt>
      <trkpt lat="42.97645" lon="-0.04299">
        <ele>853</ele>
        <time>2018-06-21T18:11:05Z</time>
      </trkpt>
      <trkpt lat="42.97682" lon="-0.04278">
        <ele>856</ele>
        <time>2018-06-21T18:12:05Z</time>
      </trkpt>
      <trkpt lat="42.97709" lon="-0.04266">
        <ele>856</ele>
        <time>2018-06-21T18:13:05Z</time>
      </trkpt>
      <trkpt lat="42.97767" lon="-0.04271">
        <ele>852</ele>
        <time>2018-06-21T18:18:05Z</time>
      </trkpt>
      <trkpt lat="42.97805" lon="-0.04288">
        <ele>850</ele>
        <time>2018-06-21T18:20:05Z</time>
      </trkpt>
      <trkpt lat="42.9782" lon="-0.04305">
        <ele>847</ele>
        <time>2018-06-21T18:22:05Z</time>
      </trkpt>
      <trkpt lat="42.97841" lon="-0.04337">
        <ele>845</ele>
        <time>2018-06-21T18:24:05Z</time>
      </trkpt>
      <trkpt lat="42.9787" lon="-0.04344">
        <ele>848</ele>
        <time>2018-06-21T18:28:05Z</time>
      </trkpt>
      <trkpt lat="42.97905" lon="-0.04334">
        <ele>853</ele>
        <time>2018-06-21T18:29:05Z</time>
      </trkpt>
      <trkpt lat="42.97928" lon="-0.04326">
        <ele>859</ele>
        <time>2018-06-21T18:31:05Z</time>
      </trkpt>
      <trkpt lat="42.97937" lon="-0.04317">
        <ele>863</ele>
        <time>2018-06-21T18:32:05Z</time>
      </trkpt>
      <trkpt lat="42.97943" lon="-0.043">
        <ele>868</ele>
        <time>2018-06-21T18:33:05Z</time>
      </trkpt>
      <trkpt lat="42.97951" lon="-0.04287">
        <ele>872</ele>
        <time>2018-06-21T18:34:05Z</time>
      </trkpt>
      <trkpt lat="42.9796" lon="-0.04282">
        <ele>876</ele>
        <time>2018-06-21T18:36:05Z</time>
      </trkpt>
      <trkpt lat="42.97983" lon="-0.04342">
        <ele>871</ele>
        <time>2018-06-21T18:42:05Z</time>
      </trkpt>
      <trkpt lat="42.98021" lon="-0.04402">
        <ele>874</ele>
        <time>2018-06-21T18:46:05Z</time>
      </trkpt>
      <trkpt lat="42.98021" lon="-0.04402">
        <ele>874</ele>
        <time>2018-06-21T18:47:05Z</time>
      </trkpt>
      <trkpt lat="42.98044" lon="-0.04419">
        <ele>877</ele>
        <time>2018-06-21T18:48:05Z</time>
      </trkpt>
      <trkpt lat="42.98068" lon="-0.04416">
        <ele>883</ele>
        <time>2018-06-21T18:50:05Z</time>
      </trkpt>
      <trkpt lat="42.98091" lon="-0.04409">
        <ele>890</ele>
        <time>2018-06-21T18:51:05Z</time>
      </trkpt>
      <trkpt lat="42.98107" lon="-0.04408">
        <ele>895</ele>
        <time>2018-06-21T18:52:05Z</time>
      </trkpt>
      <trkpt lat="42.98123" lon="-0.0441">
        <ele>898</ele>
        <time>2018-06-21T18:54:05Z</time>
      </trkpt>
      <trkpt lat="42.98147" lon="-0.04421">
        <ele>900</ele>
        <time>2018-06-21T18:57:05Z</time>
      </trkpt>
      <trkpt lat="42.98169" lon="-0.04456">
        <ele>897</ele>
        <time>2018-06-21T19:02:05Z</time>
      </trkpt>
      <trkpt lat="42.98177" lon="-0.04478">
        <ele>894</ele>
        <time>2018-06-21T19:04:05Z</time>
      </trkpt>
      <trkpt lat="42.98187" lon="-0.0449">
        <ele>893</ele>
        <time>2018-06-21T19:06:05Z</time>
      </trkpt>
      <trkpt lat="42.98206" lon="-0.04494">
        <ele>896</ele>
        <time>2018-06-21T19:08:05Z</time>
      </trkpt>
      <trkpt lat="42.9822" lon="-0.04492">
        <ele>899</ele>
        <time>2018-06-21T19:09:05Z</time>
      </trkpt>
      <trkpt lat="42.98236" lon="-0.04489">
        <ele>903</ele>
        <time>2018-06-21T19:10:05Z</time>
      </trkpt>
      <trkpt lat="42.98249" lon="-0.04486">
        <ele>906</ele>
        <time>2018-06-21T19:11:05Z</time>
      </trkpt>
      <trkpt lat="42.98268" lon="-0.04478">
        <ele>909</ele>
        <time>2018-06-21T19:12:05Z</time>
      </trkpt>
      <trkpt lat="42.9829" lon="-0.04469">
        <ele>912</ele>
        <time>2018-06-21T19:13:05Z</time>
      </trkpt>
      <trkpt lat="42.98306" lon="-0.04463">
        <ele>913</ele>
        <time>2018-06-21T19:15:05Z</time>
      </trkpt>
      <trkpt lat="42.98328" lon="-0.04461">
        <ele>915</ele>
        <time>2018-06-21T19:17:05Z</time>
      </trkpt>
      <trkpt lat="42.98374" lon="-0.04476">
        <ele>918</ele>
        <time>2018-06-21T19:22:05Z</time>
      </trkpt>
      <trkpt lat="42.98407" lon="-0.0446">
        <ele>921</ele>
        <time>2018-06-21T19:29:05Z</time>
      </trkpt>
      <trkpt lat="42.98411" lon="-0.04424">
        <ele>924</ele>
        <time>2018-06-21T19:32:05Z</time>
      </trkpt>
      <trkpt lat="42.98417" lon="-0.04411">
        <ele>926</ele>
        <time>2018-06-21T19:35:05Z</time>
      </trkpt>
      <trkpt lat="42.9844" lon="-0.04401">
        <ele>929</ele>
        <time>2018-06-21T19:38:05Z</time>
      </trkpt>
      <trkpt lat="42.98469" lon="-0.04398">
        <ele>932</ele>
        <time>2018-06-21T19:40:05Z</time>
      </trkpt>
      <trkpt lat="42.985" lon="-0.04389">
        <ele>935</ele>
        <time>2018-06-21T19:42:05Z</time>
      </trkpt>
      <trkpt lat="42.98541" lon="-0.04379">
        <ele>938</ele>
        <time>2018-06-21T19:45:05Z</time>
      </trkpt>
      <trkpt lat="42.98584" lon="-0.04378">
        <ele>940</ele>
        <time>2018-06-21T19:48:05Z</time>
      </trkpt>
      <trkpt lat="42.98623" lon="-0.04385">
        <ele>944</ele>
        <time>2018-06-21T19:51:05Z</time>
      </trkpt>
      <trkpt lat="42.98652" lon="-0.04391">
        <ele>947</ele>
        <time>2018-06-21T19:53:05Z</time>
      </trkpt>
      <trkpt lat="42.98695" lon="-0.04399">
        <ele>950</ele>
        <time>2018-06-21T19:56:05Z</time>
      </trkpt>
      <trkpt lat="42.98706" lon="-0.04402">
        <ele>951</ele>
        <time>2018-06-21T19:58:05Z</time>
      </trkpt>
      <trkpt lat="42.98745" lon="-0.04402">
        <ele>954</ele>
        <time>2018-06-21T20:04:05Z</time>
      </trkpt>
      <trkpt lat="42.98755" lon="-0.04397">
        <ele>955</ele>
        <time>2018-06-21T20:06:05Z</time>
      </trkpt>
      <trkpt lat="42.98794" lon="-0.04379">
        <ele>958</ele>
        <time>2018-06-21T20:12:05Z</time>
      </trkpt>
      <trkpt lat="42.98837" lon="-0.0435">
        <ele>963</ele>
        <time>2018-06-21T20:18:05Z</time>
      </trkpt>
      <trkpt lat="42.9885" lon="-0.04335">
        <ele>966</ele>
        <time>2018-06-21T20:20:05Z</time>
      </trkpt>
      <trkpt lat="42.98866" lon="-0.04322">
        <ele>970</ele>
        <time>2018-06-21T20:22:05Z</time>
      </trkpt>
      <trkpt lat="42.98869" lon="-0.04319">
        <ele>970</ele>
        <time>2018-06-21T20:23:05Z</time>
      </trkpt>
      <trkpt lat="42.9889" lon="-0.04316">
        <ele>973</ele>
        <time>2018-06-21T20:26:05Z</time>
      </trkpt>
      <trkpt lat="42.98897" lon="-0.04318">
        <ele>973</ele>
        <time>2018-06-21T20:27:05Z</time>
      </trkpt>
      <trkpt lat="42.98959" lon="-0.04356">
        <ele>974</ele>
        <time>2018-06-21T20:32:05Z</time>
      </trkpt>
      <trkpt lat="42.98987" lon="-0.04356">
        <ele>978</ele>
        <time>2018-06-21T20:36:05Z</time>
      </trkpt>
      <trkpt lat="42.98998" lon="-0.04335">
        <ele>983</ele>
        <time>2018-06-21T20:38:05Z</time>
      </trkpt>
      <trkpt lat="42.98998" lon="-0.04312">
        <ele>987</ele>
        <time>2018-06-21T20:40:05Z</time>
      </trkpt>
      <trkpt lat="42.9899" lon="-0.04294">
        <ele>990</ele>
        <time>2018-06-21T20:42:05Z</time>
      </trkpt>
      <trkpt lat="42.98964" lon="-0.04253">
        <ele>993</ele>
        <time>2018-06-21T20:45:05Z</time>
      </trkpt>
      <trkpt lat="42.98947" lon="-0.04225">
        <ele>998</ele>
        <time>2018-06-21T20:46:05Z</time>
      </trkpt>
      <trkpt lat="42.98932" lon="-0.04201">
        <ele>1002</ele>
        <time>2018-06-21T20:48:05Z</time>
      </trkpt>
      <trkpt lat="42.98918" lon="-0.0418">
        <ele>1006</ele>
        <time>2018-06-21T20:50:05Z</time>
      </trkpt>
      <trkpt lat="42.98898" lon="-0.04168">
        <ele>1008</ele>
        <time>2018-06-21T20:53:05Z</time>
      </trkpt>
      <trkpt lat="42.98886" lon="-0.04162">
        <ele>1010</ele>
        <time>2018-06-21T20:55:05Z</time>
      </trkpt>
      <trkpt lat="42.98816" lon="-0.04126">
        <ele>1017</ele>
        <time>2018-06-21T20:58:05Z</time>
      </trkpt>
      <trkpt lat="42.98783" lon="-0.04102">
        <ele>1021</ele>
        <time>2018-06-21T21:00:05Z</time>
      </trkpt>
      <trkpt lat="42.98765" lon="-0.04086">
        <ele>1024</ele>
        <time>2018-06-21T21:01:05Z</time>
      </trkpt>
      <trkpt lat="42.98751" lon="-0.04071">
        <ele>1025</ele>
        <time>2018-06-21T21:03:05Z</time>
      </trkpt>
      <trkpt lat="42.98736" lon="-0.04053">
        <ele>1029</ele>
        <time>2018-06-21T21:04:05Z</time>
      </trkpt>
      <trkpt lat="42.98684" lon="-0.04029">
        <ele>1032</ele>
        <time>2018-06-21T21:06:05Z</time>
      </trkpt>
      <trkpt lat="42.98627" lon="-0.04003">
        <ele>1041</ele>
        <time>2018-06-21T21:08:05Z</time>
      </trkpt>
      <trkpt lat="42.98608" lon="-0.03996">
        <ele>1045</ele>
        <time>2018-06-21T21:09:05Z</time>
      </trkpt>
      <trkpt lat="42.98573" lon="-0.03989">
        <ele>1048</ele>
        <time>2018-06-21T21:10:05Z</time>
      </trkpt>
      <trkpt lat="42.98556" lon="-0.03984">
        <ele>1048</ele>
        <time>2018-06-21T21:11:05Z</time>
      </trkpt>
      <trkpt lat="42.9853" lon="-0.03967">
        <ele>1050</ele>
        <time>2018-06-21T21:14:05Z</time>
      </trkpt>
      <trkpt lat="42.98516" lon="-0.0395">
        <ele>1053</ele>
        <time>2018-06-21T21:15:05Z</time>
      </trkpt>
      <trkpt lat="42.98504" lon="-0.03934">
        <ele>1056</ele>
        <time>2018-06-21T21:16:05Z</time>
      </trkpt>
      <trkpt lat="42.9848" lon="-0.03901">
        <ele>1062</ele>
        <time>2018-06-21T21:17:05Z</time>
      </trkpt>
      <trkpt lat="42.98455" lon="-0.03881">
        <ele>1065</ele>
        <time>2018-06-21T21:18:05Z</time>
      </trkpt>
      <trkpt lat="42.98455" lon="-0.03881">
        <ele>1065</ele>
        <time>2018-06-21T21:19:05Z</time>
      </trkpt>
      <trkpt lat="42.98396" lon="-0.03856">
        <ele>1065</ele>
        <time>2018-06-21T21:23:05Z</time>
      </trkpt>
      <trkpt lat="42.98341" lon="-0.03808">
        <ele>1072</ele>
        <time>2018-06-21T21:26:05Z</time>
      </trkpt>
      <trkpt lat="42.98327" lon="-0.03787">
        <ele>1076</ele>
        <time>2018-06-21T21:28:05Z</time>
      </trkpt>
      <trkpt lat="42.98313" lon="-0.03766">
        <ele>1080</ele>
        <time>2018-06-21T21:29:05Z</time>
      </trkpt>
      <trkpt lat="42.98298" lon="-0.03743">
        <ele>1083</ele>
        <time>2018-06-21T21:30:05Z</time>
      </trkpt>
      <trkpt lat="42.98274" lon="-0.0371">
        <ele>1088</ele>
        <time>2018-06-21T21:31:05Z</time>
      </trkpt>
      <trkpt lat="42.98269" lon="-0.03704">
        <ele>1089</ele>
        <time>2018-06-21T21:33:05Z</time>
      </trkpt>
      <trkpt lat="42.98189" lon="-0.03615">
        <ele>1093</ele>
        <time>2018-06-21T21:40:05Z</time>
      </trkpt>
      <trkpt lat="42.98182" lon="-0.03585">
        <ele>1097</ele>
        <time>2018-06-21T21:43:05Z</time>
      </trkpt>
      <trkpt lat="42.98181" lon="-0.03558">
        <ele>1102</ele>
        <time>2018-06-21T21:46:05Z</time>
      </trkpt>
      <trkpt lat="42.98187" lon="-0.03532">
        <ele>1108</ele>
        <time>2018-06-21T21:48:05Z</time>
      </trkpt>
      <trkpt lat="42.98188" lon="-0.03519">
        <ele>1111</ele>
        <time>2018-06-21T21:49:05Z</time>
      </trkpt>
      <trkpt lat="42.98181" lon="-0.03493">
        <ele>1115</ele>
        <time>2018-06-21T21:51:05Z</time>
      </trkpt>
      <trkpt lat="42.98177" lon="-0.03488">
        <ele>1115</ele>
        <time>2018-06-21T21:52:05Z</time>
      </trkpt>
      <trkpt lat="42.98148" lon="-0.03452">
        <ele>1119</ele>
        <time>2018-06-21T21:54:05Z</time>
      </trkpt>
      <trkpt lat="42.98122" lon="-0.03418">
        <ele>1122</ele>
        <time>2018-06-21T21:56:05Z</time>
      </trkpt>
      <trkpt lat="42.98115" lon="-0.03402">
        <ele>1125</ele>
        <time>2018-06-21T21:57:05Z</time>
      </trkpt>
      <trkpt lat="42.98092" lon="-0.03349">
        <ele>1131</ele>
        <time>2018-06-21T21:58:05Z</time>
      </trkpt>
      <trkpt lat="42.98065" lon="-0.03269">
        <ele>1138</ele>
        <time>2018-06-21T22:00:05Z</time>
      </trkpt>
      <trkpt lat="42.9806" lon="-0.03247">
        <ele>1141</ele>
        <time>2018-06-21T22:01:05Z</time>
      </trkpt>
      <trkpt lat="42.9806" lon="-0.03246">
        <ele>1141</ele>
        <time>2018-06-21T22:02:05Z</time>
      </trkpt>
      <trkpt lat="42.98054" lon="-0.03217">
        <ele>1146</ele>
        <time>2018-06-21T22:03:05Z</time>
      </trkpt>
      <trkpt lat="42.98048" lon="-0.03195">
        <ele>1150</ele>
        <time>2018-06-21T22:04:05Z</time>
      </trkpt>
      <trkpt lat="42.98047" lon="-0.03193">
        <ele>1150</ele>
        <time>2018-06-21T22:05:05Z</time>
      </trkpt>
      <trkpt lat="42.98031" lon="-0.03169">
        <ele>1152</ele>
        <time>2018-06-21T22:08:05Z</time>
      </trkpt>
      <trkpt lat="42.97947" lon="-0.03147">
        <ele>1149</ele>
        <time>2018-06-21T22:11:05Z</time>
      </trkpt>
      <trkpt lat="42.97926" lon="-0.0314">
        <ele>1149</ele>
        <time>2018-06-21T22:12:05Z</time>
      </trkpt>
      <trkpt lat="42.97898" lon="-0.03111">
        <ele>1150</ele>
        <time>2018-06-21T22:17:05Z</time>
      </trkpt>
      <trkpt lat="42.97898" lon="-0.03103">
        <ele>1153</ele>
        <time>2018-06-21T22:18:05Z</time>
      </trkpt>
      <trkpt lat="42.97902" lon="-0.03096">
        <ele>1156</ele>
        <time>2018-06-21T22:19:05Z</time>
      </trkpt>
      <trkpt lat="42.97911" lon="-0.03094">
        <ele>1159</ele>
        <time>2018-06-21T22:21:05Z</time>
      </trkpt>
      <trkpt lat="42.9797" lon="-0.03111">
        <ele>1163</ele>
        <time>2018-06-21T22:28:05Z</time>
      </trkpt>
      <trkpt lat="42.97973" lon="-0.03105">
        <ele>1165</ele>
        <time>2018-06-21T22:30:05Z</time>
      </trkpt>
      <trkpt lat="42.9797" lon="-0.03095">
        <ele>1168</ele>
        <time>2018-06-21T22:31:05Z</time>
      </trkpt>
      <trkpt lat="42.97951" lon="-0.03083">
        <ele>1169</ele>
        <time>2018-06-21T22:33:05Z</time>
      </trkpt>
      <trkpt lat="42.97909" lon="-0.03043">
        <ele>1171</ele>
        <time>2018-06-21T22:38:05Z</time>
      </trkpt>
      <trkpt lat="42.97904" lon="-0.03022">
        <ele>1174</ele>
        <time>2018-06-21T22:40:05Z</time>
      </trkpt>
      <trkpt lat="42.97903" lon="-0.03021">
        <ele>1174</ele>
        <time>2018-06-21T22:41:05Z</time>
      </trkpt>
      <trkpt lat="42.97901" lon="-0.03005">
        <ele>1177</ele>
        <time>2018-06-21T22:42:05Z</time>
      </trkpt>
      <trkpt lat="42.97904" lon="-0.02963">
        <ele>1179</ele>
        <time>2018-06-21T22:45:05Z</time>
      </trkpt>
      <trkpt lat="42.97915" lon="-0.02925">
        <ele>1183</ele>
        <time>2018-06-21T22:48:05Z</time>
      </trkpt>
      <trkpt lat="42.97921" lon="-0.02908">
        <ele>1183</ele>
        <time>2018-06-21T22:49:05Z</time>
      </trkpt>
      <trkpt lat="42.97922" lon="-0.02869">
        <ele>1181</ele>
        <time>2018-06-21T22:52:05Z</time>
      </trkpt>
      <trkpt lat="42.97917" lon="-0.02841">
        <ele>1178</ele>
        <time>2018-06-21T22:54:05Z</time>
      </trkpt>
      <trkpt lat="42.97914" lon="-0.02831">
        <ele>1178</ele>
        <time>2018-06-21T22:55:05Z</time>
      </trkpt>
      <trkpt lat="42.97886" lon="-0.02774">
        <ele>1181</ele>
        <time>2018-06-21T22:59:05Z</time>
      </trkpt>
      <trkpt lat="42.97869" lon="-0.02716">
        <ele>1187</ele>
        <time>2018-06-21T23:01:05Z</time>
      </trkpt>
      <trkpt lat="42.9786" lon="-0.0269">
        <ele>1190</ele>
        <time>2018-06-21T23:03:05Z</time>
      </trkpt>
      <trkpt lat="42.97849" lon="-0.02653">
        <ele>1194</ele>
        <time>2018-06-21T23:04:05Z</time>
      </trkpt>
      <trkpt lat="42.97846" lon="-0.02633">
        <ele>1197</ele>
        <time>2018-06-21T23:06:05Z</time>
      </trkpt>
      <trkpt lat="42.97848" lon="-0.02613">
        <ele>1201</ele>
        <time>2018-06-21T23:08:05Z</time>
      </trkpt>
      <trkpt lat="42.97855" lon="-0.02594">
        <ele>1204</ele>
        <time>2018-06-21T23:09:05Z</time>
      </trkpt>
      <trkpt lat="42.97874" lon="-0.0255">
        <ele>1211</ele>
        <time>2018-06-21T23:10:05Z</time>
      </trkpt>
      <trkpt lat="42.97889" lon="-0.02522">
        <ele>1214</ele>
        <time>2018-06-21T23:11:05Z</time>
      </trkpt>
      <trkpt lat="42.97895" lon="-0.02494">
        <ele>1216</ele>
        <time>2018-06-21T23:13:05Z</time>
      </trkpt>
      <trkpt lat="42.97885" lon="-0.02464">
        <ele>1219</ele>
        <time>2018-06-21T23:15:05Z</time>
      </trkpt>
      <trkpt lat="42.9787" lon="-0.02456">
        <ele>1220</ele>
        <time>2018-06-21T23:17:05Z</time>
      </trkpt>
      <trkpt lat="42.97844" lon="-0.02491">
        <ele>1217</ele>
        <time>2018-06-21T23:21:05Z</time>
      </trkpt>
      <trkpt lat="42.97836" lon="-0.02503">
        <ele>1216</ele>
        <time>2018-06-21T23:23:05Z</time>
      </trkpt>
      <trkpt lat="42.97757" lon="-0.02569">
        <ele>1218</ele>
        <time>2018-06-21T23:29:05Z</time>
      </trkpt>
      <trkpt lat="42.97683" lon="-0.02623">
        <ele>1219</ele>
        <time>2018-06-21T23:34:05Z</time>
      </trkpt>
      <trkpt lat="42.97666" lon="-0.02619">
        <ele>1222</ele>
        <time>2018-06-21T23:36:05Z</time>
      </trkpt>
      <trkpt lat="42.97653" lon="-0.02604">
        <ele>1225</ele>
        <time>2018-06-21T23:38:05Z</time>
      </trkpt>
      <trkpt lat="42.97633" lon="-0.02568">
        <ele>1231</ele>
        <time>2018-06-21T23:40:05Z</time>
      </trkpt>
      <trkpt lat="42.97626" lon="-0.02557">
        <ele>1234</ele>
        <time>2018-06-21T23:41:05Z</time>
      </trkpt>
      <trkpt lat="42.97609" lon="-0.02541">
        <ele>1238</ele>
        <time>2018-06-21T23:43:05Z</time>
      </trkpt>
      <trkpt lat="42.97602" lon="-0.02538">
        <ele>1238</ele>
        <time>2018-06-21T23:44:05Z</time>
      </trkpt>
      <trkpt lat="42.97559" lon="-0.02543">
        <ele>1241</ele>
        <time>2018-06-21T23:49:05Z</time>
      </trkpt>
      <trkpt lat="42.97531" lon="-0.02553">
        <ele>1244</ele>
        <time>2018-06-21T23:51:05Z</time>
      </trkpt>
      <trkpt lat="42.97498" lon="-0.02571">
        <ele>1247</ele>
        <time>2018-06-21T23:54:05Z</time>
      </trkpt>
      <trkpt lat="42.97453" lon="-0.02625">
        <ele>1249</ele>
        <time>2018-06-21T23:57:05Z</time>
      </trkpt>
      <trkpt lat="42.97392" lon="-0.02703">
        <ele>1246</ele>
        <time>2018-06-22T00:01:05Z</time>
      </trkpt>
      <trkpt lat="42.97361" lon="-0.02747">
        <ele>1243</ele>
        <time>2018-06-22T00:02:05Z</time>
      </trkpt>
      <trkpt lat="42.97344" lon="-0.02762">
        <ele>1242</ele>
        <time>2018-06-22T00:04:05Z</time>
      </trkpt>
      <trkpt lat="42.97331" lon="-0.02763">
        <ele>1245</ele>
        <time>2018-06-22T00:06:05Z</time>
      </trkpt>
      <trkpt lat="42.97331" lon="-0.02763">
        <ele>1245</ele>
        <time>2018-06-22T00:07:05Z</time>
      </trkpt>
      <trkpt lat="42.97321" lon="-0.02746">
        <ele>1249</ele>
        <time>2018-06-22T00:10:05Z</time>
      </trkpt>
      <trkpt lat="42.97323" lon="-0.02708">
        <ele>1255</ele>
        <time>2018-06-22T00:12:05Z</time>
      </trkpt>
      <trkpt lat="42.97325" lon="-0.02674">
        <ele>1261</ele>
        <time>2018-06-22T00:13:05Z</time>
      </trkpt>
      <trkpt lat="42.97325" lon="-0.02651">
        <ele>1264</ele>
        <time>2018-06-22T00:14:05Z</time>
      </trkpt>
      <trkpt lat="42.97326" lon="-0.02602">
        <ele>1272</ele>
        <time>2018-06-22T00:15:05Z</time>
      </trkpt>
      <trkpt lat="42.9732" lon="-0.02561">
        <ele>1276</ele>
        <time>2018-06-22T00:17:05Z</time>
      </trkpt>
      <trkpt lat="42.97314" lon="-0.02541">
        <ele>1277</ele>
        <time>2018-06-22T00:19:05Z</time>
      </trkpt>
      <trkpt lat="42.97306" lon="-0.02506">
        <ele>1280</ele>
        <time>2018-06-22T00:21:05Z</time>
      </trkpt>
      <trkpt lat="42.973" lon="-0.02449">
        <ele>1285</ele>
        <time>2018-06-22T00:23:05Z</time>
      </trkpt>
      <trkpt lat="42.97291" lon="-0.02395">
        <ele>1291</ele>
        <time>2018-06-22T00:25:05Z</time>
      </trkpt>
      <trkpt lat="42.97279" lon="-0.02347">
        <ele>1296</ele>
        <time>2018-06-22T00:27:05Z</time>
      </trkpt>
      <trkpt lat="42.97273" lon="-0.02305">
        <ele>1301</ele>
        <time>2018-06-22T00:29:05Z</time>
      </trkpt>
      <trkpt lat="42.97262" lon="-0.02256">
        <ele>1307</ele>
        <time>2018-06-22T00:31:05Z</time>
      </trkpt>
      <trkpt lat="42.97258" lon="-0.02239">
        <ele>1309</ele>
        <time>2018-06-22T00:33:05Z</time>
      </trkpt>
      <trkpt lat="42.97252" lon="-0.0221">
        <ele>1313</ele>
        <time>2018-06-22T00:35:05Z</time>
      </trkpt>
      <trkpt lat="42.97245" lon="-0.02182">
        <ele>1316</ele>
        <time>2018-06-22T00:37:05Z</time>
      </trkpt>
      <trkpt lat="42.97217" lon="-0.02142">
        <ele>1318</ele>
        <time>2018-06-22T00:40:05Z</time>
      </trkpt>
      <trkpt lat="42.97202" lon="-0.02097">
        <ele>1322</ele>
        <time>2018-06-22T00:43:05Z</time>
      </trkpt>
      <trkpt lat="42.97198" lon="-0.02062">
        <ele>1325</ele>
        <time>2018-06-22T00:45:05Z</time>
      </trkpt>
      <trkpt lat="42.97197" lon="-0.0203">
        <ele>1329</ele>
        <time>2018-06-22T00:46:05Z</time>
      </trkpt>
      <trkpt lat="42.97197" lon="-0.02">
        <ele>1332</ele>
        <time>2018-06-22T00:47:05Z</time>
      </trkpt>
      <trkpt lat="42.9719" lon="-0.01947">
        <ele>1336</ele>
        <time>2018-06-22T00:49:05Z</time>
      </trkpt>
      <trkpt lat="42.97173" lon="-0.01884">
        <ele>1339</ele>
        <time>2018-06-22T00:52:05Z</time>
      </trkpt>
      <trkpt lat="42.97171" lon="-0.01877">
        <ele>1339</ele>
        <time>2018-06-22T00:53:05Z</time>
      </trkpt>
      <trkpt lat="42.97169" lon="-0.01835">
        <ele>1342</ele>
        <time>2018-06-22T00:56:05Z</time>
      </trkpt>
      <trkpt lat="42.97176" lon="-0.0181">
        <ele>1346</ele>
        <time>2018-06-22T00:58:05Z</time>
      </trkpt>
      <trkpt lat="42.9719" lon="-0.01794">
        <ele>1350</ele>
        <time>2018-06-22T01:00:05Z</time>
      </trkpt>
      <trkpt lat="42.972" lon="-0.01791">
        <ele>1353</ele>
        <time>2018-06-22T01:01:05Z</time>
      </trkpt>
      <trkpt lat="42.97218" lon="-0.01796">
        <ele>1356</ele>
        <time>2018-06-22T01:03:05Z</time>
      </trkpt>
      <trkpt lat="42.97222" lon="-0.01804">
        <ele>1356</ele>
        <time>2018-06-22T01:04:05Z</time>
      </trkpt>
      <trkpt lat="42.97237" lon="-0.01872">
        <ele>1354</ele>
        <time>2018-06-22T01:06:05Z</time>
      </trkpt>
      <trkpt lat="42.97267" lon="-0.01911">
        <ele>1357</ele>
        <time>2018-06-22T01:09:05Z</time>
      </trkpt>
      <trkpt lat="42.97298" lon="-0.01937">
        <ele>1362</ele>
        <time>2018-06-22T01:11:05Z</time>
      </trkpt>
      <trkpt lat="42.97312" lon="-0.01948">
        <ele>1363</ele>
        <time>2018-06-22T01:13:05Z</time>
      </trkpt>
      <trkpt lat="42.97325" lon="-0.01953">
        <ele>1366</ele>
        <time>2018-06-22T01:14:05Z</time>
      </trkpt>
      <trkpt lat="42.97344" lon="-0.01949">
        <ele>1368</ele>
        <time>2018-06-22T01:16:05Z</time>
      </trkpt>
      <trkpt lat="42.97381" lon="-0.01911">
        <ele>1372</ele>
        <time>2018-06-22T01:19:05Z</time>
      </trkpt>
      <trkpt lat="42.97384" lon="-0.01906">
        <ele>1372</ele>
        <time>2018-06-22T01:20:05Z</time>
      </trkpt>
      <trkpt lat="42.974" lon="-0.0187">
        <ele>1375</ele>
        <time>2018-06-22T01:23:05Z</time>
      </trkpt>
      <trkpt lat="42.9741" lon="-0.01837">
        <ele>1379</ele>
        <time>2018-06-22T01:25:05Z</time>
      </trkpt>
      <trkpt lat="42.97423" lon="-0.01815">
        <ele>1382</ele>
        <time>2018-06-22T01:28:05Z</time>
      </trkpt>
      <trkpt lat="42.97484" lon="-0.0177">
        <ele>1388</ele>
        <time>2018-06-22T01:30:05Z</time>
      </trkpt>
      <trkpt lat="42.97516" lon="-0.0175">
        <ele>1392</ele>
        <time>2018-06-22T01:32:05Z</time>
      </trkpt>
      <trkpt lat="42.97549" lon="-0.01728">
        <ele>1395</ele>
        <time>2018-06-22T01:34:05Z</time>
      </trkpt>
      <trkpt lat="42.97579" lon="-0.01699">
        <ele>1399</ele>
        <time>2018-06-22T01:36:05Z</time>
      </trkpt>
      <trkpt lat="42.97592" lon="-0.01681">
        <ele>1400</ele>
        <time>2018-06-22T01:38:05Z</time>
      </trkpt>
      <trkpt lat="42.97604" lon="-0.0165">
        <ele>1403</ele>
        <time>2018-06-22T01:40:05Z</time>
      </trkpt>
      <trkpt lat="42.97623" lon="-0.01593">
        <ele>1406</ele>
        <time>2018-06-22T01:42:05Z</time>
      </trkpt>
      <trkpt lat="42.97644" lon="-0.0154">
        <ele>1411</ele>
        <time>2018-06-22T01:44:05Z</time>
      </trkpt>
      <trkpt lat="42.97655" lon="-0.01514">
        <ele>1414</ele>
        <time>2018-06-22T01:46:05Z</time>
      </trkpt>
      <trkpt lat="42.9767" lon="-0.01497">
        <ele>1415</ele>
        <time>2018-06-22T01:48:05Z</time>
      </trkpt>
      <trkpt lat="42.97731" lon="-0.01455">
        <ele>1416</ele>
        <time>2018-06-22T01:54:05Z</time>
      </trkpt>
      <trkpt lat="42.97738" lon="-0.01419">
        <ele>1420</ele>
        <time>2018-06-22T01:59:05Z</time>
      </trkpt>
      <trkpt lat="42.97725" lon="-0.01414">
        <ele>1423</ele>
        <time>2018-06-22T02:01:05Z</time>
      </trkpt>
      <trkpt lat="42.97684" lon="-0.0143">
        <ele>1426</ele>
        <time>2018-06-22T02:03:05Z</time>
      </trkpt>
      <trkpt lat="42.9762" lon="-0.01441">
        <ele>1432</ele>
        <time>2018-06-22T02:04:05Z</time>
      </trkpt>
      <trkpt lat="42.97571" lon="-0.01452">
        <ele>1434</ele>
        <time>2018-06-22T02:06:05Z</time>
      </trkpt>
      <trkpt lat="42.97524" lon="-0.01487">
        <ele>1432</ele>
        <time>2018-06-22T02:09:05Z</time>
      </trkpt>
      <trkpt lat="42.97493" lon="-0.01479">
        <ele>1435</ele>
        <time>2018-06-22T02:13:05Z</time>
      </trkpt>
      <trkpt lat="42.97487" lon="-0.01452">
        <ele>1438</ele>
        <time>2018-06-22T02:16:05Z</time>
      </trkpt>
      <trkpt lat="42.97503" lon="-0.01429">
        <ele>1442</ele>
        <time>2018-06-22T02:18:05Z</time>
      </trkpt>
      <trkpt lat="42.97559" lon="-0.01394">
        <ele>1446</ele>
        <time>2018-06-22T02:21:05Z</time>
      </trkpt>
      <trkpt lat="42.97601" lon="-0.01362">
        <ele>1451</ele>
        <time>2018-06-22T02:22:05Z</time>
      </trkpt>
      <trkpt lat="42.97628" lon="-0.0134">
        <ele>1455</ele>
        <time>2018-06-22T02:23:05Z</time>
      </trkpt>
      <trkpt lat="42.97673" lon="-0.0131">
        <ele>1458</ele>
        <time>2018-06-22T02:26:05Z</time>
      </trkpt>
      <trkpt lat="42.97693" lon="-0.01293">
        <ele>1458</ele>
        <time>2018-06-22T02:27:05Z</time>
      </trkpt>
      <trkpt lat="42.97735" lon="-0.01218">
        <ele>1460</ele>
        <time>2018-06-22T02:30:05Z</time>
      </trkpt>
      <trkpt lat="42.97733" lon="-0.01192">
        <ele>1464</ele>
        <time>2018-06-22T02:32:05Z</time>
      </trkpt>
      <trkpt lat="42.97726" lon="-0.01169">
        <ele>1469</ele>
        <time>2018-06-22T02:33:05Z</time>
      </trkpt>
      <trkpt lat="42.97709" lon="-0.01128">
        <ele>1475</ele>
        <time>2018-06-22T02:34:05Z</time>
      </trkpt>
      <trkpt lat="42.97691" lon="-0.01047">
        <ele>1480</ele>
        <time>2018-06-22T02:35:05Z</time>
      </trkpt>
      <trkpt lat="42.9768" lon="-0.01008">
        <ele>1483</ele>
        <time>2018-06-22T02:37:05Z</time>
      </trkpt>
      <trkpt lat="42.97666" lon="-0.00984">
        <ele>1488</ele>
        <time>2018-06-22T02:38:05Z</time>
      </trkpt>
      <trkpt lat="42.97659" lon="-0.0096">
        <ele>1491</ele>
        <time>2018-06-22T02:39:05Z</time>
      </trkpt>
      <trkpt lat="42.97659" lon="-0.00949">
        <ele>1491</ele>
        <time>2018-06-22T02:40:05Z</time>
      </trkpt>
      <trkpt lat="42.97672" lon="-0.00928">
        <ele>1488</ele>
        <time>2018-06-22T02:42:05Z</time>
      </trkpt>
      <trkpt lat="42.97701" lon="-0.00896">
        <ele>1487</ele>
        <time>2018-06-22T02:44:05Z</time>
      </trkpt>
      <trkpt lat="42.97702" lon="-0.00877">
        <ele>1490</ele>
        <time>2018-06-22T02:47:05Z</time>
      </trkpt>
      <trkpt lat="42.97691" lon="-0.00859">
        <ele>1494</ele>
        <time>2018-06-22T02:49:05Z</time>
      </trkpt>
      <trkpt lat="42.9767" lon="-0.00849">
        <ele>1499</ele>
        <time>2018-06-22T02:50:05Z</time>
      </trkpt>
      <trkpt lat="42.97659" lon="-0.00848">
        <ele>1502</ele>
        <time>2018-06-22T02:51:05Z</time>
      </trkpt>
      <trkpt lat="42.97642" lon="-0.00854">
        <ele>1506</ele>
        <time>2018-06-22T02:53:05Z</time>
      </trkpt>
      <trkpt lat="42.97628" lon="-0.00878">
        <ele>1507</ele>
        <time>2018-06-22T02:55:05Z</time>
      </trkpt>
      <trkpt lat="42.97626" lon="-0.00952">
        <ele>1502</ele>
        <time>2018-06-22T02:57:05Z</time>
      </trkpt>
      <trkpt lat="42.97619" lon="-0.01043">
        <ele>1502</ele>
        <time>2018-06-22T03:01:05Z</time>
      </trkpt>
      <trkpt lat="42.976" lon="-0.01134">
        <ele>1505</ele>
        <time>2018-06-22T03:03:05Z</time>
      </trkpt>
      <trkpt lat="42.97593" lon="-0.0115">
        <ele>1505</ele>
        <time>2018-06-22T03:04:05Z</time>
      </trkpt>
      <trkpt lat="42.97544" lon="-0.01133">
        <ele>1507</ele>
        <time>2018-06-22T03:11:05Z</time>
      </trkpt>
      <trkpt lat="42.97544" lon="-0.01107">
        <ele>1510</ele>
        <time>2018-06-22T03:13:05Z</time>
      </trkpt>
      <trkpt lat="42.97547" lon="-0.01069">
        <ele>1513</ele>
        <time>2018-06-22T03:14:05Z</time>
      </trkpt>
      <trkpt lat="42.97547" lon="-0.01069">
        <ele>1513</ele>
        <time>2018-06-22T03:15:05Z</time>
      </trkpt>
      <trkpt lat="42.97513" lon="-0.01042">
        <ele>1517</ele>
        <time>2018-06-22T03:17:05Z</time>
      </trkpt>
      <trkpt lat="42.97478" lon="-0.01008">
        <ele>1520</ele>
        <time>2018-06-22T03:18:05Z</time>
      </trkpt>
      <trkpt lat="42.97468" lon="-0.01">
        <ele>1520</ele>
        <time>2018-06-22T03:19:05Z</time>
      </trkpt>
      <trkpt lat="42.97421" lon="-0.00954">
        <ele>1524</ele>
        <time>2018-06-22T03:21:05Z</time>
      </trkpt>
      <trkpt lat="42.97397" lon="-0.00932">
        <ele>1523</ele>
        <time>2018-06-22T03:22:05Z</time>
      </trkpt>
      <trkpt lat="42.97339" lon="-0.00857">
        <ele>1525</ele>
        <time>2018-06-22T03:27:05Z</time>
      </trkpt>
      <trkpt lat="42.97295" lon="-0.00808">
        <ele>1528</ele>
        <time>2018-06-22T03:29:05Z</time>
      </trkpt>
      <trkpt lat="42.97264" lon="-0.00749">
        <ele>1531</ele>
        <time>2018-06-22T03:31:05Z</time>
      </trkpt>
      <trkpt lat="42.97258" lon="-0.0074">
        <ele>1531</ele>
        <time>2018-06-22T03:32:05Z</time>
      </trkpt>
      <trkpt lat="42.97221" lon="-0.00744">
        <ele>1528</ele>
        <time>2018-06-22T03:37:05Z</time>
      </trkpt>
      <trkpt lat="42.97213" lon="-0.00781">
        <ele>1524</ele>
        <time>2018-06-22T03:39:05Z</time>
      </trkpt>
      <trkpt lat="42.97216" lon="-0.00819">
        <ele>1520</ele>
        <time>2018-06-22T03:41:05Z</time>
      </trkpt>
      <trkpt lat="42.97205" lon="-0.00865">
        <ele>1515</ele>
        <time>2018-06-22T03:44:05Z</time>
      </trkpt>
      <trkpt lat="42.972" lon="-0.009">
        <ele>1512</ele>
        <time>2018-06-22T03:45:05Z</time>
      </trkpt>
      <trkpt lat="42.97197" lon="-0.0091">
        <ele>1511</ele>
        <time>2018-06-22T03:47:05Z</time>
      </trkpt>
      <trkpt lat="42.97178" lon="-0.00944">
        <ele>1509</ele>
        <time>2018-06-22T03:50:05Z</time>
      </trkpt>
      <trkpt lat="42.97178" lon="-0.00944">
        <ele>1509</ele>
        <time>2018-06-22T03:57:05Z</time>
      </trkpt>
      <trkpt lat="42.97197" lon="-0.0091">
        <ele>1511</ele>
        <time>2018-06-22T04:00:05Z</time>
      </trkpt>
      <trkpt lat="42.97205" lon="-0.00865">
        <ele>1515</ele>
        <time>2018-06-22T04:02:05Z</time>
      </trkpt>
      <trkpt lat="42.97211" lon="-0.00842">
        <ele>1518</ele>
        <time>2018-06-22T04:03:05Z</time>
      </trkpt>
      <trkpt lat="42.97214" lon="-0.00803">
        <ele>1522</ele>
        <time>2018-06-22T04:06:05Z</time>
      </trkpt>
      <trkpt lat="42.97216" lon="-0.00762">
        <ele>1526</ele>
        <time>2018-06-22T04:08:05Z</time>
      </trkpt>
      <trkpt lat="42.97225" lon="-0.00735">
        <ele>1530</ele>
        <time>2018-06-22T04:10:05Z</time>
      </trkpt>
      <trkpt lat="42.97237" lon="-0.00733">
        <ele>1530</ele>
        <time>2018-06-22T04:11:05Z</time>
      </trkpt>
      <trkpt lat="42.97313" lon="-0.00833">
        <ele>1526</ele>
        <time>2018-06-22T04:18:05Z</time>
      </trkpt>
      <trkpt lat="42.97348" lon="-0.00869">
        <ele>1525</ele>
        <time>2018-06-22T04:20:05Z</time>
      </trkpt>
      <trkpt lat="42.9736" lon="-0.00892">
        <ele>1522</ele>
        <time>2018-06-22T04:21:05Z</time>
      </trkpt>
      <trkpt lat="42.97468" lon="-0.01">
        <ele>1520</ele>
        <time>2018-06-22T04:27:05Z</time>
      </trkpt>
      <trkpt lat="42.97478" lon="-0.01008">
        <ele>1520</ele>
        <time>2018-06-22T04:28:05Z</time>
      </trkpt>
      <trkpt lat="42.97513" lon="-0.01042">
        <ele>1517</ele>
        <time>2018-06-22T04:29:05Z</time>
      </trkpt>
      <trkpt lat="42.97536" lon="-0.01063">
        <ele>1514</ele>
        <time>2018-06-22T04:30:05Z</time>
      </trkpt>
      <trkpt lat="42.97547" lon="-0.01069">
        <ele>1513</ele>
        <time>2018-06-22T04:32:05Z</time>
      </trkpt>
      <trkpt lat="42.97544" lon="-0.01107">
        <ele>1510</ele>
        <time>2018-06-22T04:33:05Z</time>
      </trkpt>
      <trkpt lat="42.97544" lon="-0.01133">
        <ele>1507</ele>
        <time>2018-06-22T04:35:05Z</time>
      </trkpt>
      <trkpt lat="42.9756" lon="-0.01159">
        <ele>1505</ele>
        <time>2018-06-22T04:38:05Z</time>
      </trkpt>
      <trkpt lat="42.97619" lon="-0.01043">
        <ele>1502</ele>
        <time>2018-06-22T04:45:05Z</time>
      </trkpt>
      <trkpt lat="42.97626" lon="-0.00952">
        <ele>1502</ele>
        <time>2018-06-22T04:49:05Z</time>
      </trkpt>
      <trkpt lat="42.97627" lon="-0.00904">
        <ele>1505</ele>
        <time>2018-06-22T04:50:05Z</time>
      </trkpt>
      <trkpt lat="42.97631" lon="-0.00867">
        <ele>1507</ele>
        <time>2018-06-22T04:52:05Z</time>
      </trkpt>
      <trkpt lat="42.97649" lon="-0.00849">
        <ele>1504</ele>
        <time>2018-06-22T04:54:05Z</time>
      </trkpt>
      <trkpt lat="42.9767" lon="-0.00849">
        <ele>1499</ele>
        <time>2018-06-22T04:56:05Z</time>
      </trkpt>
      <trkpt lat="42.97691" lon="-0.00859">
        <ele>1494</ele>
        <time>2018-06-22T04:57:05Z</time>
      </trkpt>
      <trkpt lat="42.97699" lon="-0.0087">
        <ele>1491</ele>
        <time>2018-06-22T04:58:05Z</time>
      </trkpt>
      <trkpt lat="42.97703" lon="-0.00889">
        <ele>1488</ele>
        <time>2018-06-22T05:01:05Z</time>
      </trkpt>
      <trkpt lat="42.97659" lon="-0.00949">
        <ele>1491</ele>
        <time>2018-06-22T05:06:05Z</time>
      </trkpt>
      <trkpt lat="42.97659" lon="-0.0096">
        <ele>1491</ele>
        <time>2018-06-22T05:07:05Z</time>
      </trkpt>
      <trkpt lat="42.97666" lon="-0.00984">
        <ele>1488</ele>
        <time>2018-06-22T05:08:05Z</time>
      </trkpt>
      <trkpt lat="42.9768" lon="-0.01008">
        <ele>1483</ele>
        <time>2018-06-22T05:09:05Z</time>
      </trkpt>
      <trkpt lat="42.97691" lon="-0.01047">
        <ele>1480</ele>
        <time>2018-06-22T05:11:05Z</time>
      </trkpt>
      <trkpt lat="42.97709" lon="-0.01128">
        <ele>1475</ele>
        <time>2018-06-22T05:12:05Z</time>
      </trkpt>
      <trkpt lat="42.97726" lon="-0.01169">
        <ele>1469</ele>
        <time>2018-06-22T05:13:05Z</time>
      </trkpt>
      <trkpt lat="42.97733" lon="-0.01192">
        <ele>1464</ele>
        <time>2018-06-22T05:14:05Z</time>
      </trkpt>
      <trkpt lat="42.97735" lon="-0.01218">
        <ele>1460</ele>
        <time>2018-06-22T05:16:05Z</time>
      </trkpt>
      <trkpt lat="42.97724" lon="-0.01248">
        <ele>1460</ele>
        <time>2018-06-22T05:17:05Z</time>
      </trkpt>
      <trkpt lat="42.97673" lon="-0.0131">
        <ele>1458</ele>
        <time>2018-06-22T05:20:05Z</time>
      </trkpt>
      <trkpt lat="42.97628" lon="-0.0134">
        <ele>1455</ele>
        <time>2018-06-22T05:23:05Z</time>
      </trkpt>
      <trkpt lat="42.97601" lon="-0.01362">
        <ele>1451</ele>
        <time>2018-06-22T05:24:05Z</time>
      </trkpt>
      <trkpt lat="42.97559" lon="-0.01394">
        <ele>1446</ele>
        <time>2018-06-22T05:25:05Z</time>
      </trkpt>
      <trkpt lat="42.97524" lon="-0.01414">
        <ele>1443</ele>
        <time>2018-06-22T05:27:05Z</time>
      </trkpt>
      <trkpt lat="42.97492" lon="-0.01442">
        <ele>1440</ele>
        <time>2018-06-22T05:29:05Z</time>
      </trkpt>
      <trkpt lat="42.97486" lon="-0.0146">
        <ele>1437</ele>
        <time>2018-06-22T05:31:05Z</time>
      </trkpt>
      <trkpt lat="42.97498" lon="-0.01484">
        <ele>1434</ele>
        <time>2018-06-22T05:34:05Z</time>
      </trkpt>
      <trkpt lat="42.97514" lon="-0.01488">
        <ele>1433</ele>
        <time>2018-06-22T05:36:05Z</time>
      </trkpt>
      <trkpt lat="42.97571" lon="-0.01452">
        <ele>1434</ele>
        <time>2018-06-22T05:40:05Z</time>
      </trkpt>
      <trkpt lat="42.9762" lon="-0.01441">
        <ele>1432</ele>
        <time>2018-06-22T05:42:05Z</time>
      </trkpt>
      <trkpt lat="42.97684" lon="-0.0143">
        <ele>1426</ele>
        <time>2018-06-22T05:43:05Z</time>
      </trkpt>
      <trkpt lat="42.97725" lon="-0.01414">
        <ele>1423</ele>
        <time>2018-06-22T05:45:05Z</time>
      </trkpt>
      <trkpt lat="42.97738" lon="-0.01419">
        <ele>1420</ele>
        <time>2018-06-22T05:47:05Z</time>
      </trkpt>
      <trkpt lat="42.97743" lon="-0.01432">
        <ele>1417</ele>
        <time>2018-06-22T05:49:05Z</time>
      </trkpt>
      <trkpt lat="42.97738" lon="-0.01448">
        <ele>1416</ele>
        <time>2018-06-22T05:51:05Z</time>
      </trkpt>
      <trkpt lat="42.9767" lon="-0.01497">
        <ele>1415</ele>
        <time>2018-06-22T05:57:05Z</time>
      </trkpt>
      <trkpt lat="42.97644" lon="-0.0154">
        <ele>1411</ele>
        <time>2018-06-22T06:01:05Z</time>
      </trkpt>
      <trkpt lat="42.97634" lon="-0.01566">
        <ele>1408</ele>
        <time>2018-06-22T06:02:05Z</time>
      </trkpt>
      <trkpt lat="42.97612" lon="-0.01622">
        <ele>1405</ele>
        <time>2018-06-22T06:04:05Z</time>
      </trkpt>
      <trkpt lat="42.97595" lon="-0.01673">
        <ele>1401</ele>
        <time>2018-06-22T06:06:05Z</time>
      </trkpt>
      <trkpt lat="42.97586" lon="-0.01691">
        <ele>1400</ele>
        <time>2018-06-22T06:08:05Z</time>
      </trkpt>
      <trkpt lat="42.97567" lon="-0.01712">
        <ele>1397</ele>
        <time>2018-06-22T06:10:05Z</time>
      </trkpt>
      <trkpt lat="42.97529" lon="-0.01743">
        <ele>1393</ele>
        <time>2018-06-22T06:12:05Z</time>
      </trkpt>
      <trkpt lat="42.97502" lon="-0.01759">
        <ele>1390</ele>
        <time>2018-06-22T06:14:05Z</time>
      </trkpt>
      <trkpt lat="42.97437" lon="-0.01801">
        <ele>1384</ele>
        <time>2018-06-22T06:16:05Z</time>
      </trkpt>
      <trkpt lat="42.97419" lon="-0.0182">
        <ele>1381</ele>
        <time>2018-06-22T06:18:05Z</time>
      </trkpt>
      <trkpt lat="42.97405" lon="-0.01851">
        <ele>1377</ele>
        <time>2018-06-22T06:21:05Z</time>
      </trkpt>
      <trkpt lat="42.97395" lon="-0.01886">
        <ele>1374</ele>
        <time>2018-06-22T06:23:05Z</time>
      </trkpt>
      <trkpt lat="42.97381" lon="-0.01911">
        <ele>1372</ele>
        <time>2018-06-22T06:25:05Z</time>
      </trkpt>
      <trkpt lat="42.97364" lon="-0.01934">
        <ele>1369</ele>
        <time>2018-06-22T06:27:05Z</time>
      </trkpt>
      <trkpt lat="42.97337" lon="-0.01952">
        <ele>1368</ele>
        <time>2018-06-22T06:29:05Z</time>
      </trkpt>
      <trkpt lat="42.97312" lon="-0.01948">
        <ele>1363</ele>
        <time>2018-06-22T06:31:05Z</time>
      </trkpt>
      <trkpt lat="42.97307" lon="-0.01944">
        <ele>1363</ele>
        <time>2018-06-22T06:32:05Z</time>
      </trkpt>
      <trkpt lat="42.97281" lon="-0.01924">
        <ele>1359</ele>
        <time>2018-06-22T06:34:05Z</time>
      </trkpt>
      <trkpt lat="42.97249" lon="-0.01896">
        <ele>1355</ele>
        <time>2018-06-22T06:36:05Z</time>
      </trkpt>
      <trkpt lat="42.97237" lon="-0.01872">
        <ele>1354</ele>
        <time>2018-06-22T06:38:05Z</time>
      </trkpt>
      <trkpt lat="42.97218" lon="-0.01796">
        <ele>1356</ele>
        <time>2018-06-22T06:41:05Z</time>
      </trkpt>
      <trkpt lat="42.972" lon="-0.01791">
        <ele>1353</ele>
        <time>2018-06-22T06:43:05Z</time>
      </trkpt>
      <trkpt lat="42.9719" lon="-0.01794">
        <ele>1350</ele>
        <time>2018-06-22T06:44:05Z</time>
      </trkpt>
      <trkpt lat="42.97176" lon="-0.0181">
        <ele>1346</ele>
        <time>2018-06-22T06:46:05Z</time>
      </trkpt>
      <trkpt lat="42.97169" lon="-0.01835">
        <ele>1342</ele>
        <time>2018-06-22T06:48:05Z</time>
      </trkpt>
      <trkpt lat="42.97171" lon="-0.01877">
        <ele>1339</ele>
        <time>2018-06-22T06:50:05Z</time>
      </trkpt>
      <trkpt lat="42.97173" lon="-0.01884">
        <ele>1339</ele>
        <time>2018-06-22T06:51:05Z</time>
      </trkpt>
      <trkpt lat="42.9719" lon="-0.01947">
        <ele>1336</ele>
        <time>2018-06-22T06:54:05Z</time>
      </trkpt>
      <trkpt lat="42.97197" lon="-0.02">
        <ele>1332</ele>
        <time>2018-06-22T06:56:05Z</time>
      </trkpt>
      <trkpt lat="42.97197" lon="-0.0203">
        <ele>1329</ele>
        <time>2018-06-22T06:57:05Z</time>
      </trkpt>
      <trkpt lat="42.97198" lon="-0.02062">
        <ele>1325</ele>
        <time>2018-06-22T06:58:05Z</time>
      </trkpt>
      <trkpt lat="42.97202" lon="-0.02097">
        <ele>1322</ele>
        <time>2018-06-22T07:00:05Z</time>
      </trkpt>
      <trkpt lat="42.9721" lon="-0.02126">
        <ele>1319</ele>
        <time>2018-06-22T07:02:05Z</time>
      </trkpt>
      <trkpt lat="42.97229" lon="-0.02159">
        <ele>1318</ele>
        <time>2018-06-22T07:04:05Z</time>
      </trkpt>
      <trkpt lat="42.97249" lon="-0.02194">
        <ele>1315</ele>
        <time>2018-06-22T07:07:05Z</time>
      </trkpt>
      <trkpt lat="42.97255" lon="-0.02226">
        <ele>1310</ele>
        <time>2018-06-22T07:09:05Z</time>
      </trkpt>
      <trkpt lat="42.97262" lon="-0.02256">
        <ele>1307</ele>
        <time>2018-06-22T07:11:05Z</time>
      </trkpt>
      <trkpt lat="42.97268" lon="-0.02286">
        <ele>1303</ele>
        <time>2018-06-22T07:12:05Z</time>
      </trkpt>
      <trkpt lat="42.97276" lon="-0.02324">
        <ele>1298</ele>
        <time>2018-06-22T07:14:05Z</time>
      </trkpt>
      <trkpt lat="42.97284" lon="-0.02369">
        <ele>1293</ele>
        <time>2018-06-22T07:16:05Z</time>
      </trkpt>
      <trkpt lat="42.97298" lon="-0.02431">
        <ele>1287</ele>
        <time>2018-06-22T07:18:05Z</time>
      </trkpt>
      <trkpt lat="42.97303" lon="-0.02482">
        <ele>1282</ele>
        <time>2018-06-22T07:20:05Z</time>
      </trkpt>
      <trkpt lat="42.97308" lon="-0.02518">
        <ele>1279</ele>
        <time>2018-06-22T07:22:05Z</time>
      </trkpt>
      <trkpt lat="42.97318" lon="-0.02552">
        <ele>1277</ele>
        <time>2018-06-22T07:24:05Z</time>
      </trkpt>
      <trkpt lat="42.97324" lon="-0.02587">
        <ele>1274</ele>
        <time>2018-06-22T07:26:05Z</time>
      </trkpt>
      <trkpt lat="42.97325" lon="-0.02651">
        <ele>1264</ele>
        <time>2018-06-22T07:28:05Z</time>
      </trkpt>
      <trkpt lat="42.97325" lon="-0.02674">
        <ele>1261</ele>
        <time>2018-06-22T07:29:05Z</time>
      </trkpt>
      <trkpt lat="42.97323" lon="-0.02708">
        <ele>1255</ele>
        <time>2018-06-22T07:30:05Z</time>
      </trkpt>
      <trkpt lat="42.9732" lon="-0.02739">
        <ele>1250</ele>
        <time>2018-06-22T07:31:05Z</time>
      </trkpt>
      <trkpt lat="42.97322" lon="-0.02754">
        <ele>1247</ele>
        <time>2018-06-22T07:33:05Z</time>
      </trkpt>
      <trkpt lat="42.97331" lon="-0.02763">
        <ele>1245</ele>
        <time>2018-06-22T07:35:05Z</time>
      </trkpt>
      <trkpt lat="42.97344" lon="-0.02762">
        <ele>1242</ele>
        <time>2018-06-22T07:37:05Z</time>
      </trkpt>
      <trkpt lat="42.97353" lon="-0.02756">
        <ele>1242</ele>
        <time>2018-06-22T07:38:05Z</time>
      </trkpt>
      <trkpt lat="42.97392" lon="-0.02703">
        <ele>1246</ele>
        <time>2018-06-22T07:40:05Z</time>
      </trkpt>
      <trkpt lat="42.97408" lon="-0.02679">
        <ele>1250</ele>
        <time>2018-06-22T07:41:05Z</time>
      </trkpt>
      <trkpt lat="42.97469" lon="-0.02604">
        <ele>1249</ele>
        <time>2018-06-22T07:45:05Z</time>
      </trkpt>
      <trkpt lat="42.97507" lon="-0.02564">
        <ele>1246</ele>
        <time>2018-06-22T07:48:05Z</time>
      </trkpt>
      <trkpt lat="42.97544" lon="-0.02548">
        <ele>1243</ele>
        <time>2018-06-22T07:51:05Z</time>
      </trkpt>
      <trkpt lat="42.97565" lon="-0.02541">
        <ele>1240</ele>
        <time>2018-06-22T07:53:05Z</time>
      </trkpt>
      <trkpt lat="42.97584" lon="-0.02538">
        <ele>1238</ele>
        <time>2018-06-22T07:55:05Z</time>
      </trkpt>
      <trkpt lat="42.97626" lon="-0.02557">
        <ele>1234</ele>
        <time>2018-06-22T08:00:05Z</time>
      </trkpt>
      <trkpt lat="42.97633" lon="-0.02568">
        <ele>1231</ele>
        <time>2018-06-22T08:01:05Z</time>
      </trkpt>
      <trkpt lat="42.97648" lon="-0.02595">
        <ele>1226</ele>
        <time>2018-06-22T08:02:05Z</time>
      </trkpt>
      <trkpt lat="42.97657" lon="-0.02611">
        <ele>1223</ele>
        <time>2018-06-22T08:04:05Z</time>
      </trkpt>
      <trkpt lat="42.97683" lon="-0.02623">
        <ele>1219</ele>
        <time>2018-06-22T08:07:05Z</time>
      </trkpt>
      <trkpt lat="42.97715" lon="-0.02605">
        <ele>1217</ele>
        <time>2018-06-22T08:10:05Z</time>
      </trkpt>
      <trkpt lat="42.97812" lon="-0.02528">
        <ele>1216</ele>
        <time>2018-06-22T08:15:05Z</time>
      </trkpt>
      <trkpt lat="42.97819" lon="-0.02523">
        <ele>1216</ele>
        <time>2018-06-22T08:16:05Z</time>
      </trkpt>
      <trkpt lat="42.97853" lon="-0.02473">
        <ele>1219</ele>
        <time>2018-06-22T08:21:05Z</time>
      </trkpt>
      <trkpt lat="42.97895" lon="-0.02494">
        <ele>1216</ele>
        <time>2018-06-22T08:28:05Z</time>
      </trkpt>
      <trkpt lat="42.97894" lon="-0.02506">
        <ele>1216</ele>
        <time>2018-06-22T08:29:05Z</time>
      </trkpt>
      <trkpt lat="42.97874" lon="-0.0255">
        <ele>1211</ele>
        <time>2018-06-22T08:31:05Z</time>
      </trkpt>
      <trkpt lat="42.97855" lon="-0.02594">
        <ele>1204</ele>
        <time>2018-06-22T08:32:05Z</time>
      </trkpt>
      <trkpt lat="42.97848" lon="-0.02613">
        <ele>1201</ele>
        <time>2018-06-22T08:33:05Z</time>
      </trkpt>
      <trkpt lat="42.97846" lon="-0.02626">
        <ele>1198</ele>
        <time>2018-06-22T08:34:05Z</time>
      </trkpt>
      <trkpt lat="42.97849" lon="-0.02653">
        <ele>1194</ele>
        <time>2018-06-22T08:37:05Z</time>
      </trkpt>
      <trkpt lat="42.9786" lon="-0.0269">
        <ele>1190</ele>
        <time>2018-06-22T08:38:05Z</time>
      </trkpt>
      <trkpt lat="42.97866" lon="-0.02705">
        <ele>1188</ele>
        <time>2018-06-22T08:40:05Z</time>
      </trkpt>
      <trkpt lat="42.9788" lon="-0.02756">
        <ele>1182</ele>
        <time>2018-06-22T08:42:05Z</time>
      </trkpt>
      <trkpt lat="42.97898" lon="-0.02798">
        <ele>1179</ele>
        <time>2018-06-22T08:45:05Z</time>
      </trkpt>
      <trkpt lat="42.97906" lon="-0.02813">
        <ele>1179</ele>
        <time>2018-06-22T08:46:05Z</time>
      </trkpt>
      <trkpt lat="42.97923" lon="-0.02882">
        <ele>1181</ele>
        <time>2018-06-22T08:51:05Z</time>
      </trkpt>
      <trkpt lat="42.97915" lon="-0.02925">
        <ele>1183</ele>
        <time>2018-06-22T08:54:05Z</time>
      </trkpt>
      <trkpt lat="42.97907" lon="-0.02951">
        <ele>1180</ele>
        <time>2018-06-22T08:55:05Z</time>
      </trkpt>
      <trkpt lat="42.97906" lon="-0.02952">
        <ele>1180</ele>
        <time>2018-06-22T08:56:05Z</time>
      </trkpt>
      <trkpt lat="42.97901" lon="-0.03005">
        <ele>1177</ele>
        <time>2018-06-22T09:00:05Z</time>
      </trkpt>
      <trkpt lat="42.97903" lon="-0.03021">
        <ele>1174</ele>
        <time>2018-06-22T09:01:05Z</time>
      </trkpt>
      <trkpt lat="42.97904" lon="-0.03022">
        <ele>1174</ele>
        <time>2018-06-22T09:02:05Z</time>
      </trkpt>
      <trkpt lat="42.97909" lon="-0.03043">
        <ele>1171</ele>
        <time>2018-06-22T09:04:05Z</time>
      </trkpt>
      <trkpt lat="42.97915" lon="-0.03052">
        <ele>1171</ele>
        <time>2018-06-22T09:05:05Z</time>
      </trkpt>
      <trkpt lat="42.97937" lon="-0.03074">
        <ele>1169</ele>
        <time>2018-06-22T09:07:05Z</time>
      </trkpt>
      <trkpt lat="42.97973" lon="-0.03105">
        <ele>1165</ele>
        <time>2018-06-22T09:12:05Z</time>
      </trkpt>
      <trkpt lat="42.97973" lon="-0.03105">
        <ele>1165</ele>
        <time>2018-06-22T09:13:05Z</time>
      </trkpt>
      <trkpt lat="42.97963" lon="-0.03114">
        <ele>1161</ele>
        <time>2018-06-22T09:15:05Z</time>
      </trkpt>
      <trkpt lat="42.97945" lon="-0.0311">
        <ele>1160</ele>
        <time>2018-06-22T09:17:05Z</time>
      </trkpt>
      <trkpt lat="42.97905" lon="-0.03095">
        <ele>1157</ele>
        <time>2018-06-22T09:22:05Z</time>
      </trkpt>
      <trkpt lat="42.97898" lon="-0.03103">
        <ele>1153</ele>
        <time>2018-06-22T09:24:05Z</time>
      </trkpt>
      <trkpt lat="42.97898" lon="-0.03111">
        <ele>1150</ele>
        <time>2018-06-22T09:25:05Z</time>
      </trkpt>
      <trkpt lat="42.97904" lon="-0.03123">
        <ele>1149</ele>
        <time>2018-06-22T09:27:05Z</time>
      </trkpt>
      <trkpt lat="42.98024" lon="-0.03165">
        <ele>1152</ele>
        <time>2018-06-22T09:33:05Z</time>
      </trkpt>
      <trkpt lat="42.98031" lon="-0.03169">
        <ele>1152</ele>
        <time>2018-06-22T09:34:05Z</time>
      </trkpt>
      <trkpt lat="42.98048" lon="-0.03195">
        <ele>1150</ele>
        <time>2018-06-22T09:38:05Z</time>
      </trkpt>
      <trkpt lat="42.98054" lon="-0.03217">
        <ele>1146</ele>
        <time>2018-06-22T09:39:05Z</time>
      </trkpt>
      <trkpt lat="42.9806" lon="-0.03246">
        <ele>1141</ele>
        <time>2018-06-22T09:40:05Z</time>
      </trkpt>
      <trkpt lat="42.9806" lon="-0.03247">
        <ele>1141</ele>
        <time>2018-06-22T09:41:05Z</time>
      </trkpt>
      <trkpt lat="42.98065" lon="-0.03269">
        <ele>1138</ele>
        <time>2018-06-22T09:42:05Z</time>
      </trkpt>
      <trkpt lat="42.98085" lon="-0.0333">
        <ele>1133</ele>
        <time>2018-06-22T09:43:05Z</time>
      </trkpt>
      <trkpt lat="42.98115" lon="-0.03402">
        <ele>1125</ele>
        <time>2018-06-22T09:45:05Z</time>
      </trkpt>
      <trkpt lat="42.98122" lon="-0.03418">
        <ele>1122</ele>
        <time>2018-06-22T09:46:05Z</time>
      </trkpt>
      <trkpt lat="42.98148" lon="-0.03452">
        <ele>1119</ele>
        <time>2018-06-22T09:48:05Z</time>
      </trkpt>
      <trkpt lat="42.98177" lon="-0.03488">
        <ele>1115</ele>
        <time>2018-06-22T09:50:05Z</time>
      </trkpt>
      <trkpt lat="42.98181" lon="-0.03493">
        <ele>1115</ele>
        <time>2018-06-22T09:51:05Z</time>
      </trkpt>
      <trkpt lat="42.98188" lon="-0.03511">
        <ele>1112</ele>
        <time>2018-06-22T09:52:05Z</time>
      </trkpt>
      <trkpt lat="42.98187" lon="-0.03532">
        <ele>1108</ele>
        <time>2018-06-22T09:54:05Z</time>
      </trkpt>
      <trkpt lat="42.98182" lon="-0.03548">
        <ele>1104</ele>
        <time>2018-06-22T09:55:05Z</time>
      </trkpt>
      <trkpt lat="42.9818" lon="-0.0357">
        <ele>1099</ele>
        <time>2018-06-22T09:57:05Z</time>
      </trkpt>
      <trkpt lat="42.98183" lon="-0.03597">
        <ele>1095</ele>
        <time>2018-06-22T10:00:05Z</time>
      </trkpt>
      <trkpt lat="42.98198" lon="-0.03637">
        <ele>1090</ele>
        <time>2018-06-22T10:03:05Z</time>
      </trkpt>
      <trkpt lat="42.98222" lon="-0.03669">
        <ele>1089</ele>
        <time>2018-06-22T10:05:05Z</time>
      </trkpt>
      <trkpt lat="42.98298" lon="-0.03743">
        <ele>1083</ele>
        <time>2018-06-22T10:11:05Z</time>
      </trkpt>
      <trkpt lat="42.98313" lon="-0.03766">
        <ele>1080</ele>
        <time>2018-06-22T10:12:05Z</time>
      </trkpt>
      <trkpt lat="42.98327" lon="-0.03787">
        <ele>1076</ele>
        <time>2018-06-22T10:13:05Z</time>
      </trkpt>
      <trkpt lat="42.98337" lon="-0.03803">
        <ele>1073</ele>
        <time>2018-06-22T10:14:05Z</time>
      </trkpt>
      <trkpt lat="42.98373" lon="-0.03839">
        <ele>1067</ele>
        <time>2018-06-22T10:16:05Z</time>
      </trkpt>
      <trkpt lat="42.98396" lon="-0.03856">
        <ele>1065</ele>
        <time>2018-06-22T10:18:05Z</time>
      </trkpt>
      <trkpt lat="42.98455" lon="-0.03881">
        <ele>1065</ele>
        <time>2018-06-22T10:23:05Z</time>
      </trkpt>
      <trkpt lat="42.9848" lon="-0.03901">
        <ele>1062</ele>
        <time>2018-06-22T10:24:05Z</time>
      </trkpt>
      <trkpt lat="42.98504" lon="-0.03934">
        <ele>1056</ele>
        <time>2018-06-22T10:25:05Z</time>
      </trkpt>
      <trkpt lat="42.98516" lon="-0.0395">
        <ele>1053</ele>
        <time>2018-06-22T10:26:05Z</time>
      </trkpt>
      <trkpt lat="42.9853" lon="-0.03967">
        <ele>1050</ele>
        <time>2018-06-22T10:27:05Z</time>
      </trkpt>
      <trkpt lat="42.98532" lon="-0.0397">
        <ele>1050</ele>
        <time>2018-06-22T10:28:05Z</time>
      </trkpt>
      <trkpt lat="42.98573" lon="-0.03989">
        <ele>1048</ele>
        <time>2018-06-22T10:31:05Z</time>
      </trkpt>
      <trkpt lat="42.98608" lon="-0.03996">
        <ele>1045</ele>
        <time>2018-06-22T10:32:05Z</time>
      </trkpt>
      <trkpt lat="42.98627" lon="-0.04003">
        <ele>1041</ele>
        <time>2018-06-22T10:33:05Z</time>
      </trkpt>
      <trkpt lat="42.98664" lon="-0.04021">
        <ele>1034</ele>
        <time>2018-06-22T10:34:05Z</time>
      </trkpt>
      <trkpt lat="42.98727" lon="-0.04045">
        <ele>1030</ele>
        <time>2018-06-22T10:36:05Z</time>
      </trkpt>
      <trkpt lat="42.98751" lon="-0.04071">
        <ele>1025</ele>
        <time>2018-06-22T10:38:05Z</time>
      </trkpt>
      <trkpt lat="42.98758" lon="-0.04078">
        <ele>1025</ele>
        <time>2018-06-22T10:39:05Z</time>
      </trkpt>
      <trkpt lat="42.98783" lon="-0.04102">
        <ele>1021</ele>
        <time>2018-06-22T10:41:05Z</time>
      </trkpt>
      <trkpt lat="42.98816" lon="-0.04126">
        <ele>1017</ele>
        <time>2018-06-22T10:43:05Z</time>
      </trkpt>
      <trkpt lat="42.98869" lon="-0.04152">
        <ele>1012</ele>
        <time>2018-06-22T10:44:05Z</time>
      </trkpt>
      <trkpt lat="42.98879" lon="-0.04159">
        <ele>1010</ele>
        <time>2018-06-22T10:46:05Z</time>
      </trkpt>
      <trkpt lat="42.98909" lon="-0.04173">
        <ele>1008</ele>
        <time>2018-06-22T10:50:05Z</time>
      </trkpt>
      <trkpt lat="42.98925" lon="-0.0419">
        <ele>1004</ele>
        <time>2018-06-22T10:53:05Z</time>
      </trkpt>
      <trkpt lat="42.98941" lon="-0.04215">
        <ele>1000</ele>
        <time>2018-06-22T10:55:05Z</time>
      </trkpt>
      <trkpt lat="42.98964" lon="-0.04253">
        <ele>993</ele>
        <time>2018-06-22T10:57:05Z</time>
      </trkpt>
      <trkpt lat="42.9899" lon="-0.04294">
        <ele>990</ele>
        <time>2018-06-22T11:00:05Z</time>
      </trkpt>
      <trkpt lat="42.98998" lon="-0.04312">
        <ele>987</ele>
        <time>2018-06-22T11:02:05Z</time>
      </trkpt>
      <trkpt lat="42.98998" lon="-0.04335">
        <ele>983</ele>
        <time>2018-06-22T11:04:05Z</time>
      </trkpt>
      <trkpt lat="42.98993" lon="-0.04348">
        <ele>980</ele>
        <time>2018-06-22T11:05:05Z</time>
      </trkpt>
      <trkpt lat="42.98978" lon="-0.04361">
        <ele>976</ele>
        <time>2018-06-22T11:07:05Z</time>
      </trkpt>
      <trkpt lat="42.98964" lon="-0.04358">
        <ele>975</ele>
        <time>2018-06-22T11:09:05Z</time>
      </trkpt>
      <trkpt lat="42.98925" lon="-0.04337">
        <ele>972</ele>
        <time>2018-06-22T11:13:05Z</time>
      </trkpt>
      <trkpt lat="42.98873" lon="-0.04316">
        <ele>971</ele>
        <time>2018-06-22T11:18:05Z</time>
      </trkpt>
      <trkpt lat="42.98866" lon="-0.04322">
        <ele>970</ele>
        <time>2018-06-22T11:20:05Z</time>
      </trkpt>
      <trkpt lat="42.9885" lon="-0.04335">
        <ele>966</ele>
        <time>2018-06-22T11:22:05Z</time>
      </trkpt>
      <trkpt lat="42.98837" lon="-0.0435">
        <ele>963</ele>
        <time>2018-06-22T11:24:05Z</time>
      </trkpt>
      <trkpt lat="42.98824" lon="-0.04363">
        <ele>960</ele>
        <time>2018-06-22T11:25:05Z</time>
      </trkpt>
      <trkpt lat="42.98814" lon="-0.04372">
        <ele>959</ele>
        <time>2018-06-22T11:27:05Z</time>
      </trkpt>
      <trkpt lat="42.98773" lon="-0.04387">
        <ele>956</ele>
        <time>2018-06-22T11:33:05Z</time>
      </trkpt>
      <trkpt lat="42.98741" lon="-0.04404">
        <ele>953</ele>
        <time>2018-06-22T11:39:05Z</time>
      </trkpt>
      <trkpt lat="42.98737" lon="-0.04406">
        <ele>953</ele>
        <time>2018-06-22T11:40:05Z</time>
      </trkpt>
      <trkpt lat="42.98695" lon="-0.04399">
        <ele>950</ele>
        <time>2018-06-22T11:46:05Z</time>
      </trkpt>
      <trkpt lat="42.98652" lon="-0.04391">
        <ele>947</ele>
        <time>2018-06-22T11:49:05Z</time>
      </trkpt>
      <trkpt lat="42.98623" lon="-0.04385">
        <ele>944</ele>
        <time>2018-06-22T11:51:05Z</time>
      </trkpt>
      <trkpt lat="42.98592" lon="-0.04379">
        <ele>941</ele>
        <time>2018-06-22T11:53:05Z</time>
      </trkpt>
      <trkpt lat="42.98569" lon="-0.04377">
        <ele>940</ele>
        <time>2018-06-22T11:55:05Z</time>
      </trkpt>
      <trkpt lat="42.98526" lon="-0.04381">
        <ele>937</ele>
        <time>2018-06-22T11:58:05Z</time>
      </trkpt>
      <trkpt lat="42.98489" lon="-0.04394">
        <ele>934</ele>
        <time>2018-06-22T12:01:05Z</time>
      </trkpt>
      <trkpt lat="42.98457" lon="-0.044">
        <ele>930</ele>
        <time>2018-06-22T12:03:05Z</time>
      </trkpt>
      <trkpt lat="42.98428" lon="-0.04405">
        <ele>927</ele>
        <time>2018-06-22T12:05:05Z</time>
      </trkpt>
      <trkpt lat="42.98423" lon="-0.04407">
        <ele>927</ele>
        <time>2018-06-22T12:06:05Z</time>
      </trkpt>
      <trkpt lat="42.98411" lon="-0.04424">
        <ele>924</ele>
        <time>2018-06-22T12:09:05Z</time>
      </trkpt>
      <trkpt lat="42.98407" lon="-0.0446">
        <ele>921</ele>
        <time>2018-06-22T12:12:05Z</time>
      </trkpt>
      <trkpt lat="42.98399" lon="-0.04473">
        <ele>920</ele>
        <time>2018-06-22T12:14:05Z</time>
      </trkpt>
      <trkpt lat="42.98367" lon="-0.04475">
        <ele>917</ele>
        <time>2018-06-22T12:20:05Z</time>
      </trkpt>
      <trkpt lat="42.98306" lon="-0.04463">
        <ele>913</ele>
        <time>2018-06-22T12:26:05Z</time>
      </trkpt>
      <trkpt lat="42.983" lon="-0.04465">
        <ele>913</ele>
        <time>2018-06-22T12:27:05Z</time>
      </trkpt>
      <trkpt lat="42.98268" lon="-0.04478">
        <ele>909</ele>
        <time>2018-06-22T12:29:05Z</time>
      </trkpt>
      <trkpt lat="42.98249" lon="-0.04486">
        <ele>906</ele>
        <time>2018-06-22T12:30:05Z</time>
      </trkpt>
      <trkpt lat="42.98236" lon="-0.04489">
        <ele>903</ele>
        <time>2018-06-22T12:31:05Z</time>
      </trkpt>
      <trkpt lat="42.9822" lon="-0.04492">
        <ele>899</ele>
        <time>2018-06-22T12:32:05Z</time>
      </trkpt>
      <trkpt lat="42.98206" lon="-0.04494">
        <ele>896</ele>
        <time>2018-06-22T12:33:05Z</time>
      </trkpt>
      <trkpt lat="42.98187" lon="-0.0449">
        <ele>893</ele>
        <time>2018-06-22T12:35:05Z</time>
      </trkpt>
      <trkpt lat="42.98181" lon="-0.04484">
        <ele>893</ele>
        <time>2018-06-22T12:36:05Z</time>
      </trkpt>
      <trkpt lat="42.98169" lon="-0.04456">
        <ele>897</ele>
        <time>2018-06-22T12:39:05Z</time>
      </trkpt>
      <trkpt lat="42.98161" lon="-0.04435">
        <ele>900</ele>
        <time>2018-06-22T12:41:05Z</time>
      </trkpt>
      <trkpt lat="42.98156" lon="-0.0443">
        <ele>900</ele>
        <time>2018-06-22T12:42:05Z</time>
      </trkpt>
      <trkpt lat="42.98115" lon="-0.04408">
        <ele>897</ele>
        <time>2018-06-22T12:48:05Z</time>
      </trkpt>
      <trkpt lat="42.98091" lon="-0.04409">
        <ele>890</ele>
        <time>2018-06-22T12:50:05Z</time>
      </trkpt>
      <trkpt lat="42.98068" lon="-0.04416">
        <ele>883</ele>
        <time>2018-06-22T12:51:05Z</time>
      </trkpt>
      <trkpt lat="42.98055" lon="-0.0442">
        <ele>879</ele>
        <time>2018-06-22T12:52:05Z</time>
      </trkpt>
      <trkpt lat="42.98021" lon="-0.04402">
        <ele>874</ele>
        <time>2018-06-22T12:54:05Z</time>
      </trkpt>
      <trkpt lat="42.97996" lon="-0.04376">
        <ele>871</ele>
        <time>2018-06-22T12:56:05Z</time>
      </trkpt>
      <trkpt lat="42.97978" lon="-0.04302">
        <ele>877</ele>
        <time>2018-06-22T12:59:05Z</time>
      </trkpt>
      <trkpt lat="42.97976" lon="-0.04297">
        <ele>877</ele>
        <time>2018-06-22T13:00:05Z</time>
      </trkpt>
      <trkpt lat="42.97954" lon="-0.04283">
        <ele>874</ele>
        <time>2018-06-22T13:04:05Z</time>
      </trkpt>
      <trkpt lat="42.97943" lon="-0.043">
        <ele>868</ele>
        <time>2018-06-22T13:06:05Z</time>
      </trkpt>
      <trkpt lat="42.97937" lon="-0.04317">
        <ele>863</ele>
        <time>2018-06-22T13:07:05Z</time>
      </trkpt>
      <trkpt lat="42.97928" lon="-0.04326">
        <ele>859</ele>
        <time>2018-06-22T13:08:05Z</time>
      </trkpt>
      <trkpt lat="42.97915" lon="-0.04331">
        <ele>855</ele>
        <time>2018-06-22T13:09:05Z</time>
      </trkpt>
      <trkpt lat="42.9787" lon="-0.04344">
        <ele>848</ele>
        <time>2018-06-22T13:11:05Z</time>
      </trkpt>
      <trkpt lat="42.97851" lon="-0.04344">
        <ele>845</ele>
        <time>2018-06-22T13:13:05Z</time>
      </trkpt>
      <trkpt lat="42.97847" lon="-0.04342">
        <ele>845</ele>
        <time>2018-06-22T13:14:05Z</time>
      </trkpt>
      <trkpt lat="42.97808" lon="-0.04292">
        <ele>849</ele>
        <time>2018-06-22T13:18:05Z</time>
      </trkpt>
      <trkpt lat="42.9779" lon="-0.0428">
        <ele>850</ele>
        <time>2018-06-22T13:20:05Z</time>
      </trkpt>
      <trkpt lat="42.97742" lon="-0.04263">
        <ele>854</ele>
        <time>2018-06-22T13:22:05Z</time>
      </trkpt>
      <trkpt lat="42.9773" lon="-0.04262">
        <ele>855</ele>
        <time>2018-06-22T13:24:05Z</time>
      </trkpt>
      <trkpt lat="42.97602" lon="-0.04325">
        <ele>848</ele>
        <time>2018-06-22T13:29:05Z</time>
      </trkpt>
      <trkpt lat="42.97587" lon="-0.04335">
        <ele>845</ele>
        <time>2018-06-22T13:30:05Z</time>
      </trkpt>
      <trkpt lat="42.97574" lon="-0.04344">
        <ele>845</ele>
        <time>2018-06-22T13:31:05Z</time>
      </trkpt>
      <trkpt lat="42.97531" lon="-0.04383">
        <ele>841</ele>
        <time>2018-06-22T13:35:05Z</time>
      </trkpt>
      <trkpt lat="42.97521" lon="-0.04399">
        <ele>838</ele>
        <time>2018-06-22T13:36:05Z</time>
      </trkpt>
      <trkpt lat="42.97494" lon="-0.04451">
        <ele>828</ele>
        <time>2018-06-22T13:37:05Z</time>
      </trkpt>
      <trkpt lat="42.97453" lon="-0.04501">
        <ele>824</ele>
        <time>2018-06-22T13:39:05Z</time>
      </trkpt>
      <trkpt lat="42.97384" lon="-0.04565">
        <ele>818</ele>
        <time>2018-06-22T13:41:05Z</time>
      </trkpt>
      <trkpt lat="42.97361" lon="-0.04578">
        <ele>815</ele>
        <time>2018-06-22T13:42:05Z</time>
      </trkpt>
      <trkpt lat="42.97352" lon="-0.04593">
        <ele>812</ele>
        <time>2018-06-22T13:45:05Z</time>
      </trkpt>
      <trkpt lat="42.97364" lon="-0.04615">
        <ele>808</ele>
        <time>2018-06-22T13:47:05Z</time>
      </trkpt>
      <trkpt lat="42.974" lon="-0.04635">
        <ele>807</ele>
        <time>2018-06-22T13:49:05Z</time>
      </trkpt>
      <trkpt lat="42.97481" lon="-0.04609">
        <ele>806</ele>
        <time>2018-06-22T13:56:05Z</time>
      </trkpt>
      <trkpt lat="42.97489" lon="-0.04607">
        <ele>806</ele>
        <time>2018-06-22T13:57:05Z</time>
      </trkpt>
      <trkpt lat="42.97514" lon="-0.04612">
        <ele>804</ele>
        <time>2018-06-22T14:00:05Z</time>
      </trkpt>
      <trkpt lat="42.97558" lon="-0.04629">
        <ele>800</ele>
        <time>2018-06-22T14:03:05Z</time>
      </trkpt>
      <trkpt lat="42.97571" lon="-0.04628">
        <ele>800</ele>
        <time>2018-06-22T14:04:05Z</time>
      </trkpt>
      <trkpt lat="42.97618" lon="-0.04613">
        <ele>797</ele>
        <time>2018-06-22T14:06:05Z</time>
      </trkpt>
      <trkpt lat="42.97625" lon="-0.04608">
        <ele>797</ele>
        <time>2018-06-22T14:07:05Z</time>
      </trkpt>
      <trkpt lat="42.97657" lon="-0.0457">
        <ele>802</ele>
        <time>2018-06-22T14:11:05Z</time>
      </trkpt>
      <trkpt lat="42.97667" lon="-0.04552">
        <ele>806</ele>
        <time>2018-06-22T14:12:05Z</time>
      </trkpt>
      <trkpt lat="42.97679" lon="-0.04537">
        <ele>811</ele>
        <time>2018-06-22T14:13:05Z</time>
      </trkpt>
      <trkpt lat="42.97705" lon="-0.04552">
        <ele>808</ele>
        <time>2018-06-22T14:16:05Z</time>
      </trkpt>
      <trkpt lat="42.97711" lon="-0.04582">
        <ele>801</ele>
        <time>2018-06-22T14:17:05Z</time>
      </trkpt>
      <trkpt lat="42.97717" lon="-0.04596">
        <ele>798</ele>
        <time>2018-06-22T14:18:05Z</time>
      </trkpt>
      <trkpt lat="42.97727" lon="-0.04613">
        <ele>795</ele>
        <time>2018-06-22T14:20:05Z</time>
      </trkpt>
      <trkpt lat="42.97731" lon="-0.04632">
        <ele>791</ele>
        <time>2018-06-22T14:21:05Z</time>
      </trkpt>
      <trkpt lat="42.97734" lon="-0.04646">
        <ele>788</ele>
        <time>2018-06-22T14:22:05Z</time>
      </trkpt>
      <trkpt lat="42.97738" lon="-0.04668">
        <ele>784</ele>
        <time>2018-06-22T14:23:05Z</time>
      </trkpt>
      <trkpt lat="42.97742" lon="-0.04686">
        <ele>781</ele>
        <time>2018-06-22T14:24:05Z</time>
      </trkpt>
      <trkpt lat="42.97744" lon="-0.04706">
        <ele>778</ele>
        <time>2018-06-22T14:25:05Z</time>
      </trkpt>
      <trkpt lat="42.97746" lon="-0.04726">
        <ele>775</ele>
        <time>2018-06-22T14:26:05Z</time>
      </trkpt>
      <trkpt lat="42.97759" lon="-0.04748">
        <ele>773</ele>
        <time>2018-06-22T14:28:05Z</time>
      </trkpt>
      <trkpt lat="42.97793" lon="-0.04769">
        <ele>776</ele>
        <time>2018-06-22T14:30:05Z</time>
      </trkpt>
      <trkpt lat="42.97811" lon="-0.04784">
        <ele>776</ele>
        <time>2018-06-22T14:31:05Z</time>
      </trkpt>
      <trkpt lat="42.97888" lon="-0.04841">
        <ele>773</ele>
        <time>2018-06-22T14:36:05Z</time>
      </trkpt>
      <trkpt lat="42.97905" lon="-0.04865">
        <ele>772</ele>
        <time>2018-06-22T14:38:05Z</time>
      </trkpt>
      <trkpt lat="42.97917" lon="-0.04917">
        <ele>767</ele>
        <time>2018-06-22T14:41:05Z</time>
      </trkpt>
      <trkpt lat="42.97922" lon="-0.04932">
        <ele>764</ele>
        <time>2018-06-22T14:42:05Z</time>
      </trkpt>
      <trkpt lat="42.9794" lon="-0.04958">
        <ele>759</ele>
        <time>2018-06-22T14:43:05Z</time>
      </trkpt>
      <trkpt lat="42.97964" lon="-0.04973">
        <ele>757</ele>
        <time>2018-06-22T14:45:05Z</time>
      </trkpt>
      <trkpt lat="42.98009" lon="-0.04967">
        <ele>761</ele>
        <time>2018-06-22T14:47:05Z</time>
      </trkpt>
      <trkpt lat="42.98035" lon="-0.04966">
        <ele>761</ele>
        <time>2018-06-22T14:48:05Z</time>
      </trkpt>
      <trkpt lat="42.98081" lon="-0.04977">
        <ele>758</ele>
        <time>2018-06-22T14:50:05Z</time>
      </trkpt>
      <trkpt lat="42.98143" lon="-0.04993">
        <ele>759</ele>
        <time>2018-06-22T14:53:05Z</time>
      </trkpt>
      <trkpt lat="42.9816" lon="-0.05003">
        <ele>756</ele>
        <time>2018-06-22T14:55:05Z</time>
      </trkpt>
      <trkpt lat="42.98174" lon="-0.0501">
        <ele>755</ele>
        <time>2018-06-22T14:57:05Z</time>
      </trkpt>
      <trkpt lat="42.98198" lon="-0.05022">
        <ele>752</ele>
        <time>2018-06-22T15:00:05Z</time>
      </trkpt>
      <trkpt lat="42.98206" lon="-0.05024">
        <ele>752</ele>
        <time>2018-06-22T15:01:05Z</time>
      </trkpt>
      <trkpt lat="42.98255" lon="-0.05037">
        <ele>749</ele>
        <time>2018-06-22T15:07:05Z</time>
      </trkpt>
      <trkpt lat="42.9827" lon="-0.05044">
        <ele>746</ele>
        <time>2018-06-22T15:09:05Z</time>
      </trkpt>
      <trkpt lat="42.98283" lon="-0.0505">
        <ele>743</ele>
        <time>2018-06-22T15:11:05Z</time>
      </trkpt>
      <trkpt lat="42.98297" lon="-0.05056">
        <ele>740</ele>
        <time>2018-06-22T15:13:05Z</time>
      </trkpt>
      <trkpt lat="42.98333" lon="-0.05046">
        <ele>743</ele>
        <time>2018-06-22T15:18:05Z</time>
      </trkpt>
      <trkpt lat="42.9835" lon="-0.05037">
        <ele>748</ele>
        <time>2018-06-22T15:20:05Z</time>
      </trkpt>
      <trkpt lat="42.98365" lon="-0.05031">
        <ele>751</ele>
        <time>2018-06-22T15:22:05Z</time>
      </trkpt>
      <trkpt lat="42.98385" lon="-0.05029">
        <ele>753</ele>
        <time>2018-06-22T15:25:05Z</time>
      </trkpt>
      <trkpt lat="42.98404" lon="-0.05039">
        <ele>750</ele>
        <time>2018-06-22T15:29:05Z</time>
      </trkpt>
      <trkpt lat="42.98409" lon="-0.05051">
        <ele>746</ele>
        <time>2018-06-22T15:30:05Z</time>
      </trkpt>
      <trkpt lat="42.98415" lon="-0.05084">
        <ele>735</ele>
        <time>2018-06-22T15:31:05Z</time>
      </trkpt>
      <trkpt lat="42.98422" lon="-0.05102">
        <ele>731</ele>
        <time>2018-06-22T15:33:05Z</time>
      </trkpt>
      <trkpt lat="42.98434" lon="-0.05118">
        <ele>730</ele>
        <time>2018-06-22T15:35:05Z</time>
      </trkpt>
      <trkpt lat="42.98471" lon="-0.05155">
        <ele>728</ele>
        <time>2018-06-22T15:39:05Z</time>
      </trkpt>
      <trkpt lat="42.985" lon="-0.05168">
        <ele>731</ele>
        <time>2018-06-22T15:42:05Z</time>
      </trkpt>
      <trkpt lat="42.98524" lon="-0.05195">
        <ele>727</ele>
        <time>2018-06-22T15:44:05Z</time>
      </trkpt>
      <trkpt lat="42.98531" lon="-0.05208">
        <ele>724</ele>
        <time>2018-06-22T15:45:05Z</time>
      </trkpt>
      <trkpt lat="42.98554" lon="-0.05254">
        <ele>716</ele>
        <time>2018-06-22T15:47:05Z</time>
      </trkpt>
      <trkpt lat="42.98586" lon="-0.05306">
        <ele>713</ele>
        <time>2018-06-22T15:49:05Z</time>
      </trkpt>
      <trkpt lat="42.98611" lon="-0.0535">
        <ele>709</ele>
        <time>2018-06-22T15:51:05Z</time>
      </trkpt>
      <trkpt lat="42.98635" lon="-0.0539">
        <ele>707</ele>
        <time>2018-06-22T15:54:05Z</time>
      </trkpt>
      <trkpt lat="42.98659" lon="-0.05449">
        <ele>704</ele>
        <time>2018-06-22T15:58:05Z</time>
      </trkpt>
      <trkpt lat="42.98665" lon="-0.05473">
        <ele>701</ele>
        <time>2018-06-22T15:59:05Z</time>
      </trkpt>
      <trkpt lat="42.98678" lon="-0.05516">
        <ele>698</ele>
        <time>2018-06-22T16:02:05Z</time>
      </trkpt>
      <trkpt lat="42.98682" lon="-0.05543">
        <ele>694</ele>
        <time>2018-06-22T16:03:05Z</time>
      </trkpt>
      <trkpt lat="42.98688" lon="-0.05572">
        <ele>689</ele>
        <time>2018-06-22T16:04:05Z</time>
      </trkpt>
      <trkpt lat="42.98693" lon="-0.05586">
        <ele>688</ele>
        <time>2018-06-22T16:06:05Z</time>
      </trkpt>
      <trkpt lat="42.98744" lon="-0.05624">
        <ele>692</ele>
        <time>2018-06-22T16:12:05Z</time>
      </trkpt>
      <trkpt lat="42.98767" lon="-0.05661">
        <ele>688</ele>
        <time>2018-06-22T16:17:05Z</time>
      </trkpt>
      <trkpt lat="42.98776" lon="-0.05688">
        <ele>683</ele>
        <time>2018-06-22T16:18:05Z</time>
      </trkpt>
      <trkpt lat="42.9878" lon="-0.05701">
        <ele>680</ele>
        <time>2018-06-22T16:19:05Z</time>
      </trkpt>
      <trkpt lat="42.98787" lon="-0.0572">
        <ele>677</ele>
        <time>2018-06-22T16:20:05Z</time>
      </trkpt>
      <trkpt lat="42.98792" lon="-0.05735">
        <ele>673</ele>
        <time>2018-06-22T16:21:05Z</time>
      </trkpt>
      <trkpt lat="42.98798" lon="-0.0575">
        <ele>670</ele>
        <time>2018-06-22T16:23:05Z</time>
      </trkpt>
      <trkpt lat="42.98801" lon="-0.05755">
        <ele>669</ele>
        <time>2018-06-22T16:25:05Z</time>
      </trkpt>
      <trkpt lat="42.98847" lon="-0.0578">
        <ele>673</ele>
        <time>2018-06-22T16:28:05Z</time>
      </trkpt>
      <trkpt lat="42.98871" lon="-0.05793">
        <ele>673</ele>
        <time>2018-06-22T16:29:05Z</time>
      </trkpt>
      <trkpt lat="42.98898" lon="-0.05815">
        <ele>669</ele>
        <time>2018-06-22T16:31:05Z</time>
      </trkpt>
      <trkpt lat="42.98908" lon="-0.05828">
        <ele>666</ele>
        <time>2018-06-22T16:32:05Z</time>
      </trkpt>
      <trkpt lat="42.98923" lon="-0.05851">
        <ele>660</ele>
        <time>2018-06-22T16:33:05Z</time>
      </trkpt>
      <trkpt lat="42.98925" lon="-0.05854">
        <ele>659</ele>
        <time>2018-06-22T16:35:05Z</time>
      </trkpt>
      <trkpt lat="42.98932" lon="-0.05868">
        <ele>656</ele>
        <time>2018-06-22T16:36:05Z</time>
      </trkpt>
      <trkpt lat="42.98945" lon="-0.0589">
        <ele>652</ele>
        <time>2018-06-22T16:37:05Z</time>
      </trkpt>
      <trkpt lat="42.98963" lon="-0.05926">
        <ele>646</ele>
        <time>2018-06-22T16:39:05Z</time>
      </trkpt>
      <trkpt lat="42.9897" lon="-0.05948">
        <ele>642</ele>
        <time>2018-06-22T16:40:05Z</time>
      </trkpt>
      <trkpt lat="42.98976" lon="-0.05967">
        <ele>638</ele>
        <time>2018-06-22T16:41:05Z</time>
      </trkpt>
      <trkpt lat="42.98977" lon="-0.05969">
        <ele>638</ele>
        <time>2018-06-22T16:42:05Z</time>
      </trkpt>
      <trkpt lat="42.98992" lon="-0.05988">
        <ele>635</ele>
        <time>2018-06-22T16:44:05Z</time>
      </trkpt>
      <trkpt lat="42.99021" lon="-0.05994">
        <ele>630</ele>
        <time>2018-06-22T16:47:05Z</time>
      </trkpt>
      <trkpt lat="42.99027" lon="-0.05991">
        <ele>630</ele>
        <time>2018-06-22T16:48:05Z</time>
      </trkpt>
      <trkpt lat="42.99112" lon="-0.0592">
        <ele>632</ele>
        <time>2018-06-22T16:52:05Z</time>
      </trkpt>
      <trkpt lat="42.99146" lon="-0.05897">
        <ele>629</ele>
        <time>2018-06-22T16:56:05Z</time>
      </trkpt>
      <trkpt lat="42.99155" lon="-0.05897">
        <ele>626</ele>
        <time>2018-06-22T16:57:05Z</time>
      </trkpt>
      <trkpt lat="42.99166" lon="-0.05899">
        <ele>622</ele>
        <time>2018-06-22T16:58:05Z</time>
      </trkpt>
      <trkpt lat="42.99201" lon="-0.05904">
        <ele>617</ele>
        <time>2018-06-22T17:00:05Z</time>
      </trkpt>
      <trkpt lat="42.99236" lon="-0.05899">
        <ele>615</ele>
        <time>2018-06-22T17:03:05Z</time>
      </trkpt>
      <trkpt lat="42.99312" lon="-0.05831">
        <ele>616</ele>
        <time>2018-06-22T17:11:05Z</time>
      </trkpt>
      <trkpt lat="42.99321" lon="-0.0579">
        <ele>621</ele>
        <time>2018-06-22T17:13:05Z</time>
      </trkpt>
      <trkpt lat="42.99328" lon="-0.05772">
        <ele>623</ele>
        <time>2018-06-22T17:15:05Z</time>
      </trkpt>
      <trkpt lat="42.99339" lon="-0.05758">
        <ele>625</ele>
        <time>2018-06-22T17:18:05Z</time>
      </trkpt>
      <trkpt lat="42.99349" lon="-0.05756">
        <ele>627</ele>
        <time>2018-06-22T17:21:05Z</time>
      </trkpt>
      <trkpt lat="42.99374" lon="-0.05816">
        <ele>621</ele>
        <time>2018-06-22T17:26:05Z</time>
      </trkpt>
      <trkpt lat="42.99384" lon="-0.05851">
        <ele>616</ele>
        <time>2018-06-22T17:27:05Z</time>
      </trkpt>
      <trkpt lat="42.99397" lon="-0.05886">
        <ele>610</ele>
        <time>2018-06-22T17:28:05Z</time>
      </trkpt>
      <trkpt lat="42.99415" lon="-0.05922">
        <ele>602</ele>
        <time>2018-06-22T17:29:05Z</time>
      </trkpt>
      <trkpt lat="42.99425" lon="-0.05952">
        <ele>599</ele>
        <time>2018-06-22T17:31:05Z</time>
      </trkpt>
      <trkpt lat="42.99429" lon="-0.05971">
        <ele>596</ele>
        <time>2018-06-22T17:33:05Z</time>
      </trkpt>
      <trkpt lat="42.99438" lon="-0.05996">
        <ele>593</ele>
        <time>2018-06-22T17:36:05Z</time>
      </trkpt>
      <trkpt lat="42.99443" lon="-0.06005">
        <ele>593</ele>
        <time>2018-06-22T17:37:05Z</time>
      </trkpt>
      <trkpt lat="42.99474" lon="-0.06051">
        <ele>592</ele>
        <time>2018-06-22T17:43:05Z</time>
      </trkpt>
      <trkpt lat="42.99523" lon="-0.06106">
        <ele>588</ele>
        <time>2018-06-22T17:46:05Z</time>
      </trkpt>
      <trkpt lat="42.99535" lon="-0.06119">
        <ele>586</ele>
        <time>2018-06-22T17:48:05Z</time>
      </trkpt>
      <trkpt lat="42.99545" lon="-0.06134">
        <ele>583</ele>
        <time>2018-06-22T17:50:05Z</time>
      </trkpt>
      <trkpt lat="42.9956" lon="-0.0615">
        <ele>579</ele>
        <time>2018-06-22T17:52:05Z</time>
      </trkpt>
      <trkpt lat="42.99582" lon="-0.06161">
        <ele>576</ele>
        <time>2018-06-22T17:55:05Z</time>
      </trkpt>
      <trkpt lat="42.99597" lon="-0.06167">
        <ele>573</ele>
        <time>2018-06-22T17:56:05Z</time>
      </trkpt>
      <trkpt lat="42.99632" lon="-0.06179">
        <ele>570</ele>
        <time>2018-06-22T17:58:05Z</time>
      </trkpt>
      <trkpt lat="42.99637" lon="-0.0618">
        <ele>570</ele>
        <time>2018-06-22T17:59:05Z</time>
      </trkpt>
      <trkpt lat="42.99696" lon="-0.0619">
        <ele>568</ele>
        <time>2018-06-22T18:09:05Z</time>
      </trkpt>
      <trkpt lat="42.99768" lon="-0.06186">
        <ele>569</ele>
        <time>2018-06-22T18:15:05Z</time>
      </trkpt>
      <trkpt lat="42.99801" lon="-0.06204">
        <ele>566</ele>
        <time>2018-06-22T18:23:05Z</time>
      </trkpt>
      <trkpt lat="42.99807" lon="-0.06206">
        <ele>566</ele>
        <time>2018-06-22T18:24:05Z</time>
      </trkpt>
      <trkpt lat="42.99878" lon="-0.0621">
        <ele>562</ele>
        <time>2018-06-22T18:34:05Z</time>
      </trkpt>
      <trkpt lat="42.99883" lon="-0.06212">
        <ele>562</ele>
        <time>2018-06-22T18:35:05Z</time>
      </trkpt>
      <trkpt lat="42.99909" lon="-0.0622">
        <ele>558</ele>
        <time>2018-06-22T18:38:05Z</time>
      </trkpt>
      <trkpt lat="42.99927" lon="-0.06229">
        <ele>556</ele>
        <time>2018-06-22T18:41:05Z</time>
      </trkpt>
      <trkpt lat="42.99942" lon="-0.06244">
        <ele>552</ele>
        <time>2018-06-22T18:44:05Z</time>
      </trkpt>
      <trkpt lat="42.9995" lon="-0.06259">
        <ele>548</ele>
        <time>2018-06-22T18:45:05Z</time>
      </trkpt>
      <trkpt lat="42.9996" lon="-0.06274">
        <ele>545</ele>
        <time>2018-06-22T18:46:05Z</time>
      </trkpt>
      <trkpt lat="42.99969" lon="-0.06282">
        <ele>542</ele>
        <time>2018-06-22T18:48:05Z</time>
      </trkpt>
      <trkpt lat="42.99971" lon="-0.06283">
        <ele>542</ele>
        <time>2018-06-22T18:49:05Z</time>
      </trkpt>
      <trkpt lat="43.00023" lon="-0.06285">
        <ele>538</ele>
        <time>2018-06-22T18:54:05Z</time>
      </trkpt>
      <trkpt lat="43.00053" lon="-0.06285">
        <ele>534</ele>
        <time>2018-06-22T18:56:05Z</time>
      </trkpt>
      <trkpt lat="43.0008" lon="-0.06279">
        <ele>533</ele>
        <time>2018-06-22T18:58:05Z</time>
      </trkpt>
      <trkpt lat="43.00154" lon="-0.06229">
        <ele>531</ele>
        <time>2018-06-22T19:04:05Z</time>
      </trkpt>
      <trkpt lat="43.00172" lon="-0.06229">
        <ele>529</ele>
        <time>2018-06-22T19:06:05Z</time>
      </trkpt>
      <trkpt lat="43.00218" lon="-0.06279">
        <ele>524</ele>
        <time>2018-06-22T19:15:05Z</time>
      </trkpt>
      <trkpt lat="43.00222" lon="-0.06302">
        <ele>521</ele>
        <time>2018-06-22T19:16:05Z</time>
      </trkpt>
      <trkpt lat="43.00229" lon="-0.06325">
        <ele>518</ele>
        <time>2018-06-22T19:17:05Z</time>
      </trkpt>
      <trkpt lat="43.00229" lon="-0.06326">
        <ele>518</ele>
        <time>2018-06-22T19:18:05Z</time>
      </trkpt>
      <trkpt lat="43.00241" lon="-0.06358">
        <ele>514</ele>
        <time>2018-06-22T19:19:05Z</time>
      </trkpt>
      <trkpt lat="43.00245" lon="-0.06365">
        <ele>514</ele>
        <time>2018-06-22T19:20:05Z</time>
      </trkpt>
      <trkpt lat="43.00257" lon="-0.06387">
        <ele>511</ele>
        <time>2018-06-22T19:22:05Z</time>
      </trkpt>
      <trkpt lat="43.00278" lon="-0.06406">
        <ele>510</ele>
        <time>2018-06-22T19:24:05Z</time>
      </trkpt>
      <trkpt lat="43.0037" lon="-0.06453">
        <ele>506</ele>
        <time>2018-06-22T19:27:05Z</time>
      </trkpt>
      <trkpt lat="43.00392" lon="-0.06468">
        <ele>503</ele>
        <time>2018-06-22T19:29:05Z</time>
      </trkpt>
      <trkpt lat="43.00406" lon="-0.06486">
        <ele>499</ele>
        <time>2018-06-22T19:31:05Z</time>
      </trkpt>
      <trkpt lat="43.00412" lon="-0.06489">
        <ele>499</ele>
        <time>2018-06-22T19:32:05Z</time>
      </trkpt>
      <trkpt lat="43.00429" lon="-0.06499">
        <ele>496</ele>
        <time>2018-06-22T19:33:05Z</time>
      </trkpt>
      <trkpt lat="43.00443" lon="-0.06522">
        <ele>493</ele>
        <time>2018-06-22T19:36:05Z</time>
      </trkpt>
      <trkpt lat="43.00449" lon="-0.06529">
        <ele>492</ele>
        <time>2018-06-22T19:38:05Z</time>
      </trkpt>
      <trkpt lat="43.0047" lon="-0.06543">
        <ele>489</ele>
        <time>2018-06-22T19:44:05Z</time>
      </trkpt>
      <trkpt lat="43.00481" lon="-0.06557">
        <ele>487</ele>
        <time>2018-06-22T19:46:05Z</time>
      </trkpt>
      <trkpt lat="43.00446" lon="-0.0661">
        <ele>483</ele>
        <time>2018-06-22T19:49:05Z</time>
      </trkpt>
      <trkpt lat="43.00418" lon="-0.0665">
        <ele>480</ele>
        <time>2018-06-22T19:50:05Z</time>
      </trkpt>
      <trkpt lat="43.00402" lon="-0.0667">
        <ele>478</ele>
        <time>2018-06-22T19:53:05Z</time>
      </trkpt>
      <trkpt lat="43.00374" lon="-0.067">
        <ele>475</ele>
        <time>2018-06-22T19:56:05Z</time>
      </trkpt>
      <trkpt lat="43.00349" lon="-0.06731">
        <ele>472</ele>
        <time>2018-06-22T19:58:05Z</time>
      </trkpt>
      <trkpt lat="43.00348" lon="-0.06732">
        <ele>472</ele>
        <time>2018-06-22T19:59:05Z</time>
      </trkpt>
      <trkpt lat="43.00324" lon="-0.06764">
        <ele>469</ele>
        <time>2018-06-22T20:01:05Z</time>
      </trkpt>
      <trkpt lat="43.00283" lon="-0.06828">
        <ele>464</ele>
        <time>2018-06-22T20:03:05Z</time>
      </trkpt>
      <trkpt lat="43.00267" lon="-0.06865">
        <ele>463</ele>
        <time>2018-06-22T20:05:05Z</time>
      </trkpt>
      <trkpt lat="43.00255" lon="-0.06905">
        <ele>461</ele>
        <time>2018-06-22T20:13:05Z</time>
      </trkpt>
      <trkpt lat="43.00227" lon="-0.06914">
        <ele>460</ele>
        <time>2018-06-22T20:14:05Z</time>
      </trkpt>
      <trkpt lat="43.0016" lon="-0.06938">
        <ele>456</ele>
        <time>2018-06-22T20:15:05Z</time>
      </trkpt>
      <trkpt lat="43.00123" lon="-0.06951">
        <ele>457</ele>
        <time>2018-06-22T20:16:05Z</time>
      </trkpt>
      <trkpt lat="43.00123" lon="-0.06971">
        <ele>456</ele>
        <time>2018-06-22T20:19:05Z</time>
      </trkpt>
      <trkpt lat="43.00137" lon="-0.07017">
        <ele>453</ele>
        <time>2018-06-22T20:25:05Z</time>
      </trkpt>
      <trkpt lat="43.00158" lon="-0.07055">
        <ele>449</ele>
        <time>2018-06-22T20:28:05Z</time>
      </trkpt>
      <trkpt lat="43.00189" lon="-0.07112">
        <ele>446</ele>
        <time>2018-06-22T20:30:05Z</time>
      </trkpt>
      <trkpt lat="43.00208" lon="-0.07151">
        <ele>443</ele>
        <time>2018-06-22T20:31:05Z</time>
      </trkpt>
      <trkpt lat="43.00211" lon="-0.07156">
        <ele>443</ele>
        <time>2018-06-22T20:32:05Z</time>
      </trkpt>
      <trkpt lat="43.00233" lon="-0.07216">
        <ele>440</ele>
        <time>2018-06-22T20:34:05Z</time>
      </trkpt>
      <trkpt lat="43.00267" lon="-0.07323">
        <ele>437</ele>
        <time>2018-06-22T20:36:05Z</time>
      </trkpt>
      <trkpt lat="43.00281" lon="-0.07369">
        <ele>440</ele>
        <time>2018-06-22T20:37:05Z</time>
      </trkpt>
      <trkpt lat="43.00289" lon="-0.07395">
        <ele>442</ele>
        <time>2018-06-22T20:39:05Z</time>
      </trkpt>
      <trkpt lat="43.00296" lon="-0.07426">
        <ele>444</ele>
        <time>2018-06-22T20:41:05Z</time>
      </trkpt>
      <trkpt lat="43.00295" lon="-0.07515">
        <ele>446</ele>
        <time>2018-06-22T20:47:05Z</time>
      </trkpt>
      <trkpt lat="43.00301" lon="-0.07592">
        <ele>449</ele>
        <time>2018-06-22T20:51:05Z</time>
      </trkpt>
      <trkpt lat="43.00305" lon="-0.07612">
        <ele>449</ele>
        <time>2018-06-22T20:52:05Z</time>
      </trkpt>
      <trkpt lat="43.00347" lon="-0.07748">
        <ele>448</ele>
        <time>2018-06-22T20:58:05Z</time>
      </trkpt>
      <trkpt lat="43.00353" lon="-0.07782">
        <ele>445</ele>
        <time>2018-06-22T20:59:05Z</time>
      </trkpt>
      <trkpt lat="43.00369" lon="-0.07844">
        <ele>441</ele>
        <time>2018-06-22T21:01:05Z</time>
      </trkpt>
      <trkpt lat="43.0038" lon="-0.07868">
        <ele>441</ele>
        <time>2018-06-22T21:02:05Z</time>
      </trkpt>
      <trkpt lat="43.00408" lon="-0.07916">
        <ele>437</ele>
        <time>2018-06-22T21:04:05Z</time>
      </trkpt>
      <trkpt lat="43.0043" lon="-0.07939">
        <ele>438</ele>
        <time>2018-06-22T21:05:05Z</time>
      </trkpt>
      <trkpt lat="43.00449" lon="-0.07957">
        <ele>440</ele>
        <time>2018-06-22T21:07:05Z</time>
      </trkpt>
      <trkpt lat="43.00438" lon="-0.07963">
        <ele>436</ele>
        <time>2018-06-22T21:11:05Z</time>
      </trkpt>
      <trkpt lat="43.0042" lon="-0.07953">
        <ele>433</ele>
        <time>2018-06-22T21:12:05Z</time>
      </trkpt>
      <trkpt lat="43.00417" lon="-0.07951">
        <ele>433</ele>
        <time>2018-06-22T21:13:05Z</time>
      </trkpt>
      <trkpt lat="43.00359" lon="-0.07925">
        <ele>429</ele>
        <time>2018-06-22T21:19:05Z</time>
      </trkpt>
      <trkpt lat="43.00317" lon="-0.07917">
        <ele>426</ele>
        <time>2018-06-22T21:21:05Z</time>
      </trkpt>
      <trkpt lat="43.00284" lon="-0.07912">
        <ele>427</ele>
        <time>2018-06-22T21:22:05Z</time>
      </trkpt>
      <trkpt lat="43.00161" lon="-0.07885">
        <ele>426</ele>
        <time>2018-06-22T21:25:05Z</time>
      </trkpt>
      <trkpt lat="43.00139" lon="-0.07876">
        <ele>426</ele>
        <time>2018-06-22T21:26:05Z</time>
      </trkpt>
      <trkpt lat="43.00037" lon="-0.0782">
        <ele>425</ele>
        <time>2018-06-22T21:31:05Z</time>
      </trkpt>
      <trkpt lat="42.99945" lon="-0.07773">
        <ele>424</ele>
        <time>2018-06-22T21:34:05Z</time>
      </trkpt>
      <trkpt lat="42.99865" lon="-0.0776">
        <ele>424</ele>
        <time>2018-06-22T21:41:05Z</time>
      </trkpt>
      <trkpt lat="42.99777" lon="-0.07761">
        <ele>427</ele>
        <time>2018-06-22T21:43:05Z</time>
      </trkpt>
      <trkpt lat="42.99728" lon="-0.0776">
        <ele>429</ele>
        <time>2018-06-22T21:45:05Z</time>
      </trkpt>
      <trkpt lat="42.99635" lon="-0.07761">
        <ele>431</ele>
        <time>2018-06-22T21:49:05Z</time>
      </trkpt>
      <trkpt lat="42.99614" lon="-0.07761">
        <ele>431</ele>
        <time>2018-06-22T21:51:05Z</time>
      </trkpt>
      <trkpt lat="42.99482" lon="-0.07725">
        <ele>433</ele>
        <time>2018-06-22T22:00:05Z</time>
      </trkpt>
      <trkpt lat="42.99402" lon="-0.07685">
        <ele>432</ele>
        <time>2018-06-22T22:05:05Z</time>
      </trkpt>
      <trkpt lat="42.99352" lon="-0.07656">
        <ele>431</ele>
        <time>2018-06-22T22:07:05Z</time>
      </trkpt>
      <trkpt lat="42.99293" lon="-0.0762">
        <ele>430</ele>
        <time>2018-06-22T22:10:05Z</time>
      </trkpt>
      <trkpt lat="42.99215" lon="-0.07572">
        <ele>429</ele>
        <time>2018-06-22T22:15:05Z</time>
      </trkpt>
      <trkpt lat="42.99128" lon="-0.07504">
        <ele>432</ele>
        <time>2018-06-22T22:21:05Z</time>
      </trkpt>
      <trkpt lat="42.991" lon="-0.07479">
        <ele>432</ele>
        <time>2018-06-22T22:22:05Z</time>
      </trkpt>
      <trkpt lat="42.99042" lon="-0.07424">
        <ele>432</ele>
        <time>2018-06-22T22:25:05Z</time>
      </trkpt>
      <trkpt lat="42.9895" lon="-0.07343">
        <ele>434</ele>
        <time>2018-06-22T22:29:05Z</time>
      </trkpt>
      <trkpt lat="42.98873" lon="-0.07297">
        <ele>434</ele>
        <time>2018-06-22T22:35:05Z</time>
      </trkpt>
      <trkpt lat="42.98686" lon="-0.07241">
        <ele>434</ele>
        <time>2018-06-22T22:41:05Z</time>
      </trkpt>
      <trkpt lat="42.98513" lon="-0.07191">
        <ele>438</ele>
        <time>2018-06-22T22:43:05Z</time>
      </trkpt>
      <trkpt lat="42.98483" lon="-0.0718">
        <ele>438</ele>
        <time>2018-06-22T22:44:05Z</time>
      </trkpt>
      <trkpt lat="42.98323" lon="-0.07117">
        <ele>441</ele>
        <time>2018-06-22T22:47:05Z</time>
      </trkpt>
      <trkpt lat="42.98313" lon="-0.07112">
        <ele>441</ele>
        <time>2018-06-22T22:48:05Z</time>
      </trkpt>
      <trkpt lat="42.98089" lon="-0.07014">
        <ele>442</ele>
        <time>2018-06-22T22:51:05Z</time>
      </trkpt>
      <trkpt lat="42.98059" lon="-0.07003">
        <ele>443</ele>
        <time>2018-06-22T22:53:05Z</time>
      </trkpt>
      <trkpt lat="42.97991" lon="-0.06974">
        <ele>443</ele>
        <time>2018-06-22T22:58:05Z</time>
      </trkpt>
      <trkpt lat="42.97925" lon="-0.06946">
        <ele>443</ele>
        <time>2018-06-22T23:02:05Z</time>
      </trkpt>
      <trkpt lat="42.97868" lon="-0.0692">
        <ele>445</ele>
        <time>2018-06-22T23:05:05Z</time>
      </trkpt>
      <trkpt lat="42.97817" lon="-0.06894">
        <ele>445</ele>
        <time>2018-06-22T23:11:05Z</time>
      </trkpt>
      <trkpt lat="42.97707" lon="-0.06847">
        <ele>446</ele>
        <time>2018-06-22T23:18:05Z</time>
      </trkpt>
      <trkpt lat="42.97643" lon="-0.06819">
        <ele>448</ele>
        <time>2018-06-22T23:22:05Z</time>
      </trkpt>
      <trkpt lat="42.97596" lon="-0.06795">
        <ele>451</ele>
        <time>2018-06-22T23:25:05Z</time>
      </trkpt>
      <trkpt lat="42.97567" lon="-0.06775">
        <ele>452</ele>
        <time>2018-06-22T23:27:05Z</time>
      </trkpt>
      <trkpt lat="42.97496" lon="-0.06713">
        <ele>455</ele>
        <time>2018-06-22T23:32:05Z</time>
      </trkpt>
      <trkpt lat="42.97471" lon="-0.06683">
        <ele>457</ele>
        <time>2018-06-22T23:35:05Z</time>
      </trkpt>
      <trkpt lat="42.97409" lon="-0.066">
        <ele>459</ele>
        <time>2018-06-22T23:38:05Z</time>
      </trkpt>
      <trkpt lat="42.97333" lon="-0.06513">
        <ele>459</ele>
        <time>2018-06-22T23:43:05Z</time>
      </trkpt>
      <trkpt lat="42.97263" lon="-0.06456">
        <ele>458</ele>
        <time>2018-06-22T23:48:05Z</time>
      </trkpt>
      <trkpt lat="42.97153" lon="-0.06375">
        <ele>455</ele>
        <time>2018-06-22T23:51:05Z</time>
      </trkpt>
      <trkpt lat="42.97079" lon="-0.06326">
        <ele>458</ele>
        <time>2018-06-22T23:56:05Z</time>
      </trkpt>
      <trkpt lat="42.97033" lon="-0.06292">
        <ele>459</ele>
        <time>2018-06-22T23:58:05Z</time>
      </trkpt>
      <trkpt lat="42.96939" lon="-0.06236">
        <ele>461</ele>
        <time>2018-06-23T00:03:05Z</time>
      </trkpt>
      <trkpt lat="42.96907" lon="-0.06219">
        <ele>464</ele>
        <time>2018-06-23T00:07:05Z</time>
      </trkpt>
      <trkpt lat="42.96832" lon="-0.06194">
        <ele>468</ele>
        <time>2018-06-23T00:09:05Z</time>
      </trkpt>
      <trkpt lat="42.96823" lon="-0.06191">
        <ele>468</ele>
        <time>2018-06-23T00:10:05Z</time>
      </trkpt>
      <trkpt lat="42.96694" lon="-0.06134">
        <ele>470</ele>
        <time>2018-06-23T00:14:05Z</time>
      </trkpt>
      <trkpt lat="42.96622" lon="-0.06089">
        <ele>467</ele>
        <time>2018-06-23T00:16:05Z</time>
      </trkpt>
      <trkpt lat="42.96605" lon="-0.0608">
        <ele>466</ele>
        <time>2018-06-23T00:18:05Z</time>
      </trkpt>
      <trkpt lat="42.96576" lon="-0.06072">
        <ele>464</ele>
        <time>2018-06-23T00:22:05Z</time>
      </trkpt>
      <trkpt lat="42.96543" lon="-0.06072">
        <ele>461</ele>
        <time>2018-06-23T00:25:05Z</time>
      </trkpt>
      <trkpt lat="42.96519" lon="-0.06077">
        <ele>459</ele>
        <time>2018-06-23T00:28:05Z</time>
      </trkpt>
      <trkpt lat="42.96493" lon="-0.06089">
        <ele>457</ele>
        <time>2018-06-23T00:31:05Z</time>
      </trkpt>
      <trkpt lat="42.96371" lon="-0.06187">
        <ele>460</ele>
        <time>2018-06-23T00:36:05Z</time>
      </trkpt>
      <trkpt lat="42.96353" lon="-0.06202">
        <ele>460</ele>
        <time>2018-06-23T00:37:05Z</time>
      </trkpt>
      <trkpt lat="42.96297" lon="-0.06243">
        <ele>462</ele>
        <time>2018-06-23T00:41:05Z</time>
      </trkpt>
      <trkpt lat="42.96244" lon="-0.06272">
        <ele>464</ele>
        <time>2018-06-23T00:47:05Z</time>
      </trkpt>
      <trkpt lat="42.96123" lon="-0.06294">
        <ele>464</ele>
        <time>2018-06-23T00:56:05Z</time>
      </trkpt>
      <trkpt lat="42.96042" lon="-0.06295">
        <ele>465</ele>
        <time>2018-06-23T01:02:05Z</time>
      </trkpt>
      <trkpt lat="42.9592" lon="-0.0634">
        <ele>465</ele>
        <time>2018-06-23T01:12:05Z</time>
      </trkpt>
      <trkpt lat="42.95855" lon="-0.06386">
        <ele>467</ele>
        <time>2018-06-23T01:15:05Z</time>
      </trkpt>
      <trkpt lat="42.95789" lon="-0.06459">
        <ele>468</ele>
        <time>2018-06-23T01:22:05Z</time>
      </trkpt>
      <trkpt lat="42.95761" lon="-0.06505">
        <ele>468</ele>
        <time>2018-06-23T01:26:05Z</time>
      </trkpt>
      <trkpt lat="42.95727" lon="-0.06547">
        <ele>468</ele>
        <time>2018-06-23T01:32:05Z</time>
      </trkpt>
      <trkpt lat="42.95683" lon="-0.06568">
        <ele>469</ele>
        <time>2018-06-23T01:42:05Z</time>
      </trkpt>
      <trkpt lat="42.95606" lon="-0.06574">
        <ele>472</ele>
        <time>2018-06-23T01:48:05Z</time>
      </trkpt>
      <trkpt lat="42.95597" lon="-0.06573">
        <ele>472</ele>
        <time>2018-06-23T01:49:05Z</time>
      </trkpt>
      <trkpt lat="42.95529" lon="-0.06553">
        <ele>475</ele>
        <time>2018-06-23T01:58:05Z</time>
      </trkpt>
      <trkpt lat="42.95476" lon="-0.06519">
        <ele>478</ele>
        <time>2018-06-23T02:03:05Z</time>
      </trkpt>
      <trkpt lat="42.95465" lon="-0.06513">
        <ele>478</ele>
        <time>2018-06-23T02:04:05Z</time>
      </trkpt>
      <trkpt lat="42.95413" lon="-0.065">
        <ele>480</ele>
        <time>2018-06-23T02:12:05Z</time>
      </trkpt>
      <trkpt lat="42.9537" lon="-0.06517">
        <ele>481</ele>
        <time>2018-06-23T02:20:05Z</time>
      </trkpt>
      <trkpt lat="42.95325" lon="-0.06558">
        <ele>478</ele>
        <time>2018-06-23T02:23:05Z</time>
      </trkpt>
      <trkpt lat="42.95316" lon="-0.06567">
        <ele>478</ele>
        <time>2018-06-23T02:24:05Z</time>
      </trkpt>
      <trkpt lat="42.95226" lon="-0.06623">
        <ele>479</ele>
        <time>2018-06-23T02:31:05Z</time>
      </trkpt>
      <trkpt lat="42.952" lon="-0.06636">
        <ele>480</ele>
        <time>2018-06-23T02:33:05Z</time>
      </trkpt>
      <trkpt lat="42.95132" lon="-0.06708">
        <ele>480</ele>
        <time>2018-06-23T02:41:05Z</time>
      </trkpt>
      <trkpt lat="42.95104" lon="-0.06749">
        <ele>480</ele>
        <time>2018-06-23T02:46:05Z</time>
      </trkpt>
      <trkpt lat="42.95101" lon="-0.06773">
        <ele>482</ele>
        <time>2018-06-23T03:00:05Z</time>
      </trkpt>
      <trkpt lat="42.95081" lon="-0.0678">
        <ele>485</ele>
        <time>2018-06-23T03:16:05Z</time>
      </trkpt>
      <trkpt lat="42.95058" lon="-0.06735">
        <ele>487</ele>
        <time>2018-06-23T03:34:05Z</time>
      </trkpt>
      <trkpt lat="42.95043" lon="-0.06689">
        <ele>490</ele>
        <time>2018-06-23T03:36:05Z</time>
      </trkpt>
      <trkpt lat="42.95029" lon="-0.06627">
        <ele>492</ele>
        <time>2018-06-23T03:39:05Z</time>
      </trkpt>
      <trkpt lat="42.95024" lon="-0.06594">
        <ele>492</ele>
        <time>2018-06-23T03:40:05Z</time>
      </trkpt>
      <trkpt lat="42.94993" lon="-0.06432">
        <ele>497</ele>
        <time>2018-06-23T03:42:05Z</time>
      </trkpt>
      <trkpt lat="42.94984" lon="-0.06398">
        <ele>502</ele>
        <time>2018-06-23T03:44:05Z</time>
      </trkpt>
      <trkpt lat="42.94972" lon="-0.06365">
        <ele>505</ele>
        <time>2018-06-23T03:45:05Z</time>
      </trkpt>
      <trkpt lat="42.94959" lon="-0.06332">
        <ele>504</ele>
        <time>2018-06-23T03:46:05Z</time>
      </trkpt>
      <trkpt lat="42.94931" lon="-0.0628">
        <ele>501</ele>
        <time>2018-06-23T03:49:05Z</time>
      </trkpt>
      <trkpt lat="42.94893" lon="-0.06214">
        <ele>507</ele>
        <time>2018-06-23T03:51:05Z</time>
      </trkpt>
      <trkpt lat="42.94859" lon="-0.0614">
        <ele>510</ele>
        <time>2018-06-23T03:53:05Z</time>
      </trkpt>
      <trkpt lat="42.94827" lon="-0.06081">
        <ele>504</ele>
        <time>2018-06-23T03:54:05Z</time>
      </trkpt>
      <trkpt lat="42.94807" lon="-0.06045">
        <ele>515</ele>
        <time>2018-06-23T03:55:05Z</time>
      </trkpt>
      <trkpt lat="42.94776" lon="-0.05997">
        <ele>510</ele>
        <time>2018-06-23T03:58:05Z</time>
      </trkpt>
      <trkpt lat="42.94766" lon="-0.05981">
        <ele>507</ele>
        <time>2018-06-23T03:59:05Z</time>
      </trkpt>
      <trkpt lat="42.94757" lon="-0.05965">
        <ele>504</ele>
        <time>2018-06-23T04:00:05Z</time>
      </trkpt>
      <trkpt lat="42.94726" lon="-0.05882">
        <ele>509</ele>
        <time>2018-06-23T04:03:05Z</time>
      </trkpt>
      <trkpt lat="42.94708" lon="-0.058">
        <ele>517</ele>
        <time>2018-06-23T04:05:05Z</time>
      </trkpt>
      <trkpt lat="42.94693" lon="-0.05732">
        <ele>520</ele>
        <time>2018-06-23T04:07:05Z</time>
      </trkpt>
      <trkpt lat="42.94684" lon="-0.05711">
        <ele>520</ele>
        <time>2018-06-23T04:08:05Z</time>
      </trkpt>
      <trkpt lat="42.94656" lon="-0.05666">
        <ele>518</ele>
        <time>2018-06-23T04:10:05Z</time>
      </trkpt>
      <trkpt lat="42.94601" lon="-0.05607">
        <ele>515</ele>
        <time>2018-06-23T04:12:05Z</time>
      </trkpt>
      <trkpt lat="42.94556" lon="-0.05554">
        <ele>515</ele>
        <time>2018-06-23T04:13:05Z</time>
      </trkpt>
      <trkpt lat="42.94434" lon="-0.05409">
        <ele>512</ele>
        <time>2018-06-23T04:18:05Z</time>
      </trkpt>
      <trkpt lat="42.94403" lon="-0.05378">
        <ele>516</ele>
        <time>2018-06-23T04:19:05Z</time>
      </trkpt>
      <trkpt lat="42.9439" lon="-0.05365">
        <ele>518</ele>
        <time>2018-06-23T04:21:05Z</time>
      </trkpt>
      <trkpt lat="42.9436" lon="-0.05342">
        <ele>515</ele>
        <time>2018-06-23T04:22:05Z</time>
      </trkpt>
      <trkpt lat="42.94311" lon="-0.05315">
        <ele>516</ele>
        <time>2018-06-23T04:23:05Z</time>
      </trkpt>
      <trkpt lat="42.94283" lon="-0.05298">
        <ele>519</ele>
        <time>2018-06-23T04:24:05Z</time>
      </trkpt>
      <trkpt lat="42.9427" lon="-0.05285">
        <ele>520</ele>
        <time>2018-06-23T04:26:05Z</time>
      </trkpt>
      <trkpt lat="42.9422" lon="-0.0523">
        <ele>529</ele>
        <time>2018-06-23T04:28:05Z</time>
      </trkpt>
      <trkpt lat="42.94213" lon="-0.05223">
        <ele>533</ele>
        <time>2018-06-23T04:29:05Z</time>
      </trkpt>
      <trkpt lat="42.94205" lon="-0.05215">
        <ele>537</ele>
        <time>2018-06-23T04:31:05Z</time>
      </trkpt>
      <trkpt lat="42.9419" lon="-0.05209">
        <ele>538</ele>
        <time>2018-06-23T04:33:05Z</time>
      </trkpt>
      <trkpt lat="42.94176" lon="-0.0521">
        <ele>535</ele>
        <time>2018-06-23T04:35:05Z</time>
      </trkpt>
      <trkpt lat="42.94167" lon="-0.05213">
        <ele>532</ele>
        <time>2018-06-23T04:36:05Z</time>
      </trkpt>
      <trkpt lat="42.94154" lon="-0.05219">
        <ele>531</ele>
        <time>2018-06-23T04:38:05Z</time>
      </trkpt>
      <trkpt lat="42.94133" lon="-0.05236">
        <ele>527</ele>
        <time>2018-06-23T04:40:05Z</time>
      </trkpt>
      <trkpt lat="42.9412" lon="-0.05249">
        <ele>524</ele>
        <time>2018-06-23T04:41:05Z</time>
      </trkpt>
      <trkpt lat="42.94095" lon="-0.05277">
        <ele>525</ele>
        <time>2018-06-23T04:42:05Z</time>
      </trkpt>
      <trkpt lat="42.94073" lon="-0.05304">
        <ele>520</ele>
        <time>2018-06-23T04:43:05Z</time>
      </trkpt>
      <trkpt lat="42.94064" lon="-0.05314">
        <ele>517</ele>
        <time>2018-06-23T04:45:05Z</time>
      </trkpt>
      <trkpt lat="42.94055" lon="-0.05322">
        <ele>516</ele>
        <time>2018-06-23T04:47:05Z</time>
      </trkpt>
      <trkpt lat="42.94009" lon="-0.05326">
        <ele>519</ele>
        <time>2018-06-23T04:56:05Z</time>
      </trkpt>
      <trkpt lat="42.93993" lon="-0.05312">
        <ele>523</ele>
        <time>2018-06-23T04:58:05Z</time>
      </trkpt>
      <trkpt lat="42.93982" lon="-0.05292">
        <ele>527</ele>
        <time>2018-06-23T05:00:05Z</time>
      </trkpt>
      <trkpt lat="42.93963" lon="-0.05238">
        <ele>530</ele>
        <time>2018-06-23T05:02:05Z</time>
      </trkpt>
      <trkpt lat="42.93953" lon="-0.052">
        <ele>533</ele>
        <time>2018-06-23T05:04:05Z</time>
      </trkpt>
      <trkpt lat="42.93948" lon="-0.05173">
        <ele>533</ele>
        <time>2018-06-23T05:05:05Z</time>
      </trkpt>
      <trkpt lat="42.93943" lon="-0.05141">
        <ele>536</ele>
        <time>2018-06-23T05:06:05Z</time>
      </trkpt>
      <trkpt lat="42.93934" lon="-0.05104">
        <ele>538</ele>
        <time>2018-06-23T05:08:05Z</time>
      </trkpt>
      <trkpt lat="42.93928" lon="-0.05093">
        <ele>535</ele>
        <time>2018-06-23T05:09:05Z</time>
      </trkpt>
      <trkpt lat="42.93901" lon="-0.0505">
        <ele>540</ele>
        <time>2018-06-23T05:11:05Z</time>
      </trkpt>
      <trkpt lat="42.93883" lon="-0.05031">
        <ele>543</ele>
        <time>2018-06-23T05:13:05Z</time>
      </trkpt>
      <trkpt lat="42.93879" lon="-0.05028">
        <ele>543</ele>
        <time>2018-06-23T05:14:05Z</time>
      </trkpt>
      <trkpt lat="42.93826" lon="-0.04998">
        <ele>538</ele>
        <time>2018-06-23T05:16:05Z</time>
      </trkpt>
      <trkpt lat="42.93771" lon="-0.0497">
        <ele>546</ele>
        <time>2018-06-23T05:17:05Z</time>
      </trkpt>
      <trkpt lat="42.93733" lon="-0.04947">
        <ele>546</ele>
        <time>2018-06-23T05:18:05Z</time>
      </trkpt>
      <trkpt lat="42.93716" lon="-0.04933">
        <ele>544</ele>
        <time>2018-06-23T05:21:05Z</time>
      </trkpt>
      <trkpt lat="42.93703" lon="-0.04916">
        <ele>540</ele>
        <time>2018-06-23T05:23:05Z</time>
      </trkpt>
      <trkpt lat="42.93695" lon="-0.04901">
        <ele>544</ele>
        <time>2018-06-23T05:25:05Z</time>
      </trkpt>
      <trkpt lat="42.93691" lon="-0.0489">
        <ele>548</ele>
        <time>2018-06-23T05:27:05Z</time>
      </trkpt>
      <trkpt lat="42.93679" lon="-0.04868">
        <ele>552</ele>
        <time>2018-06-23T05:29:05Z</time>
      </trkpt>
      <trkpt lat="42.9367" lon="-0.04858">
        <ele>552</ele>
        <time>2018-06-23T05:30:05Z</time>
      </trkpt>
      <trkpt lat="42.93651" lon="-0.04848">
        <ele>558</ele>
        <time>2018-06-23T05:32:05Z</time>
      </trkpt>
      <trkpt lat="42.93639" lon="-0.04846">
        <ele>561</ele>
        <time>2018-06-23T05:33:05Z</time>
      </trkpt>
      <trkpt lat="42.9362" lon="-0.04845">
        <ele>565</ele>
        <time>2018-06-23T05:34:05Z</time>
      </trkpt>
      <trkpt lat="42.93606" lon="-0.04845">
        <ele>568</ele>
        <time>2018-06-23T05:36:05Z</time>
      </trkpt>
      <trkpt lat="42.93585" lon="-0.04847">
        <ele>572</ele>
        <time>2018-06-23T05:37:05Z</time>
      </trkpt>
      <trkpt lat="42.93558" lon="-0.04853">
        <ele>575</ele>
        <time>2018-06-23T05:38:05Z</time>
      </trkpt>
      <trkpt lat="42.93529" lon="-0.0486">
        <ele>580</ele>
        <time>2018-06-23T05:39:05Z</time>
      </trkpt>
      <trkpt lat="42.93508" lon="-0.04867">
        <ele>584</ele>
        <time>2018-06-23T05:40:05Z</time>
      </trkpt>
      <trkpt lat="42.93473" lon="-0.04858">
        <ele>581</ele>
        <time>2018-06-23T05:46:05Z</time>
      </trkpt>
      <trkpt lat="42.93461" lon="-0.04839">
        <ele>576</ele>
        <time>2018-06-23T05:48:05Z</time>
      </trkpt>
      <trkpt lat="42.93455" lon="-0.04823">
        <ele>577</ele>
        <time>2018-06-23T05:49:05Z</time>
      </trkpt>
      <trkpt lat="42.93451" lon="-0.04806">
        <ele>583</ele>
        <time>2018-06-23T05:50:05Z</time>
      </trkpt>
      <trkpt lat="42.93448" lon="-0.04797">
        <ele>586</ele>
        <time>2018-06-23T05:51:05Z</time>
      </trkpt>
      <trkpt lat="42.9344" lon="-0.0478">
        <ele>590</ele>
        <time>2018-06-23T05:53:05Z</time>
      </trkpt>
      <trkpt lat="42.93426" lon="-0.04758">
        <ele>592</ele>
        <time>2018-06-23T05:55:05Z</time>
      </trkpt>
      <trkpt lat="42.93352" lon="-0.04693">
        <ele>588</ele>
        <time>2018-06-23T05:59:05Z</time>
      </trkpt>
      <trkpt lat="42.93331" lon="-0.04677">
        <ele>585</ele>
        <time>2018-06-23T06:00:05Z</time>
      </trkpt>
      <trkpt lat="42.93325" lon="-0.04672">
        <ele>585</ele>
        <time>2018-06-23T06:01:05Z</time>
      </trkpt>
      <trkpt lat="42.93315" lon="-0.04666">
        <ele>582</ele>
        <time>2018-06-23T06:02:05Z</time>
      </trkpt>
      <trkpt lat="42.93297" lon="-0.0466">
        <ele>576</ele>
        <time>2018-06-23T06:04:05Z</time>
      </trkpt>
      <trkpt lat="42.9327" lon="-0.04648">
        <ele>569</ele>
        <time>2018-06-23T06:05:05Z</time>
      </trkpt>
      <trkpt lat="42.93235" lon="-0.04625">
        <ele>571</ele>
        <time>2018-06-23T06:06:05Z</time>
      </trkpt>
      <trkpt lat="42.93212" lon="-0.04614">
        <ele>573</ele>
        <time>2018-06-23T06:09:05Z</time>
      </trkpt>
      <trkpt lat="42.93175" lon="-0.04607">
        <ele>569</ele>
        <time>2018-06-23T06:13:05Z</time>
      </trkpt>
      <trkpt lat="42.93149" lon="-0.0461">
        <ele>564</ele>
        <time>2018-06-23T06:16:05Z</time>
      </trkpt>
      <trkpt lat="42.93126" lon="-0.04613">
        <ele>560</ele>
        <time>2018-06-23T06:18:05Z</time>
      </trkpt>
      <trkpt lat="42.93123" lon="-0.04613">
        <ele>560</ele>
        <time>2018-06-23T06:19:05Z</time>
      </trkpt>
      <trkpt lat="42.93102" lon="-0.04608">
        <ele>558</ele>
        <time>2018-06-23T06:22:05Z</time>
      </trkpt>
      <trkpt lat="42.93038" lon="-0.04539">
        <ele>564</ele>
        <time>2018-06-23T06:28:05Z</time>
      </trkpt>
      <trkpt lat="42.93027" lon="-0.04522">
        <ele>564</ele>
        <time>2018-06-23T06:29:05Z</time>
      </trkpt>
      <trkpt lat="42.92992" lon="-0.04444">
        <ele>573</ele>
        <time>2018-06-23T06:32:05Z</time>
      </trkpt>
      <trkpt lat="42.92985" lon="-0.04422">
        <ele>579</ele>
        <time>2018-06-23T06:33:05Z</time>
      </trkpt>
      <trkpt lat="42.92982" lon="-0.04407">
        <ele>583</ele>
        <time>2018-06-23T06:34:05Z</time>
      </trkpt>
      <trkpt lat="42.92979" lon="-0.04397">
        <ele>586</ele>
        <time>2018-06-23T06:35:05Z</time>
      </trkpt>
      <trkpt lat="42.92975" lon="-0.04384">
        <ele>589</ele>
        <time>2018-06-23T06:36:05Z</time>
      </trkpt>
      <trkpt lat="42.9297" lon="-0.04373">
        <ele>590</ele>
        <time>2018-06-23T06:38:05Z</time>
      </trkpt>
      <trkpt lat="42.9295" lon="-0.04349">
        <ele>587</ele>
        <time>2018-06-23T06:41:05Z</time>
      </trkpt>
      <trkpt lat="42.92933" lon="-0.04326">
        <ele>583</ele>
        <time>2018-06-23T06:42:05Z</time>
      </trkpt>
      <trkpt lat="42.929" lon="-0.0428">
        <ele>591</ele>
        <time>2018-06-23T06:43:05Z</time>
      </trkpt>
      <trkpt lat="42.92877" lon="-0.04253">
        <ele>594</ele>
        <time>2018-06-23T06:44:05Z</time>
      </trkpt>
      <trkpt lat="42.92846" lon="-0.04225">
        <ele>597</ele>
        <time>2018-06-23T06:47:05Z</time>
      </trkpt>
      <trkpt lat="42.92795" lon="-0.04197">
        <ele>600</ele>
        <time>2018-06-23T06:48:05Z</time>
      </trkpt>
      <trkpt lat="42.92777" lon="-0.04189">
        <ele>600</ele>
        <time>2018-06-23T06:49:05Z</time>
      </trkpt>
      <trkpt lat="42.92734" lon="-0.04177">
        <ele>597</ele>
        <time>2018-06-23T06:52:05Z</time>
      </trkpt>
      <trkpt lat="42.92706" lon="-0.04167">
        <ele>597</ele>
        <time>2018-06-23T06:53:05Z</time>
      </trkpt>
      <trkpt lat="42.92646" lon="-0.0416">
        <ele>605</ele>
        <time>2018-06-23T06:57:05Z</time>
      </trkpt>
      <trkpt lat="42.92637" lon="-0.0416">
        <ele>608</ele>
        <time>2018-06-23T06:58:05Z</time>
      </trkpt>
      <trkpt lat="42.92622" lon="-0.04163">
        <ele>611</ele>
        <time>2018-06-23T07:00:05Z</time>
      </trkpt>
      <trkpt lat="42.92616" lon="-0.04167">
        <ele>611</ele>
        <time>2018-06-23T07:01:05Z</time>
      </trkpt>
      <trkpt lat="42.92594" lon="-0.04194">
        <ele>607</ele>
        <time>2018-06-23T07:03:05Z</time>
      </trkpt>
      <trkpt lat="42.92579" lon="-0.04211">
        <ele>602</ele>
        <time>2018-06-23T07:05:05Z</time>
      </trkpt>
      <trkpt lat="42.92566" lon="-0.04217">
        <ele>601</ele>
        <time>2018-06-23T07:07:05Z</time>
      </trkpt>
      <trkpt lat="42.92539" lon="-0.0421">
        <ele>605</ele>
        <time>2018-06-23T07:10:05Z</time>
      </trkpt>
      <trkpt lat="42.92502" lon="-0.04184">
        <ele>611</ele>
        <time>2018-06-23T07:12:05Z</time>
      </trkpt>
      <trkpt lat="42.92476" lon="-0.04162">
        <ele>611</ele>
        <time>2018-06-23T07:13:05Z</time>
      </trkpt>
      <trkpt lat="42.92451" lon="-0.04138">
        <ele>615</ele>
        <time>2018-06-23T07:14:05Z</time>
      </trkpt>
      <trkpt lat="42.92439" lon="-0.04124">
        <ele>618</ele>
        <time>2018-06-23T07:15:05Z</time>
      </trkpt>
      <trkpt lat="42.92418" lon="-0.04097">
        <ele>623</ele>
        <time>2018-06-23T07:17:05Z</time>
      </trkpt>
      <trkpt lat="42.92404" lon="-0.04086">
        <ele>624</ele>
        <time>2018-06-23T07:19:05Z</time>
      </trkpt>
      <trkpt lat="42.92363" lon="-0.0409">
        <ele>616</ele>
        <time>2018-06-23T07:24:05Z</time>
      </trkpt>
      <trkpt lat="42.9233" lon="-0.04084">
        <ele>610</ele>
        <time>2018-06-23T07:27:05Z</time>
      </trkpt>
      <trkpt lat="42.92299" lon="-0.04074">
        <ele>620</ele>
        <time>2018-06-23T07:28:05Z</time>
      </trkpt>
      <trkpt lat="42.92279" lon="-0.04074">
        <ele>622</ele>
        <time>2018-06-23T07:31:05Z</time>
      </trkpt>
      <trkpt lat="42.92262" lon="-0.0408">
        <ele>619</ele>
        <time>2018-06-23T07:32:05Z</time>
      </trkpt>
      <trkpt lat="42.92257" lon="-0.04081">
        <ele>619</ele>
        <time>2018-06-23T07:33:05Z</time>
      </trkpt>
      <trkpt lat="42.92228" lon="-0.04081">
        <ele>624</ele>
        <time>2018-06-23T07:34:05Z</time>
      </trkpt>
      <trkpt lat="42.92215" lon="-0.04082">
        <ele>626</ele>
        <time>2018-06-23T07:36:05Z</time>
      </trkpt>
      <trkpt lat="42.92175" lon="-0.04098">
        <ele>628</ele>
        <time>2018-06-23T07:39:05Z</time>
      </trkpt>
      <trkpt lat="42.92153" lon="-0.04102">
        <ele>625</ele>
        <time>2018-06-23T07:42:05Z</time>
      </trkpt>
      <trkpt lat="42.92119" lon="-0.041">
        <ele>619</ele>
        <time>2018-06-23T07:44:05Z</time>
      </trkpt>
      <trkpt lat="42.92093" lon="-0.04097">
        <ele>615</ele>
        <time>2018-06-23T07:45:05Z</time>
      </trkpt>
      <trkpt lat="42.92072" lon="-0.04089">
        <ele>612</ele>
        <time>2018-06-23T07:47:05Z</time>
      </trkpt>
      <trkpt lat="42.92043" lon="-0.04063">
        <ele>616</ele>
        <time>2018-06-23T07:50:05Z</time>
      </trkpt>
      <trkpt lat="42.92026" lon="-0.0404">
        <ele>622</ele>
        <time>2018-06-23T07:51:05Z</time>
      </trkpt>
      <trkpt lat="42.92017" lon="-0.0403">
        <ele>623</ele>
        <time>2018-06-23T07:53:05Z</time>
      </trkpt>
      <trkpt lat="42.92001" lon="-0.04024">
        <ele>619</ele>
        <time>2018-06-23T07:56:05Z</time>
      </trkpt>
      <trkpt lat="42.91968" lon="-0.04028">
        <ele>616</ele>
        <time>2018-06-23T07:59:05Z</time>
      </trkpt>
      <trkpt lat="42.91964" lon="-0.04027">
        <ele>616</ele>
        <time>2018-06-23T08:00:05Z</time>
      </trkpt>
      <trkpt lat="42.91933" lon="-0.04019">
        <ele>619</ele>
        <time>2018-06-23T08:02:05Z</time>
      </trkpt>
      <trkpt lat="42.9193" lon="-0.04019">
        <ele>619</ele>
        <time>2018-06-23T08:03:05Z</time>
      </trkpt>
      <trkpt lat="42.91909" lon="-0.04024">
        <ele>616</ele>
        <time>2018-06-23T08:06:05Z</time>
      </trkpt>
      <trkpt lat="42.91894" lon="-0.04032">
        <ele>611</ele>
        <time>2018-06-23T08:07:05Z</time>
      </trkpt>
      <trkpt lat="42.91873" lon="-0.04041">
        <ele>606</ele>
        <time>2018-06-23T08:09:05Z</time>
      </trkpt>
      <trkpt lat="42.91869" lon="-0.04041">
        <ele>606</ele>
        <time>2018-06-23T08:10:05Z</time>
      </trkpt>
      <trkpt lat="42.91852" lon="-0.04032">
        <ele>609</ele>
        <time>2018-06-23T08:13:05Z</time>
      </trkpt>
      <trkpt lat="42.91831" lon="-0.04008">
        <ele>616</ele>
        <time>2018-06-23T08:15:05Z</time>
      </trkpt>
      <trkpt lat="42.91826" lon="-0.04003">
        <ele>616</ele>
        <time>2018-06-23T08:16:05Z</time>
      </trkpt>
      <trkpt lat="42.91769" lon="-0.03987">
        <ele>610</ele>
        <time>2018-06-23T08:23:05Z</time>
      </trkpt>
      <trkpt lat="42.91761" lon="-0.03986">
        <ele>609</ele>
        <time>2018-06-23T08:25:05Z</time>
      </trkpt>
      <trkpt lat="42.91699" lon="-0.03915">
        <ele>614</ele>
        <time>2018-06-23T08:32:05Z</time>
      </trkpt>
      <trkpt lat="42.91666" lon="-0.03857">
        <ele>625</ele>
        <time>2018-06-23T08:33:05Z</time>
      </trkpt>
      <trkpt lat="42.91649" lon="-0.03833">
        <ele>628</ele>
        <time>2018-06-23T08:35:05Z</time>
      </trkpt>
      <trkpt lat="42.91639" lon="-0.03821">
        <ele>632</ele>
        <time>2018-06-23T08:37:05Z</time>
      </trkpt>
      <trkpt lat="42.91582" lon="-0.0379">
        <ele>628</ele>
        <time>2018-06-23T08:39:05Z</time>
      </trkpt>
      <trkpt lat="42.91561" lon="-0.0378">
        <ele>628</ele>
        <time>2018-06-23T08:40:05Z</time>
      </trkpt>
      <trkpt lat="42.91501" lon="-0.03749">
        <ele>623</ele>
        <time>2018-06-23T08:41:05Z</time>
      </trkpt>
      <trkpt lat="42.91494" lon="-0.03746">
        <ele>623</ele>
        <time>2018-06-23T08:42:05Z</time>
      </trkpt>
      <trkpt lat="42.91464" lon="-0.03728">
        <ele>631</ele>
        <time>2018-06-23T08:43:05Z</time>
      </trkpt>
      <trkpt lat="42.91412" lon="-0.037">
        <ele>645</ele>
        <time>2018-06-23T08:44:05Z</time>
      </trkpt>
      <trkpt lat="42.91411" lon="-0.037">
        <ele>645</ele>
        <time>2018-06-23T08:45:05Z</time>
      </trkpt>
      <trkpt lat="42.91375" lon="-0.03703">
        <ele>640</ele>
        <time>2018-06-23T08:49:05Z</time>
      </trkpt>
      <trkpt lat="42.91351" lon="-0.03716">
        <ele>630</ele>
        <time>2018-06-23T08:50:05Z</time>
      </trkpt>
      <trkpt lat="42.91336" lon="-0.0372">
        <ele>627</ele>
        <time>2018-06-23T08:53:05Z</time>
      </trkpt>
      <trkpt lat="42.91329" lon="-0.03721">
        <ele>627</ele>
        <time>2018-06-23T08:54:05Z</time>
      </trkpt>
      <trkpt lat="42.91308" lon="-0.0372">
        <ele>632</ele>
        <time>2018-06-23T08:55:05Z</time>
      </trkpt>
      <trkpt lat="42.91305" lon="-0.03721">
        <ele>632</ele>
        <time>2018-06-23T08:56:05Z</time>
      </trkpt>
      <trkpt lat="42.91272" lon="-0.03736">
        <ele>629</ele>
        <time>2018-06-23T09:00:05Z</time>
      </trkpt>
      <trkpt lat="42.91225" lon="-0.03738">
        <ele>632</ele>
        <time>2018-06-23T09:06:05Z</time>
      </trkpt>
      <trkpt lat="42.91186" lon="-0.03724">
        <ele>640</ele>
        <time>2018-06-23T09:07:05Z</time>
      </trkpt>
      <trkpt lat="42.91152" lon="-0.03712">
        <ele>643</ele>
        <time>2018-06-23T09:09:05Z</time>
      </trkpt>
      <trkpt lat="42.91112" lon="-0.03686">
        <ele>646</ele>
        <time>2018-06-23T09:11:05Z</time>
      </trkpt>
      <trkpt lat="42.91083" lon="-0.03677">
        <ele>642</ele>
        <time>2018-06-23T09:13:05Z</time>
      </trkpt>
      <trkpt lat="42.91004" lon="-0.03666">
        <ele>634</ele>
        <time>2018-06-23T09:14:05Z</time>
      </trkpt>
      <trkpt lat="42.90954" lon="-0.03661">
        <ele>633</ele>
        <time>2018-06-23T09:16:05Z</time>
      </trkpt>
      <trkpt lat="42.90876" lon="-0.03626">
        <ele>632</ele>
        <time>2018-06-23T09:21:05Z</time>
      </trkpt>
      <trkpt lat="42.9085" lon="-0.03602">
        <ele>628</ele>
        <time>2018-06-23T09:23:05Z</time>
      </trkpt>
      <trkpt lat="42.90834" lon="-0.03586">
        <ele>624</ele>
        <time>2018-06-23T09:24:05Z</time>
      </trkpt>
      <trkpt lat="42.90817" lon="-0.03571">
        <ele>626</ele>
        <time>2018-06-23T09:25:05Z</time>
      </trkpt>
      <trkpt lat="42.9075" lon="-0.0352">
        <ele>622</ele>
        <time>2018-06-23T09:27:05Z</time>
      </trkpt>
      <trkpt lat="42.90733" lon="-0.03504">
        <ele>623</ele>
        <time>2018-06-23T09:28:05Z</time>
      </trkpt>
      <trkpt lat="42.90693" lon="-0.03488">
        <ele>619</ele>
        <time>2018-06-23T09:31:05Z</time>
      </trkpt>
      <trkpt lat="42.90664" lon="-0.03471">
        <ele>616</ele>
        <time>2018-06-23T09:33:05Z</time>
      </trkpt>
      <trkpt lat="42.90651" lon="-0.03459">
        <ele>619</ele>
        <time>2018-06-23T09:34:05Z</time>
      </trkpt>
      <trkpt lat="42.90615" lon="-0.03463">
        <ele>613</ele>
        <time>2018-06-23T09:38:05Z</time>
      </trkpt>
      <trkpt lat="42.90607" lon="-0.03466">
        <ele>612</ele>
        <time>2018-06-23T09:40:05Z</time>
      </trkpt>
      <trkpt lat="42.90568" lon="-0.034">
        <ele>617</ele>
        <time>2018-06-23T09:48:05Z</time>
      </trkpt>
      <trkpt lat="42.90543" lon="-0.03351">
        <ele>625</ele>
        <time>2018-06-23T09:49:05Z</time>
      </trkpt>
      <trkpt lat="42.9051" lon="-0.03304">
        <ele>627</ele>
        <time>2018-06-23T09:51:05Z</time>
      </trkpt>
      <trkpt lat="42.90453" lon="-0.03197">
        <ele>631</ele>
        <time>2018-06-23T09:54:05Z</time>
      </trkpt>
      <trkpt lat="42.90425" lon="-0.03156">
        <ele>628</ele>
        <time>2018-06-23T09:56:05Z</time>
      </trkpt>
      <trkpt lat="42.90394" lon="-0.03136">
        <ele>626</ele>
        <time>2018-06-23T09:58:05Z</time>
      </trkpt>
      <trkpt lat="42.90338" lon="-0.0315">
        <ele>629</ele>
        <time>2018-06-23T10:03:05Z</time>
      </trkpt>
      <trkpt lat="42.90331" lon="-0.03148">
        <ele>629</ele>
        <time>2018-06-23T10:04:05Z</time>
      </trkpt>
      <trkpt lat="42.90252" lon="-0.03108">
        <ele>626</ele>
        <time>2018-06-23T10:07:05Z</time>
      </trkpt>
      <trkpt lat="42.9022" lon="-0.03085">
        <ele>623</ele>
        <time>2018-06-23T10:08:05Z</time>
      </trkpt>
      <trkpt lat="42.90211" lon="-0.03078">
        <ele>623</ele>
        <time>2018-06-23T10:09:05Z</time>
      </trkpt>
      <trkpt lat="42.90103" lon="-0.02996">
        <ele>621</ele>
        <time>2018-06-23T10:12:05Z</time>
      </trkpt>
      <trkpt lat="42.90096" lon="-0.02991">
        <ele>621</ele>
        <time>2018-06-23T10:13:05Z</time>
      </trkpt>
      <trkpt lat="42.90032" lon="-0.02942">
        <ele>628</ele>
        <time>2018-06-23T10:14:05Z</time>
      </trkpt>
      <trkpt lat="42.89953" lon="-0.02887">
        <ele>631</ele>
        <time>2018-06-23T10:15:05Z</time>
      </trkpt>
      <trkpt lat="42.89916" lon="-0.02854">
        <ele>629</ele>
        <time>2018-06-23T10:16:05Z</time>
      </trkpt>
      <trkpt lat="42.89895" lon="-0.02838">
        <ele>626</ele>
        <time>2018-06-23T10:17:05Z</time>
      </trkpt>
      <trkpt lat="42.89856" lon="-0.02815">
        <ele>625</ele>
        <time>2018-06-23T10:19:05Z</time>
      </trkpt>
      <trkpt lat="42.89855" lon="-0.02836">
        <ele>626</ele>
        <time>2018-06-23T10:24:05Z</time>
      </trkpt>
      <trkpt lat="42.89913" lon="-0.02863">
        <ele>631</ele>
        <time>2018-06-23T10:32:05Z</time>
      </trkpt>
      <trkpt lat="42.89943" lon="-0.02892">
        <ele>633</ele>
        <time>2018-06-23T10:34:05Z</time>
      </trkpt>
      <trkpt lat="42.89992" lon="-0.02946">
        <ele>636</ele>
        <time>2018-06-23T10:36:05Z</time>
      </trkpt>
      <trkpt lat="42.90001" lon="-0.02962">
        <ele>639</ele>
        <time>2018-06-23T10:37:05Z</time>
      </trkpt>
      <trkpt lat="42.90036" lon="-0.03023">
        <ele>645</ele>
        <time>2018-06-23T10:43:05Z</time>
      </trkpt>
      <trkpt lat="42.90036" lon="-0.03043">
        <ele>652</ele>
        <time>2018-06-23T10:44:05Z</time>
      </trkpt>
      <trkpt lat="42.90034" lon="-0.03053">
        <ele>656</ele>
        <time>2018-06-23T10:45:05Z</time>
      </trkpt>
      <trkpt lat="42.90032" lon="-0.03068">
        <ele>661</ele>
        <time>2018-06-23T10:46:05Z</time>
      </trkpt>
      <trkpt lat="42.90026" lon="-0.03086">
        <ele>670</ele>
        <time>2018-06-23T10:47:05Z</time>
      </trkpt>
      <trkpt lat="42.90025" lon="-0.03096">
        <ele>675</ele>
        <time>2018-06-23T10:48:05Z</time>
      </trkpt>
      <trkpt lat="42.90026" lon="-0.03105">
        <ele>679</ele>
        <time>2018-06-23T10:50:05Z</time>
      </trkpt>
      <trkpt lat="42.9003" lon="-0.03114">
        <ele>682</ele>
        <time>2018-06-23T10:51:05Z</time>
      </trkpt>
      <trkpt lat="42.90054" lon="-0.03136">
        <ele>683</ele>
        <time>2018-06-23T10:53:05Z</time>
      </trkpt>
      <trkpt lat="42.90133" lon="-0.032">
        <ele>687</ele>
        <time>2018-06-23T10:55:05Z</time>
      </trkpt>
      <trkpt lat="42.90146" lon="-0.0321">
        <ele>687</ele>
        <time>2018-06-23T10:56:05Z</time>
      </trkpt>
      <trkpt lat="42.90169" lon="-0.03239">
        <ele>691</ele>
        <time>2018-06-23T10:58:05Z</time>
      </trkpt>
      <trkpt lat="42.90179" lon="-0.03253">
        <ele>694</ele>
        <time>2018-06-23T10:59:05Z</time>
      </trkpt>
      <trkpt lat="42.90188" lon="-0.03269">
        <ele>698</ele>
        <time>2018-06-23T11:01:05Z</time>
      </trkpt>
      <trkpt lat="42.90199" lon="-0.03296">
        <ele>705</ele>
        <time>2018-06-23T11:02:05Z</time>
      </trkpt>
      <trkpt lat="42.90214" lon="-0.03326">
        <ele>711</ele>
        <time>2018-06-23T11:03:05Z</time>
      </trkpt>
      <trkpt lat="42.90227" lon="-0.03349">
        <ele>712</ele>
        <time>2018-06-23T11:05:05Z</time>
      </trkpt>
      <trkpt lat="42.9024" lon="-0.03368">
        <ele>711</ele>
        <time>2018-06-23T11:07:05Z</time>
      </trkpt>
      <trkpt lat="42.90249" lon="-0.03375">
        <ele>707</ele>
        <time>2018-06-23T11:08:05Z</time>
      </trkpt>
      <trkpt lat="42.90274" lon="-0.03389">
        <ele>704</ele>
        <time>2018-06-23T11:09:05Z</time>
      </trkpt>
      <trkpt lat="42.90292" lon="-0.03405">
        <ele>702</ele>
        <time>2018-06-23T11:12:05Z</time>
      </trkpt>
      <trkpt lat="42.90294" lon="-0.0342">
        <ele>705</ele>
        <time>2018-06-23T11:15:05Z</time>
      </trkpt>
      <trkpt lat="42.90291" lon="-0.03429">
        <ele>709</ele>
        <time>2018-06-23T11:17:05Z</time>
      </trkpt>
      <trkpt lat="42.90281" lon="-0.03439">
        <ele>717</ele>
        <time>2018-06-23T11:19:05Z</time>
      </trkpt>
      <trkpt lat="42.90277" lon="-0.03445">
        <ele>721</ele>
        <time>2018-06-23T11:20:05Z</time>
      </trkpt>
      <trkpt lat="42.90274" lon="-0.03453">
        <ele>726</ele>
        <time>2018-06-23T11:22:05Z</time>
      </trkpt>
      <trkpt lat="42.90274" lon="-0.03461">
        <ele>729</ele>
        <time>2018-06-23T11:24:05Z</time>
      </trkpt>
      <trkpt lat="42.90277" lon="-0.03469">
        <ele>731</ele>
        <time>2018-06-23T11:26:05Z</time>
      </trkpt>
      <trkpt lat="42.903" lon="-0.03483">
        <ele>725</ele>
        <time>2018-06-23T11:30:05Z</time>
      </trkpt>
      <trkpt lat="42.90309" lon="-0.03487">
        <ele>722</ele>
        <time>2018-06-23T11:32:05Z</time>
      </trkpt>
      <trkpt lat="42.9032" lon="-0.03497">
        <ele>719</ele>
        <time>2018-06-23T11:34:05Z</time>
      </trkpt>
      <trkpt lat="42.90353" lon="-0.03537">
        <ele>723</ele>
        <time>2018-06-23T11:37:05Z</time>
      </trkpt>
      <trkpt lat="42.90372" lon="-0.0357">
        <ele>729</ele>
        <time>2018-06-23T11:38:05Z</time>
      </trkpt>
      <trkpt lat="42.90385" lon="-0.03595">
        <ele>733</ele>
        <time>2018-06-23T11:40:05Z</time>
      </trkpt>
      <trkpt lat="42.90389" lon="-0.03608">
        <ele>737</ele>
        <time>2018-06-23T11:42:05Z</time>
      </trkpt>
      <trkpt lat="42.90394" lon="-0.03629">
        <ele>744</ele>
        <time>2018-06-23T11:43:05Z</time>
      </trkpt>
      <trkpt lat="42.90402" lon="-0.03648">
        <ele>748</ele>
        <time>2018-06-23T11:44:05Z</time>
      </trkpt>
      <trkpt lat="42.90445" lon="-0.03681">
        <ele>743</ele>
        <time>2018-06-23T11:49:05Z</time>
      </trkpt>
      <trkpt lat="42.90449" lon="-0.03684">
        <ele>743</ele>
        <time>2018-06-23T11:50:05Z</time>
      </trkpt>
      <trkpt lat="42.90475" lon="-0.0371">
        <ele>746</ele>
        <time>2018-06-23T11:53:05Z</time>
      </trkpt>
      <trkpt lat="42.90511" lon="-0.03745">
        <ele>753</ele>
        <time>2018-06-23T11:54:05Z</time>
      </trkpt>
      <trkpt lat="42.90529" lon="-0.03762">
        <ele>759</ele>
        <time>2018-06-23T11:55:05Z</time>
      </trkpt>
      <trkpt lat="42.90568" lon="-0.03783">
        <ele>762</ele>
        <time>2018-06-23T11:56:05Z</time>
      </trkpt>
      <trkpt lat="42.90584" lon="-0.03789">
        <ele>761</ele>
        <time>2018-06-23T11:57:05Z</time>
      </trkpt>
      <trkpt lat="42.90641" lon="-0.03832">
        <ele>764</ele>
        <time>2018-06-23T12:00:05Z</time>
      </trkpt>
      <trkpt lat="42.90669" lon="-0.03858">
        <ele>769</ele>
        <time>2018-06-23T12:01:05Z</time>
      </trkpt>
      <trkpt lat="42.90698" lon="-0.03886">
        <ele>777</ele>
        <time>2018-06-23T12:02:05Z</time>
      </trkpt>
      <trkpt lat="42.90716" lon="-0.03896">
        <ele>778</ele>
        <time>2018-06-23T12:04:05Z</time>
      </trkpt>
      <trkpt lat="42.90745" lon="-0.03907">
        <ele>776</ele>
        <time>2018-06-23T12:06:05Z</time>
      </trkpt>
      <trkpt lat="42.90764" lon="-0.03922">
        <ele>779</ele>
        <time>2018-06-23T12:08:05Z</time>
      </trkpt>
      <trkpt lat="42.90779" lon="-0.0394">
        <ele>784</ele>
        <time>2018-06-23T12:09:05Z</time>
      </trkpt>
      <trkpt lat="42.90801" lon="-0.03971">
        <ele>791</ele>
        <time>2018-06-23T12:10:05Z</time>
      </trkpt>
      <trkpt lat="42.90828" lon="-0.04008">
        <ele>799</ele>
        <time>2018-06-23T12:11:05Z</time>
      </trkpt>
      <trkpt lat="42.90836" lon="-0.04018">
        <ele>802</ele>
        <time>2018-06-23T12:12:05Z</time>
      </trkpt>
      <trkpt lat="42.90848" lon="-0.04029">
        <ele>806</ele>
        <time>2018-06-23T12:13:05Z</time>
      </trkpt>
      <trkpt lat="42.90854" lon="-0.04031">
        <ele>806</ele>
        <time>2018-06-23T12:14:05Z</time>
      </trkpt>
      <trkpt lat="42.90865" lon="-0.04023">
        <ele>802</ele>
        <time>2018-06-23T12:18:05Z</time>
      </trkpt>
      <trkpt lat="42.90871" lon="-0.04005">
        <ele>795</ele>
        <time>2018-06-23T12:20:05Z</time>
      </trkpt>
      <trkpt lat="42.90875" lon="-0.03997">
        <ele>792</ele>
        <time>2018-06-23T12:22:05Z</time>
      </trkpt>
      <trkpt lat="42.90882" lon="-0.03991">
        <ele>790</ele>
        <time>2018-06-23T12:25:05Z</time>
      </trkpt>
      <trkpt lat="42.90958" lon="-0.04028">
        <ele>798</ele>
        <time>2018-06-23T12:30:05Z</time>
      </trkpt>
      <trkpt lat="42.90973" lon="-0.04038">
        <ele>801</ele>
        <time>2018-06-23T12:32:05Z</time>
      </trkpt>
      <trkpt lat="42.90991" lon="-0.04048">
        <ele>804</ele>
        <time>2018-06-23T12:33:05Z</time>
      </trkpt>
      <trkpt lat="42.9102" lon="-0.04067">
        <ele>810</ele>
        <time>2018-06-23T12:34:05Z</time>
      </trkpt>
      <trkpt lat="42.91044" lon="-0.04083">
        <ele>814</ele>
        <time>2018-06-23T12:35:05Z</time>
      </trkpt>
      <trkpt lat="42.91083" lon="-0.04108">
        <ele>814</ele>
        <time>2018-06-23T12:36:05Z</time>
      </trkpt>
      <trkpt lat="42.91108" lon="-0.04159">
        <ele>819</ele>
        <time>2018-06-23T12:40:05Z</time>
      </trkpt>
      <trkpt lat="42.91105" lon="-0.04174">
        <ele>822</ele>
        <time>2018-06-23T12:42:05Z</time>
      </trkpt>
      <trkpt lat="42.91099" lon="-0.04181">
        <ele>825</ele>
        <time>2018-06-23T12:43:05Z</time>
      </trkpt>
      <trkpt lat="42.91093" lon="-0.04185">
        <ele>828</ele>
        <time>2018-06-23T12:44:05Z</time>
      </trkpt>
      <trkpt lat="42.91067" lon="-0.0417">
        <ele>830</ele>
        <time>2018-06-23T12:47:05Z</time>
      </trkpt>
      <trkpt lat="42.90994" lon="-0.04112">
        <ele>826</ele>
        <time>2018-06-23T12:49:05Z</time>
      </trkpt>
      <trkpt lat="42.90978" lon="-0.04106">
        <ele>825</ele>
        <time>2018-06-23T12:51:05Z</time>
      </trkpt>
      <trkpt lat="42.90952" lon="-0.04132">
        <ele>834</ele>
        <time>2018-06-23T12:56:05Z</time>
      </trkpt>
      <trkpt lat="42.90943" lon="-0.04142">
        <ele>838</ele>
        <time>2018-06-23T12:57:05Z</time>
      </trkpt>
      <trkpt lat="42.90935" lon="-0.04148">
        <ele>841</ele>
        <time>2018-06-23T12:58:05Z</time>
      </trkpt>
      <trkpt lat="42.90931" lon="-0.04148">
        <ele>841</ele>
        <time>2018-06-23T12:59:05Z</time>
      </trkpt>
      <trkpt lat="42.90887" lon="-0.0413">
        <ele>841</ele>
        <time>2018-06-23T13:05:05Z</time>
      </trkpt>
      <trkpt lat="42.90877" lon="-0.04137">
        <ele>846</ele>
        <time>2018-06-23T13:08:05Z</time>
      </trkpt>
      <trkpt lat="42.90831" lon="-0.04123">
        <ele>849</ele>
        <time>2018-06-23T13:10:05Z</time>
      </trkpt>
      <trkpt lat="42.90796" lon="-0.04108">
        <ele>851</ele>
        <time>2018-06-23T13:13:05Z</time>
      </trkpt>
      <trkpt lat="42.90758" lon="-0.04099">
        <ele>858</ele>
        <time>2018-06-23T13:16:05Z</time>
      </trkpt>
      <trkpt lat="42.90731" lon="-0.04084">
        <ele>859</ele>
        <time>2018-06-23T13:18:05Z</time>
      </trkpt>
      <trkpt lat="42.90705" lon="-0.04058">
        <ele>855</ele>
        <time>2018-06-23T13:20:05Z</time>
      </trkpt>
      <trkpt lat="42.90683" lon="-0.04035">
        <ele>852</ele>
        <time>2018-06-23T13:22:05Z</time>
      </trkpt>
      <trkpt lat="42.9066" lon="-0.04016">
        <ele>851</ele>
        <time>2018-06-23T13:24:05Z</time>
      </trkpt>
      <trkpt lat="42.90641" lon="-0.04006">
        <ele>855</ele>
        <time>2018-06-23T13:26:05Z</time>
      </trkpt>
      <trkpt lat="42.90626" lon="-0.04002">
        <ele>860</ele>
        <time>2018-06-23T13:27:05Z</time>
      </trkpt>
      <trkpt lat="42.90616" lon="-0.04">
        <ele>864</ele>
        <time>2018-06-23T13:28:05Z</time>
      </trkpt>
      <trkpt lat="42.90606" lon="-0.04001">
        <ele>869</ele>
        <time>2018-06-23T13:29:05Z</time>
      </trkpt>
      <trkpt lat="42.90599" lon="-0.04">
        <ele>872</ele>
        <time>2018-06-23T13:30:05Z</time>
      </trkpt>
      <trkpt lat="42.9059" lon="-0.03997">
        <ele>875</ele>
        <time>2018-06-23T13:32:05Z</time>
      </trkpt>
      <trkpt lat="42.90549" lon="-0.0397">
        <ele>877</ele>
        <time>2018-06-23T13:34:05Z</time>
      </trkpt>
      <trkpt lat="42.90514" lon="-0.03952">
        <ele>879</ele>
        <time>2018-06-23T13:38:05Z</time>
      </trkpt>
      <trkpt lat="42.90481" lon="-0.03949">
        <ele>889</ele>
        <time>2018-06-23T13:40:05Z</time>
      </trkpt>
      <trkpt lat="42.90471" lon="-0.03947">
        <ele>892</ele>
        <time>2018-06-23T13:41:05Z</time>
      </trkpt>
      <trkpt lat="42.9043" lon="-0.03932">
        <ele>899</ele>
        <time>2018-06-23T13:43:05Z</time>
      </trkpt>
      <trkpt lat="42.9041" lon="-0.03922">
        <ele>900</ele>
        <time>2018-06-23T13:45:05Z</time>
      </trkpt>
      <trkpt lat="42.90387" lon="-0.03905">
        <ele>892</ele>
        <time>2018-06-23T13:46:05Z</time>
      </trkpt>
      <trkpt lat="42.90354" lon="-0.03885">
        <ele>886</ele>
        <time>2018-06-23T13:47:05Z</time>
      </trkpt>
      <trkpt lat="42.9034" lon="-0.03879">
        <ele>886</ele>
        <time>2018-06-23T13:48:05Z</time>
      </trkpt>
      <trkpt lat="42.90316" lon="-0.03887">
        <ele>889</ele>
        <time>2018-06-23T13:56:05Z</time>
      </trkpt>
      <trkpt lat="42.90325" lon="-0.03891">
        <ele>892</ele>
        <time>2018-06-23T13:59:05Z</time>
      </trkpt>
      <trkpt lat="42.90367" lon="-0.03906">
        <ele>895</ele>
        <time>2018-06-23T14:02:05Z</time>
      </trkpt>
      <trkpt lat="42.90384" lon="-0.03918">
        <ele>900</ele>
        <time>2018-06-23T14:03:05Z</time>
      </trkpt>
      <trkpt lat="42.90392" lon="-0.03925">
        <ele>903</ele>
        <time>2018-06-23T14:04:05Z</time>
      </trkpt>
      <trkpt lat="42.90401" lon="-0.03934">
        <ele>907</ele>
        <time>2018-06-23T14:05:05Z</time>
      </trkpt>
      <trkpt lat="42.90441" lon="-0.03964">
        <ele>912</ele>
        <time>2018-06-23T14:06:05Z</time>
      </trkpt>
      <trkpt lat="42.90464" lon="-0.03987">
        <ele>917</ele>
        <time>2018-06-23T14:07:05Z</time>
      </trkpt>
      <trkpt lat="42.9051" lon="-0.04015">
        <ele>913</ele>
        <time>2018-06-23T14:10:05Z</time>
      </trkpt>
      <trkpt lat="42.90519" lon="-0.04023">
        <ele>913</ele>
        <time>2018-06-23T14:11:05Z</time>
      </trkpt>
      <trkpt lat="42.90595" lon="-0.04113">
        <ele>916</ele>
        <time>2018-06-23T14:14:05Z</time>
      </trkpt>
      <trkpt lat="42.90626" lon="-0.04143">
        <ele>920</ele>
        <time>2018-06-23T14:15:05Z</time>
      </trkpt>
      <trkpt lat="42.90638" lon="-0.04155">
        <ele>921</ele>
        <time>2018-06-23T14:17:05Z</time>
      </trkpt>
      <trkpt lat="42.90641" lon="-0.04161">
        <ele>923</ele>
        <time>2018-06-23T14:19:05Z</time>
      </trkpt>
      <trkpt lat="42.9064" lon="-0.04167">
        <ele>926</ele>
        <time>2018-06-23T14:22:05Z</time>
      </trkpt>
      <trkpt lat="42.90636" lon="-0.04169">
        <ele>929</ele>
        <time>2018-06-23T14:25:05Z</time>
      </trkpt>
      <trkpt lat="42.9063" lon="-0.04167">
        <ele>930</ele>
        <time>2018-06-23T14:27:05Z</time>
      </trkpt>
      <trkpt lat="42.90559" lon="-0.04108">
        <ele>930</ele>
        <time>2018-06-23T14:31:05Z</time>
      </trkpt>
      <trkpt lat="42.90495" lon="-0.04064">
        <ele>938</ele>
        <time>2018-06-23T14:36:05Z</time>
      </trkpt>
      <trkpt lat="42.90484" lon="-0.04061">
        <ele>943</ele>
        <time>2018-06-23T14:37:05Z</time>
      </trkpt>
      <trkpt lat="42.90478" lon="-0.0406">
        <ele>946</ele>
        <time>2018-06-23T14:38:05Z</time>
      </trkpt>
      <trkpt lat="42.90456" lon="-0.04045">
        <ele>950</ele>
        <time>2018-06-23T14:40:05Z</time>
      </trkpt>
      <trkpt lat="42.9042" lon="-0.04025">
        <ele>954</ele>
        <time>2018-06-23T14:42:05Z</time>
      </trkpt>
      <trkpt lat="42.9039" lon="-0.04016">
        <ele>954</ele>
        <time>2018-06-23T14:43:05Z</time>
      </trkpt>
      <trkpt lat="42.90378" lon="-0.04009">
        <ele>951</ele>
        <time>2018-06-23T14:44:05Z</time>
      </trkpt>
      <trkpt lat="42.90361" lon="-0.03993">
        <ele>944</ele>
        <time>2018-06-23T14:45:05Z</time>
      </trkpt>
      <trkpt lat="42.90353" lon="-0.03989">
        <ele>943</ele>
        <time>2018-06-23T14:47:05Z</time>
      </trkpt>
      <trkpt lat="42.90348" lon="-0.03993">
        <ele>946</ele>
        <time>2018-06-23T14:50:05Z</time>
      </trkpt>
      <trkpt lat="42.90349" lon="-0.03999">
        <ele>949</ele>
        <time>2018-06-23T14:52:05Z</time>
      </trkpt>
      <trkpt lat="42.90385" lon="-0.04027">
        <ele>962</ele>
        <time>2018-06-23T14:54:05Z</time>
      </trkpt>
      <trkpt lat="42.90427" lon="-0.0405">
        <ele>966</ele>
        <time>2018-06-23T14:55:05Z</time>
      </trkpt>
      <trkpt lat="42.90435" lon="-0.04057">
        <ele>966</ele>
        <time>2018-06-23T14:56:05Z</time>
      </trkpt>
      <trkpt lat="42.90484" lon="-0.04108">
        <ele>970</ele>
        <time>2018-06-23T14:59:05Z</time>
      </trkpt>
      <trkpt lat="42.90499" lon="-0.04121">
        <ele>970</ele>
        <time>2018-06-23T15:00:05Z</time>
      </trkpt>
      <trkpt lat="42.90535" lon="-0.04149">
        <ele>968</ele>
        <time>2018-06-23T15:02:05Z</time>
      </trkpt>
      <trkpt lat="42.90552" lon="-0.04177">
        <ele>974</ele>
        <time>2018-06-23T15:04:05Z</time>
      </trkpt>
      <trkpt lat="42.9057" lon="-0.04203">
        <ele>979</ele>
        <time>2018-06-23T15:05:05Z</time>
      </trkpt>
      <trkpt lat="42.9062" lon="-0.04259">
        <ele>981</ele>
        <time>2018-06-23T15:07:05Z</time>
      </trkpt>
      <trkpt lat="42.9064" lon="-0.04289">
        <ele>985</ele>
        <time>2018-06-23T15:09:05Z</time>
      </trkpt>
      <trkpt lat="42.90645" lon="-0.043">
        <ele>988</ele>
        <time>2018-06-23T15:10:05Z</time>
      </trkpt>
      <trkpt lat="42.90649" lon="-0.04315">
        <ele>993</ele>
        <time>2018-06-23T15:11:05Z</time>
      </trkpt>
      <trkpt lat="42.90661" lon="-0.04344">
        <ele>1001</ele>
        <time>2018-06-23T15:12:05Z</time>
      </trkpt>
      <trkpt lat="42.90676" lon="-0.04369">
        <ele>1006</ele>
        <time>2018-06-23T15:14:05Z</time>
      </trkpt>
      <trkpt lat="42.90687" lon="-0.04377">
        <ele>1005</ele>
        <time>2018-06-23T15:15:05Z</time>
      </trkpt>
      <trkpt lat="42.90709" lon="-0.04386">
        <ele>1001</ele>
        <time>2018-06-23T15:17:05Z</time>
      </trkpt>
      <trkpt lat="42.90758" lon="-0.04435">
        <ele>1004</ele>
        <time>2018-06-23T15:21:05Z</time>
      </trkpt>
      <trkpt lat="42.90769" lon="-0.04449">
        <ele>1005</ele>
        <time>2018-06-23T15:23:05Z</time>
      </trkpt>
      <trkpt lat="42.90795" lon="-0.04513">
        <ele>1014</ele>
        <time>2018-06-23T15:25:05Z</time>
      </trkpt>
      <trkpt lat="42.90811" lon="-0.04544">
        <ele>1014</ele>
        <time>2018-06-23T15:26:05Z</time>
      </trkpt>
      <trkpt lat="42.9083" lon="-0.04573">
        <ele>1012</ele>
        <time>2018-06-23T15:28:05Z</time>
      </trkpt>
      <trkpt lat="42.90873" lon="-0.04657">
        <ele>1019</ele>
        <time>2018-06-23T15:32:05Z</time>
      </trkpt>
      <trkpt lat="42.90906" lon="-0.0471">
        <ele>1024</ele>
        <time>2018-06-23T15:35:05Z</time>
      </trkpt>
      <trkpt lat="42.90912" lon="-0.04723">
        <ele>1027</ele>
        <time>2018-06-23T15:36:05Z</time>
      </trkpt>
      <trkpt lat="42.90975" lon="-0.04774">
        <ele>1032</ele>
        <time>2018-06-23T15:38:05Z</time>
      </trkpt>
      <trkpt lat="42.90996" lon="-0.04795">
        <ele>1035</ele>
        <time>2018-06-23T15:40:05Z</time>
      </trkpt>
      <trkpt lat="42.91018" lon="-0.04812">
        <ele>1037</ele>
        <time>2018-06-23T15:42:05Z</time>
      </trkpt>
      <trkpt lat="42.91042" lon="-0.04827">
        <ele>1038</ele>
        <time>2018-06-23T15:47:05Z</time>
      </trkpt>
      <trkpt lat="42.9104" lon="-0.04833">
        <ele>1041</ele>
        <time>2018-06-23T15:50:05Z</time>
      </trkpt>
      <trkpt lat="42.91036" lon="-0.04836">
        <ele>1044</ele>
        <time>2018-06-23T15:52:05Z</time>
      </trkpt>
      <trkpt lat="42.91034" lon="-0.04835">
        <ele>1043</ele>
        <time>2018-06-23T15:53:05Z</time>
      </trkpt>
      <trkpt lat="42.91003" lon="-0.04811">
        <ele>1040</ele>
        <time>2018-06-23T15:57:05Z</time>
      </trkpt>
      <trkpt lat="42.90962" lon="-0.04792">
        <ele>1043</ele>
        <time>2018-06-23T16:00:05Z</time>
      </trkpt>
      <trkpt lat="42.90912" lon="-0.04774">
        <ele>1048</ele>
        <time>2018-06-23T16:01:05Z</time>
      </trkpt>
      <trkpt lat="42.9091" lon="-0.04773">
        <ele>1048</ele>
        <time>2018-06-23T16:02:05Z</time>
      </trkpt>
      <trkpt lat="42.90831" lon="-0.04698">
        <ele>1052</ele>
        <time>2018-06-23T16:06:05Z</time>
      </trkpt>
      <trkpt lat="42.9083" lon="-0.04697">
        <ele>1052</ele>
        <time>2018-06-23T16:07:05Z</time>
      </trkpt>
      <trkpt lat="42.90813" lon="-0.04684">
        <ele>1055</ele>
        <time>2018-06-23T16:09:05Z</time>
      </trkpt>
      <trkpt lat="42.90795" lon="-0.04677">
        <ele>1060</ele>
        <time>2018-06-23T16:10:05Z</time>
      </trkpt>
      <trkpt lat="42.90784" lon="-0.04667">
        <ele>1062</ele>
        <time>2018-06-23T16:12:05Z</time>
      </trkpt>
      <trkpt lat="42.90766" lon="-0.04617">
        <ele>1057</ele>
        <time>2018-06-23T16:15:05Z</time>
      </trkpt>
      <trkpt lat="42.90752" lon="-0.04586">
        <ele>1056</ele>
        <time>2018-06-23T16:17:05Z</time>
      </trkpt>
      <trkpt lat="42.90697" lon="-0.04513">
        <ele>1059</ele>
        <time>2018-06-23T16:22:05Z</time>
      </trkpt>
      <trkpt lat="42.90683" lon="-0.04507">
        <ele>1062</ele>
        <time>2018-06-23T16:24:05Z</time>
      </trkpt>
      <trkpt lat="42.90673" lon="-0.04507">
        <ele>1065</ele>
        <time>2018-06-23T16:25:05Z</time>
      </trkpt>
      <trkpt lat="42.90646" lon="-0.04512">
        <ele>1078</ele>
        <time>2018-06-23T16:27:05Z</time>
      </trkpt>
      <trkpt lat="42.90634" lon="-0.0451">
        <ele>1083</ele>
        <time>2018-06-23T16:29:05Z</time>
      </trkpt>
      <trkpt lat="42.90623" lon="-0.04504">
        <ele>1086</ele>
        <time>2018-06-23T16:30:05Z</time>
      </trkpt>
      <trkpt lat="42.90622" lon="-0.04504">
        <ele>1086</ele>
        <time>2018-06-23T16:31:05Z</time>
      </trkpt>
      <trkpt lat="42.906" lon="-0.04485">
        <ele>1089</ele>
        <time>2018-06-23T16:33:05Z</time>
      </trkpt>
      <trkpt lat="42.90591" lon="-0.04473">
        <ele>1089</ele>
        <time>2018-06-23T16:34:05Z</time>
      </trkpt>
      <trkpt lat="42.90574" lon="-0.04447">
        <ele>1092</ele>
        <time>2018-06-23T16:36:05Z</time>
      </trkpt>
      <trkpt lat="42.90556" lon="-0.04417">
        <ele>1095</ele>
        <time>2018-06-23T16:38:05Z</time>
      </trkpt>
      <trkpt lat="42.9055" lon="-0.04408">
        <ele>1095</ele>
        <time>2018-06-23T16:39:05Z</time>
      </trkpt>
      <trkpt lat="42.90526" lon="-0.04381">
        <ele>1099</ele>
        <time>2018-06-23T16:41:05Z</time>
      </trkpt>
      <trkpt lat="42.90517" lon="-0.0437">
        <ele>1099</ele>
        <time>2018-06-23T16:42:05Z</time>
      </trkpt>
      <trkpt lat="42.90451" lon="-0.04304">
        <ele>1101</ele>
        <time>2018-06-23T16:47:05Z</time>
      </trkpt>
      <trkpt lat="42.90439" lon="-0.04292">
        <ele>1101</ele>
        <time>2018-06-23T16:48:05Z</time>
      </trkpt>
      <trkpt lat="42.90422" lon="-0.0428">
        <ele>1104</ele>
        <time>2018-06-23T16:50:05Z</time>
      </trkpt>
      <trkpt lat="42.90409" lon="-0.04274">
        <ele>1103</ele>
        <time>2018-06-23T16:51:05Z</time>
      </trkpt>
      <trkpt lat="42.90386" lon="-0.04268">
        <ele>1100</ele>
        <time>2018-06-23T16:52:05Z</time>
      </trkpt>
      <trkpt lat="42.90356" lon="-0.04265">
        <ele>1098</ele>
        <time>2018-06-23T16:54:05Z</time>
      </trkpt>
      <trkpt lat="42.90342" lon="-0.04272">
        <ele>1101</ele>
        <time>2018-06-23T16:56:05Z</time>
      </trkpt>
      <trkpt lat="42.90334" lon="-0.04282">
        <ele>1105</ele>
        <time>2018-06-23T16:58:05Z</time>
      </trkpt>
      <trkpt lat="42.90329" lon="-0.04293">
        <ele>1108</ele>
        <time>2018-06-23T17:00:05Z</time>
      </trkpt>
      <trkpt lat="42.90323" lon="-0.04311">
        <ele>1114</ele>
        <time>2018-06-23T17:02:05Z</time>
      </trkpt>
      <trkpt lat="42.90316" lon="-0.04326">
        <ele>1118</ele>
        <time>2018-06-23T17:04:05Z</time>
      </trkpt>
      <trkpt lat="42.90302" lon="-0.04342">
        <ele>1121</ele>
        <time>2018-06-23T17:06:05Z</time>
      </trkpt>
      <trkpt lat="42.90289" lon="-0.04358">
        <ele>1127</ele>
        <time>2018-06-23T17:07:05Z</time>
      </trkpt>
      <trkpt lat="42.90277" lon="-0.0437">
        <ele>1130</ele>
        <time>2018-06-23T17:08:05Z</time>
      </trkpt>
      <trkpt lat="42.90245" lon="-0.04377">
        <ele>1122</ele>
        <time>2018-06-23T17:12:05Z</time>
      </trkpt>
      <trkpt lat="42.90232" lon="-0.04381">
        <ele>1119</ele>
        <time>2018-06-23T17:14:05Z</time>
      </trkpt>
      <trkpt lat="42.90216" lon="-0.04399">
        <ele>1122</ele>
        <time>2018-06-23T17:17:05Z</time>
      </trkpt>
      <trkpt lat="42.90206" lon="-0.04417">
        <ele>1128</ele>
        <time>2018-06-23T17:18:05Z</time>
      </trkpt>
      <trkpt lat="42.90204" lon="-0.04426">
        <ele>1132</ele>
        <time>2018-06-23T17:20:05Z</time>
      </trkpt>
      <trkpt lat="42.90206" lon="-0.04433">
        <ele>1137</ele>
        <time>2018-06-23T17:22:05Z</time>
      </trkpt>
      <trkpt lat="42.90209" lon="-0.04435">
        <ele>1140</ele>
        <time>2018-06-23T17:24:05Z</time>
      </trkpt>
      <trkpt lat="42.90217" lon="-0.04424">
        <ele>1137</ele>
        <time>2018-06-23T17:27:05Z</time>
      </trkpt>
      <trkpt lat="42.90222" lon="-0.04413">
        <ele>1133</ele>
        <time>2018-06-23T17:28:05Z</time>
      </trkpt>
      <trkpt lat="42.9023" lon="-0.04403">
        <ele>1130</ele>
        <time>2018-06-23T17:30:05Z</time>
      </trkpt>
      <trkpt lat="42.90271" lon="-0.04391">
        <ele>1140</ele>
        <time>2018-06-23T17:33:05Z</time>
      </trkpt>
      <trkpt lat="42.90274" lon="-0.04389">
        <ele>1140</ele>
        <time>2018-06-23T17:34:05Z</time>
      </trkpt>
      <trkpt lat="42.90305" lon="-0.04376">
        <ele>1144</ele>
        <time>2018-06-23T17:37:05Z</time>
      </trkpt>
      <trkpt lat="42.90326" lon="-0.04368">
        <ele>1146</ele>
        <time>2018-06-23T17:39:05Z</time>
      </trkpt>
      <trkpt lat="42.9034" lon="-0.04356">
        <ele>1142</ele>
        <time>2018-06-23T17:42:05Z</time>
      </trkpt>
      <trkpt lat="42.90354" lon="-0.0434">
        <ele>1133</ele>
        <time>2018-06-23T17:43:05Z</time>
      </trkpt>
      <trkpt lat="42.90363" lon="-0.04333">
        <ele>1130</ele>
        <time>2018-06-23T17:45:05Z</time>
      </trkpt>
      <trkpt lat="42.90367" lon="-0.04332">
        <ele>1130</ele>
        <time>2018-06-23T17:46:05Z</time>
      </trkpt>
      <trkpt lat="42.90384" lon="-0.04335">
        <ele>1133</ele>
        <time>2018-06-23T17:50:05Z</time>
      </trkpt>
      <trkpt lat="42.90392" lon="-0.0434">
        <ele>1136</ele>
        <time>2018-06-23T17:52:05Z</time>
      </trkpt>
      <trkpt lat="42.90427" lon="-0.04367">
        <ele>1148</ele>
        <time>2018-06-23T17:53:05Z</time>
      </trkpt>
      <trkpt lat="42.90433" lon="-0.04372">
        <ele>1148</ele>
        <time>2018-06-23T17:54:05Z</time>
      </trkpt>
      <trkpt lat="42.9045" lon="-0.04383">
        <ele>1144</ele>
        <time>2018-06-23T17:55:05Z</time>
      </trkpt>
      <trkpt lat="42.90455" lon="-0.04387">
        <ele>1144</ele>
        <time>2018-06-23T17:56:05Z</time>
      </trkpt>
      <trkpt lat="42.90469" lon="-0.04407">
        <ele>1148</ele>
        <time>2018-06-23T17:59:05Z</time>
      </trkpt>
      <trkpt lat="42.90495" lon="-0.04491">
        <ele>1171</ele>
        <time>2018-06-23T18:00:05Z</time>
      </trkpt>
      <trkpt lat="42.90507" lon="-0.04536">
        <ele>1175</ele>
        <time>2018-06-23T18:01:05Z</time>
      </trkpt>
      <trkpt lat="42.90508" lon="-0.04543">
        <ele>1175</ele>
        <time>2018-06-23T18:02:05Z</time>
      </trkpt>
      <trkpt lat="42.9051" lon="-0.04567">
        <ele>1180</ele>
        <time>2018-06-23T18:04:05Z</time>
      </trkpt>
      <trkpt lat="42.90514" lon="-0.04595">
        <ele>1184</ele>
        <time>2018-06-23T18:05:05Z</time>
      </trkpt>
      <trkpt lat="42.90527" lon="-0.04651">
        <ele>1189</ele>
        <time>2018-06-23T18:08:05Z</time>
      </trkpt>
      <trkpt lat="42.90545" lon="-0.04701">
        <ele>1187</ele>
        <time>2018-06-23T18:09:05Z</time>
      </trkpt>
      <trkpt lat="42.90587" lon="-0.04791">
        <ele>1192</ele>
        <time>2018-06-23T18:12:05Z</time>
      </trkpt>
      <trkpt lat="42.90601" lon="-0.0481">
        <ele>1194</ele>
        <time>2018-06-23T18:14:05Z</time>
      </trkpt>
      <trkpt lat="42.90616" lon="-0.04836">
        <ele>1198</ele>
        <time>2018-06-23T18:20:05Z</time>
      </trkpt>
      <trkpt lat="42.90614" lon="-0.04839">
        <ele>1201</ele>
        <time>2018-06-23T18:21:05Z</time>
      </trkpt>
      <trkpt lat="42.90613" lon="-0.04839">
        <ele>1201</ele>
        <time>2018-06-23T18:22:05Z</time>
      </trkpt>
      <trkpt lat="42.90608" lon="-0.04839">
        <ele>1204</ele>
        <time>2018-06-23T18:25:05Z</time>
      </trkpt>
      <trkpt lat="42.90573" lon="-0.04793">
        <ele>1201</ele>
        <time>2018-06-23T18:28:05Z</time>
      </trkpt>
      <trkpt lat="42.90526" lon="-0.04715">
        <ele>1205</ele>
        <time>2018-06-23T18:31:05Z</time>
      </trkpt>
      <trkpt lat="42.90491" lon="-0.04649">
        <ele>1214</ele>
        <time>2018-06-23T18:33:05Z</time>
      </trkpt>
      <trkpt lat="42.90488" lon="-0.0464">
        <ele>1213</ele>
        <time>2018-06-23T18:34:05Z</time>
      </trkpt>
      <trkpt lat="42.90477" lon="-0.04603">
        <ele>1210</ele>
        <time>2018-06-23T18:36:05Z</time>
      </trkpt>
      <trkpt lat="42.90466" lon="-0.04572">
        <ele>1209</ele>
        <time>2018-06-23T18:38:05Z</time>
      </trkpt>
      <trkpt lat="42.90428" lon="-0.04519">
        <ele>1216</ele>
        <time>2018-06-23T18:41:05Z</time>
      </trkpt>
      <trkpt lat="42.90416" lon="-0.04509">
        <ele>1219</ele>
        <time>2018-06-23T18:42:05Z</time>
      </trkpt>
      <trkpt lat="42.90408" lon="-0.04502">
        <ele>1217</ele>
        <time>2018-06-23T18:43:05Z</time>
      </trkpt>
      <trkpt lat="42.90387" lon="-0.04488">
        <ele>1211</ele>
        <time>2018-06-23T18:44:05Z</time>
      </trkpt>
      <trkpt lat="42.90365" lon="-0.04484">
        <ele>1209</ele>
        <time>2018-06-23T18:47:05Z</time>
      </trkpt>
      <trkpt lat="42.90354" lon="-0.0449">
        <ele>1212</ele>
        <time>2018-06-23T18:50:05Z</time>
      </trkpt>
      <trkpt lat="42.90342" lon="-0.04507">
        <ele>1218</ele>
        <time>2018-06-23T18:52:05Z</time>
      </trkpt>
      <trkpt lat="42.90331" lon="-0.04525">
        <ele>1223</ele>
        <time>2018-06-23T18:53:05Z</time>
      </trkpt>
      <trkpt lat="42.90311" lon="-0.04553">
        <ele>1228</ele>
        <time>2018-06-23T18:54:05Z</time>
      </trkpt>
      <trkpt lat="42.903" lon="-0.04565">
        <ele>1230</ele>
        <time>2018-06-23T18:56:05Z</time>
      </trkpt>
      <trkpt lat="42.90277" lon="-0.04571">
        <ele>1228</ele>
        <time>2018-06-23T18:59:05Z</time>
      </trkpt>
      <trkpt lat="42.90258" lon="-0.04595">
        <ele>1235</ele>
        <time>2018-06-23T19:02:05Z</time>
      </trkpt>
      <trkpt lat="42.90252" lon="-0.04604">
        <ele>1238</ele>
        <time>2018-06-23T19:03:05Z</time>
      </trkpt>
      <trkpt lat="42.9025" lon="-0.04611">
        <ele>1241</ele>
        <time>2018-06-23T19:05:05Z</time>
      </trkpt>
      <trkpt lat="42.90252" lon="-0.04616">
        <ele>1244</ele>
        <time>2018-06-23T19:07:05Z</time>
      </trkpt>
      <trkpt lat="42.90256" lon="-0.04618">
        <ele>1245</ele>
        <time>2018-06-23T19:09:05Z</time>
      </trkpt>
      <trkpt lat="42.90269" lon="-0.04601">
        <ele>1239</ele>
        <time>2018-06-23T19:12:05Z</time>
      </trkpt>
      <trkpt lat="42.90278" lon="-0.0459">
        <ele>1236</ele>
        <time>2018-06-23T19:14:05Z</time>
      </trkpt>
      <trkpt lat="42.90286" lon="-0.04586">
        <ele>1235</ele>
        <time>2018-06-23T19:16:05Z</time>
      </trkpt>
      <trkpt lat="42.90302" lon="-0.04588">
        <ele>1239</ele>
        <time>2018-06-23T19:18:05Z</time>
      </trkpt>
      <trkpt lat="42.90314" lon="-0.04589">
        <ele>1241</ele>
        <time>2018-06-23T19:20:05Z</time>
      </trkpt>
      <trkpt lat="42.9034" lon="-0.0457">
        <ele>1238</ele>
        <time>2018-06-23T19:23:05Z</time>
      </trkpt>
      <trkpt lat="42.90355" lon="-0.04562">
        <ele>1235</ele>
        <time>2018-06-23T19:25:05Z</time>
      </trkpt>
      <trkpt lat="42.90359" lon="-0.04561">
        <ele>1235</ele>
        <time>2018-06-23T19:26:05Z</time>
      </trkpt>
      <trkpt lat="42.90388" lon="-0.04572">
        <ele>1238</ele>
        <time>2018-06-23T19:29:05Z</time>
      </trkpt>
      <trkpt lat="42.904" lon="-0.04582">
        <ele>1242</ele>
        <time>2018-06-23T19:30:05Z</time>
      </trkpt>
      <trkpt lat="42.90419" lon="-0.04613">
        <ele>1247</ele>
        <time>2018-06-23T19:32:05Z</time>
      </trkpt>
      <trkpt lat="42.90433" lon="-0.04656">
        <ele>1248</ele>
        <time>2018-06-23T19:34:05Z</time>
      </trkpt>
      <trkpt lat="42.90436" lon="-0.04686">
        <ele>1254</ele>
        <time>2018-06-23T19:36:05Z</time>
      </trkpt>
      <trkpt lat="42.90434" lon="-0.04708">
        <ele>1260</ele>
        <time>2018-06-23T19:37:05Z</time>
      </trkpt>
      <trkpt lat="42.90436" lon="-0.04736">
        <ele>1267</ele>
        <time>2018-06-23T19:39:05Z</time>
      </trkpt>
      <trkpt lat="42.90438" lon="-0.04743">
        <ele>1267</ele>
        <time>2018-06-23T19:40:05Z</time>
      </trkpt>
      <trkpt lat="42.9045" lon="-0.04767">
        <ele>1270</ele>
        <time>2018-06-23T19:42:05Z</time>
      </trkpt>
      <trkpt lat="42.90466" lon="-0.0479">
        <ele>1271</ele>
        <time>2018-06-23T19:44:05Z</time>
      </trkpt>
      <trkpt lat="42.90467" lon="-0.048">
        <ele>1275</ele>
        <time>2018-06-23T19:47:05Z</time>
      </trkpt>
      <trkpt lat="42.90463" lon="-0.04804">
        <ele>1279</ele>
        <time>2018-06-23T19:49:05Z</time>
      </trkpt>
      <trkpt lat="42.90458" lon="-0.04803">
        <ele>1282</ele>
        <time>2018-06-23T19:51:05Z</time>
      </trkpt>
      <trkpt lat="42.90436" lon="-0.04764">
        <ele>1277</ele>
        <time>2018-06-23T19:55:05Z</time>
      </trkpt>
      <trkpt lat="42.90429" lon="-0.04749">
        <ele>1274</ele>
        <time>2018-06-23T19:56:05Z</time>
      </trkpt>
      <trkpt lat="42.90424" lon="-0.04737">
        <ele>1274</ele>
        <time>2018-06-23T19:57:05Z</time>
      </trkpt>
      <trkpt lat="42.9035" lon="-0.04691">
        <ele>1277</ele>
        <time>2018-06-23T20:03:05Z</time>
      </trkpt>
      <trkpt lat="42.90285" lon="-0.04683">
        <ele>1276</ele>
        <time>2018-06-23T20:07:05Z</time>
      </trkpt>
      <trkpt lat="42.90276" lon="-0.04688">
        <ele>1279</ele>
        <time>2018-06-23T20:10:05Z</time>
      </trkpt>
      <trkpt lat="42.90269" lon="-0.04697">
        <ele>1283</ele>
        <time>2018-06-23T20:12:05Z</time>
      </trkpt>
      <trkpt lat="42.90262" lon="-0.04706">
        <ele>1287</ele>
        <time>2018-06-23T20:13:05Z</time>
      </trkpt>
      <trkpt lat="42.90256" lon="-0.04712">
        <ele>1290</ele>
        <time>2018-06-23T20:14:05Z</time>
      </trkpt>
      <trkpt lat="42.90243" lon="-0.0472">
        <ele>1292</ele>
        <time>2018-06-23T20:16:05Z</time>
      </trkpt>
      <trkpt lat="42.90231" lon="-0.04724">
        <ele>1289</ele>
        <time>2018-06-23T20:17:05Z</time>
      </trkpt>
      <trkpt lat="42.90209" lon="-0.04728">
        <ele>1283</ele>
        <time>2018-06-23T20:18:05Z</time>
      </trkpt>
      <trkpt lat="42.90189" lon="-0.04759">
        <ele>1288</ele>
        <time>2018-06-23T20:24:05Z</time>
      </trkpt>
      <trkpt lat="42.90185" lon="-0.04775">
        <ele>1293</ele>
        <time>2018-06-23T20:25:05Z</time>
      </trkpt>
      <trkpt lat="42.90165" lon="-0.04805">
        <ele>1295</ele>
        <time>2018-06-23T20:28:05Z</time>
      </trkpt>
      <trkpt lat="42.90152" lon="-0.04841">
        <ele>1299</ele>
        <time>2018-06-23T20:31:05Z</time>
      </trkpt>
      <trkpt lat="42.90141" lon="-0.04874">
        <ele>1302</ele>
        <time>2018-06-23T20:34:05Z</time>
      </trkpt>
      <trkpt lat="42.9014" lon="-0.04911">
        <ele>1312</ele>
        <time>2018-06-23T20:36:05Z</time>
      </trkpt>
      <trkpt lat="42.90141" lon="-0.04939">
        <ele>1320</ele>
        <time>2018-06-23T20:37:05Z</time>
      </trkpt>
      <trkpt lat="42.9014" lon="-0.0496">
        <ele>1325</ele>
        <time>2018-06-23T20:38:05Z</time>
      </trkpt>
      <trkpt lat="42.9014" lon="-0.04961">
        <ele>1325</ele>
        <time>2018-06-23T20:39:05Z</time>
      </trkpt>
      <trkpt lat="42.90134" lon="-0.0498">
        <ele>1329</ele>
        <time>2018-06-23T20:41:05Z</time>
      </trkpt>
      <trkpt lat="42.90131" lon="-0.04986">
        <ele>1329</ele>
        <time>2018-06-23T20:42:05Z</time>
      </trkpt>
      <trkpt lat="42.90118" lon="-0.05006">
        <ele>1332</ele>
        <time>2018-06-23T20:46:05Z</time>
      </trkpt>
      <trkpt lat="42.90119" lon="-0.05012">
        <ele>1335</ele>
        <time>2018-06-23T20:48:05Z</time>
      </trkpt>
      <trkpt lat="42.90126" lon="-0.05014">
        <ele>1337</ele>
        <time>2018-06-23T20:51:05Z</time>
      </trkpt>
      <trkpt lat="42.90138" lon="-0.04996">
        <ele>1334</ele>
        <time>2018-06-23T20:54:05Z</time>
      </trkpt>
      <trkpt lat="42.90151" lon="-0.04946">
        <ele>1326</ele>
        <time>2018-06-23T20:57:05Z</time>
      </trkpt>
      <trkpt lat="42.90157" lon="-0.04908">
        <ele>1320</ele>
        <time>2018-06-23T20:58:05Z</time>
      </trkpt>
      <trkpt lat="42.90166" lon="-0.04879">
        <ele>1317</ele>
        <time>2018-06-23T21:00:05Z</time>
      </trkpt>
      <trkpt lat="42.90178" lon="-0.04854">
        <ele>1317</ele>
        <time>2018-06-23T21:01:05Z</time>
      </trkpt>
      <trkpt lat="42.90192" lon="-0.04836">
        <ele>1320</ele>
        <time>2018-06-23T21:02:05Z</time>
      </trkpt>
      <trkpt lat="42.9021" lon="-0.04822">
        <ele>1323</ele>
        <time>2018-06-23T21:03:05Z</time>
      </trkpt>
      <trkpt lat="42.9024" lon="-0.04796">
        <ele>1326</ele>
        <time>2018-06-23T21:05:05Z</time>
      </trkpt>
      <trkpt lat="42.90266" lon="-0.04788">
        <ele>1328</ele>
        <time>2018-06-23T21:08:05Z</time>
      </trkpt>
      <trkpt lat="42.90275" lon="-0.04794">
        <ele>1332</ele>
        <time>2018-06-23T21:12:05Z</time>
      </trkpt>
      <trkpt lat="42.90275" lon="-0.04801">
        <ele>1336</ele>
        <time>2018-06-23T21:14:05Z</time>
      </trkpt>
      <trkpt lat="42.9027" lon="-0.04805">
        <ele>1337</ele>
        <time>2018-06-23T21:16:05Z</time>
      </trkpt>
      <trkpt lat="42.9024" lon="-0.04813">
        <ele>1334</ele>
        <time>2018-06-23T21:22:05Z</time>
      </trkpt>
      <trkpt lat="42.90206" lon="-0.0485">
        <ele>1331</ele>
        <time>2018-06-23T21:24:05Z</time>
      </trkpt>
      <trkpt lat="42.90201" lon="-0.04858">
        <ele>1331</ele>
        <time>2018-06-23T21:25:05Z</time>
      </trkpt>
      <trkpt lat="42.90193" lon="-0.04889">
        <ele>1336</ele>
        <time>2018-06-23T21:27:05Z</time>
      </trkpt>
      <trkpt lat="42.9019" lon="-0.04911">
        <ele>1340</ele>
        <time>2018-06-23T21:28:05Z</time>
      </trkpt>
      <trkpt lat="42.90188" lon="-0.04929">
        <ele>1343</ele>
        <time>2018-06-23T21:29:05Z</time>
      </trkpt>
      <trkpt lat="42.90187" lon="-0.04954">
        <ele>1347</ele>
        <time>2018-06-23T21:30:05Z</time>
      </trkpt>
      <trkpt lat="42.90186" lon="-0.05002">
        <ele>1355</ele>
        <time>2018-06-23T21:31:05Z</time>
      </trkpt>
      <trkpt lat="42.90186" lon="-0.05022">
        <ele>1360</ele>
        <time>2018-06-23T21:32:05Z</time>
      </trkpt>
      <trkpt lat="42.90174" lon="-0.05061">
        <ele>1363</ele>
        <time>2018-06-23T21:34:05Z</time>
      </trkpt>
      <trkpt lat="42.9017" lon="-0.05078">
        <ele>1366</ele>
        <time>2018-06-23T21:35:05Z</time>
      </trkpt>
      <trkpt lat="42.9017" lon="-0.05088">
        <ele>1369</ele>
        <time>2018-06-23T21:36:05Z</time>
      </trkpt>
      <trkpt lat="42.9017" lon="-0.05107">
        <ele>1377</ele>
        <time>2018-06-23T21:37:05Z</time>
      </trkpt>
      <trkpt lat="42.90169" lon="-0.05115">
        <ele>1380</ele>
        <time>2018-06-23T21:38:05Z</time>
      </trkpt>
      <trkpt lat="42.9016" lon="-0.05131">
        <ele>1386</ele>
        <time>2018-06-23T21:40:05Z</time>
      </trkpt>
      <trkpt lat="42.90152" lon="-0.05137">
        <ele>1389</ele>
        <time>2018-06-23T21:41:05Z</time>
      </trkpt>
      <trkpt lat="42.90142" lon="-0.05143">
        <ele>1392</ele>
        <time>2018-06-23T21:42:05Z</time>
      </trkpt>
      <trkpt lat="42.90128" lon="-0.05148">
        <ele>1395</ele>
        <time>2018-06-23T21:44:05Z</time>
      </trkpt>
      <trkpt lat="42.9012" lon="-0.05147">
        <ele>1395</ele>
        <time>2018-06-23T21:45:05Z</time>
      </trkpt>
      <trkpt lat="42.90105" lon="-0.05141">
        <ele>1392</ele>
        <time>2018-06-23T21:47:05Z</time>
      </trkpt>
      <trkpt lat="42.90094" lon="-0.05134">
        <ele>1388</ele>
        <time>2018-06-23T21:48:05Z</time>
      </trkpt>
      <trkpt lat="42.90086" lon="-0.05129">
        <ele>1385</ele>
        <time>2018-06-23T21:49:05Z</time>
      </trkpt>
      <trkpt lat="42.90081" lon="-0.05127">
        <ele>1385</ele>
        <time>2018-06-23T21:50:05Z</time>
      </trkpt>
      <trkpt lat="42.90054" lon="-0.05126">
        <ele>1388</ele>
        <time>2018-06-23T21:53:05Z</time>
      </trkpt>
      <trkpt lat="42.9003" lon="-0.05115">
        <ele>1385</ele>
        <time>2018-06-23T21:57:05Z</time>
      </trkpt>
      <trkpt lat="42.9002" lon="-0.05104">
        <ele>1381</ele>
        <time>2018-06-23T21:59:05Z</time>
      </trkpt>
      <trkpt lat="42.90013" lon="-0.05099">
        <ele>1380</ele>
        <time>2018-06-23T22:01:05Z</time>
      </trkpt>
      <trkpt lat="42.89942" lon="-0.05098">
        <ele>1378</ele>
        <time>2018-06-23T22:06:05Z</time>
      </trkpt>
      <trkpt lat="42.89923" lon="-0.05108">
        <ele>1381</ele>
        <time>2018-06-23T22:11:05Z</time>
      </trkpt>
      <trkpt lat="42.89919" lon="-0.05114">
        <ele>1384</ele>
        <time>2018-06-23T22:12:05Z</time>
      </trkpt>
      <trkpt lat="42.89913" lon="-0.05125">
        <ele>1388</ele>
        <time>2018-06-23T22:14:05Z</time>
      </trkpt>
      <trkpt lat="42.8991" lon="-0.05129">
        <ele>1388</ele>
        <time>2018-06-23T22:15:05Z</time>
      </trkpt>
      <trkpt lat="42.89882" lon="-0.05145">
        <ele>1384</ele>
        <time>2018-06-23T22:20:05Z</time>
      </trkpt>
      <trkpt lat="42.8987" lon="-0.05154">
        <ele>1383</ele>
        <time>2018-06-23T22:22:05Z</time>
      </trkpt>
      <trkpt lat="42.89858" lon="-0.05179">
        <ele>1386</ele>
        <time>2018-06-23T22:26:05Z</time>
      </trkpt>
      <trkpt lat="42.89856" lon="-0.05191">
        <ele>1389</ele>
        <time>2018-06-23T22:28:05Z</time>
      </trkpt>
      <trkpt lat="42.89853" lon="-0.05207">
        <ele>1392</ele>
        <time>2018-06-23T22:29:05Z</time>
      </trkpt>
      <trkpt lat="42.89851" lon="-0.05221">
        <ele>1395</ele>
        <time>2018-06-23T22:30:05Z</time>
      </trkpt>
      <trkpt lat="42.89843" lon="-0.05246">
        <ele>1397</ele>
        <time>2018-06-23T22:32:05Z</time>
      </trkpt>
      <trkpt lat="42.89842" lon="-0.05257">
        <ele>1400</ele>
        <time>2018-06-23T22:33:05Z</time>
      </trkpt>
      <trkpt lat="42.89841" lon="-0.05269">
        <ele>1403</ele>
        <time>2018-06-23T22:34:05Z</time>
      </trkpt>
      <trkpt lat="42.89839" lon="-0.05284">
        <ele>1406</ele>
        <time>2018-06-23T22:35:05Z</time>
      </trkpt>
      <trkpt lat="42.89836" lon="-0.05301">
        <ele>1409</ele>
        <time>2018-06-23T22:37:05Z</time>
      </trkpt>
      <trkpt lat="42.89832" lon="-0.05309">
        <ele>1409</ele>
        <time>2018-06-23T22:38:05Z</time>
      </trkpt>
      <trkpt lat="42.89796" lon="-0.05309">
        <ele>1404</ele>
        <time>2018-06-23T22:44:05Z</time>
      </trkpt>
      <trkpt lat="42.89762" lon="-0.05294">
        <ele>1394</ele>
        <time>2018-06-23T22:45:05Z</time>
      </trkpt>
      <trkpt lat="42.89735" lon="-0.05284">
        <ele>1390</ele>
        <time>2018-06-23T22:46:05Z</time>
      </trkpt>
      <trkpt lat="42.8973" lon="-0.05283">
        <ele>1390</ele>
        <time>2018-06-23T22:47:05Z</time>
      </trkpt>
      <trkpt lat="42.89671" lon="-0.05277">
        <ele>1395</ele>
        <time>2018-06-23T22:49:05Z</time>
      </trkpt>
      <trkpt lat="42.89653" lon="-0.05278">
        <ele>1394</ele>
        <time>2018-06-23T22:50:05Z</time>
      </trkpt>
      <trkpt lat="42.89622" lon="-0.05296">
        <ele>1397</ele>
        <time>2018-06-23T22:55:05Z</time>
      </trkpt>
      <trkpt lat="42.89604" lon="-0.05312">
        <ele>1401</ele>
        <time>2018-06-23T22:56:05Z</time>
      </trkpt>
      <trkpt lat="42.89592" lon="-0.05324">
        <ele>1404</ele>
        <time>2018-06-23T22:57:05Z</time>
      </trkpt>
      <trkpt lat="42.89582" lon="-0.05336">
        <ele>1407</ele>
        <time>2018-06-23T22:58:05Z</time>
      </trkpt>
      <trkpt lat="42.89578" lon="-0.05338">
        <ele>1407</ele>
        <time>2018-06-23T22:59:05Z</time>
      </trkpt>
      <trkpt lat="42.89551" lon="-0.05338">
        <ele>1404</ele>
        <time>2018-06-23T23:05:05Z</time>
      </trkpt>
      <trkpt lat="42.89549" lon="-0.05338">
        <ele>1404</ele>
        <time>2018-06-23T23:06:05Z</time>
      </trkpt>
      <trkpt lat="42.89503" lon="-0.05342">
        <ele>1401</ele>
        <time>2018-06-23T23:12:05Z</time>
      </trkpt>
      <trkpt lat="42.89492" lon="-0.05334">
        <ele>1397</ele>
        <time>2018-06-23T23:13:05Z</time>
      </trkpt>
      <trkpt lat="42.89469" lon="-0.05318">
        <ele>1393</ele>
        <time>2018-06-23T23:15:05Z</time>
      </trkpt>
      <trkpt lat="42.89463" lon="-0.05316">
        <ele>1393</ele>
        <time>2018-06-23T23:16:05Z</time>
      </trkpt>
      <trkpt lat="42.8943" lon="-0.05325">
        <ele>1397</ele>
        <time>2018-06-23T23:21:05Z</time>
      </trkpt>
      <trkpt lat="42.89423" lon="-0.05327">
        <ele>1397</ele>
        <time>2018-06-23T23:22:05Z</time>
      </trkpt>
      <trkpt lat="42.89367" lon="-0.05327">
        <ele>1398</ele>
        <time>2018-06-23T23:28:05Z</time>
      </trkpt>
      <trkpt lat="42.89324" lon="-0.05337">
        <ele>1404</ele>
        <time>2018-06-23T23:30:05Z</time>
      </trkpt>
      <trkpt lat="42.89312" lon="-0.05334">
        <ele>1408</ele>
        <time>2018-06-23T23:32:05Z</time>
      </trkpt>
      <trkpt lat="42.89301" lon="-0.05321">
        <ele>1411</ele>
        <time>2018-06-23T23:34:05Z</time>
      </trkpt>
      <trkpt lat="42.8928" lon="-0.05279">
        <ele>1414</ele>
        <time>2018-06-23T23:36:05Z</time>
      </trkpt>
      <trkpt lat="42.89281" lon="-0.05208">
        <ele>1417</ele>
        <time>2018-06-23T23:41:05Z</time>
      </trkpt>
      <trkpt lat="42.8929" lon="-0.05184">
        <ele>1418</ele>
        <time>2018-06-23T23:43:05Z</time>
      </trkpt>
      <trkpt lat="42.89309" lon="-0.05156">
        <ele>1416</ele>
        <time>2018-06-23T23:46:05Z</time>
      </trkpt>
      <trkpt lat="42.89334" lon="-0.05136">
        <ele>1411</ele>
        <time>2018-06-23T23:48:05Z</time>
      </trkpt>
      <trkpt lat="42.89353" lon="-0.05117">
        <ele>1410</ele>
        <time>2018-06-23T23:50:05Z</time>
      </trkpt>
      <trkpt lat="42.89361" lon="-0.05093">
        <ele>1413</ele>
        <time>2018-06-23T23:55:05Z</time>
      </trkpt>
      <trkpt lat="42.89359" lon="-0.05084">
        <ele>1415</ele>
        <time>2018-06-23T23:57:05Z</time>
      </trkpt>
      <trkpt lat="42.8934" lon="-0.05104">
        <ele>1418</ele>
        <time>2018-06-24T00:01:05Z</time>
      </trkpt>
      <trkpt lat="42.89319" lon="-0.05115">
        <ele>1423</ele>
        <time>2018-06-24T00:03:05Z</time>
      </trkpt>
      <trkpt lat="42.89289" lon="-0.05129">
        <ele>1431</ele>
        <time>2018-06-24T00:04:05Z</time>
      </trkpt>
      <trkpt lat="42.89275" lon="-0.05139">
        <ele>1434</ele>
        <time>2018-06-24T00:06:05Z</time>
      </trkpt>
      <trkpt lat="42.8925" lon="-0.05176">
        <ele>1435</ele>
        <time>2018-06-24T00:08:05Z</time>
      </trkpt>
      <trkpt lat="42.89223" lon="-0.0522">
        <ele>1438</ele>
        <time>2018-06-24T00:10:05Z</time>
      </trkpt>
      <trkpt lat="42.89184" lon="-0.05289">
        <ele>1442</ele>
        <time>2018-06-24T00:14:05Z</time>
      </trkpt>
      <trkpt lat="42.89145" lon="-0.05319">
        <ele>1448</ele>
        <time>2018-06-24T00:16:05Z</time>
      </trkpt>
      <trkpt lat="42.89114" lon="-0.05347">
        <ele>1453</ele>
        <time>2018-06-24T00:17:05Z</time>
      </trkpt>
      <trkpt lat="42.89106" lon="-0.05359">
        <ele>1454</ele>
        <time>2018-06-24T00:19:05Z</time>
      </trkpt>
      <trkpt lat="42.89164" lon="-0.0538">
        <ele>1451</ele>
        <time>2018-06-24T00:26:05Z</time>
      </trkpt>
      <trkpt lat="42.89193" lon="-0.05377">
        <ele>1448</ele>
        <time>2018-06-24T00:27:05Z</time>
      </trkpt>
      <trkpt lat="42.892" lon="-0.05378">
        <ele>1447</ele>
        <time>2018-06-24T00:29:05Z</time>
      </trkpt>
      <trkpt lat="42.89203" lon="-0.05397">
        <ele>1450</ele>
        <time>2018-06-24T00:36:05Z</time>
      </trkpt>
      <trkpt lat="42.89197" lon="-0.054">
        <ele>1451</ele>
        <time>2018-06-24T00:38:05Z</time>
      </trkpt>
      <trkpt lat="42.89175" lon="-0.05403">
        <ele>1454</ele>
        <time>2018-06-24T00:40:05Z</time>
      </trkpt>
      <trkpt lat="42.8916" lon="-0.05414">
        <ele>1457</ele>
        <time>2018-06-24T00:41:05Z</time>
      </trkpt>
      <trkpt lat="42.8912" lon="-0.05455">
        <ele>1462</ele>
        <time>2018-06-24T00:43:05Z</time>
      </trkpt>
      <trkpt lat="42.89082" lon="-0.05487">
        <ele>1464</ele>
        <time>2018-06-24T00:45:05Z</time>
      </trkpt>
      <trkpt lat="42.89055" lon="-0.05512">
        <ele>1468</ele>
        <time>2018-06-24T00:46:05Z</time>
      </trkpt>
      <trkpt lat="42.89038" lon="-0.05532">
        <ele>1471</ele>
        <time>2018-06-24T00:47:05Z</time>
      </trkpt>
      <trkpt lat="42.89021" lon="-0.05556">
        <ele>1474</ele>
        <time>2018-06-24T00:48:05Z</time>
      </trkpt>
      <trkpt lat="42.88989" lon="-0.05606">
        <ele>1482</ele>
        <time>2018-06-24T00:50:05Z</time>
      </trkpt>
      <trkpt lat="42.88971" lon="-0.05624">
        <ele>1487</ele>
        <time>2018-06-24T00:51:05Z</time>
      </trkpt>
      <trkpt lat="42.88949" lon="-0.05639">
        <ele>1490</ele>
        <time>2018-06-24T00:52:05Z</time>
      </trkpt>
      <trkpt lat="42.88906" lon="-0.05654">
        <ele>1493</ele>
        <time>2018-06-24T00:54:05Z</time>
      </trkpt>
      <trkpt lat="42.88891" lon="-0.05655">
        <ele>1496</ele>
        <time>2018-06-24T00:55:05Z</time>
      </trkpt>
      <trkpt lat="42.88882" lon="-0.05669">
        <ele>1499</ele>
        <time>2018-06-24T00:57:05Z</time>
      </trkpt>
      <trkpt lat="42.88889" lon="-0.05681">
        <ele>1502</ele>
        <time>2018-06-24T00:59:05Z</time>
      </trkpt>
      <trkpt lat="42.88902" lon="-0.05685">
        <ele>1502</ele>
        <time>2018-06-24T01:00:05Z</time>
      </trkpt>
      <trkpt lat="42.88972" lon="-0.05682">
        <ele>1504</ele>
        <time>2018-06-24T01:04:05Z</time>
      </trkpt>
      <trkpt lat="42.89054" lon="-0.05658">
        <ele>1507</ele>
        <time>2018-06-24T01:07:05Z</time>
      </trkpt>
      <trkpt lat="42.89076" lon="-0.05655">
        <ele>1510</ele>
        <time>2018-06-24T01:08:05Z</time>
      </trkpt>
      <trkpt lat="42.89076" lon="-0.05655">
        <ele>1510</ele>
        <time>2018-06-24T01:09:05Z</time>
      </trkpt>
      <trkpt lat="42.891" lon="-0.05656">
        <ele>1514</ele>
        <time>2018-06-24T01:10:05Z</time>
      </trkpt>
      <trkpt lat="42.8912" lon="-0.05657">
        <ele>1517</ele>
        <time>2018-06-24T01:11:05Z</time>
      </trkpt>
      <trkpt lat="42.89143" lon="-0.05652">
        <ele>1519</ele>
        <time>2018-06-24T01:13:05Z</time>
      </trkpt>
      <trkpt lat="42.89198" lon="-0.05643">
        <ele>1523</ele>
        <time>2018-06-24T01:18:05Z</time>
      </trkpt>
      <trkpt lat="42.89208" lon="-0.0565">
        <ele>1527</ele>
        <time>2018-06-24T01:19:05Z</time>
      </trkpt>
      <trkpt lat="42.89227" lon="-0.05654">
        <ele>1530</ele>
        <time>2018-06-24T01:21:05Z</time>
      </trkpt>
      <trkpt lat="42.89248" lon="-0.05637">
        <ele>1526</ele>
        <time>2018-06-24T01:24:05Z</time>
      </trkpt>
      <trkpt lat="42.89259" lon="-0.05623">
        <ele>1522</ele>
        <time>2018-06-24T01:25:05Z</time>
      </trkpt>
      <trkpt lat="42.89284" lon="-0.05607">
        <ele>1519</ele>
        <time>2018-06-24T01:27:05Z</time>
      </trkpt>
      <trkpt lat="42.89298" lon="-0.05602">
        <ele>1519</ele>
        <time>2018-06-24T01:28:05Z</time>
      </trkpt>
      <trkpt lat="42.89323" lon="-0.05601">
        <ele>1522</ele>
        <time>2018-06-24T01:31:05Z</time>
      </trkpt>
      <trkpt lat="42.8933" lon="-0.05606">
        <ele>1526</ele>
        <time>2018-06-24T01:33:05Z</time>
      </trkpt>
      <trkpt lat="42.89332" lon="-0.05612">
        <ele>1529</ele>
        <time>2018-06-24T01:35:05Z</time>
      </trkpt>
      <trkpt lat="42.89329" lon="-0.05618">
        <ele>1532</ele>
        <time>2018-06-24T01:37:05Z</time>
      </trkpt>
      <trkpt lat="42.89327" lon="-0.05619">
        <ele>1532</ele>
        <time>2018-06-24T01:38:05Z</time>
      </trkpt>
      <trkpt lat="42.89312" lon="-0.05617">
        <ele>1529</ele>
        <time>2018-06-24T01:42:05Z</time>
      </trkpt>
      <trkpt lat="42.89299" lon="-0.05617">
        <ele>1526</ele>
        <time>2018-06-24T01:44:05Z</time>
      </trkpt>
      <trkpt lat="42.89275" lon="-0.05635">
        <ele>1530</ele>
        <time>2018-06-24T01:47:05Z</time>
      </trkpt>
      <trkpt lat="42.89267" lon="-0.05644">
        <ele>1533</ele>
        <time>2018-06-24T01:48:05Z</time>
      </trkpt>
      <trkpt lat="42.89259" lon="-0.05658">
        <ele>1537</ele>
        <time>2018-06-24T01:50:05Z</time>
      </trkpt>
      <trkpt lat="42.89254" lon="-0.05671">
        <ele>1541</ele>
        <time>2018-06-24T01:51:05Z</time>
      </trkpt>
      <trkpt lat="42.89249" lon="-0.05683">
        <ele>1547</ele>
        <time>2018-06-24T01:52:05Z</time>
      </trkpt>
      <trkpt lat="42.89242" lon="-0.0569">
        <ele>1549</ele>
        <time>2018-06-24T01:54:05Z</time>
      </trkpt>
      <trkpt lat="42.89212" lon="-0.05691">
        <ele>1546</ele>
        <time>2018-06-24T01:57:05Z</time>
      </trkpt>
      <trkpt lat="42.89189" lon="-0.05699">
        <ele>1546</ele>
        <time>2018-06-24T01:58:05Z</time>
      </trkpt>
      <trkpt lat="42.89145" lon="-0.05733">
        <ele>1553</ele>
        <time>2018-06-24T02:00:05Z</time>
      </trkpt>
      <trkpt lat="42.89145" lon="-0.05733">
        <ele>1553</ele>
        <time>2018-06-24T02:01:05Z</time>
      </trkpt>
      <trkpt lat="42.89121" lon="-0.05755">
        <ele>1557</ele>
        <time>2018-06-24T02:02:05Z</time>
      </trkpt>
      <trkpt lat="42.89105" lon="-0.05766">
        <ele>1557</ele>
        <time>2018-06-24T02:03:05Z</time>
      </trkpt>
      <trkpt lat="42.89061" lon="-0.05791">
        <ele>1561</ele>
        <time>2018-06-24T02:05:05Z</time>
      </trkpt>
      <trkpt lat="42.89013" lon="-0.05804">
        <ele>1564</ele>
        <time>2018-06-24T02:07:05Z</time>
      </trkpt>
      <trkpt lat="42.89001" lon="-0.05811">
        <ele>1567</ele>
        <time>2018-06-24T02:08:05Z</time>
      </trkpt>
      <trkpt lat="42.88986" lon="-0.05828">
        <ele>1574</ele>
        <time>2018-06-24T02:09:05Z</time>
      </trkpt>
      <trkpt lat="42.88973" lon="-0.05844">
        <ele>1579</ele>
        <time>2018-06-24T02:10:05Z</time>
      </trkpt>
      <trkpt lat="42.88963" lon="-0.05849">
        <ele>1579</ele>
        <time>2018-06-24T02:11:05Z</time>
      </trkpt>
      <trkpt lat="42.88939" lon="-0.05846">
        <ele>1573</ele>
        <time>2018-06-24T02:13:05Z</time>
      </trkpt>
      <trkpt lat="42.88911" lon="-0.05854">
        <ele>1572</ele>
        <time>2018-06-24T02:15:05Z</time>
      </trkpt>
      <trkpt lat="42.88893" lon="-0.05865">
        <ele>1576</ele>
        <time>2018-06-24T02:16:05Z</time>
      </trkpt>
      <trkpt lat="42.88861" lon="-0.05872">
        <ele>1578</ele>
        <time>2018-06-24T02:18:05Z</time>
      </trkpt>
      <trkpt lat="42.88768" lon="-0.05858">
        <ele>1580</ele>
        <time>2018-06-24T02:24:05Z</time>
      </trkpt>
      <trkpt lat="42.88735" lon="-0.05865">
        <ele>1588</ele>
        <time>2018-06-24T02:25:05Z</time>
      </trkpt>
      <trkpt lat="42.88727" lon="-0.0587">
        <ele>1591</ele>
        <time>2018-06-24T02:26:05Z</time>
      </trkpt>
      <trkpt lat="42.88725" lon="-0.05879">
        <ele>1595</ele>
        <time>2018-06-24T02:27:05Z</time>
      </trkpt>
      <trkpt lat="42.88737" lon="-0.0589">
        <ele>1596</ele>
        <time>2018-06-24T02:29:05Z</time>
      </trkpt>
      <trkpt lat="42.8875" lon="-0.05888">
        <ele>1592</ele>
        <time>2018-06-24T02:30:05Z</time>
      </trkpt>
      <trkpt lat="42.88769" lon="-0.05886">
        <ele>1589</ele>
        <time>2018-06-24T02:31:05Z</time>
      </trkpt>
      <trkpt lat="42.88781" lon="-0.05889">
        <ele>1589</ele>
        <time>2018-06-24T02:32:05Z</time>
      </trkpt>
      <trkpt lat="42.88801" lon="-0.05905">
        <ele>1594</ele>
        <time>2018-06-24T02:34:05Z</time>
      </trkpt>
      <trkpt lat="42.88817" lon="-0.05914">
        <ele>1597</ele>
        <time>2018-06-24T02:35:05Z</time>
      </trkpt>
      <trkpt lat="42.88846" lon="-0.05924">
        <ele>1599</ele>
        <time>2018-06-24T02:38:05Z</time>
      </trkpt>
      <trkpt lat="42.88882" lon="-0.05934">
        <ele>1604</ele>
        <time>2018-06-24T02:43:05Z</time>
      </trkpt>
      <trkpt lat="42.88894" lon="-0.05941">
        <ele>1607</ele>
        <time>2018-06-24T02:44:05Z</time>
      </trkpt>
      <trkpt lat="42.88898" lon="-0.05942">
        <ele>1607</ele>
        <time>2018-06-24T02:45:05Z</time>
      </trkpt>
      <trkpt lat="42.88946" lon="-0.05936">
        <ele>1614</ele>
        <time>2018-06-24T02:49:05Z</time>
      </trkpt>
      <trkpt lat="42.88964" lon="-0.05932">
        <ele>1617</ele>
        <time>2018-06-24T02:50:05Z</time>
      </trkpt>
      <trkpt lat="42.8898" lon="-0.05923">
        <ele>1617</ele>
        <time>2018-06-24T02:51:05Z</time>
      </trkpt>
      <trkpt lat="42.89019" lon="-0.05909">
        <ele>1620</ele>
        <time>2018-06-24T02:57:05Z</time>
      </trkpt>
      <trkpt lat="42.89021" lon="-0.05913">
        <ele>1622</ele>
        <time>2018-06-24T02:59:05Z</time>
      </trkpt>
      <trkpt lat="42.89016" lon="-0.05921">
        <ele>1625</ele>
        <time>2018-06-24T03:01:05Z</time>
      </trkpt>
      <trkpt lat="42.89" lon="-0.05935">
        <ele>1628</ele>
        <time>2018-06-24T03:04:05Z</time>
      </trkpt>
      <trkpt lat="42.88976" lon="-0.05949">
        <ele>1628</ele>
        <time>2018-06-24T03:05:05Z</time>
      </trkpt>
      <trkpt lat="42.88885" lon="-0.06005">
        <ele>1629</ele>
        <time>2018-06-24T03:10:05Z</time>
      </trkpt>
      <trkpt lat="42.88852" lon="-0.06012">
        <ele>1627</ele>
        <time>2018-06-24T03:12:05Z</time>
      </trkpt>
      <trkpt lat="42.88846" lon="-0.06022">
        <ele>1629</ele>
        <time>2018-06-24T03:17:05Z</time>
      </trkpt>
      <trkpt lat="42.88846" lon="-0.0603">
        <ele>1632</ele>
        <time>2018-06-24T03:21:05Z</time>
      </trkpt>
      <trkpt lat="42.88849" lon="-0.06035">
        <ele>1633</ele>
        <time>2018-06-24T03:23:05Z</time>
      </trkpt>
      <trkpt lat="42.88891" lon="-0.06025">
        <ele>1636</ele>
        <time>2018-06-24T03:29:05Z</time>
      </trkpt>
      <trkpt lat="42.88908" lon="-0.06031">
        <ele>1640</ele>
        <time>2018-06-24T03:31:05Z</time>
      </trkpt>
      <trkpt lat="42.88935" lon="-0.06016">
        <ele>1643</ele>
        <time>2018-06-24T03:34:05Z</time>
      </trkpt>
      <trkpt lat="42.88951" lon="-0.06">
        <ele>1643</ele>
        <time>2018-06-24T03:35:05Z</time>
      </trkpt>
      <trkpt lat="42.8897" lon="-0.05993">
        <ele>1647</ele>
        <time>2018-06-24T03:39:05Z</time>
      </trkpt>
      <trkpt lat="42.88977" lon="-0.05998">
        <ele>1652</ele>
        <time>2018-06-24T03:42:05Z</time>
      </trkpt>
      <trkpt lat="42.88977" lon="-0.06007">
        <ele>1655</ele>
        <time>2018-06-24T03:45:05Z</time>
      </trkpt>
      <trkpt lat="42.88967" lon="-0.06019">
        <ele>1656</ele>
        <time>2018-06-24T03:47:05Z</time>
      </trkpt>
      <trkpt lat="42.88936" lon="-0.06045">
        <ele>1654</ele>
        <time>2018-06-24T03:49:05Z</time>
      </trkpt>
      <trkpt lat="42.88852" lon="-0.06098">
        <ele>1654</ele>
        <time>2018-06-24T03:53:05Z</time>
      </trkpt>
      <trkpt lat="42.88816" lon="-0.06116">
        <ele>1657</ele>
        <time>2018-06-24T03:55:05Z</time>
      </trkpt>
      <trkpt lat="42.8874" lon="-0.06109">
        <ele>1660</ele>
        <time>2018-06-24T04:00:05Z</time>
      </trkpt>
      <trkpt lat="42.88734" lon="-0.06105">
        <ele>1661</ele>
        <time>2018-06-24T04:02:05Z</time>
      </trkpt>
      <trkpt lat="42.88733" lon="-0.06086">
        <ele>1658</ele>
        <time>2018-06-24T04:06:05Z</time>
      </trkpt>
      <trkpt lat="42.88734" lon="-0.06067">
        <ele>1654</ele>
        <time>2018-06-24T04:08:05Z</time>
      </trkpt>
      <trkpt lat="42.88734" lon="-0.06055">
        <ele>1651</ele>
        <time>2018-06-24T04:09:05Z</time>
      </trkpt>
      <trkpt lat="42.88731" lon="-0.06048">
        <ele>1650</ele>
        <time>2018-06-24T04:11:05Z</time>
      </trkpt>
      <trkpt lat="42.88723" lon="-0.06045">
        <ele>1653</ele>
        <time>2018-06-24T04:15:05Z</time>
      </trkpt>
      <trkpt lat="42.88721" lon="-0.06045">
        <ele>1653</ele>
        <time>2018-06-24T04:16:05Z</time>
      </trkpt>
      <trkpt lat="42.88717" lon="-0.06052">
        <ele>1656</ele>
        <time>2018-06-24T04:19:05Z</time>
      </trkpt>
      <trkpt lat="42.88717" lon="-0.06075">
        <ele>1661</ele>
        <time>2018-06-24T04:22:05Z</time>
      </trkpt>
      <trkpt lat="42.88715" lon="-0.06089">
        <ele>1665</ele>
        <time>2018-06-24T04:23:05Z</time>
      </trkpt>
      <trkpt lat="42.88708" lon="-0.06101">
        <ele>1668</ele>
        <time>2018-06-24T04:24:05Z</time>
      </trkpt>
      <trkpt lat="42.887" lon="-0.06111">
        <ele>1672</ele>
        <time>2018-06-24T04:25:05Z</time>
      </trkpt>
      <trkpt lat="42.88686" lon="-0.06119">
        <ele>1676</ele>
        <time>2018-06-24T04:26:05Z</time>
      </trkpt>
      <trkpt lat="42.88676" lon="-0.06125">
        <ele>1679</ele>
        <time>2018-06-24T04:27:05Z</time>
      </trkpt>
      <trkpt lat="42.88672" lon="-0.06141">
        <ele>1681</ele>
        <time>2018-06-24T04:29:05Z</time>
      </trkpt>
      <trkpt lat="42.88694" lon="-0.06154">
        <ele>1677</ele>
        <time>2018-06-24T04:32:05Z</time>
      </trkpt>
      <trkpt lat="42.88712" lon="-0.06156">
        <ele>1674</ele>
        <time>2018-06-24T04:33:05Z</time>
      </trkpt>
      <trkpt lat="42.88725" lon="-0.06166">
        <ele>1673</ele>
        <time>2018-06-24T04:35:05Z</time>
      </trkpt>
      <trkpt lat="42.88725" lon="-0.06182">
        <ele>1677</ele>
        <time>2018-06-24T04:37:05Z</time>
      </trkpt>
      <trkpt lat="42.88713" lon="-0.06187">
        <ele>1680</ele>
        <time>2018-06-24T04:39:05Z</time>
      </trkpt>
      <trkpt lat="42.88642" lon="-0.06163">
        <ele>1688</ele>
        <time>2018-06-24T04:41:05Z</time>
      </trkpt>
      <trkpt lat="42.88629" lon="-0.06144">
        <ele>1691</ele>
        <time>2018-06-24T04:43:05Z</time>
      </trkpt>
      <trkpt lat="42.8863" lon="-0.06138">
        <ele>1691</ele>
        <time>2018-06-24T04:44:05Z</time>
      </trkpt>
      <trkpt lat="42.88648" lon="-0.06094">
        <ele>1686</ele>
        <time>2018-06-24T04:47:05Z</time>
      </trkpt>
      <trkpt lat="42.88664" lon="-0.06082">
        <ele>1681</ele>
        <time>2018-06-24T04:48:05Z</time>
      </trkpt>
      <trkpt lat="42.88673" lon="-0.06073">
        <ele>1676</ele>
        <time>2018-06-24T04:49:05Z</time>
      </trkpt>
      <trkpt lat="42.88676" lon="-0.06063">
        <ele>1673</ele>
        <time>2018-06-24T04:51:05Z</time>
      </trkpt>
      <trkpt lat="42.88673" lon="-0.06053">
        <ele>1672</ele>
        <time>2018-06-24T04:53:05Z</time>
      </trkpt>
      <trkpt lat="42.88665" lon="-0.0605">
        <ele>1675</ele>
        <time>2018-06-24T04:56:05Z</time>
      </trkpt>
      <trkpt lat="42.88657" lon="-0.06051">
        <ele>1678</ele>
        <time>2018-06-24T04:58:05Z</time>
      </trkpt>
      <trkpt lat="42.88643" lon="-0.06065">
        <ele>1685</ele>
        <time>2018-06-24T04:59:05Z</time>
      </trkpt>
      <trkpt lat="42.88626" lon="-0.06083">
        <ele>1694</ele>
        <time>2018-06-24T05:00:05Z</time>
      </trkpt>
      <trkpt lat="42.88599" lon="-0.06112">
        <ele>1701</ele>
        <time>2018-06-24T05:01:05Z</time>
      </trkpt>
      <trkpt lat="42.88565" lon="-0.06141">
        <ele>1705</ele>
        <time>2018-06-24T05:02:05Z</time>
      </trkpt>
      <trkpt lat="42.8853" lon="-0.06179">
        <ele>1709</ele>
        <time>2018-06-24T05:04:05Z</time>
      </trkpt>
      <trkpt lat="42.88529" lon="-0.06181">
        <ele>1709</ele>
        <time>2018-06-24T05:05:05Z</time>
      </trkpt>
      <trkpt lat="42.88516" lon="-0.0622">
        <ele>1712</ele>
        <time>2018-06-24T05:08:05Z</time>
      </trkpt>
      <trkpt lat="42.88514" lon="-0.06224">
        <ele>1712</ele>
        <time>2018-06-24T05:09:05Z</time>
      </trkpt>
      <trkpt lat="42.88518" lon="-0.06152">
        <ele>1711</ele>
        <time>2018-06-24T05:21:05Z</time>
      </trkpt>
      <trkpt lat="42.88518" lon="-0.06152">
        <ele>1711</ele>
        <time>2018-06-24T05:22:05Z</time>
      </trkpt>
      <trkpt lat="42.88503" lon="-0.06135">
        <ele>1714</ele>
        <time>2018-06-24T05:24:05Z</time>
      </trkpt>
      <trkpt lat="42.88494" lon="-0.06129">
        <ele>1715</ele>
        <time>2018-06-24T05:26:05Z</time>
      </trkpt>
      <trkpt lat="42.88466" lon="-0.06139">
        <ele>1717</ele>
        <time>2018-06-24T05:29:05Z</time>
      </trkpt>
      <trkpt lat="42.88441" lon="-0.062">
        <ele>1720</ele>
        <time>2018-06-24T05:32:05Z</time>
      </trkpt>
      <trkpt lat="42.88413" lon="-0.06253">
        <ele>1724</ele>
        <time>2018-06-24T05:35:05Z</time>
      </trkpt>
      <trkpt lat="42.88399" lon="-0.06274">
        <ele>1727</ele>
        <time>2018-06-24T05:36:05Z</time>
      </trkpt>
      <trkpt lat="42.88378" lon="-0.06333">
        <ele>1730</ele>
        <time>2018-06-24T05:39:05Z</time>
      </trkpt>
      <trkpt lat="42.88377" lon="-0.06351">
        <ele>1733</ele>
        <time>2018-06-24T05:40:05Z</time>
      </trkpt>
      <trkpt lat="42.88377" lon="-0.06357">
        <ele>1734</ele>
        <time>2018-06-24T05:42:05Z</time>
      </trkpt>
      <trkpt lat="42.88392" lon="-0.06332">
        <ele>1729</ele>
        <time>2018-06-24T05:46:05Z</time>
      </trkpt>
      <trkpt lat="42.88412" lon="-0.06302">
        <ele>1727</ele>
        <time>2018-06-24T05:49:05Z</time>
      </trkpt>
      <trkpt lat="42.88435" lon="-0.06271">
        <ele>1723</ele>
        <time>2018-06-24T05:51:05Z</time>
      </trkpt>
      <trkpt lat="42.88449" lon="-0.06255">
        <ele>1720</ele>
        <time>2018-06-24T05:52:05Z</time>
      </trkpt>
      <trkpt lat="42.88469" lon="-0.06216">
        <ele>1717</ele>
        <time>2018-06-24T05:54:05Z</time>
      </trkpt>
      <trkpt lat="42.8847" lon="-0.06214">
        <ele>1717</ele>
        <time>2018-06-24T05:55:05Z</time>
      </trkpt>
      <trkpt lat="42.8849" lon="-0.06164">
        <ele>1714</ele>
        <time>2018-06-24T05:57:05Z</time>
      </trkpt>
      <trkpt lat="42.88494" lon="-0.06157">
        <ele>1714</ele>
        <time>2018-06-24T05:58:05Z</time>
      </trkpt>
      <trkpt lat="42.88518" lon="-0.06152">
        <ele>1711</ele>
        <time>2018-06-24T06:02:05Z</time>
      </trkpt>
      <trkpt lat="42.88498" lon="-0.06204">
        <ele>1714</ele>
        <time>2018-06-24T06:03:05Z</time>
      </trkpt>
      <trkpt lat="42.88496" lon="-0.06224">
        <ele>1714</ele>
        <time>2018-06-24T06:06:05Z</time>
      </trkpt>
      <trkpt lat="42.88519" lon="-0.06215">
        <ele>1711</ele>
        <time>2018-06-24T06:16:05Z</time>
      </trkpt>
      <trkpt lat="42.8853" lon="-0.06179">
        <ele>1709</ele>
        <time>2018-06-24T06:19:05Z</time>
      </trkpt>
      <trkpt lat="42.88565" lon="-0.06141">
        <ele>1705</ele>
        <time>2018-06-24T06:21:05Z</time>
      </trkpt>
      <trkpt lat="42.88599" lon="-0.06112">
        <ele>1701</ele>
        <time>2018-06-24T06:22:05Z</time>
      </trkpt>
      <trkpt lat="42.88626" lon="-0.06083">
        <ele>1694</ele>
        <time>2018-06-24T06:23:05Z</time>
      </trkpt>
      <trkpt lat="42.88643" lon="-0.06065">
        <ele>1685</ele>
        <time>2018-06-24T06:24:05Z</time>
      </trkpt>
      <trkpt lat="42.88657" lon="-0.06051">
        <ele>1678</ele>
        <time>2018-06-24T06:25:05Z</time>
      </trkpt>
      <trkpt lat="42.88665" lon="-0.0605">
        <ele>1675</ele>
        <time>2018-06-24T06:27:05Z</time>
      </trkpt>
      <trkpt lat="42.88671" lon="-0.06051">
        <ele>1673</ele>
        <time>2018-06-24T06:29:05Z</time>
      </trkpt>
      <trkpt lat="42.88673" lon="-0.06073">
        <ele>1676</ele>
        <time>2018-06-24T06:34:05Z</time>
      </trkpt>
      <trkpt lat="42.88664" lon="-0.06082">
        <ele>1681</ele>
        <time>2018-06-24T06:35:05Z</time>
      </trkpt>
      <trkpt lat="42.88648" lon="-0.06094">
        <ele>1686</ele>
        <time>2018-06-24T06:36:05Z</time>
      </trkpt>
      <trkpt lat="42.88636" lon="-0.06108">
        <ele>1690</ele>
        <time>2018-06-24T06:37:05Z</time>
      </trkpt>
      <trkpt lat="42.8863" lon="-0.06138">
        <ele>1691</ele>
        <time>2018-06-24T06:39:05Z</time>
      </trkpt>
      <trkpt lat="42.88642" lon="-0.06163">
        <ele>1688</ele>
        <time>2018-06-24T06:42:05Z</time>
      </trkpt>
      <trkpt lat="42.88688" lon="-0.0618">
        <ele>1682</ele>
        <time>2018-06-24T06:43:05Z</time>
      </trkpt>
      <trkpt lat="42.8872" lon="-0.06187">
        <ele>1679</ele>
        <time>2018-06-24T06:45:05Z</time>
      </trkpt>
      <trkpt lat="42.88726" lon="-0.06174">
        <ele>1675</ele>
        <time>2018-06-24T06:47:05Z</time>
      </trkpt>
      <trkpt lat="42.8872" lon="-0.0616">
        <ele>1673</ele>
        <time>2018-06-24T06:49:05Z</time>
      </trkpt>
      <trkpt lat="42.88694" lon="-0.06154">
        <ele>1677</ele>
        <time>2018-06-24T06:51:05Z</time>
      </trkpt>
      <trkpt lat="42.88676" lon="-0.06148">
        <ele>1680</ele>
        <time>2018-06-24T06:53:05Z</time>
      </trkpt>
      <trkpt lat="42.88671" lon="-0.06133">
        <ele>1681</ele>
        <time>2018-06-24T06:55:05Z</time>
      </trkpt>
      <trkpt lat="42.88686" lon="-0.06119">
        <ele>1676</ele>
        <time>2018-06-24T06:57:05Z</time>
      </trkpt>
      <trkpt lat="42.887" lon="-0.06111">
        <ele>1672</ele>
        <time>2018-06-24T06:58:05Z</time>
      </trkpt>
      <trkpt lat="42.88708" lon="-0.06101">
        <ele>1668</ele>
        <time>2018-06-24T06:59:05Z</time>
      </trkpt>
      <trkpt lat="42.88715" lon="-0.06089">
        <ele>1665</ele>
        <time>2018-06-24T07:00:05Z</time>
      </trkpt>
      <trkpt lat="42.88717" lon="-0.06075">
        <ele>1661</ele>
        <time>2018-06-24T07:01:05Z</time>
      </trkpt>
      <trkpt lat="42.88716" lon="-0.06057">
        <ele>1658</ele>
        <time>2018-06-24T07:02:05Z</time>
      </trkpt>
      <trkpt lat="42.88718" lon="-0.06049">
        <ele>1655</ele>
        <time>2018-06-24T07:05:05Z</time>
      </trkpt>
      <trkpt lat="42.88723" lon="-0.06045">
        <ele>1653</ele>
        <time>2018-06-24T07:08:05Z</time>
      </trkpt>
      <trkpt lat="42.88729" lon="-0.06047">
        <ele>1651</ele>
        <time>2018-06-24T07:11:05Z</time>
      </trkpt>
      <trkpt lat="42.88734" lon="-0.06067">
        <ele>1654</ele>
        <time>2018-06-24T07:15:05Z</time>
      </trkpt>
      <trkpt lat="42.88733" lon="-0.06086">
        <ele>1658</ele>
        <time>2018-06-24T07:17:05Z</time>
      </trkpt>
      <trkpt lat="42.88732" lon="-0.06098">
        <ele>1661</ele>
        <time>2018-06-24T07:19:05Z</time>
      </trkpt>
      <trkpt lat="42.88733" lon="-0.06102">
        <ele>1661</ele>
        <time>2018-06-24T07:20:05Z</time>
      </trkpt>
      <trkpt lat="42.88755" lon="-0.06114">
        <ele>1658</ele>
        <time>2018-06-24T07:24:05Z</time>
      </trkpt>
      <trkpt lat="42.88796" lon="-0.06119">
        <ele>1658</ele>
        <time>2018-06-24T07:25:05Z</time>
      </trkpt>
      <trkpt lat="42.88825" lon="-0.06112">
        <ele>1655</ele>
        <time>2018-06-24T07:29:05Z</time>
      </trkpt>
      <trkpt lat="42.88927" lon="-0.06061">
        <ele>1656</ele>
        <time>2018-06-24T07:33:05Z</time>
      </trkpt>
      <trkpt lat="42.88975" lon="-0.06011">
        <ele>1656</ele>
        <time>2018-06-24T07:37:05Z</time>
      </trkpt>
      <trkpt lat="42.88977" lon="-0.06001">
        <ele>1653</ele>
        <time>2018-06-24T07:40:05Z</time>
      </trkpt>
      <trkpt lat="42.88975" lon="-0.05995">
        <ele>1649</ele>
        <time>2018-06-24T07:42:05Z</time>
      </trkpt>
      <trkpt lat="42.88966" lon="-0.05993">
        <ele>1645</ele>
        <time>2018-06-24T07:45:05Z</time>
      </trkpt>
      <trkpt lat="42.88951" lon="-0.06">
        <ele>1643</ele>
        <time>2018-06-24T07:48:05Z</time>
      </trkpt>
      <trkpt lat="42.88908" lon="-0.06031">
        <ele>1640</ele>
        <time>2018-06-24T07:52:05Z</time>
      </trkpt>
      <trkpt lat="42.88891" lon="-0.06025">
        <ele>1636</ele>
        <time>2018-06-24T07:54:05Z</time>
      </trkpt>
      <trkpt lat="42.88877" lon="-0.06023">
        <ele>1633</ele>
        <time>2018-06-24T07:56:05Z</time>
      </trkpt>
      <trkpt lat="42.88846" lon="-0.06028">
        <ele>1631</ele>
        <time>2018-06-24T08:03:05Z</time>
      </trkpt>
      <trkpt lat="42.88846" lon="-0.06024">
        <ele>1630</ele>
        <time>2018-06-24T08:05:05Z</time>
      </trkpt>
      <trkpt lat="42.88848" lon="-0.06014">
        <ele>1627</ele>
        <time>2018-06-24T08:09:05Z</time>
      </trkpt>
      <trkpt lat="42.8885" lon="-0.06013">
        <ele>1627</ele>
        <time>2018-06-24T08:10:05Z</time>
      </trkpt>
      <trkpt lat="42.88902" lon="-0.06005">
        <ele>1630</ele>
        <time>2018-06-24T08:14:05Z</time>
      </trkpt>
      <trkpt lat="42.88927" lon="-0.05983">
        <ele>1627</ele>
        <time>2018-06-24T08:16:05Z</time>
      </trkpt>
      <trkpt lat="42.88955" lon="-0.05963">
        <ele>1628</ele>
        <time>2018-06-24T08:17:05Z</time>
      </trkpt>
      <trkpt lat="42.89016" lon="-0.05921">
        <ele>1625</ele>
        <time>2018-06-24T08:22:05Z</time>
      </trkpt>
      <trkpt lat="42.89021" lon="-0.05913">
        <ele>1622</ele>
        <time>2018-06-24T08:24:05Z</time>
      </trkpt>
      <trkpt lat="42.89021" lon="-0.05913">
        <ele>1622</ele>
        <time>2018-06-24T08:25:05Z</time>
      </trkpt>
      <trkpt lat="42.89017" lon="-0.05907">
        <ele>1618</ele>
        <time>2018-06-24T08:27:05Z</time>
      </trkpt>
      <trkpt lat="42.89009" lon="-0.05906">
        <ele>1616</ele>
        <time>2018-06-24T08:30:05Z</time>
      </trkpt>
      <trkpt lat="42.88918" lon="-0.05938">
        <ele>1607</ele>
        <time>2018-06-24T08:35:05Z</time>
      </trkpt>
      <trkpt lat="42.88911" lon="-0.0594">
        <ele>1607</ele>
        <time>2018-06-24T08:36:05Z</time>
      </trkpt>
      <trkpt lat="42.88882" lon="-0.05934">
        <ele>1604</ele>
        <time>2018-06-24T08:40:05Z</time>
      </trkpt>
      <trkpt lat="42.88875" lon="-0.05928">
        <ele>1601</ele>
        <time>2018-06-24T08:41:05Z</time>
      </trkpt>
      <trkpt lat="42.88857" lon="-0.05923">
        <ele>1599</ele>
        <time>2018-06-24T08:44:05Z</time>
      </trkpt>
      <trkpt lat="42.88801" lon="-0.05905">
        <ele>1594</ele>
        <time>2018-06-24T08:49:05Z</time>
      </trkpt>
      <trkpt lat="42.88789" lon="-0.05895">
        <ele>1591</ele>
        <time>2018-06-24T08:50:05Z</time>
      </trkpt>
      <trkpt lat="42.88769" lon="-0.05886">
        <ele>1589</ele>
        <time>2018-06-24T08:52:05Z</time>
      </trkpt>
      <trkpt lat="42.8875" lon="-0.05888">
        <ele>1592</ele>
        <time>2018-06-24T08:53:05Z</time>
      </trkpt>
      <trkpt lat="42.88737" lon="-0.0589">
        <ele>1596</ele>
        <time>2018-06-24T08:54:05Z</time>
      </trkpt>
      <trkpt lat="42.88727" lon="-0.0587">
        <ele>1591</ele>
        <time>2018-06-24T08:57:05Z</time>
      </trkpt>
      <trkpt lat="42.88735" lon="-0.05865">
        <ele>1588</ele>
        <time>2018-06-24T08:58:05Z</time>
      </trkpt>
      <trkpt lat="42.88768" lon="-0.05858">
        <ele>1580</ele>
        <time>2018-06-24T08:59:05Z</time>
      </trkpt>
      <trkpt lat="42.88794" lon="-0.0586">
        <ele>1577</ele>
        <time>2018-06-24T09:01:05Z</time>
      </trkpt>
      <trkpt lat="42.88893" lon="-0.05865">
        <ele>1576</ele>
        <time>2018-06-24T09:07:05Z</time>
      </trkpt>
      <trkpt lat="42.88911" lon="-0.05854">
        <ele>1572</ele>
        <time>2018-06-24T09:08:05Z</time>
      </trkpt>
      <trkpt lat="42.88951" lon="-0.0585">
        <ele>1577</ele>
        <time>2018-06-24T09:11:05Z</time>
      </trkpt>
      <trkpt lat="42.88973" lon="-0.05844">
        <ele>1579</ele>
        <time>2018-06-24T09:13:05Z</time>
      </trkpt>
      <trkpt lat="42.88986" lon="-0.05828">
        <ele>1574</ele>
        <time>2018-06-24T09:14:05Z</time>
      </trkpt>
      <trkpt lat="42.89001" lon="-0.05811">
        <ele>1567</ele>
        <time>2018-06-24T09:15:05Z</time>
      </trkpt>
      <trkpt lat="42.89013" lon="-0.05804">
        <ele>1564</ele>
        <time>2018-06-24T09:16:05Z</time>
      </trkpt>
      <trkpt lat="42.89061" lon="-0.05791">
        <ele>1561</ele>
        <time>2018-06-24T09:18:05Z</time>
      </trkpt>
      <trkpt lat="42.89079" lon="-0.0578">
        <ele>1558</ele>
        <time>2018-06-24T09:19:05Z</time>
      </trkpt>
      <trkpt lat="42.89121" lon="-0.05755">
        <ele>1557</ele>
        <time>2018-06-24T09:21:05Z</time>
      </trkpt>
      <trkpt lat="42.89145" lon="-0.05733">
        <ele>1553</ele>
        <time>2018-06-24T09:22:05Z</time>
      </trkpt>
      <trkpt lat="42.89145" lon="-0.05733">
        <ele>1553</ele>
        <time>2018-06-24T09:23:05Z</time>
      </trkpt>
      <trkpt lat="42.8917" lon="-0.0571">
        <ele>1548</ele>
        <time>2018-06-24T09:24:05Z</time>
      </trkpt>
      <trkpt lat="42.89212" lon="-0.05691">
        <ele>1546</ele>
        <time>2018-06-24T09:26:05Z</time>
      </trkpt>
      <trkpt lat="42.89236" lon="-0.05693">
        <ele>1550</ele>
        <time>2018-06-24T09:28:05Z</time>
      </trkpt>
      <trkpt lat="42.89242" lon="-0.0569">
        <ele>1549</ele>
        <time>2018-06-24T09:29:05Z</time>
      </trkpt>
      <trkpt lat="42.89254" lon="-0.05671">
        <ele>1541</ele>
        <time>2018-06-24T09:32:05Z</time>
      </trkpt>
      <trkpt lat="42.89259" lon="-0.05658">
        <ele>1537</ele>
        <time>2018-06-24T09:33:05Z</time>
      </trkpt>
      <trkpt lat="42.89263" lon="-0.0565">
        <ele>1534</ele>
        <time>2018-06-24T09:34:05Z</time>
      </trkpt>
      <trkpt lat="42.89275" lon="-0.05635">
        <ele>1530</ele>
        <time>2018-06-24T09:36:05Z</time>
      </trkpt>
      <trkpt lat="42.89292" lon="-0.05621">
        <ele>1527</ele>
        <time>2018-06-24T09:38:05Z</time>
      </trkpt>
      <trkpt lat="42.8932" lon="-0.05619">
        <ele>1531</ele>
        <time>2018-06-24T09:42:05Z</time>
      </trkpt>
      <trkpt lat="42.89325" lon="-0.0562">
        <ele>1532</ele>
        <time>2018-06-24T09:44:05Z</time>
      </trkpt>
      <trkpt lat="42.89332" lon="-0.05612">
        <ele>1529</ele>
        <time>2018-06-24T09:48:05Z</time>
      </trkpt>
      <trkpt lat="42.8933" lon="-0.05606">
        <ele>1526</ele>
        <time>2018-06-24T09:50:05Z</time>
      </trkpt>
      <trkpt lat="42.89323" lon="-0.05601">
        <ele>1522</ele>
        <time>2018-06-24T09:52:05Z</time>
      </trkpt>
      <trkpt lat="42.89298" lon="-0.05602">
        <ele>1519</ele>
        <time>2018-06-24T09:55:05Z</time>
      </trkpt>
      <trkpt lat="42.89284" lon="-0.05607">
        <ele>1519</ele>
        <time>2018-06-24T09:56:05Z</time>
      </trkpt>
      <trkpt lat="42.89259" lon="-0.05623">
        <ele>1522</ele>
        <time>2018-06-24T09:58:05Z</time>
      </trkpt>
      <trkpt lat="42.89248" lon="-0.05637">
        <ele>1526</ele>
        <time>2018-06-24T09:59:05Z</time>
      </trkpt>
      <trkpt lat="42.8924" lon="-0.05646">
        <ele>1529</ele>
        <time>2018-06-24T10:00:05Z</time>
      </trkpt>
      <trkpt lat="42.89227" lon="-0.05654">
        <ele>1530</ele>
        <time>2018-06-24T10:02:05Z</time>
      </trkpt>
      <trkpt lat="42.89208" lon="-0.0565">
        <ele>1527</ele>
        <time>2018-06-24T10:04:05Z</time>
      </trkpt>
      <trkpt lat="42.89198" lon="-0.05643">
        <ele>1523</ele>
        <time>2018-06-24T10:05:05Z</time>
      </trkpt>
      <trkpt lat="42.89186" lon="-0.05639">
        <ele>1520</ele>
        <time>2018-06-24T10:06:05Z</time>
      </trkpt>
      <trkpt lat="42.89167" lon="-0.0564">
        <ele>1518</ele>
        <time>2018-06-24T10:08:05Z</time>
      </trkpt>
      <trkpt lat="42.891" lon="-0.05656">
        <ele>1514</ele>
        <time>2018-06-24T10:13:05Z</time>
      </trkpt>
      <trkpt lat="42.89076" lon="-0.05655">
        <ele>1510</ele>
        <time>2018-06-24T10:14:05Z</time>
      </trkpt>
      <trkpt lat="42.89054" lon="-0.05658">
        <ele>1507</ele>
        <time>2018-06-24T10:15:05Z</time>
      </trkpt>
      <trkpt lat="42.89" lon="-0.05674">
        <ele>1504</ele>
        <time>2018-06-24T10:17:05Z</time>
      </trkpt>
      <trkpt lat="42.88972" lon="-0.05682">
        <ele>1504</ele>
        <time>2018-06-24T10:18:05Z</time>
      </trkpt>
      <trkpt lat="42.88918" lon="-0.05686">
        <ele>1501</ele>
        <time>2018-06-24T10:21:05Z</time>
      </trkpt>
      <trkpt lat="42.88902" lon="-0.05685">
        <ele>1502</ele>
        <time>2018-06-24T10:22:05Z</time>
      </trkpt>
      <trkpt lat="42.88882" lon="-0.05669">
        <ele>1499</ele>
        <time>2018-06-24T10:25:05Z</time>
      </trkpt>
      <trkpt lat="42.88891" lon="-0.05655">
        <ele>1496</ele>
        <time>2018-06-24T10:27:05Z</time>
      </trkpt>
      <trkpt lat="42.88906" lon="-0.05654">
        <ele>1493</ele>
        <time>2018-06-24T10:28:05Z</time>
      </trkpt>
      <trkpt lat="42.88949" lon="-0.05639">
        <ele>1490</ele>
        <time>2018-06-24T10:30:05Z</time>
      </trkpt>
      <trkpt lat="42.88971" lon="-0.05624">
        <ele>1487</ele>
        <time>2018-06-24T10:31:05Z</time>
      </trkpt>
      <trkpt lat="42.88989" lon="-0.05606">
        <ele>1482</ele>
        <time>2018-06-24T10:32:05Z</time>
      </trkpt>
      <trkpt lat="42.89004" lon="-0.05585">
        <ele>1476</ele>
        <time>2018-06-24T10:33:05Z</time>
      </trkpt>
      <trkpt lat="42.89038" lon="-0.05532">
        <ele>1471</ele>
        <time>2018-06-24T10:35:05Z</time>
      </trkpt>
      <trkpt lat="42.89055" lon="-0.05512">
        <ele>1468</ele>
        <time>2018-06-24T10:36:05Z</time>
      </trkpt>
      <trkpt lat="42.89082" lon="-0.05487">
        <ele>1464</ele>
        <time>2018-06-24T10:37:05Z</time>
      </trkpt>
      <trkpt lat="42.89104" lon="-0.05471">
        <ele>1464</ele>
        <time>2018-06-24T10:38:05Z</time>
      </trkpt>
      <trkpt lat="42.8914" lon="-0.05431">
        <ele>1459</ele>
        <time>2018-06-24T10:40:05Z</time>
      </trkpt>
      <trkpt lat="42.89175" lon="-0.05403">
        <ele>1454</ele>
        <time>2018-06-24T10:42:05Z</time>
      </trkpt>
      <trkpt lat="42.89197" lon="-0.054">
        <ele>1451</ele>
        <time>2018-06-24T10:44:05Z</time>
      </trkpt>
      <trkpt lat="42.892" lon="-0.05399">
        <ele>1451</ele>
        <time>2018-06-24T10:45:05Z</time>
      </trkpt>
      <trkpt lat="42.89205" lon="-0.05392">
        <ele>1449</ele>
        <time>2018-06-24T10:48:05Z</time>
      </trkpt>
      <trkpt lat="42.89133" lon="-0.05382">
        <ele>1453</ele>
        <time>2018-06-24T10:57:05Z</time>
      </trkpt>
      <trkpt lat="42.89107" lon="-0.05374">
        <ele>1455</ele>
        <time>2018-06-24T11:00:05Z</time>
      </trkpt>
      <trkpt lat="42.89145" lon="-0.05319">
        <ele>1448</ele>
        <time>2018-06-24T11:06:05Z</time>
      </trkpt>
      <trkpt lat="42.89169" lon="-0.053">
        <ele>1444</ele>
        <time>2018-06-24T11:07:05Z</time>
      </trkpt>
      <trkpt lat="42.89193" lon="-0.0528">
        <ele>1440</ele>
        <time>2018-06-24T11:09:05Z</time>
      </trkpt>
      <trkpt lat="42.89204" lon="-0.05263">
        <ele>1437</ele>
        <time>2018-06-24T11:10:05Z</time>
      </trkpt>
      <trkpt lat="42.89266" lon="-0.05148">
        <ele>1435</ele>
        <time>2018-06-24T11:15:05Z</time>
      </trkpt>
      <trkpt lat="42.89289" lon="-0.05129">
        <ele>1431</ele>
        <time>2018-06-24T11:18:05Z</time>
      </trkpt>
      <trkpt lat="42.89319" lon="-0.05115">
        <ele>1423</ele>
        <time>2018-06-24T11:19:05Z</time>
      </trkpt>
      <trkpt lat="42.89334" lon="-0.05108">
        <ele>1419</ele>
        <time>2018-06-24T11:20:05Z</time>
      </trkpt>
      <trkpt lat="42.89351" lon="-0.05094">
        <ele>1416</ele>
        <time>2018-06-24T11:23:05Z</time>
      </trkpt>
      <trkpt lat="42.89354" lon="-0.0509">
        <ele>1416</ele>
        <time>2018-06-24T11:24:05Z</time>
      </trkpt>
      <trkpt lat="42.89359" lon="-0.05084">
        <ele>1415</ele>
        <time>2018-06-24T11:25:05Z</time>
      </trkpt>
      <trkpt lat="42.89432" lon="-0.04985">
        <ele>1408</ele>
        <time>2018-06-24T11:26:05Z</time>
      </trkpt>
      <trkpt lat="42.89447" lon="-0.0496">
        <ele>1404</ele>
        <time>2018-06-24T11:28:05Z</time>
      </trkpt>
      <trkpt lat="42.89465" lon="-0.04919">
        <ele>1400</ele>
        <time>2018-06-24T11:30:05Z</time>
      </trkpt>
      <trkpt lat="42.89473" lon="-0.04909">
        <ele>1397</ele>
        <time>2018-06-24T11:31:05Z</time>
      </trkpt>
      <trkpt lat="42.89489" lon="-0.04883">
        <ele>1392</ele>
        <time>2018-06-24T11:33:05Z</time>
      </trkpt>
      <trkpt lat="42.89492" lon="-0.04872">
        <ele>1392</ele>
        <time>2018-06-24T11:34:05Z</time>
      </trkpt>
      <trkpt lat="42.89503" lon="-0.04817">
        <ele>1388</ele>
        <time>2018-06-24T11:38:05Z</time>
      </trkpt>
      <trkpt lat="42.89497" lon="-0.04787">
        <ele>1384</ele>
        <time>2018-06-24T11:40:05Z</time>
      </trkpt>
      <trkpt lat="42.89493" lon="-0.04778">
        <ele>1384</ele>
        <time>2018-06-24T11:41:05Z</time>
      </trkpt>
      <trkpt lat="42.89444" lon="-0.04674">
        <ele>1384</ele>
        <time>2018-06-24T11:47:05Z</time>
      </trkpt>
      <trkpt lat="42.89441" lon="-0.04657">
        <ele>1381</ele>
        <time>2018-06-24T11:49:05Z</time>
      </trkpt>
      <trkpt lat="42.89441" lon="-0.04639">
        <ele>1378</ele>
        <time>2018-06-24T11:50:05Z</time>
      </trkpt>
      <trkpt lat="42.89438" lon="-0.04607">
        <ele>1373</ele>
        <time>2018-06-24T11:52:05Z</time>
      </trkpt>
      <trkpt lat="42.89433" lon="-0.04592">
        <ele>1372</ele>
        <time>2018-06-24T11:54:05Z</time>
      </trkpt>
      <trkpt lat="42.89423" lon="-0.04572">
        <ele>1370</ele>
        <time>2018-06-24T11:58:05Z</time>
      </trkpt>
      <trkpt lat="42.89383" lon="-0.04542">
        <ele>1373</ele>
        <time>2018-06-24T12:01:05Z</time>
      </trkpt>
      <trkpt lat="42.8937" lon="-0.04531">
        <ele>1373</ele>
        <time>2018-06-24T12:02:05Z</time>
      </trkpt>
      <trkpt lat="42.89356" lon="-0.04512">
        <ele>1369</ele>
        <time>2018-06-24T12:04:05Z</time>
      </trkpt>
      <trkpt lat="42.89337" lon="-0.04483">
        <ele>1364</ele>
        <time>2018-06-24T12:06:05Z</time>
      </trkpt>
      <trkpt lat="42.89332" lon="-0.04478">
        <ele>1364</ele>
        <time>2018-06-24T12:07:05Z</time>
      </trkpt>
      <trkpt lat="42.89282" lon="-0.04443">
        <ele>1366</ele>
        <time>2018-06-24T12:11:05Z</time>
      </trkpt>
      <trkpt lat="42.89248" lon="-0.04424">
        <ele>1365</ele>
        <time>2018-06-24T12:16:05Z</time>
      </trkpt>
      <trkpt lat="42.89247" lon="-0.04414">
        <ele>1362</ele>
        <time>2018-06-24T12:19:05Z</time>
      </trkpt>
      <trkpt lat="42.89251" lon="-0.04407">
        <ele>1359</ele>
        <time>2018-06-24T12:21:05Z</time>
      </trkpt>
      <trkpt lat="42.89254" lon="-0.04406">
        <ele>1359</ele>
        <time>2018-06-24T12:22:05Z</time>
      </trkpt>
      <trkpt lat="42.89311" lon="-0.04429">
        <ele>1356</ele>
        <time>2018-06-24T12:29:05Z</time>
      </trkpt>
      <trkpt lat="42.89339" lon="-0.04429">
        <ele>1352</ele>
        <time>2018-06-24T12:31:05Z</time>
      </trkpt>
      <trkpt lat="42.89364" lon="-0.04415">
        <ele>1349</ele>
        <time>2018-06-24T12:34:05Z</time>
      </trkpt>
      <trkpt lat="42.89386" lon="-0.04394">
        <ele>1345</ele>
        <time>2018-06-24T12:36:05Z</time>
      </trkpt>
      <trkpt lat="42.89423" lon="-0.04363">
        <ele>1339</ele>
        <time>2018-06-24T12:37:05Z</time>
      </trkpt>
      <trkpt lat="42.89434" lon="-0.04357">
        <ele>1336</ele>
        <time>2018-06-24T12:38:05Z</time>
      </trkpt>
      <trkpt lat="42.89446" lon="-0.04355">
        <ele>1335</ele>
        <time>2018-06-24T12:40:05Z</time>
      </trkpt>
      <trkpt lat="42.8948" lon="-0.04362">
        <ele>1332</ele>
        <time>2018-06-24T12:42:05Z</time>
      </trkpt>
      <trkpt lat="42.89495" lon="-0.04372">
        <ele>1332</ele>
        <time>2018-06-24T12:43:05Z</time>
      </trkpt>
      <trkpt lat="42.89517" lon="-0.04401">
        <ele>1329</ele>
        <time>2018-06-24T12:47:05Z</time>
      </trkpt>
      <trkpt lat="42.89556" lon="-0.04464">
        <ele>1326</ele>
        <time>2018-06-24T12:50:05Z</time>
      </trkpt>
      <trkpt lat="42.89577" lon="-0.04481">
        <ele>1323</ele>
        <time>2018-06-24T12:52:05Z</time>
      </trkpt>
      <trkpt lat="42.896" lon="-0.04501">
        <ele>1319</ele>
        <time>2018-06-24T12:54:05Z</time>
      </trkpt>
      <trkpt lat="42.89625" lon="-0.04542">
        <ele>1316</ele>
        <time>2018-06-24T12:56:05Z</time>
      </trkpt>
      <trkpt lat="42.8964" lon="-0.04579">
        <ele>1315</ele>
        <time>2018-06-24T12:58:05Z</time>
      </trkpt>
      <trkpt lat="42.89655" lon="-0.04614">
        <ele>1311</ele>
        <time>2018-06-24T13:03:05Z</time>
      </trkpt>
      <trkpt lat="42.89659" lon="-0.04598">
        <ele>1309</ele>
        <time>2018-06-24T13:06:05Z</time>
      </trkpt>
      <trkpt lat="42.8964" lon="-0.04511">
        <ele>1305</ele>
        <time>2018-06-24T13:09:05Z</time>
      </trkpt>
      <trkpt lat="42.89638" lon="-0.04506">
        <ele>1306</ele>
        <time>2018-06-24T13:10:05Z</time>
      </trkpt>
      <trkpt lat="42.89622" lon="-0.04459">
        <ele>1304</ele>
        <time>2018-06-24T13:13:05Z</time>
      </trkpt>
      <trkpt lat="42.89596" lon="-0.04401">
        <ele>1304</ele>
        <time>2018-06-24T13:18:05Z</time>
      </trkpt>
      <trkpt lat="42.89608" lon="-0.04398">
        <ele>1300</ele>
        <time>2018-06-24T13:20:05Z</time>
      </trkpt>
      <trkpt lat="42.89609" lon="-0.044">
        <ele>1300</ele>
        <time>2018-06-24T13:21:05Z</time>
      </trkpt>
      <trkpt lat="42.89647" lon="-0.04471">
        <ele>1297</ele>
        <time>2018-06-24T13:24:05Z</time>
      </trkpt>
      <trkpt lat="42.89664" lon="-0.04489">
        <ele>1294</ele>
        <time>2018-06-24T13:25:05Z</time>
      </trkpt>
      <trkpt lat="42.89664" lon="-0.04489">
        <ele>1294</ele>
        <time>2018-06-24T13:26:05Z</time>
      </trkpt>
      <trkpt lat="42.89678" lon="-0.04506">
        <ele>1291</ele>
        <time>2018-06-24T13:27:05Z</time>
      </trkpt>
      <trkpt lat="42.89685" lon="-0.04518">
        <ele>1291</ele>
        <time>2018-06-24T13:28:05Z</time>
      </trkpt>
      <trkpt lat="42.89697" lon="-0.0457">
        <ele>1293</ele>
        <time>2018-06-24T13:31:05Z</time>
      </trkpt>
      <trkpt lat="42.89707" lon="-0.04569">
        <ele>1289</ele>
        <time>2018-06-24T13:33:05Z</time>
      </trkpt>
      <trkpt lat="42.89703" lon="-0.04528">
        <ele>1286</ele>
        <time>2018-06-24T13:36:05Z</time>
      </trkpt>
      <trkpt lat="42.89699" lon="-0.04516">
        <ele>1286</ele>
        <time>2018-06-24T13:37:05Z</time>
      </trkpt>
      <trkpt lat="42.89668" lon="-0.04457">
        <ele>1288</ele>
        <time>2018-06-24T13:40:05Z</time>
      </trkpt>
      <trkpt lat="42.89635" lon="-0.04312">
        <ele>1284</ele>
        <time>2018-06-24T13:44:05Z</time>
      </trkpt>
      <trkpt lat="42.89635" lon="-0.04289">
        <ele>1282</ele>
        <time>2018-06-24T13:46:05Z</time>
      </trkpt>
      <trkpt lat="42.89642" lon="-0.04269">
        <ele>1279</ele>
        <time>2018-06-24T13:48:05Z</time>
      </trkpt>
      <trkpt lat="42.89656" lon="-0.0425">
        <ele>1275</ele>
        <time>2018-06-24T13:50:05Z</time>
      </trkpt>
      <trkpt lat="42.89678" lon="-0.0423">
        <ele>1271</ele>
        <time>2018-06-24T13:51:05Z</time>
      </trkpt>
      <trkpt lat="42.89683" lon="-0.04222">
        <ele>1270</ele>
        <time>2018-06-24T13:53:05Z</time>
      </trkpt>
      <trkpt lat="42.89674" lon="-0.0417">
        <ele>1268</ele>
        <time>2018-06-24T13:59:05Z</time>
      </trkpt>
      <trkpt lat="42.89653" lon="-0.04151">
        <ele>1267</ele>
        <time>2018-06-24T14:01:05Z</time>
      </trkpt>
      <trkpt lat="42.89611" lon="-0.04123">
        <ele>1264</ele>
        <time>2018-06-24T14:03:05Z</time>
      </trkpt>
      <trkpt lat="42.89592" lon="-0.04106">
        <ele>1260</ele>
        <time>2018-06-24T14:04:05Z</time>
      </trkpt>
      <trkpt lat="42.89563" lon="-0.04077">
        <ele>1255</ele>
        <time>2018-06-24T14:05:05Z</time>
      </trkpt>
      <trkpt lat="42.89534" lon="-0.04045">
        <ele>1252</ele>
        <time>2018-06-24T14:06:05Z</time>
      </trkpt>
      <trkpt lat="42.89517" lon="-0.04025">
        <ele>1249</ele>
        <time>2018-06-24T14:07:05Z</time>
      </trkpt>
      <trkpt lat="42.89484" lon="-0.03988">
        <ele>1243</ele>
        <time>2018-06-24T14:09:05Z</time>
      </trkpt>
      <trkpt lat="42.89483" lon="-0.03988">
        <ele>1243</ele>
        <time>2018-06-24T14:10:05Z</time>
      </trkpt>
      <trkpt lat="42.89474" lon="-0.03978">
        <ele>1240</ele>
        <time>2018-06-24T14:11:05Z</time>
      </trkpt>
      <trkpt lat="42.89442" lon="-0.03951">
        <ele>1234</ele>
        <time>2018-06-24T14:13:05Z</time>
      </trkpt>
      <trkpt lat="42.89392" lon="-0.03923">
        <ele>1231</ele>
        <time>2018-06-24T14:16:05Z</time>
      </trkpt>
      <trkpt lat="42.89338" lon="-0.0389">
        <ele>1226</ele>
        <time>2018-06-24T14:18:05Z</time>
      </trkpt>
      <trkpt lat="42.89308" lon="-0.03876">
        <ele>1221</ele>
        <time>2018-06-24T14:21:05Z</time>
      </trkpt>
      <trkpt lat="42.89279" lon="-0.0387">
        <ele>1218</ele>
        <time>2018-06-24T14:24:05Z</time>
      </trkpt>
      <trkpt lat="42.89171" lon="-0.03867">
        <ele>1215</ele>
        <time>2018-06-24T14:29:05Z</time>
      </trkpt>
      <trkpt lat="42.89142" lon="-0.03858">
        <ele>1209</ele>
        <time>2018-06-24T14:30:05Z</time>
      </trkpt>
      <trkpt lat="42.89104" lon="-0.03847">
        <ele>1201</ele>
        <time>2018-06-24T14:31:05Z</time>
      </trkpt>
      <trkpt lat="42.89091" lon="-0.03848">
        <ele>1201</ele>
        <time>2018-06-24T14:32:05Z</time>
      </trkpt>
      <trkpt lat="42.89024" lon="-0.03858">
        <ele>1197</ele>
        <time>2018-06-24T14:35:05Z</time>
      </trkpt>
      <trkpt lat="42.89004" lon="-0.03856">
        <ele>1193</ele>
        <time>2018-06-24T14:36:05Z</time>
      </trkpt>
      <trkpt lat="42.88974" lon="-0.03857">
        <ele>1191</ele>
        <time>2018-06-24T14:38:05Z</time>
      </trkpt>
      <trkpt lat="42.88937" lon="-0.0386">
        <ele>1189</ele>
        <time>2018-06-24T14:42:05Z</time>
      </trkpt>
      <trkpt lat="42.88937" lon="-0.0386">
        <ele>1189</ele>
        <time>2018-06-24T14:43:05Z</time>
      </trkpt>
      <trkpt lat="42.88941" lon="-0.03849">
        <ele>1186</ele>
        <time>2018-06-24T14:45:05Z</time>
      </trkpt>
      <trkpt lat="42.8898" lon="-0.03829">
        <ele>1182</ele>
        <time>2018-06-24T14:47:05Z</time>
      </trkpt>
      <trkpt lat="42.89025" lon="-0.03809">
        <ele>1179</ele>
        <time>2018-06-24T14:50:05Z</time>
      </trkpt>
      <trkpt lat="42.89063" lon="-0.0379">
        <ele>1174</ele>
        <time>2018-06-24T14:51:05Z</time>
      </trkpt>
      <trkpt lat="42.89209" lon="-0.03692">
        <ele>1152</ele>
        <time>2018-06-24T14:52:05Z</time>
      </trkpt>
      <trkpt lat="42.89225" lon="-0.0368">
        <ele>1149</ele>
        <time>2018-06-24T14:54:05Z</time>
      </trkpt>
      <trkpt lat="42.89283" lon="-0.03681">
        <ele>1146</ele>
        <time>2018-06-24T14:59:05Z</time>
      </trkpt>
      <trkpt lat="42.89289" lon="-0.03675">
        <ele>1143</ele>
        <time>2018-06-24T15:01:05Z</time>
      </trkpt>
      <trkpt lat="42.89289" lon="-0.03674">
        <ele>1143</ele>
        <time>2018-06-24T15:02:05Z</time>
      </trkpt>
      <trkpt lat="42.89284" lon="-0.03663">
        <ele>1140</ele>
        <time>2018-06-24T15:04:05Z</time>
      </trkpt>
      <trkpt lat="42.89261" lon="-0.03649">
        <ele>1138</ele>
        <time>2018-06-24T15:06:05Z</time>
      </trkpt>
      <trkpt lat="42.89214" lon="-0.03635">
        <ele>1134</ele>
        <time>2018-06-24T15:08:05Z</time>
      </trkpt>
      <trkpt lat="42.89207" lon="-0.03633">
        <ele>1134</ele>
        <time>2018-06-24T15:09:05Z</time>
      </trkpt>
      <trkpt lat="42.89181" lon="-0.03623">
        <ele>1131</ele>
        <time>2018-06-24T15:10:05Z</time>
      </trkpt>
      <trkpt lat="42.89144" lon="-0.03616">
        <ele>1126</ele>
        <time>2018-06-24T15:12:05Z</time>
      </trkpt>
      <trkpt lat="42.89139" lon="-0.03616">
        <ele>1126</ele>
        <time>2018-06-24T15:13:05Z</time>
      </trkpt>
      <trkpt lat="42.89112" lon="-0.03616">
        <ele>1123</ele>
        <time>2018-06-24T15:14:05Z</time>
      </trkpt>
      <trkpt lat="42.89061" lon="-0.03618">
        <ele>1118</ele>
        <time>2018-06-24T15:16:05Z</time>
      </trkpt>
      <trkpt lat="42.89044" lon="-0.03616">
        <ele>1115</ele>
        <time>2018-06-24T15:17:05Z</time>
      </trkpt>
      <trkpt lat="42.89019" lon="-0.03612">
        <ele>1112</ele>
        <time>2018-06-24T15:18:05Z</time>
      </trkpt>
      <trkpt lat="42.88974" lon="-0.0361">
        <ele>1105</ele>
        <time>2018-06-24T15:20:05Z</time>
      </trkpt>
      <trkpt lat="42.88924" lon="-0.0363">
        <ele>1101</ele>
        <time>2018-06-24T15:22:05Z</time>
      </trkpt>
      <trkpt lat="42.88864" lon="-0.03652">
        <ele>1100</ele>
        <time>2018-06-24T15:24:05Z</time>
      </trkpt>
      <trkpt lat="42.88833" lon="-0.03666">
        <ele>1102</ele>
        <time>2018-06-24T15:27:05Z</time>
      </trkpt>
      <trkpt lat="42.88765" lon="-0.03618">
        <ele>1096</ele>
        <time>2018-06-24T15:32:05Z</time>
      </trkpt>
      <trkpt lat="42.88749" lon="-0.03602">
        <ele>1093</ele>
        <time>2018-06-24T15:33:05Z</time>
      </trkpt>
      <trkpt lat="42.88731" lon="-0.03586">
        <ele>1093</ele>
        <time>2018-06-24T15:34:05Z</time>
      </trkpt>
      <trkpt lat="42.88688" lon="-0.03531">
        <ele>1087</ele>
        <time>2018-06-24T15:37:05Z</time>
      </trkpt>
      <trkpt lat="42.88664" lon="-0.03484">
        <ele>1080</ele>
        <time>2018-06-24T15:39:05Z</time>
      </trkpt>
      <trkpt lat="42.88635" lon="-0.03418">
        <ele>1073</ele>
        <time>2018-06-24T15:41:05Z</time>
      </trkpt>
      <trkpt lat="42.88619" lon="-0.03387">
        <ele>1068</ele>
        <time>2018-06-24T15:42:05Z</time>
      </trkpt>
      <trkpt lat="42.88605" lon="-0.03361">
        <ele>1063</ele>
        <time>2018-06-24T15:43:05Z</time>
      </trkpt>
      <trkpt lat="42.88592" lon="-0.03341">
        <ele>1060</ele>
        <time>2018-06-24T15:44:05Z</time>
      </trkpt>
      <trkpt lat="42.88579" lon="-0.0333">
        <ele>1060</ele>
        <time>2018-06-24T15:45:05Z</time>
      </trkpt>
      <trkpt lat="42.88538" lon="-0.03296">
        <ele>1058</ele>
        <time>2018-06-24T15:48:05Z</time>
      </trkpt>
      <trkpt lat="42.88531" lon="-0.03283">
        <ele>1055</ele>
        <time>2018-06-24T15:51:05Z</time>
      </trkpt>
      <trkpt lat="42.88532" lon="-0.03271">
        <ele>1051</ele>
        <time>2018-06-24T15:54:05Z</time>
      </trkpt>
      <trkpt lat="42.88538" lon="-0.03265">
        <ele>1048</ele>
        <time>2018-06-24T15:57:05Z</time>
      </trkpt>
      <trkpt lat="42.88544" lon="-0.03266">
        <ele>1047</ele>
        <time>2018-06-24T15:59:05Z</time>
      </trkpt>
      <trkpt lat="42.88664" lon="-0.03349">
        <ele>1040</ele>
        <time>2018-06-24T16:04:05Z</time>
      </trkpt>
      <trkpt lat="42.88688" lon="-0.03358">
        <ele>1036</ele>
        <time>2018-06-24T16:05:05Z</time>
      </trkpt>
      <trkpt lat="42.88705" lon="-0.03361">
        <ele>1032</ele>
        <time>2018-06-24T16:06:05Z</time>
      </trkpt>
      <trkpt lat="42.88733" lon="-0.03377">
        <ele>1028</ele>
        <time>2018-06-24T16:08:05Z</time>
      </trkpt>
      <trkpt lat="42.88745" lon="-0.03389">
        <ele>1028</ele>
        <time>2018-06-24T16:09:05Z</time>
      </trkpt>
      <trkpt lat="42.88769" lon="-0.03411">
        <ele>1030</ele>
        <time>2018-06-24T16:13:05Z</time>
      </trkpt>
      <trkpt lat="42.88776" lon="-0.03402">
        <ele>1027</ele>
        <time>2018-06-24T16:17:05Z</time>
      </trkpt>
      <trkpt lat="42.88776" lon="-0.03399">
        <ele>1027</ele>
        <time>2018-06-24T16:18:05Z</time>
      </trkpt>
      <trkpt lat="42.88754" lon="-0.0338">
        <ele>1024</ele>
        <time>2018-06-24T16:23:05Z</time>
      </trkpt>
      <trkpt lat="42.88717" lon="-0.03318">
        <ele>1017</ele>
        <time>2018-06-24T16:26:05Z</time>
      </trkpt>
      <trkpt lat="42.88707" lon="-0.03301">
        <ele>1014</ele>
        <time>2018-06-24T16:27:05Z</time>
      </trkpt>
      <trkpt lat="42.88648" lon="-0.03267">
        <ele>1018</ele>
        <time>2018-06-24T16:30:05Z</time>
      </trkpt>
      <trkpt lat="42.88634" lon="-0.03262">
        <ele>1021</ele>
        <time>2018-06-24T16:31:05Z</time>
      </trkpt>
      <trkpt lat="42.88622" lon="-0.03254">
        <ele>1022</ele>
        <time>2018-06-24T16:33:05Z</time>
      </trkpt>
      <trkpt lat="42.8862" lon="-0.03244">
        <ele>1019</ele>
        <time>2018-06-24T16:36:05Z</time>
      </trkpt>
      <trkpt lat="42.88623" lon="-0.03238">
        <ele>1016</ele>
        <time>2018-06-24T16:38:05Z</time>
      </trkpt>
      <trkpt lat="42.88629" lon="-0.03235">
        <ele>1013</ele>
        <time>2018-06-24T16:40:05Z</time>
      </trkpt>
      <trkpt lat="42.8865" lon="-0.03245">
        <ele>1010</ele>
        <time>2018-06-24T16:43:05Z</time>
      </trkpt>
      <trkpt lat="42.88655" lon="-0.03246">
        <ele>1009</ele>
        <time>2018-06-24T16:45:05Z</time>
      </trkpt>
      <trkpt lat="42.88669" lon="-0.03246">
        <ele>1005</ele>
        <time>2018-06-24T16:47:05Z</time>
      </trkpt>
      <trkpt lat="42.88691" lon="-0.0324">
        <ele>999</ele>
        <time>2018-06-24T16:48:05Z</time>
      </trkpt>
      <trkpt lat="42.88704" lon="-0.03239">
        <ele>996</ele>
        <time>2018-06-24T16:50:05Z</time>
      </trkpt>
      <trkpt lat="42.88724" lon="-0.03246">
        <ele>994</ele>
        <time>2018-06-24T16:52:05Z</time>
      </trkpt>
      <trkpt lat="42.88772" lon="-0.03274">
        <ele>996</ele>
        <time>2018-06-24T16:55:05Z</time>
      </trkpt>
      <trkpt lat="42.88787" lon="-0.03268">
        <ele>993</ele>
        <time>2018-06-24T16:58:05Z</time>
      </trkpt>
      <trkpt lat="42.88793" lon="-0.03257">
        <ele>990</ele>
        <time>2018-06-24T16:59:05Z</time>
      </trkpt>
      <trkpt lat="42.88803" lon="-0.03244">
        <ele>987</ele>
        <time>2018-06-24T17:01:05Z</time>
      </trkpt>
      <trkpt lat="42.88826" lon="-0.03233">
        <ele>984</ele>
        <time>2018-06-24T17:03:05Z</time>
      </trkpt>
      <trkpt lat="42.8883" lon="-0.0323">
        <ele>984</ele>
        <time>2018-06-24T17:04:05Z</time>
      </trkpt>
      <trkpt lat="42.88831" lon="-0.03195">
        <ele>981</ele>
        <time>2018-06-24T17:09:05Z</time>
      </trkpt>
      <trkpt lat="42.88831" lon="-0.03195">
        <ele>981</ele>
        <time>2018-06-24T17:10:05Z</time>
      </trkpt>
      <trkpt lat="42.88777" lon="-0.03213">
        <ele>981</ele>
        <time>2018-06-24T17:16:05Z</time>
      </trkpt>
      <trkpt lat="42.88755" lon="-0.03202">
        <ele>978</ele>
        <time>2018-06-24T17:20:05Z</time>
      </trkpt>
      <trkpt lat="42.8874" lon="-0.03182">
        <ele>973</ele>
        <time>2018-06-24T17:22:05Z</time>
      </trkpt>
      <trkpt lat="42.88731" lon="-0.03166">
        <ele>970</ele>
        <time>2018-06-24T17:23:05Z</time>
      </trkpt>
      <trkpt lat="42.88695" lon="-0.03132">
        <ele>966</ele>
        <time>2018-06-24T17:25:05Z</time>
      </trkpt>
      <trkpt lat="42.88669" lon="-0.03111">
        <ele>963</ele>
        <time>2018-06-24T17:26:05Z</time>
      </trkpt>
      <trkpt lat="42.88605" lon="-0.0308">
        <ele>967</ele>
        <time>2018-06-24T17:30:05Z</time>
      </trkpt>
      <trkpt lat="42.88581" lon="-0.03076">
        <ele>970</ele>
        <time>2018-06-24T17:32:05Z</time>
      </trkpt>
      <trkpt lat="42.88578" lon="-0.03074">
        <ele>970</ele>
        <time>2018-06-24T17:33:05Z</time>
      </trkpt>
      <trkpt lat="42.88569" lon="-0.03055">
        <ele>966</ele>
        <time>2018-06-24T17:37:05Z</time>
      </trkpt>
      <trkpt lat="42.88569" lon="-0.03055">
        <ele>966</ele>
        <time>2018-06-24T17:38:05Z</time>
      </trkpt>
      <trkpt lat="42.88573" lon="-0.03049">
        <ele>963</ele>
        <time>2018-06-24T17:41:05Z</time>
      </trkpt>
      <trkpt lat="42.88577" lon="-0.03049">
        <ele>962</ele>
        <time>2018-06-24T17:43:05Z</time>
      </trkpt>
      <trkpt lat="42.88615" lon="-0.03061">
        <ele>958</ele>
        <time>2018-06-24T17:49:05Z</time>
      </trkpt>
      <trkpt lat="42.88635" lon="-0.03059">
        <ele>954</ele>
        <time>2018-06-24T17:50:05Z</time>
      </trkpt>
      <trkpt lat="42.88672" lon="-0.03064">
        <ele>950</ele>
        <time>2018-06-24T17:52:05Z</time>
      </trkpt>
      <trkpt lat="42.88691" lon="-0.03052">
        <ele>945</ele>
        <time>2018-06-24T17:55:05Z</time>
      </trkpt>
      <trkpt lat="42.8869" lon="-0.03038">
        <ele>941</ele>
        <time>2018-06-24T17:57:05Z</time>
      </trkpt>
      <trkpt lat="42.88645" lon="-0.03036">
        <ele>944</ele>
        <time>2018-06-24T18:01:05Z</time>
      </trkpt>
      <trkpt lat="42.88625" lon="-0.03034">
        <ele>947</ele>
        <time>2018-06-24T18:03:05Z</time>
      </trkpt>
      <trkpt lat="42.88612" lon="-0.03029">
        <ele>948</ele>
        <time>2018-06-24T18:05:05Z</time>
      </trkpt>
      <trkpt lat="42.88587" lon="-0.03011">
        <ele>945</ele>
        <time>2018-06-24T18:08:05Z</time>
      </trkpt>
      <trkpt lat="42.88578" lon="-0.03004">
        <ele>945</ele>
        <time>2018-06-24T18:09:05Z</time>
      </trkpt>
      <trkpt lat="42.88551" lon="-0.02972">
        <ele>940</ele>
        <time>2018-06-24T18:11:05Z</time>
      </trkpt>
      <trkpt lat="42.88538" lon="-0.02951">
        <ele>936</ele>
        <time>2018-06-24T18:12:05Z</time>
      </trkpt>
      <trkpt lat="42.88529" lon="-0.02937">
        <ele>933</ele>
        <time>2018-06-24T18:13:05Z</time>
      </trkpt>
      <trkpt lat="42.88523" lon="-0.02926">
        <ele>930</ele>
        <time>2018-06-24T18:14:05Z</time>
      </trkpt>
      <trkpt lat="42.88507" lon="-0.02907">
        <ele>927</ele>
        <time>2018-06-24T18:15:05Z</time>
      </trkpt>
      <trkpt lat="42.88466" lon="-0.02866">
        <ele>924</ele>
        <time>2018-06-24T18:17:05Z</time>
      </trkpt>
      <trkpt lat="42.88449" lon="-0.02846">
        <ele>921</ele>
        <time>2018-06-24T18:19:05Z</time>
      </trkpt>
      <trkpt lat="42.8844" lon="-0.02833">
        <ele>918</ele>
        <time>2018-06-24T18:20:05Z</time>
      </trkpt>
      <trkpt lat="42.8842" lon="-0.02796">
        <ele>912</ele>
        <time>2018-06-24T18:22:05Z</time>
      </trkpt>
      <trkpt lat="42.88407" lon="-0.02774">
        <ele>909</ele>
        <time>2018-06-24T18:23:05Z</time>
      </trkpt>
      <trkpt lat="42.88377" lon="-0.02723">
        <ele>906</ele>
        <time>2018-06-24T18:29:05Z</time>
      </trkpt>
      <trkpt lat="42.88378" lon="-0.02705">
        <ele>902</ele>
        <time>2018-06-24T18:31:05Z</time>
      </trkpt>
      <trkpt lat="42.88374" lon="-0.02684">
        <ele>899</ele>
        <time>2018-06-24T18:33:05Z</time>
      </trkpt>
      <trkpt lat="42.88324" lon="-0.02612">
        <ele>896</ele>
        <time>2018-06-24T18:36:05Z</time>
      </trkpt>
      <trkpt lat="42.88259" lon="-0.02524">
        <ele>890</ele>
        <time>2018-06-24T18:38:05Z</time>
      </trkpt>
      <trkpt lat="42.88249" lon="-0.02508">
        <ele>887</ele>
        <time>2018-06-24T18:39:05Z</time>
      </trkpt>
      <trkpt lat="42.88237" lon="-0.0248">
        <ele>882</ele>
        <time>2018-06-24T18:41:05Z</time>
      </trkpt>
      <trkpt lat="42.8823" lon="-0.02464">
        <ele>878</ele>
        <time>2018-06-24T18:42:05Z</time>
      </trkpt>
      <trkpt lat="42.88205" lon="-0.02437">
        <ele>877</ele>
        <time>2018-06-24T18:44:05Z</time>
      </trkpt>
      <trkpt lat="42.88176" lon="-0.02406">
        <ele>875</ele>
        <time>2018-06-24T18:46:05Z</time>
      </trkpt>
      <trkpt lat="42.88139" lon="-0.02391">
        <ele>875</ele>
        <time>2018-06-24T18:51:05Z</time>
      </trkpt>
      <trkpt lat="42.88138" lon="-0.02383">
        <ele>872</ele>
        <time>2018-06-24T18:54:05Z</time>
      </trkpt>
      <trkpt lat="42.88142" lon="-0.02377">
        <ele>869</ele>
        <time>2018-06-24T18:57:05Z</time>
      </trkpt>
      <trkpt lat="42.88144" lon="-0.02376">
        <ele>869</ele>
        <time>2018-06-24T18:58:05Z</time>
      </trkpt>
      <trkpt lat="42.88179" lon="-0.02381">
        <ele>866</ele>
        <time>2018-06-24T19:01:05Z</time>
      </trkpt>
      <trkpt lat="42.88187" lon="-0.02385">
        <ele>865</ele>
        <time>2018-06-24T19:03:05Z</time>
      </trkpt>
      <trkpt lat="42.882" lon="-0.02403">
        <ele>867</ele>
        <time>2018-06-24T19:06:05Z</time>
      </trkpt>
      <trkpt lat="42.8821" lon="-0.02402">
        <ele>864</ele>
        <time>2018-06-24T19:09:05Z</time>
      </trkpt>
      <trkpt lat="42.8821" lon="-0.02402">
        <ele>864</ele>
        <time>2018-06-24T19:10:05Z</time>
      </trkpt>
      <trkpt lat="42.88207" lon="-0.02387">
        <ele>860</ele>
        <time>2018-06-24T19:12:05Z</time>
      </trkpt>
      <trkpt lat="42.88195" lon="-0.02359">
        <ele>855</ele>
        <time>2018-06-24T19:14:05Z</time>
      </trkpt>
      <trkpt lat="42.88139" lon="-0.02329">
        <ele>851</ele>
        <time>2018-06-24T19:17:05Z</time>
      </trkpt>
      <trkpt lat="42.88103" lon="-0.02312">
        <ele>845</ele>
        <time>2018-06-24T19:18:05Z</time>
      </trkpt>
      <trkpt lat="42.88069" lon="-0.02306">
        <ele>846</ele>
        <time>2018-06-24T19:22:05Z</time>
      </trkpt>
      <trkpt lat="42.88065" lon="-0.02304">
        <ele>846</ele>
        <time>2018-06-24T19:23:05Z</time>
      </trkpt>
      <trkpt lat="42.88059" lon="-0.02291">
        <ele>843</ele>
        <time>2018-06-24T19:28:05Z</time>
      </trkpt>
      <trkpt lat="42.8806" lon="-0.02289">
        <ele>843</ele>
        <time>2018-06-24T19:29:05Z</time>
      </trkpt>
      <trkpt lat="42.88065" lon="-0.02284">
        <ele>840</ele>
        <time>2018-06-24T19:31:05Z</time>
      </trkpt>
      <trkpt lat="42.88093" lon="-0.0228">
        <ele>836</ele>
        <time>2018-06-24T19:34:05Z</time>
      </trkpt>
      <trkpt lat="42.88102" lon="-0.02279">
        <ele>836</ele>
        <time>2018-06-24T19:35:05Z</time>
      </trkpt>
      <trkpt lat="42.88192" lon="-0.02278">
        <ele>836</ele>
        <time>2018-06-24T19:38:05Z</time>
      </trkpt>
      <trkpt lat="42.88199" lon="-0.02277">
        <ele>835</ele>
        <time>2018-06-24T19:40:05Z</time>
      </trkpt>
      <trkpt lat="42.88209" lon="-0.02269">
        <ele>832</ele>
        <time>2018-06-24T19:43:05Z</time>
      </trkpt>
      <trkpt lat="42.88209" lon="-0.02269">
        <ele>832</ele>
        <time>2018-06-24T19:44:05Z</time>
      </trkpt>
      <trkpt lat="42.88212" lon="-0.02281">
        <ele>834</ele>
        <time>2018-06-24T19:47:05Z</time>
      </trkpt>
      <trkpt lat="42.88234" lon="-0.02312">
        <ele>837</ele>
        <time>2018-06-24T19:50:05Z</time>
      </trkpt>
      <trkpt lat="42.88263" lon="-0.02349">
        <ele>840</ele>
        <time>2018-06-24T19:53:05Z</time>
      </trkpt>
      <trkpt lat="42.88288" lon="-0.02381">
        <ele>844</ele>
        <time>2018-06-24T19:54:05Z</time>
      </trkpt>
      <trkpt lat="42.88312" lon="-0.02407">
        <ele>847</ele>
        <time>2018-06-24T19:55:05Z</time>
      </trkpt>
      <trkpt lat="42.88319" lon="-0.02413">
        <ele>848</ele>
        <time>2018-06-24T19:57:05Z</time>
      </trkpt>
      <trkpt lat="42.88362" lon="-0.02431">
        <ele>845</ele>
        <time>2018-06-24T20:01:05Z</time>
      </trkpt>
      <trkpt lat="42.88383" lon="-0.02418">
        <ele>841</ele>
        <time>2018-06-24T20:03:05Z</time>
      </trkpt>
      <trkpt lat="42.88397" lon="-0.024">
        <ele>836</ele>
        <time>2018-06-24T20:05:05Z</time>
      </trkpt>
      <trkpt lat="42.88399" lon="-0.02399">
        <ele>836</ele>
        <time>2018-06-24T20:06:05Z</time>
      </trkpt>
      <trkpt lat="42.88423" lon="-0.02432">
        <ele>837</ele>
        <time>2018-06-24T20:18:05Z</time>
      </trkpt>
      <trkpt lat="42.88433" lon="-0.02456">
        <ele>837</ele>
        <time>2018-06-24T20:25:05Z</time>
      </trkpt>
      <trkpt lat="42.88445" lon="-0.0246">
        <ele>835</ele>
        <time>2018-06-24T20:28:05Z</time>
      </trkpt>
      <trkpt lat="42.88468" lon="-0.02465">
        <ele>833</ele>
        <time>2018-06-24T20:30:05Z</time>
      </trkpt>
      <trkpt lat="42.88479" lon="-0.02456">
        <ele>830</ele>
        <time>2018-06-24T20:32:05Z</time>
      </trkpt>
      <trkpt lat="42.88491" lon="-0.02444">
        <ele>827</ele>
        <time>2018-06-24T20:34:05Z</time>
      </trkpt>
      <trkpt lat="42.88499" lon="-0.0243">
        <ele>824</ele>
        <time>2018-06-24T20:37:05Z</time>
      </trkpt>
      <trkpt lat="42.88502" lon="-0.02409">
        <ele>821</ele>
        <time>2018-06-24T20:40:05Z</time>
      </trkpt>
      <trkpt lat="42.88503" lon="-0.02403">
        <ele>821</ele>
        <time>2018-06-24T20:41:05Z</time>
      </trkpt>
      <trkpt lat="42.88511" lon="-0.0238">
        <ele>818</ele>
        <time>2018-06-24T20:44:05Z</time>
      </trkpt>
      <trkpt lat="42.88521" lon="-0.02361">
        <ele>815</ele>
        <time>2018-06-24T20:46:05Z</time>
      </trkpt>
      <trkpt lat="42.88523" lon="-0.02359">
        <ele>815</ele>
        <time>2018-06-24T20:47:05Z</time>
      </trkpt>
      <trkpt lat="42.88534" lon="-0.02355">
        <ele>813</ele>
        <time>2018-06-24T20:50:05Z</time>
      </trkpt>
      <trkpt lat="42.8855" lon="-0.02351">
        <ele>810</ele>
        <time>2018-06-24T20:53:05Z</time>
      </trkpt>
      <trkpt lat="42.88552" lon="-0.02349">
        <ele>810</ele>
        <time>2018-06-24T20:54:05Z</time>
      </trkpt>
      <trkpt lat="42.88568" lon="-0.0232">
        <ele>805</ele>
        <time>2018-06-24T20:57:05Z</time>
      </trkpt>
      <trkpt lat="42.88578" lon="-0.02313">
        <ele>802</ele>
        <time>2018-06-24T21:00:05Z</time>
      </trkpt>
      <trkpt lat="42.88598" lon="-0.02307">
        <ele>801</ele>
        <time>2018-06-24T21:02:05Z</time>
      </trkpt>
      <trkpt lat="42.88623" lon="-0.02296">
        <ele>798</ele>
        <time>2018-06-24T21:04:05Z</time>
      </trkpt>
      <trkpt lat="42.88628" lon="-0.02293">
        <ele>798</ele>
        <time>2018-06-24T21:05:05Z</time>
      </trkpt>
      <trkpt lat="42.8864" lon="-0.02279">
        <ele>795</ele>
        <time>2018-06-24T21:08:05Z</time>
      </trkpt>
      <trkpt lat="42.8864" lon="-0.02279">
        <ele>795</ele>
        <time>2018-06-24T21:09:05Z</time>
      </trkpt>
      <trkpt lat="42.88649" lon="-0.02271">
        <ele>793</ele>
        <time>2018-06-24T21:12:05Z</time>
      </trkpt>
      <trkpt lat="42.88679" lon="-0.0228">
        <ele>790</ele>
        <time>2018-06-24T21:17:05Z</time>
      </trkpt>
      <trkpt lat="42.887" lon="-0.02292">
        <ele>788</ele>
        <time>2018-06-24T21:20:05Z</time>
      </trkpt>
      <trkpt lat="42.88736" lon="-0.02326">
        <ele>786</ele>
        <time>2018-06-24T21:22:05Z</time>
      </trkpt>
      <trkpt lat="42.8876" lon="-0.02342">
        <ele>783</ele>
        <time>2018-06-24T21:25:05Z</time>
      </trkpt>
      <trkpt lat="42.88774" lon="-0.02349">
        <ele>780</ele>
        <time>2018-06-24T21:27:05Z</time>
      </trkpt>
      <trkpt lat="42.88779" lon="-0.02353">
        <ele>780</ele>
        <time>2018-06-24T21:28:05Z</time>
      </trkpt>
      <trkpt lat="42.88822" lon="-0.02406">
        <ele>777</ele>
        <time>2018-06-24T21:31:05Z</time>
      </trkpt>
      <trkpt lat="42.8887" lon="-0.02439">
        <ele>771</ele>
        <time>2018-06-24T21:36:05Z</time>
      </trkpt>
      <trkpt lat="42.88877" lon="-0.02443">
        <ele>770</ele>
        <time>2018-06-24T21:38:05Z</time>
      </trkpt>
      <trkpt lat="42.88931" lon="-0.02493">
        <ele>762</ele>
        <time>2018-06-24T21:44:05Z</time>
      </trkpt>
      <trkpt lat="42.88984" lon="-0.02541">
        <ele>758</ele>
        <time>2018-06-24T21:46:05Z</time>
      </trkpt>
      <trkpt lat="42.89024" lon="-0.02574">
        <ele>753</ele>
        <time>2018-06-24T21:48:05Z</time>
      </trkpt>
      <trkpt lat="42.89047" lon="-0.02589">
        <ele>750</ele>
        <time>2018-06-24T21:51:05Z</time>
      </trkpt>
      <trkpt lat="42.89101" lon="-0.02633">
        <ele>747</ele>
        <time>2018-06-24T21:57:05Z</time>
      </trkpt>
      <trkpt lat="42.89142" lon="-0.0267">
        <ele>745</ele>
        <time>2018-06-24T22:00:05Z</time>
      </trkpt>
      <trkpt lat="42.89179" lon="-0.02696">
        <ele>738</ele>
        <time>2018-06-24T22:01:05Z</time>
      </trkpt>
      <trkpt lat="42.89189" lon="-0.02708">
        <ele>738</ele>
        <time>2018-06-24T22:02:05Z</time>
      </trkpt>
      <trkpt lat="42.892" lon="-0.02726">
        <ele>741</ele>
        <time>2018-06-24T22:04:05Z</time>
      </trkpt>
      <trkpt lat="42.89293" lon="-0.0281">
        <ele>745</ele>
        <time>2018-06-24T22:10:05Z</time>
      </trkpt>
      <trkpt lat="42.89314" lon="-0.02807">
        <ele>738</ele>
        <time>2018-06-24T22:14:05Z</time>
      </trkpt>
      <trkpt lat="42.89316" lon="-0.02793">
        <ele>732</ele>
        <time>2018-06-24T22:15:05Z</time>
      </trkpt>
      <trkpt lat="42.89318" lon="-0.02757">
        <ele>719</ele>
        <time>2018-06-24T22:16:05Z</time>
      </trkpt>
      <trkpt lat="42.89325" lon="-0.0275">
        <ele>715</ele>
        <time>2018-06-24T22:18:05Z</time>
      </trkpt>
      <trkpt lat="42.89338" lon="-0.02758">
        <ele>714</ele>
        <time>2018-06-24T22:20:05Z</time>
      </trkpt>
      <trkpt lat="42.89372" lon="-0.02789">
        <ele>716</ele>
        <time>2018-06-24T22:23:05Z</time>
      </trkpt>
      <trkpt lat="42.89399" lon="-0.02806">
        <ele>715</ele>
        <time>2018-06-24T22:28:05Z</time>
      </trkpt>
      <trkpt lat="42.89451" lon="-0.02842">
        <ele>708</ele>
        <time>2018-06-24T22:31:05Z</time>
      </trkpt>
      <trkpt lat="42.89494" lon="-0.02869">
        <ele>700</ele>
        <time>2018-06-24T22:32:05Z</time>
      </trkpt>
      <trkpt lat="42.89526" lon="-0.02888">
        <ele>696</ele>
        <time>2018-06-24T22:34:05Z</time>
      </trkpt>
      <trkpt lat="42.89531" lon="-0.02892">
        <ele>696</ele>
        <time>2018-06-24T22:35:05Z</time>
      </trkpt>
      <trkpt lat="42.89548" lon="-0.02917">
        <ele>699</ele>
        <time>2018-06-24T22:36:05Z</time>
      </trkpt>
      <trkpt lat="42.89585" lon="-0.02941">
        <ele>694</ele>
        <time>2018-06-24T22:39:05Z</time>
      </trkpt>
      <trkpt lat="42.89606" lon="-0.0295">
        <ele>690</ele>
        <time>2018-06-24T22:40:05Z</time>
      </trkpt>
      <trkpt lat="42.89625" lon="-0.02966">
        <ele>690</ele>
        <time>2018-06-24T22:41:05Z</time>
      </trkpt>
      <trkpt lat="42.89659" lon="-0.02992">
        <ele>686</ele>
        <time>2018-06-24T22:43:05Z</time>
      </trkpt>
      <trkpt lat="42.89703" lon="-0.03005">
        <ele>685</ele>
        <time>2018-06-24T22:47:05Z</time>
      </trkpt>
      <trkpt lat="42.89709" lon="-0.02998">
        <ele>681</ele>
        <time>2018-06-24T22:49:05Z</time>
      </trkpt>
      <trkpt lat="42.89712" lon="-0.02991">
        <ele>678</ele>
        <time>2018-06-24T22:50:05Z</time>
      </trkpt>
      <trkpt lat="42.89715" lon="-0.02983">
        <ele>675</ele>
        <time>2018-06-24T22:51:05Z</time>
      </trkpt>
      <trkpt lat="42.8972" lon="-0.02977">
        <ele>672</ele>
        <time>2018-06-24T22:52:05Z</time>
      </trkpt>
      <trkpt lat="42.89733" lon="-0.02971">
        <ele>669</ele>
        <time>2018-06-24T22:54:05Z</time>
      </trkpt>
      <trkpt lat="42.89751" lon="-0.02967">
        <ele>666</ele>
        <time>2018-06-24T22:55:05Z</time>
      </trkpt>
      <trkpt lat="42.89762" lon="-0.02959">
        <ele>662</ele>
        <time>2018-06-24T22:56:05Z</time>
      </trkpt>
      <trkpt lat="42.89773" lon="-0.02947">
        <ele>657</ele>
        <time>2018-06-24T22:57:05Z</time>
      </trkpt>
      <trkpt lat="42.89783" lon="-0.02944">
        <ele>655</ele>
        <time>2018-06-24T22:59:05Z</time>
      </trkpt>
      <trkpt lat="42.89793" lon="-0.02938">
        <ele>652</ele>
        <time>2018-06-24T23:03:05Z</time>
      </trkpt>
      <trkpt lat="42.89788" lon="-0.02924">
        <ele>646</ele>
        <time>2018-06-24T23:06:05Z</time>
      </trkpt>
      <trkpt lat="42.89764" lon="-0.02902">
        <ele>643</ele>
        <time>2018-06-24T23:09:05Z</time>
      </trkpt>
      <trkpt lat="42.89762" lon="-0.02899">
        <ele>643</ele>
        <time>2018-06-24T23:10:05Z</time>
      </trkpt>
      <trkpt lat="42.89764" lon="-0.0289">
        <ele>641</ele>
        <time>2018-06-24T23:14:05Z</time>
      </trkpt>
      <trkpt lat="42.89827" lon="-0.02915">
        <ele>639</ele>
        <time>2018-06-24T23:21:05Z</time>
      </trkpt>
      <trkpt lat="42.89859" lon="-0.02891">
        <ele>635</ele>
        <time>2018-06-24T23:25:05Z</time>
      </trkpt>
      <trkpt lat="42.89863" lon="-0.02887">
        <ele>635</ele>
        <time>2018-06-24T23:26:05Z</time>
      </trkpt>
      <trkpt lat="42.89873" lon="-0.02873">
        <ele>633</ele>
        <time>2018-06-24T23:29:05Z</time>
      </trkpt>
      <trkpt lat="42.89873" lon="-0.02855">
        <ele>629</ele>
        <time>2018-06-24T23:32:05Z</time>
      </trkpt>
      <trkpt lat="42.89869" lon="-0.02845">
        <ele>628</ele>
        <time>2018-06-24T23:34:05Z</time>
      </trkpt>
      <trkpt lat="42.89855" lon="-0.02836">
        <ele>626</ele>
        <time>2018-06-24T23:38:05Z</time>
      </trkpt>
      <trkpt lat="42.89895" lon="-0.02838">
        <ele>626</ele>
        <time>2018-06-24T23:45:05Z</time>
      </trkpt>
      <trkpt lat="42.89916" lon="-0.02854">
        <ele>629</ele>
        <time>2018-06-24T23:46:05Z</time>
      </trkpt>
      <trkpt lat="42.89953" lon="-0.02887">
        <ele>631</ele>
        <time>2018-06-24T23:47:05Z</time>
      </trkpt>
      <trkpt lat="42.90032" lon="-0.02942">
        <ele>628</ele>
        <time>2018-06-24T23:48:05Z</time>
      </trkpt>
      <trkpt lat="42.90096" lon="-0.02991">
        <ele>621</ele>
        <time>2018-06-24T23:49:05Z</time>
      </trkpt>
      <trkpt lat="42.90103" lon="-0.02996">
        <ele>621</ele>
        <time>2018-06-24T23:50:05Z</time>
      </trkpt>
      <trkpt lat="42.90152" lon="-0.03034">
        <ele>624</ele>
        <time>2018-06-24T23:51:05Z</time>
      </trkpt>
      <trkpt lat="42.90172" lon="-0.0305">
        <ele>624</ele>
        <time>2018-06-24T23:52:05Z</time>
      </trkpt>
      <trkpt lat="42.90252" lon="-0.03108">
        <ele>626</ele>
        <time>2018-06-24T23:55:05Z</time>
      </trkpt>
      <trkpt lat="42.90315" lon="-0.03142">
        <ele>629</ele>
        <time>2018-06-24T23:57:05Z</time>
      </trkpt>
      <trkpt lat="42.90331" lon="-0.03148">
        <ele>629</ele>
        <time>2018-06-24T23:58:05Z</time>
      </trkpt>
      <trkpt lat="42.90371" lon="-0.03138">
        <ele>626</ele>
        <time>2018-06-25T00:01:05Z</time>
      </trkpt>
      <trkpt lat="42.90382" lon="-0.03135">
        <ele>626</ele>
        <time>2018-06-25T00:02:05Z</time>
      </trkpt>
      <trkpt lat="42.90438" lon="-0.03172">
        <ele>629</ele>
        <time>2018-06-25T00:07:05Z</time>
      </trkpt>
      <trkpt lat="42.90493" lon="-0.03274">
        <ele>625</ele>
        <time>2018-06-25T00:10:05Z</time>
      </trkpt>
      <trkpt lat="42.9051" lon="-0.03304">
        <ele>627</ele>
        <time>2018-06-25T00:11:05Z</time>
      </trkpt>
      <trkpt lat="42.90568" lon="-0.034">
        <ele>617</ele>
        <time>2018-06-25T00:14:05Z</time>
      </trkpt>
      <trkpt lat="42.90585" lon="-0.03448">
        <ele>610</ele>
        <time>2018-06-25T00:15:05Z</time>
      </trkpt>
      <trkpt lat="42.90586" lon="-0.03451">
        <ele>610</ele>
        <time>2018-06-25T00:16:05Z</time>
      </trkpt>
      <trkpt lat="42.90615" lon="-0.03463">
        <ele>613</ele>
        <time>2018-06-25T00:24:05Z</time>
      </trkpt>
      <trkpt lat="42.90636" lon="-0.03454">
        <ele>618</ele>
        <time>2018-06-25T00:25:05Z</time>
      </trkpt>
      <trkpt lat="42.90637" lon="-0.03454">
        <ele>618</ele>
        <time>2018-06-25T00:26:05Z</time>
      </trkpt>
      <trkpt lat="42.90706" lon="-0.03493">
        <ele>621</ele>
        <time>2018-06-25T00:32:05Z</time>
      </trkpt>
      <trkpt lat="42.9077" lon="-0.03538">
        <ele>624</ele>
        <time>2018-06-25T00:36:05Z</time>
      </trkpt>
      <trkpt lat="42.9085" lon="-0.03602">
        <ele>628</ele>
        <time>2018-06-25T00:39:05Z</time>
      </trkpt>
      <trkpt lat="42.90876" lon="-0.03626">
        <ele>632</ele>
        <time>2018-06-25T00:41:05Z</time>
      </trkpt>
      <trkpt lat="42.90916" lon="-0.03647">
        <ele>634</ele>
        <time>2018-06-25T00:44:05Z</time>
      </trkpt>
      <trkpt lat="42.91004" lon="-0.03666">
        <ele>634</ele>
        <time>2018-06-25T00:48:05Z</time>
      </trkpt>
      <trkpt lat="42.91083" lon="-0.03677">
        <ele>642</ele>
        <time>2018-06-25T00:49:05Z</time>
      </trkpt>
      <trkpt lat="42.91112" lon="-0.03686">
        <ele>646</ele>
        <time>2018-06-25T00:51:05Z</time>
      </trkpt>
      <trkpt lat="42.91138" lon="-0.03703">
        <ele>645</ele>
        <time>2018-06-25T00:52:05Z</time>
      </trkpt>
      <trkpt lat="42.91172" lon="-0.0372">
        <ele>642</ele>
        <time>2018-06-25T00:54:05Z</time>
      </trkpt>
      <trkpt lat="42.91225" lon="-0.03738">
        <ele>632</ele>
        <time>2018-06-25T00:56:05Z</time>
      </trkpt>
      <trkpt lat="42.91251" lon="-0.03742">
        <ele>629</ele>
        <time>2018-06-25T00:59:05Z</time>
      </trkpt>
      <trkpt lat="42.91261" lon="-0.0374">
        <ele>629</ele>
        <time>2018-06-25T01:00:05Z</time>
      </trkpt>
      <trkpt lat="42.91301" lon="-0.03722">
        <ele>632</ele>
        <time>2018-06-25T01:05:05Z</time>
      </trkpt>
      <trkpt lat="42.91305" lon="-0.03721">
        <ele>632</ele>
        <time>2018-06-25T01:06:05Z</time>
      </trkpt>
      <trkpt lat="42.91329" lon="-0.03721">
        <ele>627</ele>
        <time>2018-06-25T01:08:05Z</time>
      </trkpt>
      <trkpt lat="42.91336" lon="-0.0372">
        <ele>627</ele>
        <time>2018-06-25T01:09:05Z</time>
      </trkpt>
      <trkpt lat="42.91351" lon="-0.03716">
        <ele>630</ele>
        <time>2018-06-25T01:12:05Z</time>
      </trkpt>
      <trkpt lat="42.91375" lon="-0.03703">
        <ele>640</ele>
        <time>2018-06-25T01:13:05Z</time>
      </trkpt>
      <trkpt lat="42.91384" lon="-0.03699">
        <ele>644</ele>
        <time>2018-06-25T01:14:05Z</time>
      </trkpt>
      <trkpt lat="42.91403" lon="-0.03699">
        <ele>645</ele>
        <time>2018-06-25T01:16:05Z</time>
      </trkpt>
      <trkpt lat="42.91464" lon="-0.03728">
        <ele>631</ele>
        <time>2018-06-25T01:19:05Z</time>
      </trkpt>
      <trkpt lat="42.91494" lon="-0.03746">
        <ele>623</ele>
        <time>2018-06-25T01:20:05Z</time>
      </trkpt>
      <trkpt lat="42.91501" lon="-0.03749">
        <ele>623</ele>
        <time>2018-06-25T01:21:05Z</time>
      </trkpt>
      <trkpt lat="42.91561" lon="-0.0378">
        <ele>628</ele>
        <time>2018-06-25T01:22:05Z</time>
      </trkpt>
      <trkpt lat="42.91582" lon="-0.0379">
        <ele>628</ele>
        <time>2018-06-25T01:23:05Z</time>
      </trkpt>
      <trkpt lat="42.91625" lon="-0.03811">
        <ele>633</ele>
        <time>2018-06-25T01:24:05Z</time>
      </trkpt>
      <trkpt lat="42.91639" lon="-0.03821">
        <ele>632</ele>
        <time>2018-06-25T01:25:05Z</time>
      </trkpt>
      <trkpt lat="42.91649" lon="-0.03833">
        <ele>628</ele>
        <time>2018-06-25T01:27:05Z</time>
      </trkpt>
      <trkpt lat="42.91666" lon="-0.03857">
        <ele>625</ele>
        <time>2018-06-25T01:29:05Z</time>
      </trkpt>
      <trkpt lat="42.91699" lon="-0.03915">
        <ele>614</ele>
        <time>2018-06-25T01:30:05Z</time>
      </trkpt>
      <trkpt lat="42.91724" lon="-0.03954">
        <ele>611</ele>
        <time>2018-06-25T01:31:05Z</time>
      </trkpt>
      <trkpt lat="42.91739" lon="-0.03973">
        <ele>608</ele>
        <time>2018-06-25T01:33:05Z</time>
      </trkpt>
      <trkpt lat="42.91744" lon="-0.03978">
        <ele>608</ele>
        <time>2018-06-25T01:34:05Z</time>
      </trkpt>
      <trkpt lat="42.91794" lon="-0.03985">
        <ele>616</ele>
        <time>2018-06-25T01:40:05Z</time>
      </trkpt>
      <trkpt lat="42.91808" lon="-0.03988">
        <ele>618</ele>
        <time>2018-06-25T01:43:05Z</time>
      </trkpt>
      <trkpt lat="42.91848" lon="-0.04029">
        <ele>610</ele>
        <time>2018-06-25T01:48:05Z</time>
      </trkpt>
      <trkpt lat="42.91859" lon="-0.04037">
        <ele>607</ele>
        <time>2018-06-25T01:50:05Z</time>
      </trkpt>
      <trkpt lat="42.91869" lon="-0.04041">
        <ele>606</ele>
        <time>2018-06-25T01:52:05Z</time>
      </trkpt>
      <trkpt lat="42.91884" lon="-0.04037">
        <ele>609</ele>
        <time>2018-06-25T01:54:05Z</time>
      </trkpt>
      <trkpt lat="42.91909" lon="-0.04024">
        <ele>616</ele>
        <time>2018-06-25T01:56:05Z</time>
      </trkpt>
      <trkpt lat="42.91921" lon="-0.04019">
        <ele>619</ele>
        <time>2018-06-25T01:58:05Z</time>
      </trkpt>
      <trkpt lat="42.9193" lon="-0.04019">
        <ele>619</ele>
        <time>2018-06-25T01:59:05Z</time>
      </trkpt>
      <trkpt lat="42.91964" lon="-0.04027">
        <ele>616</ele>
        <time>2018-06-25T02:02:05Z</time>
      </trkpt>
      <trkpt lat="42.91968" lon="-0.04028">
        <ele>616</ele>
        <time>2018-06-25T02:03:05Z</time>
      </trkpt>
      <trkpt lat="42.92001" lon="-0.04024">
        <ele>619</ele>
        <time>2018-06-25T02:06:05Z</time>
      </trkpt>
      <trkpt lat="42.92013" lon="-0.04027">
        <ele>623</ele>
        <time>2018-06-25T02:08:05Z</time>
      </trkpt>
      <trkpt lat="42.92017" lon="-0.0403">
        <ele>623</ele>
        <time>2018-06-25T02:09:05Z</time>
      </trkpt>
      <trkpt lat="42.92043" lon="-0.04063">
        <ele>616</ele>
        <time>2018-06-25T02:12:05Z</time>
      </trkpt>
      <trkpt lat="42.9205" lon="-0.04073">
        <ele>613</ele>
        <time>2018-06-25T02:13:05Z</time>
      </trkpt>
      <trkpt lat="42.92072" lon="-0.04089">
        <ele>612</ele>
        <time>2018-06-25T02:15:05Z</time>
      </trkpt>
      <trkpt lat="42.92093" lon="-0.04097">
        <ele>615</ele>
        <time>2018-06-25T02:17:05Z</time>
      </trkpt>
      <trkpt lat="42.92119" lon="-0.041">
        <ele>619</ele>
        <time>2018-06-25T02:18:05Z</time>
      </trkpt>
      <trkpt lat="42.92144" lon="-0.04102">
        <ele>623</ele>
        <time>2018-06-25T02:19:05Z</time>
      </trkpt>
      <trkpt lat="42.92158" lon="-0.04102">
        <ele>626</ele>
        <time>2018-06-25T02:21:05Z</time>
      </trkpt>
      <trkpt lat="42.92167" lon="-0.041">
        <ele>629</ele>
        <time>2018-06-25T02:22:05Z</time>
      </trkpt>
      <trkpt lat="42.92175" lon="-0.04098">
        <ele>628</ele>
        <time>2018-06-25T02:23:05Z</time>
      </trkpt>
      <trkpt lat="42.92218" lon="-0.04081">
        <ele>626</ele>
        <time>2018-06-25T02:27:05Z</time>
      </trkpt>
      <trkpt lat="42.92257" lon="-0.04081">
        <ele>619</ele>
        <time>2018-06-25T02:29:05Z</time>
      </trkpt>
      <trkpt lat="42.92262" lon="-0.0408">
        <ele>619</ele>
        <time>2018-06-25T02:30:05Z</time>
      </trkpt>
      <trkpt lat="42.92279" lon="-0.04074">
        <ele>622</ele>
        <time>2018-06-25T02:31:05Z</time>
      </trkpt>
      <trkpt lat="42.92286" lon="-0.04073">
        <ele>622</ele>
        <time>2018-06-25T02:32:05Z</time>
      </trkpt>
      <trkpt lat="42.9233" lon="-0.04084">
        <ele>610</ele>
        <time>2018-06-25T02:35:05Z</time>
      </trkpt>
      <trkpt lat="42.92348" lon="-0.04089">
        <ele>614</ele>
        <time>2018-06-25T02:36:05Z</time>
      </trkpt>
      <trkpt lat="42.92389" lon="-0.04084">
        <ele>622</ele>
        <time>2018-06-25T02:39:05Z</time>
      </trkpt>
      <trkpt lat="42.92401" lon="-0.04085">
        <ele>624</ele>
        <time>2018-06-25T02:42:05Z</time>
      </trkpt>
      <trkpt lat="42.92429" lon="-0.04112">
        <ele>620</ele>
        <time>2018-06-25T02:46:05Z</time>
      </trkpt>
      <trkpt lat="42.92451" lon="-0.04138">
        <ele>615</ele>
        <time>2018-06-25T02:48:05Z</time>
      </trkpt>
      <trkpt lat="42.92476" lon="-0.04162">
        <ele>611</ele>
        <time>2018-06-25T02:49:05Z</time>
      </trkpt>
      <trkpt lat="42.92502" lon="-0.04184">
        <ele>611</ele>
        <time>2018-06-25T02:50:05Z</time>
      </trkpt>
      <trkpt lat="42.92529" lon="-0.04204">
        <ele>607</ele>
        <time>2018-06-25T02:51:05Z</time>
      </trkpt>
      <trkpt lat="42.92548" lon="-0.04214">
        <ele>603</ele>
        <time>2018-06-25T02:53:05Z</time>
      </trkpt>
      <trkpt lat="42.92566" lon="-0.04217">
        <ele>601</ele>
        <time>2018-06-25T02:55:05Z</time>
      </trkpt>
      <trkpt lat="42.92585" lon="-0.04205">
        <ele>605</ele>
        <time>2018-06-25T02:58:05Z</time>
      </trkpt>
      <trkpt lat="42.92609" lon="-0.04173">
        <ele>611</ele>
        <time>2018-06-25T03:00:05Z</time>
      </trkpt>
      <trkpt lat="42.92616" lon="-0.04167">
        <ele>611</ele>
        <time>2018-06-25T03:01:05Z</time>
      </trkpt>
      <trkpt lat="42.92637" lon="-0.0416">
        <ele>608</ele>
        <time>2018-06-25T03:04:05Z</time>
      </trkpt>
      <trkpt lat="42.92646" lon="-0.0416">
        <ele>605</ele>
        <time>2018-06-25T03:05:05Z</time>
      </trkpt>
      <trkpt lat="42.92672" lon="-0.04164">
        <ele>595</ele>
        <time>2018-06-25T03:06:05Z</time>
      </trkpt>
      <trkpt lat="42.92696" lon="-0.04165">
        <ele>597</ele>
        <time>2018-06-25T03:07:05Z</time>
      </trkpt>
      <trkpt lat="42.92761" lon="-0.04184">
        <ele>599</ele>
        <time>2018-06-25T03:11:05Z</time>
      </trkpt>
      <trkpt lat="42.92768" lon="-0.04186">
        <ele>599</ele>
        <time>2018-06-25T03:12:05Z</time>
      </trkpt>
      <trkpt lat="42.92852" lon="-0.04231">
        <ele>596</ele>
        <time>2018-06-25T03:16:05Z</time>
      </trkpt>
      <trkpt lat="42.929" lon="-0.0428">
        <ele>591</ele>
        <time>2018-06-25T03:19:05Z</time>
      </trkpt>
      <trkpt lat="42.92933" lon="-0.04326">
        <ele>583</ele>
        <time>2018-06-25T03:20:05Z</time>
      </trkpt>
      <trkpt lat="42.9295" lon="-0.04349">
        <ele>587</ele>
        <time>2018-06-25T03:21:05Z</time>
      </trkpt>
      <trkpt lat="42.92966" lon="-0.04366">
        <ele>591</ele>
        <time>2018-06-25T03:22:05Z</time>
      </trkpt>
      <trkpt lat="42.92968" lon="-0.0437">
        <ele>590</ele>
        <time>2018-06-25T03:23:05Z</time>
      </trkpt>
      <trkpt lat="42.92979" lon="-0.04397">
        <ele>586</ele>
        <time>2018-06-25T03:27:05Z</time>
      </trkpt>
      <trkpt lat="42.92982" lon="-0.04407">
        <ele>583</ele>
        <time>2018-06-25T03:28:05Z</time>
      </trkpt>
      <trkpt lat="42.92985" lon="-0.04422">
        <ele>579</ele>
        <time>2018-06-25T03:29:05Z</time>
      </trkpt>
      <trkpt lat="42.92992" lon="-0.04444">
        <ele>573</ele>
        <time>2018-06-25T03:30:05Z</time>
      </trkpt>
      <trkpt lat="42.93009" lon="-0.04485">
        <ele>564</ele>
        <time>2018-06-25T03:31:05Z</time>
      </trkpt>
      <trkpt lat="42.9307" lon="-0.04581">
        <ele>558</ele>
        <time>2018-06-25T03:35:05Z</time>
      </trkpt>
      <trkpt lat="42.93083" lon="-0.04596">
        <ele>557</ele>
        <time>2018-06-25T03:37:05Z</time>
      </trkpt>
      <trkpt lat="42.93123" lon="-0.04613">
        <ele>560</ele>
        <time>2018-06-25T03:43:05Z</time>
      </trkpt>
      <trkpt lat="42.93126" lon="-0.04613">
        <ele>560</ele>
        <time>2018-06-25T03:44:05Z</time>
      </trkpt>
      <trkpt lat="42.93149" lon="-0.0461">
        <ele>564</ele>
        <time>2018-06-25T03:46:05Z</time>
      </trkpt>
      <trkpt lat="42.93162" lon="-0.04607">
        <ele>567</ele>
        <time>2018-06-25T03:47:05Z</time>
      </trkpt>
      <trkpt lat="42.93186" lon="-0.04607">
        <ele>572</ele>
        <time>2018-06-25T03:50:05Z</time>
      </trkpt>
      <trkpt lat="42.9319" lon="-0.04608">
        <ele>572</ele>
        <time>2018-06-25T03:51:05Z</time>
      </trkpt>
      <trkpt lat="42.9327" lon="-0.04648">
        <ele>569</ele>
        <time>2018-06-25T03:57:05Z</time>
      </trkpt>
      <trkpt lat="42.93297" lon="-0.0466">
        <ele>576</ele>
        <time>2018-06-25T03:58:05Z</time>
      </trkpt>
      <trkpt lat="42.93307" lon="-0.04663">
        <ele>580</ele>
        <time>2018-06-25T03:59:05Z</time>
      </trkpt>
      <trkpt lat="42.93325" lon="-0.04672">
        <ele>585</ele>
        <time>2018-06-25T04:01:05Z</time>
      </trkpt>
      <trkpt lat="42.93331" lon="-0.04677">
        <ele>585</ele>
        <time>2018-06-25T04:02:05Z</time>
      </trkpt>
      <trkpt lat="42.93352" lon="-0.04693">
        <ele>588</ele>
        <time>2018-06-25T04:03:05Z</time>
      </trkpt>
      <trkpt lat="42.93385" lon="-0.0472">
        <ele>591</ele>
        <time>2018-06-25T04:04:05Z</time>
      </trkpt>
      <trkpt lat="42.9344" lon="-0.0478">
        <ele>590</ele>
        <time>2018-06-25T04:09:05Z</time>
      </trkpt>
      <trkpt lat="42.93448" lon="-0.04797">
        <ele>586</ele>
        <time>2018-06-25T04:11:05Z</time>
      </trkpt>
      <trkpt lat="42.93451" lon="-0.04806">
        <ele>583</ele>
        <time>2018-06-25T04:12:05Z</time>
      </trkpt>
      <trkpt lat="42.93455" lon="-0.04823">
        <ele>577</ele>
        <time>2018-06-25T04:13:05Z</time>
      </trkpt>
      <trkpt lat="42.93469" lon="-0.04852">
        <ele>580</ele>
        <time>2018-06-25T04:15:05Z</time>
      </trkpt>
      <trkpt lat="42.93479" lon="-0.04862">
        <ele>583</ele>
        <time>2018-06-25T04:18:05Z</time>
      </trkpt>
      <trkpt lat="42.9349" lon="-0.04867">
        <ele>584</ele>
        <time>2018-06-25T04:20:05Z</time>
      </trkpt>
      <trkpt lat="42.93529" lon="-0.0486">
        <ele>580</ele>
        <time>2018-06-25T04:23:05Z</time>
      </trkpt>
      <trkpt lat="42.93558" lon="-0.04853">
        <ele>575</ele>
        <time>2018-06-25T04:24:05Z</time>
      </trkpt>
      <trkpt lat="42.93585" lon="-0.04847">
        <ele>572</ele>
        <time>2018-06-25T04:25:05Z</time>
      </trkpt>
      <trkpt lat="42.93606" lon="-0.04845">
        <ele>568</ele>
        <time>2018-06-25T04:26:05Z</time>
      </trkpt>
      <trkpt lat="42.9362" lon="-0.04845">
        <ele>565</ele>
        <time>2018-06-25T04:28:05Z</time>
      </trkpt>
      <trkpt lat="42.93639" lon="-0.04846">
        <ele>561</ele>
        <time>2018-06-25T04:29:05Z</time>
      </trkpt>
      <trkpt lat="42.93651" lon="-0.04848">
        <ele>558</ele>
        <time>2018-06-25T04:30:05Z</time>
      </trkpt>
      <trkpt lat="42.93662" lon="-0.04852">
        <ele>554</ele>
        <time>2018-06-25T04:31:05Z</time>
      </trkpt>
      <trkpt lat="42.93679" lon="-0.04868">
        <ele>552</ele>
        <time>2018-06-25T04:33:05Z</time>
      </trkpt>
      <trkpt lat="42.93691" lon="-0.0489">
        <ele>548</ele>
        <time>2018-06-25T04:35:05Z</time>
      </trkpt>
      <trkpt lat="42.93695" lon="-0.04901">
        <ele>544</ele>
        <time>2018-06-25T04:37:05Z</time>
      </trkpt>
      <trkpt lat="42.93703" lon="-0.04916">
        <ele>540</ele>
        <time>2018-06-25T04:39:05Z</time>
      </trkpt>
      <trkpt lat="42.93716" lon="-0.04933">
        <ele>544</ele>
        <time>2018-06-25T04:41:05Z</time>
      </trkpt>
      <trkpt lat="42.93733" lon="-0.04947">
        <ele>546</ele>
        <time>2018-06-25T04:44:05Z</time>
      </trkpt>
      <trkpt lat="42.93826" lon="-0.04998">
        <ele>538</ele>
        <time>2018-06-25T04:46:05Z</time>
      </trkpt>
      <trkpt lat="42.93867" lon="-0.05021">
        <ele>542</ele>
        <time>2018-06-25T04:47:05Z</time>
      </trkpt>
      <trkpt lat="42.93883" lon="-0.05031">
        <ele>543</ele>
        <time>2018-06-25T04:49:05Z</time>
      </trkpt>
      <trkpt lat="42.93901" lon="-0.0505">
        <ele>540</ele>
        <time>2018-06-25T04:51:05Z</time>
      </trkpt>
      <trkpt lat="42.9392" lon="-0.05079">
        <ele>533</ele>
        <time>2018-06-25T04:52:05Z</time>
      </trkpt>
      <trkpt lat="42.93928" lon="-0.05093">
        <ele>535</ele>
        <time>2018-06-25T04:53:05Z</time>
      </trkpt>
      <trkpt lat="42.93934" lon="-0.05104">
        <ele>538</ele>
        <time>2018-06-25T04:54:05Z</time>
      </trkpt>
      <trkpt lat="42.93939" lon="-0.05122">
        <ele>538</ele>
        <time>2018-06-25T04:55:05Z</time>
      </trkpt>
      <trkpt lat="42.93948" lon="-0.05173">
        <ele>533</ele>
        <time>2018-06-25T04:57:05Z</time>
      </trkpt>
      <trkpt lat="42.93953" lon="-0.052">
        <ele>533</ele>
        <time>2018-06-25T04:58:05Z</time>
      </trkpt>
      <trkpt lat="42.93963" lon="-0.05238">
        <ele>530</ele>
        <time>2018-06-25T05:00:05Z</time>
      </trkpt>
      <trkpt lat="42.93982" lon="-0.05292">
        <ele>527</ele>
        <time>2018-06-25T05:02:05Z</time>
      </trkpt>
      <trkpt lat="42.93993" lon="-0.05312">
        <ele>523</ele>
        <time>2018-06-25T05:04:05Z</time>
      </trkpt>
      <trkpt lat="42.94009" lon="-0.05326">
        <ele>519</ele>
        <time>2018-06-25T05:06:05Z</time>
      </trkpt>
      <trkpt lat="42.94026" lon="-0.05331">
        <ele>517</ele>
        <time>2018-06-25T05:09:05Z</time>
      </trkpt>
      <trkpt lat="42.94067" lon="-0.05312">
        <ele>518</ele>
        <time>2018-06-25T05:18:05Z</time>
      </trkpt>
      <trkpt lat="42.94095" lon="-0.05277">
        <ele>525</ele>
        <time>2018-06-25T05:20:05Z</time>
      </trkpt>
      <trkpt lat="42.9412" lon="-0.05249">
        <ele>524</ele>
        <time>2018-06-25T05:21:05Z</time>
      </trkpt>
      <trkpt lat="42.94133" lon="-0.05236">
        <ele>527</ele>
        <time>2018-06-25T05:22:05Z</time>
      </trkpt>
      <trkpt lat="42.94154" lon="-0.05219">
        <ele>531</ele>
        <time>2018-06-25T05:24:05Z</time>
      </trkpt>
      <trkpt lat="42.94161" lon="-0.05216">
        <ele>531</ele>
        <time>2018-06-25T05:25:05Z</time>
      </trkpt>
      <trkpt lat="42.94176" lon="-0.0521">
        <ele>535</ele>
        <time>2018-06-25T05:27:05Z</time>
      </trkpt>
      <trkpt lat="42.94185" lon="-0.05209">
        <ele>538</ele>
        <time>2018-06-25T05:28:05Z</time>
      </trkpt>
      <trkpt lat="42.9419" lon="-0.05209">
        <ele>538</ele>
        <time>2018-06-25T05:29:05Z</time>
      </trkpt>
      <trkpt lat="42.94209" lon="-0.05219">
        <ele>535</ele>
        <time>2018-06-25T05:32:05Z</time>
      </trkpt>
      <trkpt lat="42.9422" lon="-0.0523">
        <ele>529</ele>
        <time>2018-06-25T05:34:05Z</time>
      </trkpt>
      <trkpt lat="42.94239" lon="-0.05252">
        <ele>519</ele>
        <time>2018-06-25T05:35:05Z</time>
      </trkpt>
      <trkpt lat="42.9427" lon="-0.05285">
        <ele>520</ele>
        <time>2018-06-25T05:36:05Z</time>
      </trkpt>
      <trkpt lat="42.94311" lon="-0.05315">
        <ele>516</ele>
        <time>2018-06-25T05:39:05Z</time>
      </trkpt>
      <trkpt lat="42.94394" lon="-0.05368">
        <ele>518</ele>
        <time>2018-06-25T05:42:05Z</time>
      </trkpt>
      <trkpt lat="42.94434" lon="-0.05409">
        <ele>512</ele>
        <time>2018-06-25T05:44:05Z</time>
      </trkpt>
      <trkpt lat="42.94452" lon="-0.05426">
        <ele>515</ele>
        <time>2018-06-25T05:45:05Z</time>
      </trkpt>
      <trkpt lat="42.94601" lon="-0.05607">
        <ele>515</ele>
        <time>2018-06-25T05:50:05Z</time>
      </trkpt>
      <trkpt lat="42.94647" lon="-0.05657">
        <ele>519</ele>
        <time>2018-06-25T05:51:05Z</time>
      </trkpt>
      <trkpt lat="42.94656" lon="-0.05666">
        <ele>518</ele>
        <time>2018-06-25T05:52:05Z</time>
      </trkpt>
      <trkpt lat="42.94693" lon="-0.05732">
        <ele>520</ele>
        <time>2018-06-25T05:55:05Z</time>
      </trkpt>
      <trkpt lat="42.94708" lon="-0.058">
        <ele>517</ele>
        <time>2018-06-25T05:57:05Z</time>
      </trkpt>
      <trkpt lat="42.94721" lon="-0.05865">
        <ele>511</ele>
        <time>2018-06-25T05:58:05Z</time>
      </trkpt>
      <trkpt lat="42.94733" lon="-0.05902">
        <ele>506</ele>
        <time>2018-06-25T06:00:05Z</time>
      </trkpt>
      <trkpt lat="42.94745" lon="-0.05935">
        <ele>502</ele>
        <time>2018-06-25T06:01:05Z</time>
      </trkpt>
      <trkpt lat="42.94757" lon="-0.05965">
        <ele>504</ele>
        <time>2018-06-25T06:02:05Z</time>
      </trkpt>
      <trkpt lat="42.94766" lon="-0.05981">
        <ele>507</ele>
        <time>2018-06-25T06:03:05Z</time>
      </trkpt>
      <trkpt lat="42.94776" lon="-0.05997">
        <ele>510</ele>
        <time>2018-06-25T06:04:05Z</time>
      </trkpt>
      <trkpt lat="42.94787" lon="-0.06014">
        <ele>514</ele>
        <time>2018-06-25T06:05:05Z</time>
      </trkpt>
      <trkpt lat="42.94807" lon="-0.06045">
        <ele>515</ele>
        <time>2018-06-25T06:07:05Z</time>
      </trkpt>
      <trkpt lat="42.94827" lon="-0.06081">
        <ele>504</ele>
        <time>2018-06-25T06:08:05Z</time>
      </trkpt>
      <trkpt lat="42.94859" lon="-0.0614">
        <ele>510</ele>
        <time>2018-06-25T06:09:05Z</time>
      </trkpt>
      <trkpt lat="42.94893" lon="-0.06214">
        <ele>507</ele>
        <time>2018-06-25T06:11:05Z</time>
      </trkpt>
      <trkpt lat="42.94905" lon="-0.06237">
        <ele>503</ele>
        <time>2018-06-25T06:12:05Z</time>
      </trkpt>
      <trkpt lat="42.94959" lon="-0.06332">
        <ele>504</ele>
        <time>2018-06-25T06:16:05Z</time>
      </trkpt>
      <trkpt lat="42.9499" lon="-0.0642">
        <ele>498</ele>
        <time>2018-06-25T06:19:05Z</time>
      </trkpt>
      <trkpt lat="42.95006" lon="-0.06501">
        <ele>492</ele>
        <time>2018-06-25T06:21:05Z</time>
      </trkpt>
      <trkpt lat="42.95024" lon="-0.06594">
        <ele>492</ele>
        <time>2018-06-25T06:22:05Z</time>
      </trkpt>
      <trkpt lat="42.95049" lon="-0.06694">
        <ele>489</ele>
        <time>2018-06-25T06:25:05Z</time>
      </trkpt>
      <trkpt lat="42.95067" lon="-0.06735">
        <ele>485</ele>
        <time>2018-06-25T06:27:05Z</time>
      </trkpt>
      <trkpt lat="42.95068" lon="-0.06735">
        <ele>485</ele>
        <time>2018-06-25T06:28:05Z</time>
      </trkpt>
      <trkpt lat="42.95075" lon="-0.06743">
        <ele>483</ele>
        <time>2018-06-25T06:30:05Z</time>
      </trkpt>
      <trkpt lat="42.95094" lon="-0.06736">
        <ele>481</ele>
        <time>2018-06-25T06:45:05Z</time>
      </trkpt>
      <trkpt lat="42.95105" lon="-0.06764">
        <ele>481</ele>
        <time>2018-06-25T07:03:05Z</time>
      </trkpt>
      <trkpt lat="42.95099" lon="-0.06801">
        <ele>484</ele>
        <time>2018-06-25T07:14:05Z</time>
      </trkpt>
      <trkpt lat="42.951" lon="-0.06811">
        <ele>485</ele>
        <time>2018-06-25T07:16:05Z</time>
      </trkpt>
      <trkpt lat="42.95126" lon="-0.0686">
        <ele>489</ele>
        <time>2018-06-25T07:20:05Z</time>
      </trkpt>
      <trkpt lat="42.95137" lon="-0.06891">
        <ele>492</ele>
        <time>2018-06-25T07:22:05Z</time>
      </trkpt>
      <trkpt lat="42.95148" lon="-0.06923">
        <ele>495</ele>
        <time>2018-06-25T07:24:05Z</time>
      </trkpt>
      <trkpt lat="42.95153" lon="-0.06937">
        <ele>499</ele>
        <time>2018-06-25T07:25:05Z</time>
      </trkpt>
      <trkpt lat="42.95158" lon="-0.0695">
        <ele>502</ele>
        <time>2018-06-25T07:26:05Z</time>
      </trkpt>
      <trkpt lat="42.95166" lon="-0.06965">
        <ele>505</ele>
        <time>2018-06-25T07:28:05Z</time>
      </trkpt>
      <trkpt lat="42.9517" lon="-0.06968">
        <ele>505</ele>
        <time>2018-06-25T07:29:05Z</time>
      </trkpt>
      <trkpt lat="42.95213" lon="-0.06989">
        <ele>500</ele>
        <time>2018-06-25T07:32:05Z</time>
      </trkpt>
      <trkpt lat="42.9523" lon="-0.06989">
        <ele>495</ele>
        <time>2018-06-25T07:33:05Z</time>
      </trkpt>
      <trkpt lat="42.9526" lon="-0.06996">
        <ele>490</ele>
        <time>2018-06-25T07:35:05Z</time>
      </trkpt>
      <trkpt lat="42.95291" lon="-0.07011">
        <ele>490</ele>
        <time>2018-06-25T07:36:05Z</time>
      </trkpt>
      <trkpt lat="42.95398" lon="-0.07073">
        <ele>490</ele>
        <time>2018-06-25T07:41:05Z</time>
      </trkpt>
      <trkpt lat="42.95463" lon="-0.07121">
        <ele>491</ele>
        <time>2018-06-25T07:46:05Z</time>
      </trkpt>
      <trkpt lat="42.9549" lon="-0.07147">
        <ele>488</ele>
        <time>2018-06-25T07:49:05Z</time>
      </trkpt>
      <trkpt lat="42.95513" lon="-0.07179">
        <ele>487</ele>
        <time>2018-06-25T07:51:05Z</time>
      </trkpt>
      <trkpt lat="42.9558" lon="-0.07281">
        <ele>490</ele>
        <time>2018-06-25T07:54:05Z</time>
      </trkpt>
      <trkpt lat="42.95612" lon="-0.0733">
        <ele>491</ele>
        <time>2018-06-25T07:56:05Z</time>
      </trkpt>
      <trkpt lat="42.95654" lon="-0.074">
        <ele>494</ele>
        <time>2018-06-25T07:58:05Z</time>
      </trkpt>
      <trkpt lat="42.95672" lon="-0.07454">
        <ele>497</ele>
        <time>2018-06-25T08:01:05Z</time>
      </trkpt>
      <trkpt lat="42.95676" lon="-0.07472">
        <ele>498</ele>
        <time>2018-06-25T08:03:05Z</time>
      </trkpt>
      <trkpt lat="42.95731" lon="-0.07513">
        <ele>495</ele>
        <time>2018-06-25T08:16:05Z</time>
      </trkpt>
      <trkpt lat="42.95734" lon="-0.07512">
        <ele>495</ele>
        <time>2018-06-25T08:17:05Z</time>
      </trkpt>
      <trkpt lat="42.95823" lon="-0.07483">
        <ele>493</ele>
        <time>2018-06-25T08:23:05Z</time>
      </trkpt>
      <trkpt lat="42.95916" lon="-0.07448">
        <ele>489</ele>
        <time>2018-06-25T08:27:05Z</time>
      </trkpt>
      <trkpt lat="42.96003" lon="-0.0745">
        <ele>486</ele>
        <time>2018-06-25T08:30:05Z</time>
      </trkpt>
      <trkpt lat="42.96034" lon="-0.07451">
        <ele>484</ele>
        <time>2018-06-25T08:33:05Z</time>
      </trkpt>
      <trkpt lat="42.96102" lon="-0.07451">
        <ele>480</ele>
        <time>2018-06-25T08:35:05Z</time>
      </trkpt>
      <trkpt lat="42.96104" lon="-0.07451">
        <ele>480</ele>
        <time>2018-06-25T08:36:05Z</time>
      </trkpt>
      <trkpt lat="42.9612" lon="-0.0745">
        <ele>479</ele>
        <time>2018-06-25T08:37:05Z</time>
      </trkpt>
      <trkpt lat="42.96213" lon="-0.07451">
        <ele>476</ele>
        <time>2018-06-25T08:39:05Z</time>
      </trkpt>
      <trkpt lat="42.96314" lon="-0.07452">
        <ele>474</ele>
        <time>2018-06-25T08:42:05Z</time>
      </trkpt>
      <trkpt lat="42.96407" lon="-0.07431">
        <ele>470</ele>
        <time>2018-06-25T08:46:05Z</time>
      </trkpt>
      <trkpt lat="42.96426" lon="-0.07425">
        <ele>470</ele>
        <time>2018-06-25T08:47:05Z</time>
      </trkpt>
      <trkpt lat="42.96546" lon="-0.07391">
        <ele>466</ele>
        <time>2018-06-25T08:50:05Z</time>
      </trkpt>
      <trkpt lat="42.96587" lon="-0.07367">
        <ele>464</ele>
        <time>2018-06-25T08:53:05Z</time>
      </trkpt>
      <trkpt lat="42.96602" lon="-0.0735">
        <ele>464</ele>
        <time>2018-06-25T08:58:05Z</time>
      </trkpt>
      <trkpt lat="42.96605" lon="-0.07329">
        <ele>463</ele>
        <time>2018-06-25T09:14:05Z</time>
      </trkpt>
      <trkpt lat="42.96622" lon="-0.07328">
        <ele>463</ele>
        <time>2018-06-25T09:32:05Z</time>
      </trkpt>
      <trkpt lat="42.9664" lon="-0.07353">
        <ele>463</ele>
        <time>2018-06-25T09:47:05Z</time>
      </trkpt>
      <trkpt lat="42.96714" lon="-0.0737">
        <ele>462</ele>
        <time>2018-06-25T09:50:05Z</time>
      </trkpt>
      <trkpt lat="42.9684" lon="-0.07407">
        <ele>459</ele>
        <time>2018-06-25T09:53:05Z</time>
      </trkpt>
      <trkpt lat="42.96869" lon="-0.07415">
        <ele>459</ele>
        <time>2018-06-25T09:54:05Z</time>
      </trkpt>
      <trkpt lat="42.96958" lon="-0.07441">
        <ele>461</ele>
        <time>2018-06-25T09:56:05Z</time>
      </trkpt>
      <trkpt lat="42.97067" lon="-0.07472">
        <ele>456</ele>
        <time>2018-06-25T09:58:05Z</time>
      </trkpt>
      <trkpt lat="42.97104" lon="-0.07482">
        <ele>453</ele>
        <time>2018-06-25T09:59:05Z</time>
      </trkpt>
      <trkpt lat="42.97135" lon="-0.07492">
        <ele>452</ele>
        <time>2018-06-25T10:01:05Z</time>
      </trkpt>
      <trkpt lat="42.97329" lon="-0.07582">
        <ele>446</ele>
        <time>2018-06-25T10:04:05Z</time>
      </trkpt>
      <trkpt lat="42.97355" lon="-0.07595">
        <ele>446</ele>
        <time>2018-06-25T10:05:05Z</time>
      </trkpt>
      <trkpt lat="42.9739" lon="-0.07623">
        <ele>445</ele>
        <time>2018-06-25T10:10:05Z</time>
      </trkpt>
      <trkpt lat="42.97452" lon="-0.0771">
        <ele>445</ele>
        <time>2018-06-25T10:16:05Z</time>
      </trkpt>
      <trkpt lat="42.97515" lon="-0.07865">
        <ele>444</ele>
        <time>2018-06-25T10:23:05Z</time>
      </trkpt>
      <trkpt lat="42.97577" lon="-0.0796">
        <ele>443</ele>
        <time>2018-06-25T10:28:05Z</time>
      </trkpt>
      <trkpt lat="42.97653" lon="-0.08038">
        <ele>440</ele>
        <time>2018-06-25T10:31:05Z</time>
      </trkpt>
      <trkpt lat="42.97769" lon="-0.08141">
        <ele>441</ele>
        <time>2018-06-25T10:37:05Z</time>
      </trkpt>
      <trkpt lat="42.97892" lon="-0.0824">
        <ele>438</ele>
        <time>2018-06-25T10:42:05Z</time>
      </trkpt>
      <trkpt lat="42.97973" lon="-0.08309">
        <ele>437</ele>
        <time>2018-06-25T10:44:05Z</time>
      </trkpt>
      <trkpt lat="42.98153" lon="-0.08483">
        <ele>436</ele>
        <time>2018-06-25T10:49:05Z</time>
      </trkpt>
      <trkpt lat="42.98249" lon="-0.08577">
        <ele>435</ele>
        <time>2018-06-25T10:51:05Z</time>
      </trkpt>
      <trkpt lat="42.9836" lon="-0.08684">
        <ele>434</ele>
        <time>2018-06-25T10:54:05Z</time>
      </trkpt>
      <trkpt lat="42.98431" lon="-0.08742">
        <ele>435</ele>
        <time>2018-06-25T10:58:05Z</time>
      </trkpt>
      <trkpt lat="42.98539" lon="-0.08794">
        <ele>436</ele>
        <time>2018-06-25T11:01:05Z</time>
      </trkpt>
      <trkpt lat="42.98614" lon="-0.08829">
        <ele>435</ele>
        <time>2018-06-25T11:06:05Z</time>
      </trkpt>
      <trkpt lat="42.9864" lon="-0.08841">
        <ele>436</ele>
        <time>2018-06-25T11:10:05Z</time>
      </trkpt>
      <trkpt lat="42.98742" lon="-0.08869">
        <ele>434</ele>
        <time>2018-06-25T11:16:05Z</time>
      </trkpt>
      <trkpt lat="42.98824" lon="-0.08894">
        <ele>434</ele>
        <time>2018-06-25T11:19:05Z</time>
      </trkpt>
      <trkpt lat="42.9895" lon="-0.08949">
        <ele>433</ele>
        <time>2018-06-25T11:22:05Z</time>
      </trkpt>
      <trkpt lat="42.99032" lon="-0.08975">
        <ele>432</ele>
        <time>2018-06-25T11:25:05Z</time>
      </trkpt>
      <trkpt lat="42.99185" lon="-0.09027">
        <ele>431</ele>
        <time>2018-06-25T11:29:05Z</time>
      </trkpt>
      <trkpt lat="42.99276" lon="-0.09072">
        <ele>434</ele>
        <time>2018-06-25T11:32:05Z</time>
      </trkpt>
      <trkpt lat="42.9935" lon="-0.09108">
        <ele>438</ele>
        <time>2018-06-25T11:35:05Z</time>
      </trkpt>
      <trkpt lat="42.99409" lon="-0.09137">
        <ele>438</ele>
        <time>2018-06-25T11:36:05Z</time>
      </trkpt>
      <trkpt lat="42.99455" lon="-0.09155">
        <ele>438</ele>
        <time>2018-06-25T11:39:05Z</time>
      </trkpt>
      <trkpt lat="42.99519" lon="-0.0916">
        <ele>436</ele>
        <time>2018-06-25T11:45:05Z</time>
      </trkpt>
      <trkpt lat="42.99642" lon="-0.09203">
        <ele>436</ele>
        <time>2018-06-25T11:51:05Z</time>
      </trkpt>
      <trkpt lat="42.99674" lon="-0.09226">
        <ele>437</ele>
        <time>2018-06-25T11:56:05Z</time>
      </trkpt>
      <trkpt lat="42.99709" lon="-0.0928">
        <ele>440</ele>
        <time>2018-06-25T11:58:05Z</time>
      </trkpt>
      <trkpt lat="42.99718" lon="-0.09293">
        <ele>440</ele>
        <time>2018-06-25T11:59:05Z</time>
      </trkpt>
      <trkpt lat="42.99765" lon="-0.09364">
        <ele>445</ele>
        <time>2018-06-25T12:02:05Z</time>
      </trkpt>
      <trkpt lat="42.99769" lon="-0.0937">
        <ele>446</ele>
        <time>2018-06-25T12:03:05Z</time>
      </trkpt>
      <trkpt lat="42.99808" lon="-0.09434">
        <ele>449</ele>
        <time>2018-06-25T12:04:05Z</time>
      </trkpt>
      <trkpt lat="42.99808" lon="-0.09434">
        <ele>449</ele>
        <time>2018-06-25T12:05:05Z</time>
      </trkpt>
      <trkpt lat="42.9987" lon="-0.09525">
        <ele>448</ele>
        <time>2018-06-25T12:10:05Z</time>
      </trkpt>
      <trkpt lat="42.99928" lon="-0.0961">
        <ele>449</ele>
        <time>2018-06-25T12:13:05Z</time>
      </trkpt>
      <trkpt lat="42.99956" lon="-0.09652">
        <ele>449</ele>
        <time>2018-06-25T12:16:05Z</time>
      </trkpt>
      <trkpt lat="42.99991" lon="-0.09704">
        <ele>449</ele>
        <time>2018-06-25T12:19:05Z</time>
      </trkpt>
      <trkpt lat="43.00069" lon="-0.09822">
        <ele>451</ele>
        <time>2018-06-25T12:23:05Z</time>
      </trkpt>
      <trkpt lat="43.00094" lon="-0.09856">
        <ele>452</ele>
        <time>2018-06-25T12:25:05Z</time>
      </trkpt>
      <trkpt lat="43.00149" lon="-0.09915">
        <ele>453</ele>
        <time>2018-06-25T12:29:05Z</time>
      </trkpt>
      <trkpt lat="43.00154" lon="-0.09914">
        <ele>453</ele>
        <time>2018-06-25T12:35:05Z</time>
      </trkpt>
      <trkpt lat="43.00163" lon="-0.09924">
        <ele>453</ele>
        <time>2018-06-25T12:51:05Z</time>
      </trkpt>
      <trkpt lat="43.00178" lon="-0.09987">
        <ele>453</ele>
        <time>2018-06-25T13:12:05Z</time>
      </trkpt>
      <trkpt lat="43.00235" lon="-0.10093">
        <ele>455</ele>
        <time>2018-06-25T13:16:05Z</time>
      </trkpt>
      <trkpt lat="43.00263" lon="-0.10149">
        <ele>458</ele>
        <time>2018-06-25T13:19:05Z</time>
      </trkpt>
      <trkpt lat="43.00273" lon="-0.10173">
        <ele>460</ele>
        <time>2018-06-25T13:22:05Z</time>
      </trkpt>
      <trkpt lat="43.00307" lon="-0.10169">
        <ele>463</ele>
        <time>2018-06-25T13:28:05Z</time>
      </trkpt>
      <trkpt lat="43.00351" lon="-0.10151">
        <ele>465</ele>
        <time>2018-06-25T13:30:05Z</time>
      </trkpt>
      <trkpt lat="43.00495" lon="-0.10081">
        <ele>467</ele>
        <time>2018-06-25T13:34:05Z</time>
      </trkpt>
      <trkpt lat="43.00506" lon="-0.10132">
        <ele>469</ele>
        <time>2018-06-25T13:38:05Z</time>
      </trkpt>
      <trkpt lat="43.0051" lon="-0.10156">
        <ele>469</ele>
        <time>2018-06-25T13:45:05Z</time>
      </trkpt>
      <trkpt lat="43.00547" lon="-0.10171">
        <ele>472</ele>
        <time>2018-06-25T13:53:05Z</time>
      </trkpt>
      <trkpt lat="43.00584" lon="-0.10174">
        <ele>474</ele>
        <time>2018-06-25T13:58:05Z</time>
      </trkpt>
      <trkpt lat="43.00561" lon="-0.10204">
        <ele>476</ele>
        <time>2018-06-25T14:05:05Z</time>
      </trkpt>
      <trkpt lat="43.00522" lon="-0.1027">
        <ele>479</ele>
        <time>2018-06-25T14:08:05Z</time>
      </trkpt>
      <trkpt lat="43.00497" lon="-0.10307">
        <ele>482</ele>
        <time>2018-06-25T14:10:05Z</time>
      </trkpt>
      <trkpt lat="43.00487" lon="-0.10372">
        <ele>490</ele>
        <time>2018-06-25T14:13:05Z</time>
      </trkpt>
      <trkpt lat="43.00484" lon="-0.10396">
        <ele>493</ele>
        <time>2018-06-25T14:14:05Z</time>
      </trkpt>
      <trkpt lat="43.00477" lon="-0.10415">
        <ele>494</ele>
        <time>2018-06-25T14:16:05Z</time>
      </trkpt>
      <trkpt lat="43.00436" lon="-0.10457">
        <ele>498</ele>
        <time>2018-06-25T14:18:05Z</time>
      </trkpt>
      <trkpt lat="43.00408" lon="-0.10494">
        <ele>501</ele>
        <time>2018-06-25T14:21:05Z</time>
      </trkpt>
      <trkpt lat="43.00397" lon="-0.10517">
        <ele>505</ele>
        <time>2018-06-25T14:22:05Z</time>
      </trkpt>
      <trkpt lat="43.00385" lon="-0.10542">
        <ele>509</ele>
        <time>2018-06-25T14:23:05Z</time>
      </trkpt>
      <trkpt lat="43.00373" lon="-0.10562">
        <ele>512</ele>
        <time>2018-06-25T14:24:05Z</time>
      </trkpt>
      <trkpt lat="43.00356" lon="-0.1058">
        <ele>513</ele>
        <time>2018-06-25T14:26:05Z</time>
      </trkpt>
      <trkpt lat="43.00304" lon="-0.10627">
        <ele>517</ele>
        <time>2018-06-25T14:29:05Z</time>
      </trkpt>
      <trkpt lat="43.00284" lon="-0.10656">
        <ele>521</ele>
        <time>2018-06-25T14:30:05Z</time>
      </trkpt>
      <trkpt lat="43.00258" lon="-0.10684">
        <ele>525</ele>
        <time>2018-06-25T14:32:05Z</time>
      </trkpt>
      <trkpt lat="43.00217" lon="-0.10718">
        <ele>531</ele>
        <time>2018-06-25T14:33:05Z</time>
      </trkpt>
      <trkpt lat="43.00179" lon="-0.10749">
        <ele>536</ele>
        <time>2018-06-25T14:34:05Z</time>
      </trkpt>
      <trkpt lat="43.00174" lon="-0.10754">
        <ele>536</ele>
        <time>2018-06-25T14:35:05Z</time>
      </trkpt>
      <trkpt lat="43.00138" lon="-0.10791">
        <ele>543</ele>
        <time>2018-06-25T14:37:05Z</time>
      </trkpt>
      <trkpt lat="43.00106" lon="-0.10819">
        <ele>546</ele>
        <time>2018-06-25T14:39:05Z</time>
      </trkpt>
      <trkpt lat="43.00055" lon="-0.1085">
        <ele>550</ele>
        <time>2018-06-25T14:41:05Z</time>
      </trkpt>
      <trkpt lat="43.00029" lon="-0.10865">
        <ele>552</ele>
        <time>2018-06-25T14:43:05Z</time>
      </trkpt>
      <trkpt lat="42.99983" lon="-0.10872">
        <ele>550</ele>
        <time>2018-06-25T14:47:05Z</time>
      </trkpt>
      <trkpt lat="42.99969" lon="-0.10871">
        <ele>547</ele>
        <time>2018-06-25T14:48:05Z</time>
      </trkpt>
      <trkpt lat="42.9995" lon="-0.10872">
        <ele>545</ele>
        <time>2018-06-25T14:50:05Z</time>
      </trkpt>
      <trkpt lat="42.99926" lon="-0.109">
        <ele>548</ele>
        <time>2018-06-25T14:57:05Z</time>
      </trkpt>
      <trkpt lat="42.99917" lon="-0.10972">
        <ele>552</ele>
        <time>2018-06-25T15:00:05Z</time>
      </trkpt>
      <trkpt lat="42.99915" lon="-0.11032">
        <ele>557</ele>
        <time>2018-06-25T15:02:05Z</time>
      </trkpt>
      <trkpt lat="42.99912" lon="-0.11075">
        <ele>561</ele>
        <time>2018-06-25T15:04:05Z</time>
      </trkpt>
      <trkpt lat="42.99908" lon="-0.11103">
        <ele>564</ele>
        <time>2018-06-25T15:05:05Z</time>
      </trkpt>
      <trkpt lat="42.99907" lon="-0.11124">
        <ele>567</ele>
        <time>2018-06-25T15:07:05Z</time>
      </trkpt>
      <trkpt lat="42.99908" lon="-0.11138">
        <ele>571</ele>
        <time>2018-06-25T15:09:05Z</time>
      </trkpt>
      <trkpt lat="42.99912" lon="-0.11148">
        <ele>574</ele>
        <time>2018-06-25T15:12:05Z</time>
      </trkpt>
      <trkpt lat="42.99918" lon="-0.11153">
        <ele>578</ele>
        <time>2018-06-25T15:14:05Z</time>
      </trkpt>
      <trkpt lat="42.99922" lon="-0.11158">
        <ele>581</ele>
        <time>2018-06-25T15:15:05Z</time>
      </trkpt>
      <trkpt lat="42.99925" lon="-0.11163">
        <ele>584</ele>
        <time>2018-06-25T15:17:05Z</time>
      </trkpt>
      <trkpt lat="42.99929" lon="-0.11174">
        <ele>588</ele>
        <time>2018-06-25T15:19:05Z</time>
      </trkpt>
      <trkpt lat="42.99929" lon="-0.11193">
        <ele>592</ele>
        <time>2018-06-25T15:21:05Z</time>
      </trkpt>
      <trkpt lat="42.99927" lon="-0.11202">
        <ele>592</ele>
        <time>2018-06-25T15:22:05Z</time>
      </trkpt>
      <trkpt lat="42.99881" lon="-0.11287">
        <ele>588</ele>
        <time>2018-06-25T15:25:05Z</time>
      </trkpt>
      <trkpt lat="42.99868" lon="-0.11317">
        <ele>587</ele>
        <time>2018-06-25T15:27:05Z</time>
      </trkpt>
      <trkpt lat="42.99863" lon="-0.1139">
        <ele>592</ele>
        <time>2018-06-25T15:31:05Z</time>
      </trkpt>
      <trkpt lat="42.99863" lon="-0.11426">
        <ele>595</ele>
        <time>2018-06-25T15:33:05Z</time>
      </trkpt>
      <trkpt lat="42.99858" lon="-0.11445">
        <ele>595</ele>
        <time>2018-06-25T15:34:05Z</time>
      </trkpt>
      <trkpt lat="42.99846" lon="-0.1152">
        <ele>599</ele>
        <time>2018-06-25T15:37:05Z</time>
      </trkpt>
      <trkpt lat="42.99847" lon="-0.11534">
        <ele>602</ele>
        <time>2018-06-25T15:38:05Z</time>
      </trkpt>
      <trkpt lat="42.99844" lon="-0.11564">
        <ele>605</ele>
        <time>2018-06-25T15:40:05Z</time>
      </trkpt>
      <trkpt lat="42.99834" lon="-0.116">
        <ele>608</ele>
        <time>2018-06-25T15:42:05Z</time>
      </trkpt>
      <trkpt lat="42.99815" lon="-0.11643">
        <ele>613</ele>
        <time>2018-06-25T15:44:05Z</time>
      </trkpt>
      <trkpt lat="42.99781" lon="-0.11694">
        <ele>616</ele>
        <time>2018-06-25T15:47:05Z</time>
      </trkpt>
      <trkpt lat="42.99768" lon="-0.11707">
        <ele>616</ele>
        <time>2018-06-25T15:48:05Z</time>
      </trkpt>
      <trkpt lat="42.99698" lon="-0.1174">
        <ele>621</ele>
        <time>2018-06-25T15:51:05Z</time>
      </trkpt>
      <trkpt lat="42.99647" lon="-0.11757">
        <ele>626</ele>
        <time>2018-06-25T15:52:05Z</time>
      </trkpt>
      <trkpt lat="42.99609" lon="-0.11767">
        <ele>629</ele>
        <time>2018-06-25T15:53:05Z</time>
      </trkpt>
      <trkpt lat="42.99561" lon="-0.11776">
        <ele>629</ele>
        <time>2018-06-25T15:57:05Z</time>
      </trkpt>
      <trkpt lat="42.99546" lon="-0.11782">
        <ele>628</ele>
        <time>2018-06-25T15:59:05Z</time>
      </trkpt>
      <trkpt lat="42.99523" lon="-0.11816">
        <ele>631</ele>
        <time>2018-06-25T16:03:05Z</time>
      </trkpt>
      <trkpt lat="42.99511" lon="-0.11839">
        <ele>633</ele>
        <time>2018-06-25T16:06:05Z</time>
      </trkpt>
      <trkpt lat="42.99498" lon="-0.11909">
        <ele>638</ele>
        <time>2018-06-25T16:10:05Z</time>
      </trkpt>
      <trkpt lat="42.99494" lon="-0.11953">
        <ele>641</ele>
        <time>2018-06-25T16:12:05Z</time>
      </trkpt>
      <trkpt lat="42.99488" lon="-0.12002">
        <ele>644</ele>
        <time>2018-06-25T16:13:05Z</time>
      </trkpt>
      <trkpt lat="42.99488" lon="-0.1201">
        <ele>644</ele>
        <time>2018-06-25T16:14:05Z</time>
      </trkpt>
      <trkpt lat="42.99491" lon="-0.12028">
        <ele>646</ele>
        <time>2018-06-25T16:17:05Z</time>
      </trkpt>
      <trkpt lat="42.99499" lon="-0.12059">
        <ele>650</ele>
        <time>2018-06-25T16:19:05Z</time>
      </trkpt>
      <trkpt lat="42.99508" lon="-0.12089">
        <ele>654</ele>
        <time>2018-06-25T16:21:05Z</time>
      </trkpt>
      <trkpt lat="42.99513" lon="-0.12113">
        <ele>657</ele>
        <time>2018-06-25T16:24:05Z</time>
      </trkpt>
      <trkpt lat="42.99511" lon="-0.12142">
        <ele>658</ele>
        <time>2018-06-25T16:26:05Z</time>
      </trkpt>
      <trkpt lat="42.99494" lon="-0.12217">
        <ele>665</ele>
        <time>2018-06-25T16:28:05Z</time>
      </trkpt>
      <trkpt lat="42.99486" lon="-0.1225">
        <ele>669</ele>
        <time>2018-06-25T16:29:05Z</time>
      </trkpt>
      <trkpt lat="42.99474" lon="-0.12294">
        <ele>673</ele>
        <time>2018-06-25T16:30:05Z</time>
      </trkpt>
      <trkpt lat="42.99451" lon="-0.1235">
        <ele>676</ele>
        <time>2018-06-25T16:33:05Z</time>
      </trkpt>
      <trkpt lat="42.99443" lon="-0.12367">
        <ele>676</ele>
        <time>2018-06-25T16:34:05Z</time>
      </trkpt>
      <trkpt lat="42.99344" lon="-0.12468">
        <ele>683</ele>
        <time>2018-06-25T16:40:05Z</time>
      </trkpt>
      <trkpt lat="42.99291" lon="-0.12536">
        <ele>688</ele>
        <time>2018-06-25T16:42:05Z</time>
      </trkpt>
      <trkpt lat="42.99277" lon="-0.12577">
        <ele>692</ele>
        <time>2018-06-25T16:44:05Z</time>
      </trkpt>
      <trkpt lat="42.99273" lon="-0.12607">
        <ele>693</ele>
        <time>2018-06-25T16:46:05Z</time>
      </trkpt>
      <trkpt lat="42.99264" lon="-0.1266">
        <ele>696</ele>
        <time>2018-06-25T16:48:05Z</time>
      </trkpt>
      <trkpt lat="42.99261" lon="-0.12672">
        <ele>696</ele>
        <time>2018-06-25T16:49:05Z</time>
      </trkpt>
      <trkpt lat="42.99217" lon="-0.12772">
        <ele>699</ele>
        <time>2018-06-25T16:53:05Z</time>
      </trkpt>
      <trkpt lat="42.99199" lon="-0.12812">
        <ele>702</ele>
        <time>2018-06-25T16:56:05Z</time>
      </trkpt>
      <trkpt lat="42.99191" lon="-0.12845">
        <ele>705</ele>
        <time>2018-06-25T16:58:05Z</time>
      </trkpt>
      <trkpt lat="42.99181" lon="-0.12911">
        <ele>711</ele>
        <time>2018-06-25T16:59:05Z</time>
      </trkpt>
      <trkpt lat="42.99179" lon="-0.1292">
        <ele>712</ele>
        <time>2018-06-25T17:01:05Z</time>
      </trkpt>
      <trkpt lat="42.99169" lon="-0.12953">
        <ele>714</ele>
        <time>2018-06-25T17:04:05Z</time>
      </trkpt>
      <trkpt lat="42.99113" lon="-0.13035">
        <ele>716</ele>
        <time>2018-06-25T17:07:05Z</time>
      </trkpt>
      <trkpt lat="42.99036" lon="-0.13122">
        <ele>716</ele>
        <time>2018-06-25T17:13:05Z</time>
      </trkpt>
      <trkpt lat="42.99006" lon="-0.13172">
        <ele>719</ele>
        <time>2018-06-25T17:17:05Z</time>
      </trkpt>
      <trkpt lat="42.99002" lon="-0.1319">
        <ele>720</ele>
        <time>2018-06-25T17:19:05Z</time>
      </trkpt>
      <trkpt lat="42.98998" lon="-0.13214">
        <ele>722</ele>
        <time>2018-06-25T17:22:05Z</time>
      </trkpt>
      <trkpt lat="42.98985" lon="-0.13249">
        <ele>725</ele>
        <time>2018-06-25T17:25:05Z</time>
      </trkpt>
      <trkpt lat="42.98977" lon="-0.13261">
        <ele>725</ele>
        <time>2018-06-25T17:26:05Z</time>
      </trkpt>
      <trkpt lat="42.98927" lon="-0.1332">
        <ele>725</ele>
        <time>2018-06-25T17:30:05Z</time>
      </trkpt>
      <trkpt lat="42.98883" lon="-0.13431">
        <ele>728</ele>
        <time>2018-06-25T17:35:05Z</time>
      </trkpt>
      <trkpt lat="42.98858" lon="-0.13476">
        <ele>729</ele>
        <time>2018-06-25T17:37:05Z</time>
      </trkpt>
      <trkpt lat="42.98806" lon="-0.13629">
        <ele>732</ele>
        <time>2018-06-25T17:43:05Z</time>
      </trkpt>
      <trkpt lat="42.98792" lon="-0.13672">
        <ele>733</ele>
        <time>2018-06-25T17:45:05Z</time>
      </trkpt>
      <trkpt lat="42.98772" lon="-0.13724">
        <ele>736</ele>
        <time>2018-06-25T17:46:05Z</time>
      </trkpt>
      <trkpt lat="42.98706" lon="-0.13884">
        <ele>738</ele>
        <time>2018-06-25T17:49:05Z</time>
      </trkpt>
      <trkpt lat="42.98654" lon="-0.14022">
        <ele>743</ele>
        <time>2018-06-25T17:53:05Z</time>
      </trkpt>
      <trkpt lat="42.98637" lon="-0.14066">
        <ele>747</ele>
        <time>2018-06-25T17:54:05Z</time>
      </trkpt>
      <trkpt lat="42.98573" lon="-0.14217">
        <ele>750</ele>
        <time>2018-06-25T17:57:05Z</time>
      </trkpt>
      <trkpt lat="42.98552" lon="-0.14284">
        <ele>754</ele>
        <time>2018-06-25T17:58:05Z</time>
      </trkpt>
      <trkpt lat="42.98537" lon="-0.14349">
        <ele>758</ele>
        <time>2018-06-25T18:00:05Z</time>
      </trkpt>
      <trkpt lat="42.98518" lon="-0.14392">
        <ele>758</ele>
        <time>2018-06-25T18:01:05Z</time>
      </trkpt>
      <trkpt lat="42.98509" lon="-0.14406">
        <ele>758</ele>
        <time>2018-06-25T18:02:05Z</time>
      </trkpt>
      <trkpt lat="42.98461" lon="-0.14472">
        <ele>762</ele>
        <time>2018-06-25T18:03:05Z</time>
      </trkpt>
      <trkpt lat="42.98438" lon="-0.14506">
        <ele>765</ele>
        <time>2018-06-25T18:05:05Z</time>
      </trkpt>
      <trkpt lat="42.98411" lon="-0.14541">
        <ele>764</ele>
        <time>2018-06-25T18:06:05Z</time>
      </trkpt>
      <trkpt lat="42.98375" lon="-0.14605">
        <ele>760</ele>
        <time>2018-06-25T18:08:05Z</time>
      </trkpt>
      <trkpt lat="42.98367" lon="-0.14633">
        <ele>759</ele>
        <time>2018-06-25T18:10:05Z</time>
      </trkpt>
      <trkpt lat="42.98352" lon="-0.14784">
        <ele>762</ele>
        <time>2018-06-25T18:14:05Z</time>
      </trkpt>
      <trkpt lat="42.98341" lon="-0.14839">
        <ele>763</ele>
        <time>2018-06-25T18:16:05Z</time>
      </trkpt>
      <trkpt lat="42.98298" lon="-0.14945">
        <ele>761</ele>
        <time>2018-06-25T18:19:05Z</time>
      </trkpt>
      <trkpt lat="42.98276" lon="-0.15027">
        <ele>764</ele>
        <time>2018-06-25T18:22:05Z</time>
      </trkpt>
      <trkpt lat="42.98254" lon="-0.15126">
        <ele>770</ele>
        <time>2018-06-25T18:23:05Z</time>
      </trkpt>
      <trkpt lat="42.98246" lon="-0.15155">
        <ele>770</ele>
        <time>2018-06-25T18:24:05Z</time>
      </trkpt>
      <trkpt lat="42.98191" lon="-0.15263">
        <ele>774</ele>
        <time>2018-06-25T18:27:05Z</time>
      </trkpt>
      <trkpt lat="42.98161" lon="-0.15317">
        <ele>777</ele>
        <time>2018-06-25T18:29:05Z</time>
      </trkpt>
      <trkpt lat="42.98139" lon="-0.15356">
        <ele>776</ele>
        <time>2018-06-25T18:30:05Z</time>
      </trkpt>
      <trkpt lat="42.9809" lon="-0.15457">
        <ele>779</ele>
        <time>2018-06-25T18:34:05Z</time>
      </trkpt>
      <trkpt lat="42.98081" lon="-0.15493">
        <ele>782</ele>
        <time>2018-06-25T18:35:05Z</time>
      </trkpt>
      <trkpt lat="42.98051" lon="-0.15633">
        <ele>786</ele>
        <time>2018-06-25T18:36:05Z</time>
      </trkpt>
      <trkpt lat="42.98049" lon="-0.15644">
        <ele>786</ele>
        <time>2018-06-25T18:37:05Z</time>
      </trkpt>
      <trkpt lat="42.98021" lon="-0.1577">
        <ele>794</ele>
        <time>2018-06-25T18:38:05Z</time>
      </trkpt>
      <trkpt lat="42.98015" lon="-0.15801">
        <ele>797</ele>
        <time>2018-06-25T18:39:05Z</time>
      </trkpt>
      <trkpt lat="42.98005" lon="-0.15853">
        <ele>802</ele>
        <time>2018-06-25T18:40:05Z</time>
      </trkpt>
      <trkpt lat="42.97993" lon="-0.15902">
        <ele>805</ele>
        <time>2018-06-25T18:42:05Z</time>
      </trkpt>
      <trkpt lat="42.9798" lon="-0.15954">
        <ele>808</ele>
        <time>2018-06-25T18:44:05Z</time>
      </trkpt>
      <trkpt lat="42.9797" lon="-0.16058">
        <ele>814</ele>
        <time>2018-06-25T18:47:05Z</time>
      </trkpt>
      <trkpt lat="42.97969" lon="-0.16063">
        <ele>814</ele>
        <time>2018-06-25T18:48:05Z</time>
      </trkpt>
      <trkpt lat="42.97962" lon="-0.16167">
        <ele>818</ele>
        <time>2018-06-25T18:49:05Z</time>
      </trkpt>
      <trkpt lat="42.97958" lon="-0.16232">
        <ele>821</ele>
        <time>2018-06-25T18:51:05Z</time>
      </trkpt>
      <trkpt lat="42.97959" lon="-0.16247">
        <ele>821</ele>
        <time>2018-06-25T18:52:05Z</time>
      </trkpt>
      <trkpt lat="42.97971" lon="-0.16324">
        <ele>824</ele>
        <time>2018-06-25T18:54:05Z</time>
      </trkpt>
      <trkpt lat="42.97975" lon="-0.16361">
        <ele>825</ele>
        <time>2018-06-25T18:56:05Z</time>
      </trkpt>
      <trkpt lat="42.97967" lon="-0.16501">
        <ele>829</ele>
        <time>2018-06-25T19:00:05Z</time>
      </trkpt>
      <trkpt lat="42.97965" lon="-0.16536">
        <ele>832</ele>
        <time>2018-06-25T19:02:05Z</time>
      </trkpt>
      <trkpt lat="42.97966" lon="-0.16544">
        <ele>832</ele>
        <time>2018-06-25T19:03:05Z</time>
      </trkpt>
      <trkpt lat="42.97972" lon="-0.16585">
        <ele>837</ele>
        <time>2018-06-25T19:05:05Z</time>
      </trkpt>
      <trkpt lat="42.97975" lon="-0.16632">
        <ele>838</ele>
        <time>2018-06-25T19:07:05Z</time>
      </trkpt>
      <trkpt lat="42.97982" lon="-0.16768">
        <ele>841</ele>
        <time>2018-06-25T19:12:05Z</time>
      </trkpt>
      <trkpt lat="42.97981" lon="-0.16785">
        <ele>842</ele>
        <time>2018-06-25T19:14:05Z</time>
      </trkpt>
      <trkpt lat="42.97946" lon="-0.16907">
        <ele>844</ele>
        <time>2018-06-25T19:21:05Z</time>
      </trkpt>
      <trkpt lat="42.97923" lon="-0.16956">
        <ele>841</ele>
        <time>2018-06-25T19:25:05Z</time>
      </trkpt>
      <trkpt lat="42.9791" lon="-0.16982">
        <ele>840</ele>
        <time>2018-06-25T19:27:05Z</time>
      </trkpt>
      <trkpt lat="42.97896" lon="-0.17088">
        <ele>838</ele>
        <time>2018-06-25T19:37:05Z</time>
      </trkpt>
      <trkpt lat="42.97877" lon="-0.1713">
        <ele>834</ele>
        <time>2018-06-25T19:39:05Z</time>
      </trkpt>
      <trkpt lat="42.97864" lon="-0.17158">
        <ele>831</ele>
        <time>2018-06-25T19:40:05Z</time>
      </trkpt>
      <trkpt lat="42.97845" lon="-0.17195">
        <ele>830</ele>
        <time>2018-06-25T19:42:05Z</time>
      </trkpt>
      <trkpt lat="42.97828" lon="-0.17245">
        <ele>834</ele>
        <time>2018-06-25T19:45:05Z</time>
      </trkpt>
      <trkpt lat="42.97826" lon="-0.17254">
        <ele>834</ele>
        <time>2018-06-25T19:46:05Z</time>
      </trkpt>
      <trkpt lat="42.97822" lon="-0.17399">
        <ele>832</ele>
        <time>2018-06-25T19:52:05Z</time>
      </trkpt>
      <trkpt lat="42.97824" lon="-0.17426">
        <ele>831</ele>
        <time>2018-06-25T19:54:05Z</time>
      </trkpt>
      <trkpt lat="42.97828" lon="-0.17519">
        <ele>831</ele>
        <time>2018-06-25T19:58:05Z</time>
      </trkpt>
      <trkpt lat="42.97831" lon="-0.17608">
        <ele>834</ele>
        <time>2018-06-25T20:03:05Z</time>
      </trkpt>
      <trkpt lat="42.97828" lon="-0.17648">
        <ele>835</ele>
        <time>2018-06-25T20:05:05Z</time>
      </trkpt>
      <trkpt lat="42.97808" lon="-0.17706">
        <ele>837</ele>
        <time>2018-06-25T20:08:05Z</time>
      </trkpt>
      <trkpt lat="42.97784" lon="-0.17797">
        <ele>837</ele>
        <time>2018-06-25T20:15:05Z</time>
      </trkpt>
      <trkpt lat="42.97756" lon="-0.17945">
        <ele>838</ele>
        <time>2018-06-25T20:21:05Z</time>
      </trkpt>
      <trkpt lat="42.97747" lon="-0.1803">
        <ele>841</ele>
        <time>2018-06-25T20:24:05Z</time>
      </trkpt>
      <trkpt lat="42.97746" lon="-0.1804">
        <ele>841</ele>
        <time>2018-06-25T20:25:05Z</time>
      </trkpt>
      <trkpt lat="42.97706" lon="-0.18133">
        <ele>842</ele>
        <time>2018-06-25T20:30:05Z</time>
      </trkpt>
      <trkpt lat="42.97692" lon="-0.18162">
        <ele>842</ele>
        <time>2018-06-25T20:32:05Z</time>
      </trkpt>
      <trkpt lat="42.97651" lon="-0.18252">
        <ele>844</ele>
        <time>2018-06-25T20:34:05Z</time>
      </trkpt>
      <trkpt lat="42.97647" lon="-0.18264">
        <ele>844</ele>
        <time>2018-06-25T20:35:05Z</time>
      </trkpt>
      <trkpt lat="42.97628" lon="-0.1833">
        <ele>847</ele>
        <time>2018-06-25T20:39:05Z</time>
      </trkpt>
      <trkpt lat="42.97622" lon="-0.18349">
        <ele>847</ele>
        <time>2018-06-25T20:40:05Z</time>
      </trkpt>
      <trkpt lat="42.97589" lon="-0.18446">
        <ele>844</ele>
        <time>2018-06-25T20:45:05Z</time>
      </trkpt>
      <trkpt lat="42.97585" lon="-0.18462">
        <ele>844</ele>
        <time>2018-06-25T20:46:05Z</time>
      </trkpt>
      <trkpt lat="42.97518" lon="-0.18586">
        <ele>846</ele>
        <time>2018-06-25T20:53:05Z</time>
      </trkpt>
      <trkpt lat="42.97498" lon="-0.1865">
        <ele>849</ele>
        <time>2018-06-25T21:00:05Z</time>
      </trkpt>
      <trkpt lat="42.97496" lon="-0.1867">
        <ele>850</ele>
        <time>2018-06-25T21:02:05Z</time>
      </trkpt>
      <trkpt lat="42.97456" lon="-0.18759">
        <ele>851</ele>
        <time>2018-06-25T21:15:05Z</time>
      </trkpt>
      <trkpt lat="42.97476" lon="-0.18882">
        <ele>854</ele>
        <time>2018-06-25T21:23:05Z</time>
      </trkpt>
      <trkpt lat="42.9748" lon="-0.18901">
        <ele>855</ele>
        <time>2018-06-25T21:25:05Z</time>
      </trkpt>
      <trkpt lat="42.97481" lon="-0.18944">
        <ele>858</ele>
        <time>2018-06-25T21:29:05Z</time>
      </trkpt>
      <trkpt lat="42.97477" lon="-0.18963">
        <ele>859</ele>
        <time>2018-06-25T21:31:05Z</time>
      </trkpt>
      <trkpt lat="42.9746" lon="-0.19036">
        <ele>863</ele>
        <time>2018-06-25T21:35:05Z</time>
      </trkpt>
      <trkpt lat="42.97459" lon="-0.19044">
        <ele>863</ele>
        <time>2018-06-25T21:36:05Z</time>
      </trkpt>
      <trkpt lat="42.97455" lon="-0.1908">
        <ele>866</ele>
        <time>2018-06-25T21:38:05Z</time>
      </trkpt>
      <trkpt lat="42.97453" lon="-0.19085">
        <ele>866</ele>
        <time>2018-06-25T21:39:05Z</time>
      </trkpt>
      <trkpt lat="42.97401" lon="-0.19208">
        <ele>868</ele>
        <time>2018-06-25T21:43:05Z</time>
      </trkpt>
      <trkpt lat="42.97377" lon="-0.19242">
        <ele>871</ele>
        <time>2018-06-25T21:46:05Z</time>
      </trkpt>
      <trkpt lat="42.97338" lon="-0.19286">
        <ele>872</ele>
        <time>2018-06-25T21:48:05Z</time>
      </trkpt>
      <trkpt lat="42.97308" lon="-0.19349">
        <ele>871</ele>
        <time>2018-06-25T21:57:05Z</time>
      </trkpt>
      <trkpt lat="42.97276" lon="-0.19456">
        <ele>869</ele>
        <time>2018-06-25T22:03:05Z</time>
      </trkpt>
      <trkpt lat="42.97254" lon="-0.19497">
        <ele>867</ele>
        <time>2018-06-25T22:06:05Z</time>
      </trkpt>
      <trkpt lat="42.97279" lon="-0.19536">
        <ele>871</ele>
        <time>2018-06-25T22:09:05Z</time>
      </trkpt>
      <trkpt lat="42.97279" lon="-0.19536">
        <ele>871</ele>
        <time>2018-06-25T22:10:05Z</time>
      </trkpt>
      <trkpt lat="42.97249" lon="-0.1962">
        <ele>870</ele>
        <time>2018-06-25T22:14:05Z</time>
      </trkpt>
    </trkseg>
  </trk>
</gpx>